<?xml version='1.0' encoding='UTF-8'?><gpx version="1.1" creator="JPX - https://github.com/jenetics/jpx" xmlns="http://www.topografix.com/GPX/1/1"><trk><trkseg><trkpt lat="45.4433177" lon="10.4546951"><ele>127.0</ele><time>2026-05-02T11:35:47.014Z</time></trkpt><trkpt lat="45.4433789" lon="10.4548286"><ele>126.99999999999999</ele><time>2026-05-02T11:35:49.012Z</time></trkpt><trkpt lat="45.4434127" lon="10.454922"><ele>126.99999999999999</ele><time>2026-05-02T11:35:50.013Z</time></trkpt><trkpt lat="45.4434566" lon="10.4550423"><ele>127.0</ele><time>2026-05-02T11:35:51.012Z</time></trkpt><trkpt lat="45.4435107" lon="10.455188"><ele>127.0</ele><time>2026-05-02T11:35:52.013Z</time></trkpt><trkpt lat="45.4435688" lon="10.4553434"><ele>127.0</ele><time>2026-05-02T11:35:53.012Z</time></trkpt><trkpt lat="45.443632" lon="10.45551"><ele>127.0</ele><time>2026-05-02T11:35:54.012Z</time></trkpt><trkpt lat="45.4436968" lon="10.4556883"><ele>127.0</ele><time>2026-05-02T11:35:55.013Z</time></trkpt><trkpt lat="45.4437672" lon="10.4558747"><ele>127.0</ele><time>2026-05-02T11:35:56.012Z</time></trkpt><trkpt lat="45.4438384" lon="10.4560662"><ele>127.25</ele><time>2026-05-02T11:35:57.012Z</time></trkpt><trkpt lat="45.443909" lon="10.4562534"><ele>127.5</ele><time>2026-05-02T11:35:58.012Z</time></trkpt><trkpt lat="45.4439741" lon="10.4564276"><ele>127.75</ele><time>2026-05-02T11:35:59.013Z</time></trkpt><trkpt lat="45.4440435" lon="10.4565949"><ele>128.0</ele><time>2026-05-02T11:36:00.012Z</time></trkpt><trkpt lat="45.4441128" lon="10.4567537"><ele>128.0</ele><time>2026-05-02T11:36:01.013Z</time></trkpt><trkpt lat="45.4441739" lon="10.456891"><ele>128.0</ele><time>2026-05-02T11:36:02.012Z</time></trkpt><trkpt lat="45.4442271" lon="10.4570098"><ele>128.0</ele><time>2026-05-02T11:36:03.012Z</time></trkpt><trkpt lat="45.4442754" lon="10.4571157"><ele>128.0</ele><time>2026-05-02T11:36:04.012Z</time></trkpt><trkpt lat="45.4443194" lon="10.4572225"><ele>128.0</ele><time>2026-05-02T11:36:05.012Z</time></trkpt><trkpt lat="45.4443502" lon="10.4573387"><ele>128.14285714285714</ele><time>2026-05-02T11:36:06.012Z</time></trkpt><trkpt lat="45.444368" lon="10.4574553"><ele>128.28571428571428</ele><time>2026-05-02T11:36:07.013Z</time></trkpt><trkpt lat="45.4443972" lon="10.4575524"><ele>128.42857142857142</ele><time>2026-05-02T11:36:08.012Z</time></trkpt><trkpt lat="45.4444397" lon="10.4576323"><ele>128.57142857142856</ele><time>2026-05-02T11:36:09.013Z</time></trkpt><trkpt lat="45.4444979" lon="10.4576749"><ele>128.71428571428572</ele><time>2026-05-02T11:36:10.013Z</time></trkpt><trkpt lat="45.444561" lon="10.4576802"><ele>128.85714285714283</ele><time>2026-05-02T11:36:11.012Z</time></trkpt><trkpt lat="45.4446246" lon="10.457646"><ele>129.0</ele><time>2026-05-02T11:36:12.013Z</time></trkpt><trkpt lat="45.4446775" lon="10.4575786"><ele>129.0</ele><time>2026-05-02T11:36:13.014Z</time></trkpt><trkpt lat="45.4447048" lon="10.4574946"><ele>129.0</ele><time>2026-05-02T11:36:14.014Z</time></trkpt><trkpt lat="45.4446742" lon="10.4573213"><ele>129.0</ele><time>2026-05-02T11:36:16.013Z</time></trkpt><trkpt lat="45.4446166" lon="10.4572541"><ele>129.0</ele><time>2026-05-02T11:36:17.012Z</time></trkpt><trkpt lat="45.4445368" lon="10.4571993"><ele>129.0</ele><time>2026-05-02T11:36:18.013Z</time></trkpt><trkpt lat="45.4444463" lon="10.4571543"><ele>129.0</ele><time>2026-05-02T11:36:19.012Z</time></trkpt><trkpt lat="45.4443559" lon="10.4570821"><ele>128.75</ele><time>2026-05-02T11:36:20.012Z</time></trkpt><trkpt lat="45.4442754" lon="10.4569728"><ele>128.5</ele><time>2026-05-02T11:36:21.012Z</time></trkpt><trkpt lat="45.4442012" lon="10.4568357"><ele>128.25</ele><time>2026-05-02T11:36:22.012Z</time></trkpt><trkpt lat="45.4441284" lon="10.4566818"><ele>128.0</ele><time>2026-05-02T11:36:23.012Z</time></trkpt><trkpt lat="45.4440566" lon="10.4565156"><ele>128.0</ele><time>2026-05-02T11:36:24.012Z</time></trkpt><trkpt lat="45.4439851" lon="10.4563309"><ele>128.0</ele><time>2026-05-02T11:36:25.012Z</time></trkpt><trkpt lat="45.4439098" lon="10.456135"><ele>128.0</ele><time>2026-05-02T11:36:26.012Z</time></trkpt><trkpt lat="45.4438322" lon="10.4559274"><ele>127.66666666666666</ele><time>2026-05-02T11:36:27.013Z</time></trkpt><trkpt lat="45.4437534" lon="10.4557115"><ele>127.33333333333334</ele><time>2026-05-02T11:36:28.012Z</time></trkpt><trkpt lat="45.4436732" lon="10.4554922"><ele>127.0</ele><time>2026-05-02T11:36:29.012Z</time></trkpt><trkpt lat="45.4435897" lon="10.4552657"><ele>127.0</ele><time>2026-05-02T11:36:30.013Z</time></trkpt><trkpt lat="45.4435045" lon="10.4550312"><ele>127.0</ele><time>2026-05-02T11:36:31.013Z</time></trkpt><trkpt lat="45.4434148" lon="10.4547925"><ele>127.0</ele><time>2026-05-02T11:36:32.013Z</time></trkpt><trkpt lat="45.443324" lon="10.4545501"><ele>127.0</ele><time>2026-05-02T11:36:33.012Z</time></trkpt><trkpt lat="45.4432301" lon="10.4543039"><ele>127.0</ele><time>2026-05-02T11:36:34.012Z</time></trkpt><trkpt lat="45.4431381" lon="10.4540598"><ele>127.0</ele><time>2026-05-02T11:36:35.013Z</time></trkpt><trkpt lat="45.4430466" lon="10.4538171"><ele>125.33333333333334</ele><time>2026-05-02T11:36:36.012Z</time></trkpt><trkpt lat="45.4429534" lon="10.4535712"><ele>123.66666666666666</ele><time>2026-05-02T11:36:37.012Z</time></trkpt><trkpt lat="45.4428624" lon="10.4533263"><ele>122.0</ele><time>2026-05-02T11:36:38.012Z</time></trkpt><trkpt lat="45.4427695" lon="10.4530774"><ele>122.33333333333333</ele><time>2026-05-02T11:36:39.013Z</time></trkpt><trkpt lat="45.4426742" lon="10.4528288"><ele>122.66666666666666</ele><time>2026-05-02T11:36:40.012Z</time></trkpt><trkpt lat="45.4425778" lon="10.4525791"><ele>123.0</ele><time>2026-05-02T11:36:41.012Z</time></trkpt><trkpt lat="45.4424831" lon="10.4523246"><ele>123.0</ele><time>2026-05-02T11:36:42.012Z</time></trkpt><trkpt lat="45.4423859" lon="10.4520703"><ele>123.0</ele><time>2026-05-02T11:36:43.012Z</time></trkpt><trkpt lat="45.4422865" lon="10.4518158"><ele>123.0</ele><time>2026-05-02T11:36:44.013Z</time></trkpt><trkpt lat="45.4421897" lon="10.4515612"><ele>123.33333333333334</ele><time>2026-05-02T11:36:45.013Z</time></trkpt><trkpt lat="45.4420924" lon="10.4513061"><ele>123.66666666666667</ele><time>2026-05-02T11:36:46.013Z</time></trkpt><trkpt lat="45.4419949" lon="10.4510562"><ele>124.0</ele><time>2026-05-02T11:36:47.013Z</time></trkpt><trkpt lat="45.4418966" lon="10.4508022"><ele>124.0</ele><time>2026-05-02T11:36:48.013Z</time></trkpt><trkpt lat="45.4417965" lon="10.4505479"><ele>124.0</ele><time>2026-05-02T11:36:49.012Z</time></trkpt><trkpt lat="45.4416972" lon="10.4502937"><ele>124.0</ele><time>2026-05-02T11:36:50.012Z</time></trkpt><trkpt lat="45.4415977" lon="10.4500386"><ele>124.0</ele><time>2026-05-02T11:36:51.013Z</time></trkpt><trkpt lat="45.4415022" lon="10.4497857"><ele>124.0</ele><time>2026-05-02T11:36:52.013Z</time></trkpt><trkpt lat="45.441407" lon="10.4495332"><ele>124.0</ele><time>2026-05-02T11:36:53.013Z</time></trkpt><trkpt lat="45.44131" lon="10.4492824"><ele>123.33333333333334</ele><time>2026-05-02T11:36:54.013Z</time></trkpt><trkpt lat="45.441216" lon="10.4490334"><ele>122.66666666666666</ele><time>2026-05-02T11:36:55.013Z</time></trkpt><trkpt lat="45.4411169" lon="10.4487832"><ele>122.0</ele><time>2026-05-02T11:36:56.013Z</time></trkpt><trkpt lat="45.4410167" lon="10.4485322"><ele>121.66666666666666</ele><time>2026-05-02T11:36:57.012Z</time></trkpt><trkpt lat="45.4409175" lon="10.4482803"><ele>121.33333333333334</ele><time>2026-05-02T11:36:58.012Z</time></trkpt><trkpt lat="45.4408222" lon="10.4480235"><ele>121.0</ele><time>2026-05-02T11:36:59.013Z</time></trkpt><trkpt lat="45.4407258" lon="10.4477663"><ele>120.66666666666667</ele><time>2026-05-02T11:37:00.012Z</time></trkpt><trkpt lat="45.4406292" lon="10.4475079"><ele>120.33333333333334</ele><time>2026-05-02T11:37:01.012Z</time></trkpt><trkpt lat="45.4405298" lon="10.4472503"><ele>120.0</ele><time>2026-05-02T11:37:02.012Z</time></trkpt><trkpt lat="45.440432" lon="10.4469914"><ele>120.0</ele><time>2026-05-02T11:37:03.013Z</time></trkpt><trkpt lat="45.4403337" lon="10.446734"><ele>120.0</ele><time>2026-05-02T11:37:04.014Z</time></trkpt><trkpt lat="45.4402329" lon="10.446475"><ele>120.0</ele><time>2026-05-02T11:37:05.012Z</time></trkpt><trkpt lat="45.440134" lon="10.4462168"><ele>120.0</ele><time>2026-05-02T11:37:06.012Z</time></trkpt><trkpt lat="45.440036" lon="10.4459585"><ele>120.0</ele><time>2026-05-02T11:37:07.012Z</time></trkpt><trkpt lat="45.4399386" lon="10.4457027"><ele>120.0</ele><time>2026-05-02T11:37:08.012Z</time></trkpt><trkpt lat="45.439842" lon="10.4454487"><ele>120.0</ele><time>2026-05-02T11:37:09.012Z</time></trkpt><trkpt lat="45.4397432" lon="10.4451958"><ele>120.0</ele><time>2026-05-02T11:37:10.012Z</time></trkpt><trkpt lat="45.4396456" lon="10.4449461"><ele>120.0</ele><time>2026-05-02T11:37:11.014Z</time></trkpt><trkpt lat="45.4395491" lon="10.4446928"><ele>120.66666666666666</ele><time>2026-05-02T11:37:12.013Z</time></trkpt><trkpt lat="45.4394535" lon="10.4444388"><ele>121.33333333333333</ele><time>2026-05-02T11:37:13.013Z</time></trkpt><trkpt lat="45.4393565" lon="10.4441826"><ele>122.0</ele><time>2026-05-02T11:37:14.013Z</time></trkpt><trkpt lat="45.4392594" lon="10.4439232"><ele>120.66666666666666</ele><time>2026-05-02T11:37:15.013Z</time></trkpt><trkpt lat="45.4391604" lon="10.443663"><ele>119.33333333333334</ele><time>2026-05-02T11:37:16.012Z</time></trkpt><trkpt lat="45.4390607" lon="10.4434019"><ele>118.0</ele><time>2026-05-02T11:37:17.013Z</time></trkpt><trkpt lat="45.4389637" lon="10.4431346"><ele>117.33333333333334</ele><time>2026-05-02T11:37:18.012Z</time></trkpt><trkpt lat="45.4388657" lon="10.4428694"><ele>116.66666666666666</ele><time>2026-05-02T11:37:19.012Z</time></trkpt><trkpt lat="45.4387671" lon="10.4426065"><ele>116.0</ele><time>2026-05-02T11:37:20.013Z</time></trkpt><trkpt lat="45.4386683" lon="10.4423465"><ele>115.66666666666666</ele><time>2026-05-02T11:37:21.012Z</time></trkpt><trkpt lat="45.4385697" lon="10.4420891"><ele>115.33333333333334</ele><time>2026-05-02T11:37:22.014Z</time></trkpt><trkpt lat="45.4384775" lon="10.4418418"><ele>115.0</ele><time>2026-05-02T11:37:23.012Z</time></trkpt><trkpt lat="45.4383926" lon="10.4416091"><ele>115.0</ele><time>2026-05-02T11:37:24.012Z</time></trkpt><trkpt lat="45.4383114" lon="10.4413877"><ele>115.0</ele><time>2026-05-02T11:37:25.013Z</time></trkpt><trkpt lat="45.4382323" lon="10.4411811"><ele>115.0</ele><time>2026-05-02T11:37:26.012Z</time></trkpt><trkpt lat="45.4381584" lon="10.4409792"><ele>115.0</ele><time>2026-05-02T11:37:27.014Z</time></trkpt><trkpt lat="45.438085" lon="10.4407805"><ele>115.0</ele><time>2026-05-02T11:37:28.013Z</time></trkpt><trkpt lat="45.4380153" lon="10.44059"><ele>115.0</ele><time>2026-05-02T11:37:29.012Z</time></trkpt><trkpt lat="45.4379547" lon="10.4404094"><ele>115.0</ele><time>2026-05-02T11:37:30.012Z</time></trkpt><trkpt lat="45.4379081" lon="10.4402447"><ele>115.0</ele><time>2026-05-02T11:37:31.012Z</time></trkpt><trkpt lat="45.4378722" lon="10.4400856"><ele>115.0</ele><time>2026-05-02T11:37:32.012Z</time></trkpt><trkpt lat="45.4378519" lon="10.4399345"><ele>115.0</ele><time>2026-05-02T11:37:33.013Z</time></trkpt><trkpt lat="45.4378447" lon="10.4397941"><ele>115.0</ele><time>2026-05-02T11:37:34.012Z</time></trkpt><trkpt lat="45.4378317" lon="10.4396653"><ele>115.0</ele><time>2026-05-02T11:37:35.012Z</time></trkpt><trkpt lat="45.4377884" lon="10.4395556"><ele>115.0</ele><time>2026-05-02T11:37:36.012Z</time></trkpt><trkpt lat="45.437723" lon="10.4394711"><ele>115.0</ele><time>2026-05-02T11:37:37.014Z</time></trkpt><trkpt lat="45.437646" lon="10.4393971"><ele>115.0</ele><time>2026-05-02T11:37:38.013Z</time></trkpt><trkpt lat="45.4375767" lon="10.4392999"><ele>115.0</ele><time>2026-05-02T11:37:39.012Z</time></trkpt><trkpt lat="45.4375124" lon="10.4391791"><ele>115.0</ele><time>2026-05-02T11:37:40.012Z</time></trkpt><trkpt lat="45.4374533" lon="10.4390329"><ele>115.0</ele><time>2026-05-02T11:37:41.012Z</time></trkpt><trkpt lat="45.4373903" lon="10.4388716"><ele>115.0</ele><time>2026-05-02T11:37:42.013Z</time></trkpt><trkpt lat="45.4373217" lon="10.4386973"><ele>115.0</ele><time>2026-05-02T11:37:43.012Z</time></trkpt><trkpt lat="45.4372497" lon="10.4385109"><ele>115.0</ele><time>2026-05-02T11:37:44.013Z</time></trkpt><trkpt lat="45.4371771" lon="10.4383124"><ele>114.66666666666667</ele><time>2026-05-02T11:37:45.012Z</time></trkpt><trkpt lat="45.4371045" lon="10.4381082"><ele>114.33333333333334</ele><time>2026-05-02T11:37:46.012Z</time></trkpt><trkpt lat="45.4370271" lon="10.4378993"><ele>114.0</ele><time>2026-05-02T11:37:47.013Z</time></trkpt><trkpt lat="45.4369461" lon="10.4376811"><ele>113.66666666666666</ele><time>2026-05-02T11:37:48.013Z</time></trkpt><trkpt lat="45.4368623" lon="10.4374534"><ele>113.33333333333333</ele><time>2026-05-02T11:37:49.012Z</time></trkpt><trkpt lat="45.4367763" lon="10.4372186"><ele>113.0</ele><time>2026-05-02T11:37:50.012Z</time></trkpt><trkpt lat="45.4366864" lon="10.4369764"><ele>113.0</ele><time>2026-05-02T11:37:51.012Z</time></trkpt><trkpt lat="45.4365953" lon="10.4367286"><ele>113.0</ele><time>2026-05-02T11:37:52.012Z</time></trkpt><trkpt lat="45.4365029" lon="10.4364827"><ele>113.0</ele><time>2026-05-02T11:37:53.013Z</time></trkpt><trkpt lat="45.4364119" lon="10.4362395"><ele>113.0</ele><time>2026-05-02T11:37:54.013Z</time></trkpt><trkpt lat="45.43632" lon="10.4359977"><ele>113.0</ele><time>2026-05-02T11:37:55.012Z</time></trkpt><trkpt lat="45.4362305" lon="10.435756"><ele>113.0</ele><time>2026-05-02T11:37:56.013Z</time></trkpt><trkpt lat="45.4361403" lon="10.4355134"><ele>112.66666666666666</ele><time>2026-05-02T11:37:57.013Z</time></trkpt><trkpt lat="45.4360482" lon="10.4352664"><ele>112.33333333333334</ele><time>2026-05-02T11:37:58.012Z</time></trkpt><trkpt lat="45.4359543" lon="10.4350163"><ele>112.0</ele><time>2026-05-02T11:37:59.013Z</time></trkpt><trkpt lat="45.4358623" lon="10.4347653"><ele>112.0</ele><time>2026-05-02T11:38:00.013Z</time></trkpt><trkpt lat="45.4357676" lon="10.434511"><ele>112.0</ele><time>2026-05-02T11:38:01.013Z</time></trkpt><trkpt lat="45.4356735" lon="10.4342576"><ele>112.0</ele><time>2026-05-02T11:38:02.012Z</time></trkpt><trkpt lat="45.4355771" lon="10.4340013"><ele>112.0</ele><time>2026-05-02T11:38:03.012Z</time></trkpt><trkpt lat="45.4354794" lon="10.4337431"><ele>112.0</ele><time>2026-05-02T11:38:04.012Z</time></trkpt><trkpt lat="45.4353833" lon="10.4334855"><ele>112.0</ele><time>2026-05-02T11:38:05.013Z</time></trkpt><trkpt lat="45.4352885" lon="10.4332267"><ele>111.66666666666667</ele><time>2026-05-02T11:38:06.012Z</time></trkpt><trkpt lat="45.4351941" lon="10.4329652"><ele>111.33333333333334</ele><time>2026-05-02T11:38:07.013Z</time></trkpt><trkpt lat="45.4350969" lon="10.4327015"><ele>111.0</ele><time>2026-05-02T11:38:08.012Z</time></trkpt><trkpt lat="45.4349985" lon="10.4324376"><ele>111.0</ele><time>2026-05-02T11:38:09.012Z</time></trkpt><trkpt lat="45.4348975" lon="10.4321732"><ele>111.0</ele><time>2026-05-02T11:38:10.013Z</time></trkpt><trkpt lat="45.4348003" lon="10.4319072"><ele>111.0</ele><time>2026-05-02T11:38:11.012Z</time></trkpt><trkpt lat="45.4347017" lon="10.4316396"><ele>111.0</ele><time>2026-05-02T11:38:12.013Z</time></trkpt><trkpt lat="45.4346006" lon="10.4313713"><ele>111.0</ele><time>2026-05-02T11:38:13.012Z</time></trkpt><trkpt lat="45.4344986" lon="10.4311059"><ele>111.0</ele><time>2026-05-02T11:38:14.013Z</time></trkpt><trkpt lat="45.4343987" lon="10.4308363"><ele>111.0</ele><time>2026-05-02T11:38:15.012Z</time></trkpt><trkpt lat="45.4342974" lon="10.430569"><ele>111.0</ele><time>2026-05-02T11:38:16.013Z</time></trkpt><trkpt lat="45.4341994" lon="10.4303073"><ele>111.0</ele><time>2026-05-02T11:38:17.013Z</time></trkpt><trkpt lat="45.4341073" lon="10.4300568"><ele>110.66666666666666</ele><time>2026-05-02T11:38:18.013Z</time></trkpt><trkpt lat="45.4340223" lon="10.4298179"><ele>110.33333333333333</ele><time>2026-05-02T11:38:19.013Z</time></trkpt><trkpt lat="45.433938" lon="10.4295893"><ele>110.0</ele><time>2026-05-02T11:38:20.013Z</time></trkpt><trkpt lat="45.4338573" lon="10.4293717"><ele>109.66666666666666</ele><time>2026-05-02T11:38:21.012Z</time></trkpt><trkpt lat="45.4337829" lon="10.4291635"><ele>109.33333333333334</ele><time>2026-05-02T11:38:22.013Z</time></trkpt><trkpt lat="45.4337088" lon="10.4289665"><ele>109.0</ele><time>2026-05-02T11:38:23.012Z</time></trkpt><trkpt lat="45.4336407" lon="10.4287809"><ele>108.75</ele><time>2026-05-02T11:38:24.012Z</time></trkpt><trkpt lat="45.4335734" lon="10.4286048"><ele>108.5</ele><time>2026-05-02T11:38:25.012Z</time></trkpt><trkpt lat="45.4335107" lon="10.4284375"><ele>108.25</ele><time>2026-05-02T11:38:26.014Z</time></trkpt><trkpt lat="45.4334494" lon="10.4282752"><ele>108.0</ele><time>2026-05-02T11:38:27.012Z</time></trkpt><trkpt lat="45.4333931" lon="10.428114"><ele>108.0</ele><time>2026-05-02T11:38:28.012Z</time></trkpt><trkpt lat="45.4333402" lon="10.4279589"><ele>108.00000000000001</ele><time>2026-05-02T11:38:29.012Z</time></trkpt><trkpt lat="45.4332882" lon="10.4278055"><ele>108.00000000000001</ele><time>2026-05-02T11:38:30.012Z</time></trkpt><trkpt lat="45.4332478" lon="10.4276608"><ele>108.0</ele><time>2026-05-02T11:38:31.013Z</time></trkpt><trkpt lat="45.4332237" lon="10.427536"><ele>108.0</ele><time>2026-05-02T11:38:32.013Z</time></trkpt><trkpt lat="45.433215" lon="10.4274469"><ele>108.0</ele><time>2026-05-02T11:38:33.013Z</time></trkpt><trkpt lat="45.4332199" lon="10.4273018"><ele>108.0</ele><time>2026-05-02T11:38:35.013Z</time></trkpt><trkpt lat="45.4332372" lon="10.4272065"><ele>108.0</ele><time>2026-05-02T11:38:36.013Z</time></trkpt><trkpt lat="45.4332549" lon="10.4270972"><ele>108.0</ele><time>2026-05-02T11:38:37.014Z</time></trkpt><trkpt lat="45.4332629" lon="10.4269745"><ele>108.0</ele><time>2026-05-02T11:38:38.012Z</time></trkpt><trkpt lat="45.4332571" lon="10.4268468"><ele>108.0</ele><time>2026-05-02T11:38:39.012Z</time></trkpt><trkpt lat="45.4332258" lon="10.4267203"><ele>108.0</ele><time>2026-05-02T11:38:40.013Z</time></trkpt><trkpt lat="45.4331668" lon="10.4266087"><ele>108.00000000000001</ele><time>2026-05-02T11:38:41.012Z</time></trkpt><trkpt lat="45.4330887" lon="10.4265263"><ele>108.00000000000001</ele><time>2026-05-02T11:38:42.013Z</time></trkpt><trkpt lat="45.4329969" lon="10.4264813"><ele>108.0</ele><time>2026-05-02T11:38:43.013Z</time></trkpt><trkpt lat="45.4329002" lon="10.4264773"><ele>108.0</ele><time>2026-05-02T11:38:44.012Z</time></trkpt><trkpt lat="45.4328042" lon="10.4265121"><ele>107.80000000000001</ele><time>2026-05-02T11:38:45.012Z</time></trkpt><trkpt lat="45.4327191" lon="10.4265824"><ele>107.60000000000001</ele><time>2026-05-02T11:38:46.012Z</time></trkpt><trkpt lat="45.432647" lon="10.4266843"><ele>107.39999999999999</ele><time>2026-05-02T11:38:47.012Z</time></trkpt><trkpt lat="45.4325839" lon="10.4268146"><ele>107.19999999999999</ele><time>2026-05-02T11:38:48.012Z</time></trkpt><trkpt lat="45.4325093" lon="10.4269496"><ele>107.0</ele><time>2026-05-02T11:38:49.012Z</time></trkpt><trkpt lat="45.4324113" lon="10.4270649"><ele>107.0</ele><time>2026-05-02T11:38:50.013Z</time></trkpt><trkpt lat="45.4322888" lon="10.427161"><ele>107.0</ele><time>2026-05-02T11:38:51.012Z</time></trkpt><trkpt lat="45.4321433" lon="10.4272443"><ele>107.0</ele><time>2026-05-02T11:38:52.014Z</time></trkpt><trkpt lat="45.4319766" lon="10.4273335"><ele>106.66666666666666</ele><time>2026-05-02T11:38:53.013Z</time></trkpt><trkpt lat="45.4318076" lon="10.4274343"><ele>106.33333333333334</ele><time>2026-05-02T11:38:54.013Z</time></trkpt><trkpt lat="45.4316164" lon="10.4275563"><ele>106.0</ele><time>2026-05-02T11:38:55.012Z</time></trkpt><trkpt lat="45.4314057" lon="10.427701"><ele>106.0</ele><time>2026-05-02T11:38:56.012Z</time></trkpt><trkpt lat="45.4311816" lon="10.4278635"><ele>106.0</ele><time>2026-05-02T11:38:57.013Z</time></trkpt><trkpt lat="45.4309462" lon="10.4280375"><ele>106.0</ele><time>2026-05-02T11:38:58.013Z</time></trkpt><trkpt lat="45.4306913" lon="10.4282191"><ele>106.0</ele><time>2026-05-02T11:38:59.012Z</time></trkpt><trkpt lat="45.4304267" lon="10.4284133"><ele>106.0</ele><time>2026-05-02T11:39:00.013Z</time></trkpt><trkpt lat="45.430158" lon="10.4286133"><ele>106.0</ele><time>2026-05-02T11:39:01.013Z</time></trkpt><trkpt lat="45.4298795" lon="10.4288128"><ele>106.5</ele><time>2026-05-02T11:39:02.013Z</time></trkpt><trkpt lat="45.4296117" lon="10.4290012"><ele>107.0</ele><time>2026-05-02T11:39:03.013Z</time></trkpt><trkpt lat="45.4293492" lon="10.429171"><ele>107.0</ele><time>2026-05-02T11:39:04.012Z</time></trkpt><trkpt lat="45.4290799" lon="10.4293178"><ele>107.0</ele><time>2026-05-02T11:39:05.013Z</time></trkpt><trkpt lat="45.4288061" lon="10.4294407"><ele>106.5</ele><time>2026-05-02T11:39:06.014Z</time></trkpt><trkpt lat="45.4285225" lon="10.4295418"><ele>106.0</ele><time>2026-05-02T11:39:07.012Z</time></trkpt><trkpt lat="45.4282221" lon="10.4296105"><ele>105.5</ele><time>2026-05-02T11:39:08.012Z</time></trkpt><trkpt lat="45.4279108" lon="10.4296542"><ele>105.0</ele><time>2026-05-02T11:39:09.012Z</time></trkpt><trkpt lat="45.4275897" lon="10.4296552"><ele>105.0</ele><time>2026-05-02T11:39:10.013Z</time></trkpt><trkpt lat="45.4272625" lon="10.4296117"><ele>105.0</ele><time>2026-05-02T11:39:11.012Z</time></trkpt><trkpt lat="45.4269311" lon="10.4295308"><ele>104.5</ele><time>2026-05-02T11:39:12.013Z</time></trkpt><trkpt lat="45.4265965" lon="10.4294185"><ele>104.0</ele><time>2026-05-02T11:39:13.013Z</time></trkpt><trkpt lat="45.4262638" lon="10.4292865"><ele>104.0</ele><time>2026-05-02T11:39:14.012Z</time></trkpt><trkpt lat="45.4259279" lon="10.429145"><ele>104.0</ele><time>2026-05-02T11:39:15.013Z</time></trkpt><trkpt lat="45.4255879" lon="10.4290017"><ele>103.5</ele><time>2026-05-02T11:39:16.012Z</time></trkpt><trkpt lat="45.4252418" lon="10.4288581"><ele>103.0</ele><time>2026-05-02T11:39:17.013Z</time></trkpt><trkpt lat="45.4248993" lon="10.4287125"><ele>103.5</ele><time>2026-05-02T11:39:18.012Z</time></trkpt><trkpt lat="45.4245696" lon="10.4285703"><ele>104.0</ele><time>2026-05-02T11:39:19.012Z</time></trkpt><trkpt lat="45.4242511" lon="10.4284326"><ele>104.0</ele><time>2026-05-02T11:39:20.013Z</time></trkpt><trkpt lat="45.423945" lon="10.4283049"><ele>104.0</ele><time>2026-05-02T11:39:21.012Z</time></trkpt><trkpt lat="45.4236537" lon="10.428184"><ele>104.0</ele><time>2026-05-02T11:39:22.013Z</time></trkpt><trkpt lat="45.4233763" lon="10.4280698"><ele>104.0</ele><time>2026-05-02T11:39:23.012Z</time></trkpt><trkpt lat="45.4231141" lon="10.4279609"><ele>103.0</ele><time>2026-05-02T11:39:24.012Z</time></trkpt><trkpt lat="45.4228624" lon="10.4278536"><ele>102.0</ele><time>2026-05-02T11:39:25.012Z</time></trkpt><trkpt lat="45.4226234" lon="10.4277531"><ele>102.0</ele><time>2026-05-02T11:39:26.012Z</time></trkpt><trkpt lat="45.422397" lon="10.4276594"><ele>102.0</ele><time>2026-05-02T11:39:27.012Z</time></trkpt><trkpt lat="45.4221803" lon="10.4275704"><ele>101.33333333333334</ele><time>2026-05-02T11:39:28.012Z</time></trkpt><trkpt lat="45.421977" lon="10.4274875"><ele>100.66666666666667</ele><time>2026-05-02T11:39:29.012Z</time></trkpt><trkpt lat="45.4217828" lon="10.4274068"><ele>100.0</ele><time>2026-05-02T11:39:30.012Z</time></trkpt><trkpt lat="45.4215998" lon="10.4273278"><ele>100.0</ele><time>2026-05-02T11:39:31.012Z</time></trkpt><trkpt lat="45.4214267" lon="10.4272531"><ele>100.0</ele><time>2026-05-02T11:39:32.012Z</time></trkpt><trkpt lat="45.4212625" lon="10.4271805"><ele>100.0</ele><time>2026-05-02T11:39:33.013Z</time></trkpt><trkpt lat="45.4211159" lon="10.4271126"><ele>100.25</ele><time>2026-05-02T11:39:34.013Z</time></trkpt><trkpt lat="45.4209824" lon="10.4270457"><ele>100.5</ele><time>2026-05-02T11:39:35.012Z</time></trkpt><trkpt lat="45.4208673" lon="10.4269828"><ele>100.75</ele><time>2026-05-02T11:39:36.013Z</time></trkpt><trkpt lat="45.4207628" lon="10.426916"><ele>101.0</ele><time>2026-05-02T11:39:37.012Z</time></trkpt><trkpt lat="45.4206689" lon="10.426837"><ele>101.0</ele><time>2026-05-02T11:39:38.013Z</time></trkpt><trkpt lat="45.4205815" lon="10.4267444"><ele>101.0</ele><time>2026-05-02T11:39:39.012Z</time></trkpt><trkpt lat="45.4204947" lon="10.4266688"><ele>101.0</ele><time>2026-05-02T11:39:40.013Z</time></trkpt><trkpt lat="45.4204013" lon="10.4266494"><ele>101.0</ele><time>2026-05-02T11:39:41.013Z</time></trkpt><trkpt lat="45.4203068" lon="10.4266765"><ele>101.0</ele><time>2026-05-02T11:39:42.012Z</time></trkpt><trkpt lat="45.4202032" lon="10.4267344"><ele>101.0</ele><time>2026-05-02T11:39:43.013Z</time></trkpt><trkpt lat="45.4200869" lon="10.4267665"><ele>101.0</ele><time>2026-05-02T11:39:44.014Z</time></trkpt><trkpt lat="45.4199612" lon="10.426771"><ele>101.0</ele><time>2026-05-02T11:39:45.012Z</time></trkpt><trkpt lat="45.4198257" lon="10.4267516"><ele>101.0</ele><time>2026-05-02T11:39:46.012Z</time></trkpt><trkpt lat="45.4196819" lon="10.42673"><ele>101.0</ele><time>2026-05-02T11:39:47.012Z</time></trkpt><trkpt lat="45.419532" lon="10.4267057"><ele>101.0</ele><time>2026-05-02T11:39:48.012Z</time></trkpt><trkpt lat="45.4193761" lon="10.4266805"><ele>101.0</ele><time>2026-05-02T11:39:49.012Z</time></trkpt><trkpt lat="45.4192161" lon="10.426654"><ele>101.0</ele><time>2026-05-02T11:39:50.012Z</time></trkpt><trkpt lat="45.4190629" lon="10.4266264"><ele>101.0</ele><time>2026-05-02T11:39:51.012Z</time></trkpt><trkpt lat="45.4189064" lon="10.4265933"><ele>101.0</ele><time>2026-05-02T11:39:52.012Z</time></trkpt><trkpt lat="45.4187459" lon="10.42656"><ele>100.33333333333333</ele><time>2026-05-02T11:39:53.012Z</time></trkpt><trkpt lat="45.4185799" lon="10.426527"><ele>99.66666666666666</ele><time>2026-05-02T11:39:54.012Z</time></trkpt><trkpt lat="45.4184102" lon="10.4264986"><ele>99.0</ele><time>2026-05-02T11:39:55.013Z</time></trkpt><trkpt lat="45.4182362" lon="10.4264636"><ele>99.0</ele><time>2026-05-02T11:39:56.012Z</time></trkpt><trkpt lat="45.4180553" lon="10.4264281"><ele>99.0</ele><time>2026-05-02T11:39:57.012Z</time></trkpt><trkpt lat="45.4178721" lon="10.426393"><ele>99.0</ele><time>2026-05-02T11:39:58.013Z</time></trkpt><trkpt lat="45.4176846" lon="10.4263582"><ele>99.0</ele><time>2026-05-02T11:39:59.012Z</time></trkpt><trkpt lat="45.4174952" lon="10.4263268"><ele>99.0</ele><time>2026-05-02T11:40:00.012Z</time></trkpt><trkpt lat="45.4173019" lon="10.4262922"><ele>99.0</ele><time>2026-05-02T11:40:01.012Z</time></trkpt><trkpt lat="45.4171088" lon="10.4262533"><ele>98.66666666666666</ele><time>2026-05-02T11:40:02.012Z</time></trkpt><trkpt lat="45.4169175" lon="10.4262154"><ele>98.33333333333333</ele><time>2026-05-02T11:40:03.013Z</time></trkpt><trkpt lat="45.4167242" lon="10.4261777"><ele>98.0</ele><time>2026-05-02T11:40:04.012Z</time></trkpt><trkpt lat="45.4165284" lon="10.4261436"><ele>98.0</ele><time>2026-05-02T11:40:05.013Z</time></trkpt><trkpt lat="45.4163333" lon="10.4261064"><ele>98.0</ele><time>2026-05-02T11:40:06.012Z</time></trkpt><trkpt lat="45.4161374" lon="10.4260656"><ele>98.0</ele><time>2026-05-02T11:40:07.012Z</time></trkpt><trkpt lat="45.4159394" lon="10.4260212"><ele>98.33333333333333</ele><time>2026-05-02T11:40:08.012Z</time></trkpt><trkpt lat="45.4157413" lon="10.4259745"><ele>98.66666666666666</ele><time>2026-05-02T11:40:09.013Z</time></trkpt><trkpt lat="45.4155424" lon="10.4259222"><ele>99.0</ele><time>2026-05-02T11:40:10.012Z</time></trkpt><trkpt lat="45.4153429" lon="10.4258633"><ele>98.33333333333334</ele><time>2026-05-02T11:40:11.012Z</time></trkpt><trkpt lat="45.4151445" lon="10.425802"><ele>97.66666666666667</ele><time>2026-05-02T11:40:12.013Z</time></trkpt><trkpt lat="45.4149448" lon="10.4257359"><ele>97.0</ele><time>2026-05-02T11:40:13.012Z</time></trkpt><trkpt lat="45.4147441" lon="10.4256722"><ele>96.66666666666667</ele><time>2026-05-02T11:40:14.012Z</time></trkpt><trkpt lat="45.4145434" lon="10.4255991"><ele>96.33333333333334</ele><time>2026-05-02T11:40:15.013Z</time></trkpt><trkpt lat="45.4143441" lon="10.4255251"><ele>96.0</ele><time>2026-05-02T11:40:16.013Z</time></trkpt><trkpt lat="45.414143" lon="10.4254476"><ele>96.0</ele><time>2026-05-02T11:40:17.012Z</time></trkpt><trkpt lat="45.4139418" lon="10.42537"><ele>96.0</ele><time>2026-05-02T11:40:18.013Z</time></trkpt><trkpt lat="45.4137413" lon="10.4252868"><ele>96.0</ele><time>2026-05-02T11:40:19.014Z</time></trkpt><trkpt lat="45.4135411" lon="10.4252003"><ele>96.33333333333334</ele><time>2026-05-02T11:40:20.012Z</time></trkpt><trkpt lat="45.4133399" lon="10.4251163"><ele>96.66666666666667</ele><time>2026-05-02T11:40:21.012Z</time></trkpt><trkpt lat="45.4131383" lon="10.4250318"><ele>97.0</ele><time>2026-05-02T11:40:22.012Z</time></trkpt><trkpt lat="45.4129374" lon="10.4249512"><ele>96.33333333333334</ele><time>2026-05-02T11:40:23.013Z</time></trkpt><trkpt lat="45.4127351" lon="10.4248681"><ele>95.66666666666667</ele><time>2026-05-02T11:40:24.012Z</time></trkpt><trkpt lat="45.4125292" lon="10.4247827"><ele>95.0</ele><time>2026-05-02T11:40:25.012Z</time></trkpt><trkpt lat="45.4123264" lon="10.4247011"><ele>95.33333333333334</ele><time>2026-05-02T11:40:26.013Z</time></trkpt><trkpt lat="45.4121205" lon="10.4246129"><ele>95.66666666666667</ele><time>2026-05-02T11:40:27.013Z</time></trkpt><trkpt lat="45.4119157" lon="10.4245296"><ele>96.0</ele><time>2026-05-02T11:40:28.014Z</time></trkpt><trkpt lat="45.4117109" lon="10.4244464"><ele>96.0</ele><time>2026-05-02T11:40:29.013Z</time></trkpt><trkpt lat="45.4115033" lon="10.4243617"><ele>96.0</ele><time>2026-05-02T11:40:30.012Z</time></trkpt><trkpt lat="45.4112963" lon="10.4242761"><ele>96.0</ele><time>2026-05-02T11:40:31.012Z</time></trkpt><trkpt lat="45.4110898" lon="10.4241923"><ele>96.0</ele><time>2026-05-02T11:40:32.013Z</time></trkpt><trkpt lat="45.4108824" lon="10.424109"><ele>96.0</ele><time>2026-05-02T11:40:33.012Z</time></trkpt><trkpt lat="45.4106743" lon="10.4240235"><ele>96.0</ele><time>2026-05-02T11:40:34.013Z</time></trkpt><trkpt lat="45.4104665" lon="10.4239348"><ele>95.33333333333333</ele><time>2026-05-02T11:40:35.013Z</time></trkpt><trkpt lat="45.4102563" lon="10.4238464"><ele>94.66666666666666</ele><time>2026-05-02T11:40:36.012Z</time></trkpt><trkpt lat="45.410049" lon="10.4237643"><ele>94.0</ele><time>2026-05-02T11:40:37.013Z</time></trkpt><trkpt lat="45.4098405" lon="10.4236821"><ele>93.66666666666666</ele><time>2026-05-02T11:40:38.013Z</time></trkpt><trkpt lat="45.4096326" lon="10.4235948"><ele>93.33333333333333</ele><time>2026-05-02T11:40:39.012Z</time></trkpt><trkpt lat="45.4094281" lon="10.4235079"><ele>93.0</ele><time>2026-05-02T11:40:40.012Z</time></trkpt><trkpt lat="45.4092238" lon="10.4234212"><ele>93.0</ele><time>2026-05-02T11:40:41.012Z</time></trkpt><trkpt lat="45.4090212" lon="10.4233369"><ele>93.0</ele><time>2026-05-02T11:40:42.013Z</time></trkpt><trkpt lat="45.4088205" lon="10.4232501"><ele>93.0</ele><time>2026-05-02T11:40:43.013Z</time></trkpt><trkpt lat="45.4086237" lon="10.4231668"><ele>93.33333333333333</ele><time>2026-05-02T11:40:44.012Z</time></trkpt><trkpt lat="45.4084333" lon="10.4230832"><ele>93.66666666666666</ele><time>2026-05-02T11:40:45.012Z</time></trkpt><trkpt lat="45.4082449" lon="10.4230005"><ele>94.0</ele><time>2026-05-02T11:40:46.013Z</time></trkpt><trkpt lat="45.4080623" lon="10.422919"><ele>93.33333333333333</ele><time>2026-05-02T11:40:47.012Z</time></trkpt><trkpt lat="45.4078824" lon="10.4228364"><ele>92.66666666666667</ele><time>2026-05-02T11:40:48.012Z</time></trkpt><trkpt lat="45.4077126" lon="10.4227518"><ele>92.0</ele><time>2026-05-02T11:40:49.013Z</time></trkpt><trkpt lat="45.4075517" lon="10.4226769"><ele>92.0</ele><time>2026-05-02T11:40:50.013Z</time></trkpt><trkpt lat="45.407401" lon="10.4226061"><ele>92.0</ele><time>2026-05-02T11:40:51.013Z</time></trkpt><trkpt lat="45.407259" lon="10.4225349"><ele>92.0</ele><time>2026-05-02T11:40:52.013Z</time></trkpt><trkpt lat="45.4071249" lon="10.4224616"><ele>92.25</ele><time>2026-05-02T11:40:53.013Z</time></trkpt><trkpt lat="45.4069991" lon="10.4223882"><ele>92.5</ele><time>2026-05-02T11:40:54.012Z</time></trkpt><trkpt lat="45.4068829" lon="10.4223193"><ele>92.75</ele><time>2026-05-02T11:40:55.012Z</time></trkpt><trkpt lat="45.4067799" lon="10.4222543"><ele>93.0</ele><time>2026-05-02T11:40:56.013Z</time></trkpt><trkpt lat="45.4066822" lon="10.4221908"><ele>93.0</ele><time>2026-05-02T11:40:57.012Z</time></trkpt><trkpt lat="45.4065903" lon="10.422122"><ele>93.0</ele><time>2026-05-02T11:40:58.013Z</time></trkpt><trkpt lat="45.4065105" lon="10.42204"><ele>93.0</ele><time>2026-05-02T11:40:59.013Z</time></trkpt><trkpt lat="45.4064434" lon="10.4219365"><ele>93.0</ele><time>2026-05-02T11:41:00.012Z</time></trkpt><trkpt lat="45.4063877" lon="10.4218166"><ele>93.0</ele><time>2026-05-02T11:41:01.013Z</time></trkpt><trkpt lat="45.4063373" lon="10.4217013"><ele>93.0</ele><time>2026-05-02T11:41:02.013Z</time></trkpt><trkpt lat="45.4062782" lon="10.4216039"><ele>93.0</ele><time>2026-05-02T11:41:03.012Z</time></trkpt><trkpt lat="45.4062072" lon="10.4215116"><ele>93.0</ele><time>2026-05-02T11:41:04.013Z</time></trkpt><trkpt lat="45.4061276" lon="10.4214422"><ele>93.0</ele><time>2026-05-02T11:41:05.013Z</time></trkpt><trkpt lat="45.406038" lon="10.4213934"><ele>93.0</ele><time>2026-05-02T11:41:06.013Z</time></trkpt><trkpt lat="45.4059424" lon="10.4213702"><ele>93.0</ele><time>2026-05-02T11:41:07.012Z</time></trkpt><trkpt lat="45.4058449" lon="10.4213773"><ele>93.0</ele><time>2026-05-02T11:41:08.012Z</time></trkpt><trkpt lat="45.405755" lon="10.4214223"><ele>93.0</ele><time>2026-05-02T11:41:09.012Z</time></trkpt><trkpt lat="45.405672" lon="10.4214972"><ele>93.0</ele><time>2026-05-02T11:41:10.012Z</time></trkpt><trkpt lat="45.4056013" lon="10.4216058"><ele>93.0</ele><time>2026-05-02T11:41:11.014Z</time></trkpt><trkpt lat="45.405541" lon="10.4217346"><ele>93.0</ele><time>2026-05-02T11:41:12.013Z</time></trkpt><trkpt lat="45.4055016" lon="10.4218774"><ele>93.0</ele><time>2026-05-02T11:41:13.013Z</time></trkpt><trkpt lat="45.4054883" lon="10.4220322"><ele>93.0</ele><time>2026-05-02T11:41:14.012Z</time></trkpt><trkpt lat="45.4055036" lon="10.4221894"><ele>93.0</ele><time>2026-05-02T11:41:15.012Z</time></trkpt><trkpt lat="45.4055426" lon="10.422351"><ele>93.0</ele><time>2026-05-02T11:41:16.012Z</time></trkpt><trkpt lat="45.4055886" lon="10.4225197"><ele>93.0</ele><time>2026-05-02T11:41:17.012Z</time></trkpt><trkpt lat="45.4056277" lon="10.422702"><ele>93.0</ele><time>2026-05-02T11:41:18.012Z</time></trkpt><trkpt lat="45.4056488" lon="10.4229022"><ele>93.0</ele><time>2026-05-02T11:41:19.013Z</time></trkpt><trkpt lat="45.4056468" lon="10.4231163"><ele>93.0</ele><time>2026-05-02T11:41:20.014Z</time></trkpt><trkpt lat="45.4056222" lon="10.423339"><ele>93.0</ele><time>2026-05-02T11:41:21.012Z</time></trkpt><trkpt lat="45.4055768" lon="10.4235713"><ele>93.0</ele><time>2026-05-02T11:41:22.012Z</time></trkpt><trkpt lat="45.4055208" lon="10.4238085"><ele>93.0</ele><time>2026-05-02T11:41:23.013Z</time></trkpt><trkpt lat="45.4054688" lon="10.424051"><ele>93.0</ele><time>2026-05-02T11:41:24.013Z</time></trkpt><trkpt lat="45.4054164" lon="10.4242998"><ele>93.0</ele><time>2026-05-02T11:41:25.014Z</time></trkpt><trkpt lat="45.4053647" lon="10.4245444"><ele>93.0</ele><time>2026-05-02T11:41:26.012Z</time></trkpt><trkpt lat="45.4053107" lon="10.4247953"><ele>93.0</ele><time>2026-05-02T11:41:27.013Z</time></trkpt><trkpt lat="45.4052587" lon="10.4250485"><ele>93.0</ele><time>2026-05-02T11:41:28.012Z</time></trkpt><trkpt lat="45.4052051" lon="10.4253065"><ele>93.0</ele><time>2026-05-02T11:41:29.012Z</time></trkpt><trkpt lat="45.4051521" lon="10.4255662"><ele>93.0</ele><time>2026-05-02T11:41:30.012Z</time></trkpt><trkpt lat="45.4050982" lon="10.4258271"><ele>93.0</ele><time>2026-05-02T11:41:31.012Z</time></trkpt><trkpt lat="45.4050456" lon="10.4260898"><ele>93.0</ele><time>2026-05-02T11:41:32.012Z</time></trkpt><trkpt lat="45.4049923" lon="10.4263549"><ele>93.0</ele><time>2026-05-02T11:41:33.012Z</time></trkpt><trkpt lat="45.4049375" lon="10.4266217"><ele>93.0</ele><time>2026-05-02T11:41:34.013Z</time></trkpt><trkpt lat="45.4048812" lon="10.4268881"><ele>93.0</ele><time>2026-05-02T11:41:35.012Z</time></trkpt><trkpt lat="45.404826" lon="10.4271567"><ele>93.0</ele><time>2026-05-02T11:41:36.013Z</time></trkpt><trkpt lat="45.4047693" lon="10.4274275"><ele>93.0</ele><time>2026-05-02T11:41:37.014Z</time></trkpt><trkpt lat="45.4047126" lon="10.4277015"><ele>93.0</ele><time>2026-05-02T11:41:38.012Z</time></trkpt><trkpt lat="45.4046553" lon="10.4279753"><ele>93.0</ele><time>2026-05-02T11:41:39.012Z</time></trkpt><trkpt lat="45.4045973" lon="10.4282448"><ele>93.0</ele><time>2026-05-02T11:41:40.012Z</time></trkpt><trkpt lat="45.4045411" lon="10.4285147"><ele>93.0</ele><time>2026-05-02T11:41:41.012Z</time></trkpt><trkpt lat="45.4044862" lon="10.4287881"><ele>93.33333333333333</ele><time>2026-05-02T11:41:42.012Z</time></trkpt><trkpt lat="45.4044304" lon="10.4290589"><ele>93.66666666666666</ele><time>2026-05-02T11:41:43.012Z</time></trkpt><trkpt lat="45.4043753" lon="10.4293347"><ele>94.0</ele><time>2026-05-02T11:41:44.012Z</time></trkpt><trkpt lat="45.404318" lon="10.4296091"><ele>94.0</ele><time>2026-05-02T11:41:45.013Z</time></trkpt><trkpt lat="45.404256" lon="10.429884"><ele>94.0</ele><time>2026-05-02T11:41:46.012Z</time></trkpt><trkpt lat="45.4041974" lon="10.4301594"><ele>94.0</ele><time>2026-05-02T11:41:47.013Z</time></trkpt><trkpt lat="45.4041398" lon="10.4304321"><ele>94.0</ele><time>2026-05-02T11:41:48.012Z</time></trkpt><trkpt lat="45.4040837" lon="10.4307021"><ele>94.0</ele><time>2026-05-02T11:41:49.013Z</time></trkpt><trkpt lat="45.4040299" lon="10.4309704"><ele>94.0</ele><time>2026-05-02T11:41:50.013Z</time></trkpt><trkpt lat="45.4039762" lon="10.4312366"><ele>94.0</ele><time>2026-05-02T11:41:51.012Z</time></trkpt><trkpt lat="45.4039193" lon="10.431502"><ele>94.0</ele><time>2026-05-02T11:41:52.013Z</time></trkpt><trkpt lat="45.403864" lon="10.4317668"><ele>94.0</ele><time>2026-05-02T11:41:53.013Z</time></trkpt><trkpt lat="45.403809" lon="10.4320314"><ele>93.66666666666666</ele><time>2026-05-02T11:41:54.012Z</time></trkpt><trkpt lat="45.4037535" lon="10.4322946"><ele>93.33333333333333</ele><time>2026-05-02T11:41:55.013Z</time></trkpt><trkpt lat="45.4036997" lon="10.4325539"><ele>93.0</ele><time>2026-05-02T11:41:56.013Z</time></trkpt><trkpt lat="45.4036474" lon="10.4328147"><ele>93.0</ele><time>2026-05-02T11:41:57.012Z</time></trkpt><trkpt lat="45.4035939" lon="10.4330749"><ele>93.0</ele><time>2026-05-02T11:41:58.013Z</time></trkpt><trkpt lat="45.4035409" lon="10.4333316"><ele>93.0</ele><time>2026-05-02T11:41:59.013Z</time></trkpt><trkpt lat="45.4034856" lon="10.4335859"><ele>93.0</ele><time>2026-05-02T11:42:00.012Z</time></trkpt><trkpt lat="45.4034236" lon="10.4338371"><ele>93.0</ele><time>2026-05-02T11:42:01.013Z</time></trkpt><trkpt lat="45.4033604" lon="10.4340842"><ele>93.0</ele><time>2026-05-02T11:42:02.013Z</time></trkpt><trkpt lat="45.4032977" lon="10.4343296"><ele>93.0</ele><time>2026-05-02T11:42:03.012Z</time></trkpt><trkpt lat="45.4032342" lon="10.4345735"><ele>93.0</ele><time>2026-05-02T11:42:04.012Z</time></trkpt><trkpt lat="45.4031694" lon="10.4348154"><ele>93.0</ele><time>2026-05-02T11:42:05.012Z</time></trkpt><trkpt lat="45.4031078" lon="10.4350571"><ele>93.0</ele><time>2026-05-02T11:42:06.012Z</time></trkpt><trkpt lat="45.4030459" lon="10.4352982"><ele>93.0</ele><time>2026-05-02T11:42:07.012Z</time></trkpt><trkpt lat="45.4029851" lon="10.435531"><ele>93.0</ele><time>2026-05-02T11:42:08.013Z</time></trkpt><trkpt lat="45.4029205" lon="10.4357646"><ele>93.0</ele><time>2026-05-02T11:42:09.014Z</time></trkpt><trkpt lat="45.4028584" lon="10.4359997"><ele>93.0</ele><time>2026-05-02T11:42:10.013Z</time></trkpt><trkpt lat="45.4027989" lon="10.4362329"><ele>93.0</ele><time>2026-05-02T11:42:11.012Z</time></trkpt><trkpt lat="45.40274" lon="10.4364678"><ele>93.0</ele><time>2026-05-02T11:42:12.013Z</time></trkpt><trkpt lat="45.4026792" lon="10.4367035"><ele>93.0</ele><time>2026-05-02T11:42:13.012Z</time></trkpt><trkpt lat="45.4026154" lon="10.4369357"><ele>93.0</ele><time>2026-05-02T11:42:14.012Z</time></trkpt><trkpt lat="45.4025538" lon="10.4371672"><ele>93.0</ele><time>2026-05-02T11:42:15.013Z</time></trkpt><trkpt lat="45.4024944" lon="10.4374"><ele>93.0</ele><time>2026-05-02T11:42:16.012Z</time></trkpt><trkpt lat="45.4024322" lon="10.437636"><ele>93.0</ele><time>2026-05-02T11:42:17.012Z</time></trkpt><trkpt lat="45.4023711" lon="10.4378736"><ele>93.33333333333333</ele><time>2026-05-02T11:42:18.014Z</time></trkpt><trkpt lat="45.4023094" lon="10.4381137"><ele>93.66666666666666</ele><time>2026-05-02T11:42:19.012Z</time></trkpt><trkpt lat="45.4022458" lon="10.4383567"><ele>94.0</ele><time>2026-05-02T11:42:20.013Z</time></trkpt><trkpt lat="45.4021844" lon="10.4386019"><ele>94.0</ele><time>2026-05-02T11:42:21.012Z</time></trkpt><trkpt lat="45.4021217" lon="10.4388468"><ele>94.0</ele><time>2026-05-02T11:42:22.014Z</time></trkpt><trkpt lat="45.4020584" lon="10.4390908"><ele>94.0</ele><time>2026-05-02T11:42:23.014Z</time></trkpt><trkpt lat="45.4019931" lon="10.4393371"><ele>94.0</ele><time>2026-05-02T11:42:24.012Z</time></trkpt><trkpt lat="45.401927" lon="10.4395822"><ele>94.0</ele><time>2026-05-02T11:42:25.012Z</time></trkpt><trkpt lat="45.4018624" lon="10.4398294"><ele>94.0</ele><time>2026-05-02T11:42:26.014Z</time></trkpt><trkpt lat="45.4017958" lon="10.4400746"><ele>93.66666666666666</ele><time>2026-05-02T11:42:27.012Z</time></trkpt><trkpt lat="45.4017314" lon="10.4403186"><ele>93.33333333333333</ele><time>2026-05-02T11:42:28.012Z</time></trkpt><trkpt lat="45.4016718" lon="10.4405597"><ele>93.0</ele><time>2026-05-02T11:42:29.012Z</time></trkpt><trkpt lat="45.4016126" lon="10.4407905"><ele>92.66666666666667</ele><time>2026-05-02T11:42:30.013Z</time></trkpt><trkpt lat="45.4015544" lon="10.4410129"><ele>92.33333333333334</ele><time>2026-05-02T11:42:31.012Z</time></trkpt><trkpt lat="45.4014992" lon="10.4412188"><ele>92.0</ele><time>2026-05-02T11:42:32.013Z</time></trkpt><trkpt lat="45.4014493" lon="10.441414"><ele>92.25</ele><time>2026-05-02T11:42:33.012Z</time></trkpt><trkpt lat="45.4014056" lon="10.4415915"><ele>92.5</ele><time>2026-05-02T11:42:34.013Z</time></trkpt><trkpt lat="45.4013673" lon="10.4417574"><ele>92.75</ele><time>2026-05-02T11:42:35.012Z</time></trkpt><trkpt lat="45.4013323" lon="10.4419139"><ele>93.0</ele><time>2026-05-02T11:42:36.013Z</time></trkpt><trkpt lat="45.4012942" lon="10.4420492"><ele>93.16666666666667</ele><time>2026-05-02T11:42:37.012Z</time></trkpt><trkpt lat="45.4012442" lon="10.4421672"><ele>93.33333333333333</ele><time>2026-05-02T11:42:38.012Z</time></trkpt><trkpt lat="45.4011871" lon="10.4422667"><ele>93.5</ele><time>2026-05-02T11:42:39.012Z</time></trkpt><trkpt lat="45.4011325" lon="10.4423623"><ele>93.66666666666666</ele><time>2026-05-02T11:42:40.012Z</time></trkpt><trkpt lat="45.4010888" lon="10.4424661"><ele>93.83333333333333</ele><time>2026-05-02T11:42:41.014Z</time></trkpt><trkpt lat="45.4010679" lon="10.4425874"><ele>94.0</ele><time>2026-05-02T11:42:42.012Z</time></trkpt><trkpt lat="45.4010713" lon="10.4427136"><ele>94.0</ele><time>2026-05-02T11:42:43.012Z</time></trkpt><trkpt lat="45.4010735" lon="10.4428442"><ele>94.0</ele><time>2026-05-02T11:42:44.013Z</time></trkpt><trkpt lat="45.4010466" lon="10.4429792"><ele>94.0</ele><time>2026-05-02T11:42:45.014Z</time></trkpt><trkpt lat="45.4010104" lon="10.4431196"><ele>94.0</ele><time>2026-05-02T11:42:46.013Z</time></trkpt><trkpt lat="45.4009658" lon="10.4432678"><ele>94.0</ele><time>2026-05-02T11:42:47.013Z</time></trkpt><trkpt lat="45.4009215" lon="10.4434295"><ele>94.0</ele><time>2026-05-02T11:42:48.013Z</time></trkpt><trkpt lat="45.4008791" lon="10.4436006"><ele>94.0</ele><time>2026-05-02T11:42:49.013Z</time></trkpt><trkpt lat="45.4008354" lon="10.4437857"><ele>94.0</ele><time>2026-05-02T11:42:50.013Z</time></trkpt><trkpt lat="45.4007858" lon="10.4439804"><ele>94.0</ele><time>2026-05-02T11:42:51.013Z</time></trkpt><trkpt lat="45.4007353" lon="10.4441827"><ele>94.33333333333333</ele><time>2026-05-02T11:42:52.012Z</time></trkpt><trkpt lat="45.4006849" lon="10.4443854"><ele>94.66666666666667</ele><time>2026-05-02T11:42:53.012Z</time></trkpt><trkpt lat="45.400631" lon="10.4446038"><ele>95.0</ele><time>2026-05-02T11:42:54.013Z</time></trkpt><trkpt lat="45.4005737" lon="10.4448303"><ele>95.0</ele><time>2026-05-02T11:42:55.014Z</time></trkpt><trkpt lat="45.4005171" lon="10.4450661"><ele>95.0</ele><time>2026-05-02T11:42:56.013Z</time></trkpt><trkpt lat="45.4004575" lon="10.4453064"><ele>95.0</ele><time>2026-05-02T11:42:57.012Z</time></trkpt><trkpt lat="45.400398" lon="10.4455553"><ele>94.66666666666667</ele><time>2026-05-02T11:42:58.013Z</time></trkpt><trkpt lat="45.4003362" lon="10.4458091"><ele>94.33333333333333</ele><time>2026-05-02T11:42:59.012Z</time></trkpt><trkpt lat="45.4002731" lon="10.4460652"><ele>94.0</ele><time>2026-05-02T11:43:00.012Z</time></trkpt><trkpt lat="45.4002094" lon="10.4463252"><ele>94.0</ele><time>2026-05-02T11:43:01.012Z</time></trkpt><trkpt lat="45.400144" lon="10.446586"><ele>94.0</ele><time>2026-05-02T11:43:02.012Z</time></trkpt><trkpt lat="45.4000761" lon="10.4468503"><ele>94.0</ele><time>2026-05-02T11:43:03.013Z</time></trkpt><trkpt lat="45.4000051" lon="10.4471182"><ele>93.66666666666666</ele><time>2026-05-02T11:43:04.013Z</time></trkpt><trkpt lat="45.3999373" lon="10.4473804"><ele>93.33333333333333</ele><time>2026-05-02T11:43:05.013Z</time></trkpt><trkpt lat="45.3998716" lon="10.44764"><ele>93.0</ele><time>2026-05-02T11:43:06.013Z</time></trkpt><trkpt lat="45.3998079" lon="10.4479015"><ele>93.0</ele><time>2026-05-02T11:43:07.012Z</time></trkpt><trkpt lat="45.3997447" lon="10.4481642"><ele>93.0</ele><time>2026-05-02T11:43:08.012Z</time></trkpt><trkpt lat="45.399682" lon="10.4484267"><ele>93.0</ele><time>2026-05-02T11:43:09.012Z</time></trkpt><trkpt lat="45.3996165" lon="10.4486852"><ele>92.33333333333333</ele><time>2026-05-02T11:43:10.013Z</time></trkpt><trkpt lat="45.3995518" lon="10.4489411"><ele>91.66666666666666</ele><time>2026-05-02T11:43:11.013Z</time></trkpt><trkpt lat="45.3994879" lon="10.4491983"><ele>91.0</ele><time>2026-05-02T11:43:12.013Z</time></trkpt><trkpt lat="45.3994232" lon="10.4494541"><ele>91.33333333333333</ele><time>2026-05-02T11:43:13.013Z</time></trkpt><trkpt lat="45.3993576" lon="10.4497125"><ele>91.66666666666667</ele><time>2026-05-02T11:43:14.012Z</time></trkpt><trkpt lat="45.3992924" lon="10.4499712"><ele>92.0</ele><time>2026-05-02T11:43:15.013Z</time></trkpt><trkpt lat="45.3992291" lon="10.4502285"><ele>92.0</ele><time>2026-05-02T11:43:16.014Z</time></trkpt><trkpt lat="45.3991659" lon="10.4504848"><ele>92.0</ele><time>2026-05-02T11:43:17.012Z</time></trkpt><trkpt lat="45.3991075" lon="10.4507417"><ele>92.0</ele><time>2026-05-02T11:43:18.012Z</time></trkpt><trkpt lat="45.399061" lon="10.4510007"><ele>92.0</ele><time>2026-05-02T11:43:19.013Z</time></trkpt><trkpt lat="45.3990296" lon="10.4512682"><ele>92.0</ele><time>2026-05-02T11:43:20.013Z</time></trkpt><trkpt lat="45.3990129" lon="10.4515376"><ele>92.0</ele><time>2026-05-02T11:43:21.013Z</time></trkpt><trkpt lat="45.3990053" lon="10.4518127"><ele>92.66666666666667</ele><time>2026-05-02T11:43:22.013Z</time></trkpt><trkpt lat="45.399" lon="10.4520899"><ele>93.33333333333333</ele><time>2026-05-02T11:43:23.013Z</time></trkpt><trkpt lat="45.3989918" lon="10.452368"><ele>94.0</ele><time>2026-05-02T11:43:24.012Z</time></trkpt><trkpt lat="45.3989831" lon="10.4526474"><ele>94.0</ele><time>2026-05-02T11:43:25.012Z</time></trkpt><trkpt lat="45.398977" lon="10.4529262"><ele>94.0</ele><time>2026-05-02T11:43:26.013Z</time></trkpt><trkpt lat="45.3989717" lon="10.4532073"><ele>94.0</ele><time>2026-05-02T11:43:27.013Z</time></trkpt><trkpt lat="45.398967" lon="10.4534925"><ele>93.66666666666666</ele><time>2026-05-02T11:43:28.013Z</time></trkpt><trkpt lat="45.3989605" lon="10.4537807"><ele>93.33333333333333</ele><time>2026-05-02T11:43:29.012Z</time></trkpt><trkpt lat="45.3989519" lon="10.4540691"><ele>93.0</ele><time>2026-05-02T11:43:30.012Z</time></trkpt><trkpt lat="45.3989445" lon="10.4543601"><ele>93.33333333333333</ele><time>2026-05-02T11:43:31.013Z</time></trkpt><trkpt lat="45.3989375" lon="10.4546535"><ele>93.66666666666666</ele><time>2026-05-02T11:43:32.013Z</time></trkpt><trkpt lat="45.3989281" lon="10.4549482"><ele>94.0</ele><time>2026-05-02T11:43:33.012Z</time></trkpt><trkpt lat="45.3989166" lon="10.4552438"><ele>93.66666666666666</ele><time>2026-05-02T11:43:34.012Z</time></trkpt><trkpt lat="45.3989084" lon="10.4555397"><ele>93.33333333333333</ele><time>2026-05-02T11:43:35.013Z</time></trkpt><trkpt lat="45.3988985" lon="10.4558369"><ele>93.0</ele><time>2026-05-02T11:43:36.012Z</time></trkpt><trkpt lat="45.3988895" lon="10.4561358"><ele>93.0</ele><time>2026-05-02T11:43:37.014Z</time></trkpt><trkpt lat="45.3988817" lon="10.4564334"><ele>93.0</ele><time>2026-05-02T11:43:38.012Z</time></trkpt><trkpt lat="45.3988734" lon="10.4567307"><ele>93.0</ele><time>2026-05-02T11:43:39.012Z</time></trkpt><trkpt lat="45.3988645" lon="10.457021"><ele>93.66666666666667</ele><time>2026-05-02T11:43:40.013Z</time></trkpt><trkpt lat="45.3988543" lon="10.4573097"><ele>94.33333333333334</ele><time>2026-05-02T11:43:41.012Z</time></trkpt><trkpt lat="45.3988444" lon="10.4575965"><ele>95.0</ele><time>2026-05-02T11:43:42.013Z</time></trkpt><trkpt lat="45.3988337" lon="10.4578827"><ele>95.33333333333334</ele><time>2026-05-02T11:43:43.012Z</time></trkpt><trkpt lat="45.3988231" lon="10.458168"><ele>95.66666666666667</ele><time>2026-05-02T11:43:44.013Z</time></trkpt><trkpt lat="45.3988178" lon="10.4584542"><ele>96.0</ele><time>2026-05-02T11:43:45.012Z</time></trkpt><trkpt lat="45.3988183" lon="10.4587418"><ele>96.0</ele><time>2026-05-02T11:43:46.013Z</time></trkpt><trkpt lat="45.3988217" lon="10.4590299"><ele>96.0</ele><time>2026-05-02T11:43:47.013Z</time></trkpt><trkpt lat="45.3988266" lon="10.4593207"><ele>96.0</ele><time>2026-05-02T11:43:48.013Z</time></trkpt><trkpt lat="45.3988302" lon="10.4596112"><ele>96.0</ele><time>2026-05-02T11:43:49.012Z</time></trkpt><trkpt lat="45.3988368" lon="10.4598999"><ele>96.0</ele><time>2026-05-02T11:43:50.012Z</time></trkpt><trkpt lat="45.398844" lon="10.4601851"><ele>96.0</ele><time>2026-05-02T11:43:51.012Z</time></trkpt><trkpt lat="45.3988516" lon="10.4604633"><ele>96.0</ele><time>2026-05-02T11:43:52.012Z</time></trkpt><trkpt lat="45.3988587" lon="10.4607396"><ele>96.0</ele><time>2026-05-02T11:43:53.012Z</time></trkpt><trkpt lat="45.3988672" lon="10.4610111"><ele>96.0</ele><time>2026-05-02T11:43:54.012Z</time></trkpt><trkpt lat="45.3988777" lon="10.4612776"><ele>96.33333333333334</ele><time>2026-05-02T11:43:55.012Z</time></trkpt><trkpt lat="45.3988868" lon="10.4615384"><ele>96.66666666666667</ele><time>2026-05-02T11:43:56.013Z</time></trkpt><trkpt lat="45.3988958" lon="10.4617854"><ele>97.0</ele><time>2026-05-02T11:43:57.012Z</time></trkpt><trkpt lat="45.3988994" lon="10.4620263"><ele>97.66666666666667</ele><time>2026-05-02T11:43:58.012Z</time></trkpt><trkpt lat="45.3988923" lon="10.4622668"><ele>98.33333333333334</ele><time>2026-05-02T11:43:59.012Z</time></trkpt><trkpt lat="45.3988728" lon="10.4625032"><ele>99.0</ele><time>2026-05-02T11:44:00.013Z</time></trkpt><trkpt lat="45.3988458" lon="10.4627317"><ele>98.75</ele><time>2026-05-02T11:44:01.012Z</time></trkpt><trkpt lat="45.3988064" lon="10.462943"><ele>98.5</ele><time>2026-05-02T11:44:02.013Z</time></trkpt><trkpt lat="45.3987593" lon="10.4631448"><ele>98.25</ele><time>2026-05-02T11:44:03.012Z</time></trkpt><trkpt lat="45.3987057" lon="10.4633373"><ele>98.0</ele><time>2026-05-02T11:44:04.012Z</time></trkpt><trkpt lat="45.3986483" lon="10.4635119"><ele>98.0</ele><time>2026-05-02T11:44:05.013Z</time></trkpt><trkpt lat="45.3985917" lon="10.4636697"><ele>98.0</ele><time>2026-05-02T11:44:06.013Z</time></trkpt><trkpt lat="45.3985349" lon="10.4638075"><ele>98.0</ele><time>2026-05-02T11:44:07.012Z</time></trkpt><trkpt lat="45.3984854" lon="10.4639143"><ele>98.0</ele><time>2026-05-02T11:44:08.012Z</time></trkpt><trkpt lat="45.3984358" lon="10.4639937"><ele>98.0</ele><time>2026-05-02T11:44:09.013Z</time></trkpt><trkpt lat="45.3983774" lon="10.4640451"><ele>98.14285714285714</ele><time>2026-05-02T11:44:10.012Z</time></trkpt><trkpt lat="45.3983087" lon="10.4640829"><ele>98.28571428571428</ele><time>2026-05-02T11:44:11.013Z</time></trkpt><trkpt lat="45.3982443" lon="10.4641182"><ele>98.42857142857143</ele><time>2026-05-02T11:44:12.012Z</time></trkpt><trkpt lat="45.3981906" lon="10.4641804"><ele>98.57142857142857</ele><time>2026-05-02T11:44:13.012Z</time></trkpt><trkpt lat="45.3981516" lon="10.4642708"><ele>98.71428571428571</ele><time>2026-05-02T11:44:14.013Z</time></trkpt><trkpt lat="45.3981459" lon="10.4643769"><ele>98.85714285714286</ele><time>2026-05-02T11:44:15.012Z</time></trkpt><trkpt lat="45.3981624" lon="10.4644838"><ele>99.0</ele><time>2026-05-02T11:44:16.013Z</time></trkpt><trkpt lat="45.3981809" lon="10.4645992"><ele>99.0</ele><time>2026-05-02T11:44:17.012Z</time></trkpt><trkpt lat="45.3981707" lon="10.4647268"><ele>99.0</ele><time>2026-05-02T11:44:18.013Z</time></trkpt><trkpt lat="45.3981357" lon="10.4648634"><ele>99.0</ele><time>2026-05-02T11:44:19.012Z</time></trkpt><trkpt lat="45.3980907" lon="10.46501"><ele>99.0</ele><time>2026-05-02T11:44:20.012Z</time></trkpt><trkpt lat="45.3980408" lon="10.4651728"><ele>99.0</ele><time>2026-05-02T11:44:21.013Z</time></trkpt><trkpt lat="45.3979882" lon="10.4653443"><ele>99.0</ele><time>2026-05-02T11:44:22.013Z</time></trkpt><trkpt lat="45.397935" lon="10.465527"><ele>99.0</ele><time>2026-05-02T11:44:23.012Z</time></trkpt><trkpt lat="45.3978805" lon="10.4657221"><ele>99.0</ele><time>2026-05-02T11:44:24.012Z</time></trkpt><trkpt lat="45.3978252" lon="10.4659265"><ele>99.0</ele><time>2026-05-02T11:44:25.012Z</time></trkpt><trkpt lat="45.3977679" lon="10.4661383"><ele>99.33333333333334</ele><time>2026-05-02T11:44:26.011Z</time></trkpt><trkpt lat="45.3977098" lon="10.4663484"><ele>99.66666666666667</ele><time>2026-05-02T11:44:27.013Z</time></trkpt><trkpt lat="45.3976515" lon="10.4665556"><ele>100.0</ele><time>2026-05-02T11:44:28.012Z</time></trkpt><trkpt lat="45.3975911" lon="10.4667717"><ele>100.0</ele><time>2026-05-02T11:44:29.012Z</time></trkpt><trkpt lat="45.3975331" lon="10.4669916"><ele>100.0</ele><time>2026-05-02T11:44:30.011Z</time></trkpt><trkpt lat="45.3974745" lon="10.4672145"><ele>100.0</ele><time>2026-05-02T11:44:31.012Z</time></trkpt><trkpt lat="45.3974142" lon="10.4674354"><ele>100.0</ele><time>2026-05-02T11:44:32.011Z</time></trkpt><trkpt lat="45.3973559" lon="10.4676532"><ele>100.0</ele><time>2026-05-02T11:44:33.012Z</time></trkpt><trkpt lat="45.3972988" lon="10.4678739"><ele>100.0</ele><time>2026-05-02T11:44:34.011Z</time></trkpt><trkpt lat="45.3972412" lon="10.4680963"><ele>100.0</ele><time>2026-05-02T11:44:35.012Z</time></trkpt><trkpt lat="45.3971841" lon="10.4683208"><ele>100.0</ele><time>2026-05-02T11:44:36.012Z</time></trkpt><trkpt lat="45.3971238" lon="10.4685473"><ele>100.0</ele><time>2026-05-02T11:44:37.011Z</time></trkpt><trkpt lat="45.3970581" lon="10.4687748"><ele>100.0</ele><time>2026-05-02T11:44:38.012Z</time></trkpt><trkpt lat="45.3969977" lon="10.4690091"><ele>100.0</ele><time>2026-05-02T11:44:39.012Z</time></trkpt><trkpt lat="45.3969363" lon="10.4692462"><ele>100.0</ele><time>2026-05-02T11:44:40.011Z</time></trkpt><trkpt lat="45.3968754" lon="10.469488"><ele>99.66666666666667</ele><time>2026-05-02T11:44:41.012Z</time></trkpt><trkpt lat="45.3968139" lon="10.4697336"><ele>99.33333333333334</ele><time>2026-05-02T11:44:42.013Z</time></trkpt><trkpt lat="45.3967491" lon="10.4699796"><ele>99.0</ele><time>2026-05-02T11:44:43.011Z</time></trkpt><trkpt lat="45.3966848" lon="10.4702275"><ele>99.33333333333334</ele><time>2026-05-02T11:44:44.012Z</time></trkpt><trkpt lat="45.3966199" lon="10.4704788"><ele>99.66666666666667</ele><time>2026-05-02T11:44:45.012Z</time></trkpt><trkpt lat="45.3965528" lon="10.4707298"><ele>100.0</ele><time>2026-05-02T11:44:46.011Z</time></trkpt><trkpt lat="45.3964866" lon="10.4709821"><ele>100.0</ele><time>2026-05-02T11:44:47.012Z</time></trkpt><trkpt lat="45.3964184" lon="10.4712334"><ele>100.0</ele><time>2026-05-02T11:44:48.011Z</time></trkpt><trkpt lat="45.3963487" lon="10.4714812"><ele>100.0</ele><time>2026-05-02T11:44:49.012Z</time></trkpt><trkpt lat="45.3962786" lon="10.4717267"><ele>100.0</ele><time>2026-05-02T11:44:50.012Z</time></trkpt><trkpt lat="45.3962112" lon="10.4719737"><ele>100.0</ele><time>2026-05-02T11:44:51.011Z</time></trkpt><trkpt lat="45.3961451" lon="10.4722217"><ele>100.0</ele><time>2026-05-02T11:44:52.013Z</time></trkpt><trkpt lat="45.396081" lon="10.4724675"><ele>100.0</ele><time>2026-05-02T11:44:53.011Z</time></trkpt><trkpt lat="45.3960168" lon="10.4727074"><ele>100.0</ele><time>2026-05-02T11:44:54.012Z</time></trkpt><trkpt lat="45.3959541" lon="10.4729446"><ele>100.0</ele><time>2026-05-02T11:44:55.011Z</time></trkpt><trkpt lat="45.3958899" lon="10.4731818"><ele>100.33333333333334</ele><time>2026-05-02T11:44:56.012Z</time></trkpt><trkpt lat="45.395826" lon="10.4734169"><ele>100.66666666666666</ele><time>2026-05-02T11:44:57.012Z</time></trkpt><trkpt lat="45.3957676" lon="10.4736426"><ele>101.0</ele><time>2026-05-02T11:44:58.012Z</time></trkpt><trkpt lat="45.3957122" lon="10.4738554"><ele>101.25</ele><time>2026-05-02T11:44:59.011Z</time></trkpt><trkpt lat="45.3956606" lon="10.4740482"><ele>101.5</ele><time>2026-05-02T11:45:00.012Z</time></trkpt><trkpt lat="45.3956124" lon="10.4742176"><ele>101.75</ele><time>2026-05-02T11:45:01.012Z</time></trkpt><trkpt lat="45.3955607" lon="10.4743737"><ele>102.0</ele><time>2026-05-02T11:45:02.011Z</time></trkpt><trkpt lat="45.3955077" lon="10.4745096"><ele>102.0</ele><time>2026-05-02T11:45:03.012Z</time></trkpt><trkpt lat="45.3954568" lon="10.4746298"><ele>102.0</ele><time>2026-05-02T11:45:04.012Z</time></trkpt><trkpt lat="45.3954108" lon="10.4747244"><ele>102.0</ele><time>2026-05-02T11:45:05.012Z</time></trkpt><trkpt lat="45.3953563" lon="10.4748134"><ele>102.0</ele><time>2026-05-02T11:45:07.012Z</time></trkpt><trkpt lat="45.3952686" lon="10.4748719"><ele>102.0</ele><time>2026-05-02T11:45:18.011Z</time></trkpt><trkpt lat="45.3951428" lon="10.4748743"><ele>102.0</ele><time>2026-05-02T11:45:20.012Z</time></trkpt><trkpt lat="45.3950691" lon="10.4748563"><ele>102.0</ele><time>2026-05-02T11:45:21.011Z</time></trkpt><trkpt lat="45.394995" lon="10.474822"><ele>102.0</ele><time>2026-05-02T11:45:22.011Z</time></trkpt><trkpt lat="45.3949158" lon="10.4747794"><ele>102.0</ele><time>2026-05-02T11:45:23.011Z</time></trkpt><trkpt lat="45.3948408" lon="10.4747295"><ele>102.0</ele><time>2026-05-02T11:45:24.012Z</time></trkpt><trkpt lat="45.3947678" lon="10.4746864"><ele>102.0</ele><time>2026-05-02T11:45:25.011Z</time></trkpt><trkpt lat="45.3946962" lon="10.474644"><ele>101.66666666666667</ele><time>2026-05-02T11:45:26.011Z</time></trkpt><trkpt lat="45.3946252" lon="10.4746"><ele>101.33333333333334</ele><time>2026-05-02T11:45:27.012Z</time></trkpt><trkpt lat="45.3945655" lon="10.4745614"><ele>101.0</ele><time>2026-05-02T11:45:28.011Z</time></trkpt><trkpt lat="45.3944766" lon="10.4745071"><ele>100.66666666666667</ele><time>2026-05-02T11:45:30.011Z</time></trkpt><trkpt lat="45.3944079" lon="10.4744656"><ele>100.33333333333334</ele><time>2026-05-02T11:45:32.012Z</time></trkpt><trkpt lat="45.3943263" lon="10.4744218"><ele>100.0</ele><time>2026-05-02T11:45:34.012Z</time></trkpt><trkpt lat="45.3942417" lon="10.4743755"><ele>100.0</ele><time>2026-05-02T11:45:36.011Z</time></trkpt><trkpt lat="45.394144" lon="10.4743329"><ele>100.0</ele><time>2026-05-02T11:45:38.011Z</time></trkpt><trkpt lat="45.3940636" lon="10.4742863"><ele>100.0</ele><time>2026-05-02T11:45:40.011Z</time></trkpt><trkpt lat="45.3940156" lon="10.4742032"><ele>100.0</ele><time>2026-05-02T11:45:42.012Z</time></trkpt><trkpt lat="45.3940333" lon="10.4740709"><ele>100.0</ele><time>2026-05-02T11:45:44.012Z</time></trkpt><trkpt lat="45.3940801" lon="10.4739339"><ele>100.00000000000001</ele><time>2026-05-02T11:45:46.012Z</time></trkpt><trkpt lat="45.3941126" lon="10.4738196"><ele>100.0</ele><time>2026-05-02T11:45:48.011Z</time></trkpt><trkpt lat="45.3941186" lon="10.4737287"><ele>100.0</ele><time>2026-05-02T11:45:50.011Z</time></trkpt><trkpt lat="45.3940744" lon="10.4736621"><ele>100.0</ele><time>2026-05-02T11:45:52.011Z</time></trkpt><trkpt lat="45.3939918" lon="10.4736063"><ele>100.00000000000001</ele><time>2026-05-02T11:45:54.012Z</time></trkpt><trkpt lat="45.3939133" lon="10.4735577"><ele>100.0</ele><time>2026-05-02T11:45:56.012Z</time></trkpt><trkpt lat="45.3938362" lon="10.4736336"><ele>99.66666666666667</ele><time>2026-05-02T11:45:59.012Z</time></trkpt><trkpt lat="45.393793" lon="10.4737823"><ele>99.33333333333334</ele><time>2026-05-02T11:46:01.011Z</time></trkpt><trkpt lat="45.3937696" lon="10.4738763"><ele>99.0</ele><time>2026-05-02T11:46:02.011Z</time></trkpt><trkpt lat="45.3937433" lon="10.4739769"><ele>98.66666666666666</ele><time>2026-05-02T11:46:03.011Z</time></trkpt><trkpt lat="45.3937165" lon="10.4740813"><ele>98.33333333333333</ele><time>2026-05-02T11:46:04.011Z</time></trkpt><trkpt lat="45.3936872" lon="10.4741956"><ele>98.0</ele><time>2026-05-02T11:46:05.012Z</time></trkpt><trkpt lat="45.3936513" lon="10.474309"><ele>98.0</ele><time>2026-05-02T11:46:06.011Z</time></trkpt><trkpt lat="45.3936136" lon="10.4744239"><ele>98.0</ele><time>2026-05-02T11:46:07.011Z</time></trkpt><trkpt lat="45.3935738" lon="10.4745454"><ele>98.0</ele><time>2026-05-02T11:46:08.011Z</time></trkpt><trkpt lat="45.3935376" lon="10.4746684"><ele>98.0</ele><time>2026-05-02T11:46:09.011Z</time></trkpt><trkpt lat="45.3935042" lon="10.4747921"><ele>98.0</ele><time>2026-05-02T11:46:10.012Z</time></trkpt><trkpt lat="45.3934724" lon="10.4749124"><ele>97.99999999999999</ele><time>2026-05-02T11:46:11.011Z</time></trkpt><trkpt lat="45.3934398" lon="10.4750248"><ele>98.0</ele><time>2026-05-02T11:46:12.011Z</time></trkpt><trkpt lat="45.3934098" lon="10.4751176"><ele>98.0</ele><time>2026-05-02T11:46:13.012Z</time></trkpt><trkpt lat="45.3933699" lon="10.4752491"><ele>98.0</ele><time>2026-05-02T11:46:15.012Z</time></trkpt><trkpt lat="45.3933565" lon="10.4753379"><ele>97.99999999999999</ele><time>2026-05-02T11:46:18.011Z</time></trkpt><trkpt lat="45.3934032" lon="10.4754199"><ele>98.0</ele><time>2026-05-02T11:46:21.012Z</time></trkpt><trkpt lat="45.3935106" lon="10.4754859"><ele>98.16666666666666</ele><time>2026-05-02T11:46:23.011Z</time></trkpt><trkpt lat="45.3935788" lon="10.4755257"><ele>98.33333333333333</ele><time>2026-05-02T11:46:24.011Z</time></trkpt><trkpt lat="45.3936494" lon="10.4755659"><ele>98.5</ele><time>2026-05-02T11:46:25.011Z</time></trkpt><trkpt lat="45.3937299" lon="10.4756105"><ele>98.66666666666666</ele><time>2026-05-02T11:46:26.011Z</time></trkpt><trkpt lat="45.393816" lon="10.4756571"><ele>98.83333333333333</ele><time>2026-05-02T11:46:27.011Z</time></trkpt><trkpt lat="45.3939011" lon="10.4756969"><ele>99.0</ele><time>2026-05-02T11:46:28.012Z</time></trkpt><trkpt lat="45.3939879" lon="10.4757435"><ele>99.33333333333333</ele><time>2026-05-02T11:46:29.011Z</time></trkpt><trkpt lat="45.3940748" lon="10.4757913"><ele>99.66666666666666</ele><time>2026-05-02T11:46:30.012Z</time></trkpt><trkpt lat="45.3941618" lon="10.4758349"><ele>100.0</ele><time>2026-05-02T11:46:31.011Z</time></trkpt><trkpt lat="45.3942464" lon="10.4758802"><ele>100.33333333333333</ele><time>2026-05-02T11:46:32.011Z</time></trkpt><trkpt lat="45.3943229" lon="10.4759213"><ele>100.66666666666666</ele><time>2026-05-02T11:46:33.011Z</time></trkpt><trkpt lat="45.3943898" lon="10.475956"><ele>101.0</ele><time>2026-05-02T11:46:34.013Z</time></trkpt><trkpt lat="45.3944509" lon="10.4759896"><ele>100.99999999999999</ele><time>2026-05-02T11:46:35.011Z</time></trkpt><trkpt lat="45.3945508" lon="10.476043"><ele>101.0</ele><time>2026-05-02T11:46:37.012Z</time></trkpt><trkpt lat="45.3946209" lon="10.4761042"><ele>101.0</ele><time>2026-05-02T11:46:40.012Z</time></trkpt><trkpt lat="45.3945594" lon="10.476223"><ele>101.0</ele><time>2026-05-02T11:46:43.011Z</time></trkpt><trkpt lat="45.3945038" lon="10.4762732"><ele>100.99999999999999</ele><time>2026-05-02T11:46:44.011Z</time></trkpt><trkpt lat="45.3944423" lon="10.4763332"><ele>101.0</ele><time>2026-05-02T11:46:45.012Z</time></trkpt><trkpt lat="45.394385" lon="10.4763892"><ele>101.0</ele><time>2026-05-02T11:46:46.011Z</time></trkpt><trkpt lat="45.3943247" lon="10.4764401"><ele>101.0</ele><time>2026-05-02T11:46:47.013Z</time></trkpt><trkpt lat="45.3942528" lon="10.4765013"><ele>101.0</ele><time>2026-05-02T11:46:48.011Z</time></trkpt><trkpt lat="45.3941712" lon="10.4765672"><ele>101.0</ele><time>2026-05-02T11:46:49.012Z</time></trkpt><trkpt lat="45.3940821" lon="10.476639"><ele>101.0</ele><time>2026-05-02T11:46:50.012Z</time></trkpt><trkpt lat="45.3939819" lon="10.4767157"><ele>101.0</ele><time>2026-05-02T11:46:51.011Z</time></trkpt><trkpt lat="45.3938746" lon="10.4768013"><ele>101.0</ele><time>2026-05-02T11:46:52.012Z</time></trkpt><trkpt lat="45.3937624" lon="10.4768905"><ele>101.0</ele><time>2026-05-02T11:46:53.012Z</time></trkpt><trkpt lat="45.3936538" lon="10.476976"><ele>101.0</ele><time>2026-05-02T11:46:54.011Z</time></trkpt><trkpt lat="45.3935425" lon="10.4770701"><ele>100.5</ele><time>2026-05-02T11:46:55.011Z</time></trkpt><trkpt lat="45.3934272" lon="10.4771667"><ele>100.0</ele><time>2026-05-02T11:46:56.012Z</time></trkpt><trkpt lat="45.3933074" lon="10.4772644"><ele>99.5</ele><time>2026-05-02T11:46:57.011Z</time></trkpt><trkpt lat="45.393187" lon="10.4773588"><ele>99.0</ele><time>2026-05-02T11:46:58.012Z</time></trkpt><trkpt lat="45.3930692" lon="10.4774547"><ele>98.75</ele><time>2026-05-02T11:46:59.011Z</time></trkpt><trkpt lat="45.3929573" lon="10.4775453"><ele>98.5</ele><time>2026-05-02T11:47:00.011Z</time></trkpt><trkpt lat="45.3928471" lon="10.4776341"><ele>98.25</ele><time>2026-05-02T11:47:01.011Z</time></trkpt><trkpt lat="45.3927401" lon="10.4777195"><ele>98.0</ele><time>2026-05-02T11:47:02.012Z</time></trkpt><trkpt lat="45.3926344" lon="10.4778047"><ele>98.0</ele><time>2026-05-02T11:47:03.011Z</time></trkpt><trkpt lat="45.392531" lon="10.4778889"><ele>98.0</ele><time>2026-05-02T11:47:04.012Z</time></trkpt><trkpt lat="45.3924319" lon="10.4779658"><ele>98.0</ele><time>2026-05-02T11:47:05.012Z</time></trkpt><trkpt lat="45.3923373" lon="10.4780408"><ele>98.0</ele><time>2026-05-02T11:47:06.012Z</time></trkpt><trkpt lat="45.3922488" lon="10.4781136"><ele>98.0</ele><time>2026-05-02T11:47:07.013Z</time></trkpt><trkpt lat="45.3921617" lon="10.4781825"><ele>98.0</ele><time>2026-05-02T11:47:08.011Z</time></trkpt><trkpt lat="45.3920733" lon="10.4782542"><ele>98.0</ele><time>2026-05-02T11:47:09.012Z</time></trkpt><trkpt lat="45.3919873" lon="10.4783261"><ele>98.0</ele><time>2026-05-02T11:47:10.011Z</time></trkpt><trkpt lat="45.3918964" lon="10.4784006"><ele>98.0</ele><time>2026-05-02T11:47:11.011Z</time></trkpt><trkpt lat="45.3918067" lon="10.4784731"><ele>98.0</ele><time>2026-05-02T11:47:12.012Z</time></trkpt><trkpt lat="45.3917342" lon="10.4785289"><ele>97.99999999999999</ele><time>2026-05-02T11:47:13.011Z</time></trkpt><trkpt lat="45.3916653" lon="10.4785817"><ele>98.0</ele><time>2026-05-02T11:47:14.012Z</time></trkpt><trkpt lat="45.391609" lon="10.4786274"><ele>98.0</ele><time>2026-05-02T11:47:15.011Z</time></trkpt><trkpt lat="45.3915545" lon="10.4786741"><ele>98.0</ele><time>2026-05-02T11:47:16.011Z</time></trkpt><trkpt lat="45.3914932" lon="10.4787236"><ele>97.99999999999999</ele><time>2026-05-02T11:47:17.011Z</time></trkpt><trkpt lat="45.3914236" lon="10.4787845"><ele>98.0</ele><time>2026-05-02T11:47:18.011Z</time></trkpt><trkpt lat="45.3913436" lon="10.47885"><ele>98.0</ele><time>2026-05-02T11:47:19.012Z</time></trkpt><trkpt lat="45.3912551" lon="10.4789229"><ele>98.0</ele><time>2026-05-02T11:47:20.012Z</time></trkpt><trkpt lat="45.3911564" lon="10.4789998"><ele>98.0</ele><time>2026-05-02T11:47:21.011Z</time></trkpt><trkpt lat="45.3910522" lon="10.4790833"><ele>98.0</ele><time>2026-05-02T11:47:22.012Z</time></trkpt><trkpt lat="45.3909486" lon="10.4791686"><ele>98.0</ele><time>2026-05-02T11:47:23.011Z</time></trkpt><trkpt lat="45.3908445" lon="10.4792559"><ele>98.0</ele><time>2026-05-02T11:47:24.011Z</time></trkpt><trkpt lat="45.3907398" lon="10.4793418"><ele>98.0</ele><time>2026-05-02T11:47:25.012Z</time></trkpt><trkpt lat="45.3906437" lon="10.479419"><ele>98.0</ele><time>2026-05-02T11:47:26.011Z</time></trkpt><trkpt lat="45.3905645" lon="10.4794873"><ele>98.0</ele><time>2026-05-02T11:47:27.011Z</time></trkpt><trkpt lat="45.3904884" lon="10.47954"><ele>97.85714285714286</ele><time>2026-05-02T11:47:28.011Z</time></trkpt><trkpt lat="45.3904166" lon="10.4795747"><ele>97.71428571428572</ele><time>2026-05-02T11:47:29.012Z</time></trkpt><trkpt lat="45.3903495" lon="10.4795882"><ele>97.57142857142857</ele><time>2026-05-02T11:47:30.011Z</time></trkpt><trkpt lat="45.3902854" lon="10.4795892"><ele>97.42857142857143</ele><time>2026-05-02T11:47:31.013Z</time></trkpt><trkpt lat="45.3902192" lon="10.4796179"><ele>97.28571428571429</ele><time>2026-05-02T11:47:32.011Z</time></trkpt><trkpt lat="45.3901588" lon="10.4796966"><ele>97.14285714285714</ele><time>2026-05-02T11:47:33.011Z</time></trkpt><trkpt lat="45.3901026" lon="10.4797941"><ele>97.0</ele><time>2026-05-02T11:47:34.011Z</time></trkpt><trkpt lat="45.3900326" lon="10.4798983"><ele>97.0</ele><time>2026-05-02T11:47:35.011Z</time></trkpt><trkpt lat="45.3899442" lon="10.4799901"><ele>97.0</ele><time>2026-05-02T11:47:36.012Z</time></trkpt><trkpt lat="45.3898452" lon="10.4800752"><ele>97.0</ele><time>2026-05-02T11:47:37.012Z</time></trkpt><trkpt lat="45.389752" lon="10.4801516"><ele>97.0</ele><time>2026-05-02T11:47:38.011Z</time></trkpt><trkpt lat="45.3896551" lon="10.480232"><ele>97.0</ele><time>2026-05-02T11:47:39.011Z</time></trkpt><trkpt lat="45.3895521" lon="10.480313"><ele>97.0</ele><time>2026-05-02T11:47:40.012Z</time></trkpt><trkpt lat="45.3894474" lon="10.4803956"><ele>97.0</ele><time>2026-05-02T11:47:41.011Z</time></trkpt><trkpt lat="45.3893439" lon="10.4804894"><ele>97.0</ele><time>2026-05-02T11:47:42.012Z</time></trkpt><trkpt lat="45.3892383" lon="10.4805884"><ele>97.0</ele><time>2026-05-02T11:47:43.011Z</time></trkpt><trkpt lat="45.3891324" lon="10.4806942"><ele>97.0</ele><time>2026-05-02T11:47:44.012Z</time></trkpt><trkpt lat="45.3890316" lon="10.4808019"><ele>97.0</ele><time>2026-05-02T11:47:45.012Z</time></trkpt><trkpt lat="45.3889386" lon="10.4809049"><ele>97.0</ele><time>2026-05-02T11:47:46.012Z</time></trkpt><trkpt lat="45.3888534" lon="10.4810052"><ele>97.0</ele><time>2026-05-02T11:47:47.012Z</time></trkpt><trkpt lat="45.3887729" lon="10.4811046"><ele>97.0</ele><time>2026-05-02T11:47:48.011Z</time></trkpt><trkpt lat="45.3886971" lon="10.4811945"><ele>97.0</ele><time>2026-05-02T11:47:49.012Z</time></trkpt><trkpt lat="45.388628" lon="10.4812813"><ele>97.0</ele><time>2026-05-02T11:47:50.013Z</time></trkpt><trkpt lat="45.3885605" lon="10.4813587"><ele>97.0</ele><time>2026-05-02T11:47:51.012Z</time></trkpt><trkpt lat="45.3884907" lon="10.4814273"><ele>97.0</ele><time>2026-05-02T11:47:52.011Z</time></trkpt><trkpt lat="45.3884136" lon="10.4814895"><ele>96.83333333333334</ele><time>2026-05-02T11:47:53.012Z</time></trkpt><trkpt lat="45.3883388" lon="10.4815474"><ele>96.66666666666667</ele><time>2026-05-02T11:47:54.011Z</time></trkpt><trkpt lat="45.3882918" lon="10.4816108"><ele>96.5</ele><time>2026-05-02T11:47:55.011Z</time></trkpt><trkpt lat="45.3882301" lon="10.4817698"><ele>96.33333333333334</ele><time>2026-05-02T11:47:57.012Z</time></trkpt><trkpt lat="45.388202" lon="10.4818654"><ele>96.16666666666667</ele><time>2026-05-02T11:47:58.013Z</time></trkpt><trkpt lat="45.3881645" lon="10.4819682"><ele>96.0</ele><time>2026-05-02T11:47:59.011Z</time></trkpt><trkpt lat="45.3881096" lon="10.4820745"><ele>95.6</ele><time>2026-05-02T11:48:00.012Z</time></trkpt><trkpt lat="45.3880464" lon="10.4821863"><ele>95.19999999999999</ele><time>2026-05-02T11:48:01.012Z</time></trkpt><trkpt lat="45.3879743" lon="10.482301"><ele>94.80000000000001</ele><time>2026-05-02T11:48:02.011Z</time></trkpt><trkpt lat="45.3878982" lon="10.4824162"><ele>94.4</ele><time>2026-05-02T11:48:03.012Z</time></trkpt><trkpt lat="45.3878228" lon="10.4825314"><ele>94.0</ele><time>2026-05-02T11:48:04.011Z</time></trkpt><trkpt lat="45.3877466" lon="10.4826488"><ele>93.75</ele><time>2026-05-02T11:48:05.011Z</time></trkpt><trkpt lat="45.3876635" lon="10.4827691"><ele>93.5</ele><time>2026-05-02T11:48:06.012Z</time></trkpt><trkpt lat="45.3875772" lon="10.4828947"><ele>93.25</ele><time>2026-05-02T11:48:07.012Z</time></trkpt><trkpt lat="45.3874868" lon="10.4830258"><ele>93.0</ele><time>2026-05-02T11:48:08.012Z</time></trkpt><trkpt lat="45.3873921" lon="10.4831596"><ele>92.75</ele><time>2026-05-02T11:48:09.011Z</time></trkpt><trkpt lat="45.3872946" lon="10.4832943"><ele>92.5</ele><time>2026-05-02T11:48:10.011Z</time></trkpt><trkpt lat="45.3872" lon="10.4834285"><ele>92.25</ele><time>2026-05-02T11:48:11.011Z</time></trkpt><trkpt lat="45.3870983" lon="10.4835668"><ele>92.0</ele><time>2026-05-02T11:48:12.011Z</time></trkpt><trkpt lat="45.3870001" lon="10.4837062"><ele>92.0</ele><time>2026-05-02T11:48:13.013Z</time></trkpt><trkpt lat="45.3869033" lon="10.4838497"><ele>92.0</ele><time>2026-05-02T11:48:14.012Z</time></trkpt><trkpt lat="45.3868118" lon="10.483992"><ele>92.0</ele><time>2026-05-02T11:48:15.012Z</time></trkpt><trkpt lat="45.3867244" lon="10.4841345"><ele>92.0</ele><time>2026-05-02T11:48:16.011Z</time></trkpt><trkpt lat="45.3866396" lon="10.4842833"><ele>92.0</ele><time>2026-05-02T11:48:17.013Z</time></trkpt><trkpt lat="45.386559" lon="10.4844376"><ele>92.0</ele><time>2026-05-02T11:48:18.011Z</time></trkpt><trkpt lat="45.3864791" lon="10.4845739"><ele>92.0</ele><time>2026-05-02T11:48:19.012Z</time></trkpt><trkpt lat="45.3864005" lon="10.4846955"><ele>92.0</ele><time>2026-05-02T11:48:20.011Z</time></trkpt><trkpt lat="45.3863245" lon="10.4848083"><ele>92.0</ele><time>2026-05-02T11:48:21.012Z</time></trkpt><trkpt lat="45.3862566" lon="10.4849113"><ele>92.0</ele><time>2026-05-02T11:48:22.011Z</time></trkpt><trkpt lat="45.3861934" lon="10.4850059"><ele>92.0</ele><time>2026-05-02T11:48:23.011Z</time></trkpt><trkpt lat="45.3861272" lon="10.4851017"><ele>92.0</ele><time>2026-05-02T11:48:24.012Z</time></trkpt><trkpt lat="45.3860584" lon="10.4852009"><ele>92.0</ele><time>2026-05-02T11:48:25.012Z</time></trkpt><trkpt lat="45.3859897" lon="10.4853011"><ele>92.0</ele><time>2026-05-02T11:48:26.013Z</time></trkpt><trkpt lat="45.3859285" lon="10.4853841"><ele>92.0</ele><time>2026-05-02T11:48:27.013Z</time></trkpt><trkpt lat="45.3858764" lon="10.4854479"><ele>92.0</ele><time>2026-05-02T11:48:28.012Z</time></trkpt><trkpt lat="45.3858104" lon="10.4855092"><ele>92.0</ele><time>2026-05-02T11:48:30.011Z</time></trkpt><trkpt lat="45.3857492" lon="10.4855507"><ele>92.0</ele><time>2026-05-02T11:48:32.011Z</time></trkpt><trkpt lat="45.3856638" lon="10.4856347"><ele>92.0</ele><time>2026-05-02T11:48:34.012Z</time></trkpt><trkpt lat="45.3856173" lon="10.4857862"><ele>92.0</ele><time>2026-05-02T11:48:36.011Z</time></trkpt><trkpt lat="45.3856056" lon="10.4858918"><ele>92.0</ele><time>2026-05-02T11:48:37.012Z</time></trkpt><trkpt lat="45.3855772" lon="10.4859889"><ele>92.0</ele><time>2026-05-02T11:48:38.012Z</time></trkpt><trkpt lat="45.3855327" lon="10.4860847"><ele>92.0</ele><time>2026-05-02T11:48:39.011Z</time></trkpt><trkpt lat="45.3854767" lon="10.4861831"><ele>92.0</ele><time>2026-05-02T11:48:40.011Z</time></trkpt><trkpt lat="45.3854167" lon="10.4862863"><ele>92.0</ele><time>2026-05-02T11:48:41.011Z</time></trkpt><trkpt lat="45.385363" lon="10.4863932"><ele>92.39999999999999</ele><time>2026-05-02T11:48:42.011Z</time></trkpt><trkpt lat="45.3853086" lon="10.486505"><ele>92.8</ele><time>2026-05-02T11:48:43.011Z</time></trkpt><trkpt lat="45.385256" lon="10.4866262"><ele>93.2</ele><time>2026-05-02T11:48:44.011Z</time></trkpt><trkpt lat="45.3852034" lon="10.4867542"><ele>93.6</ele><time>2026-05-02T11:48:45.011Z</time></trkpt><trkpt lat="45.3851528" lon="10.4868823"><ele>94.0</ele><time>2026-05-02T11:48:46.011Z</time></trkpt><trkpt lat="45.3851048" lon="10.4870096"><ele>94.4</ele><time>2026-05-02T11:48:47.011Z</time></trkpt><trkpt lat="45.3850536" lon="10.4871452"><ele>94.80000000000001</ele><time>2026-05-02T11:48:48.011Z</time></trkpt><trkpt lat="45.3850026" lon="10.4872835"><ele>95.19999999999999</ele><time>2026-05-02T11:48:49.011Z</time></trkpt><trkpt lat="45.3849515" lon="10.4874263"><ele>95.6</ele><time>2026-05-02T11:48:50.012Z</time></trkpt><trkpt lat="45.3849021" lon="10.4875721"><ele>96.0</ele><time>2026-05-02T11:48:51.011Z</time></trkpt><trkpt lat="45.3848582" lon="10.4877181"><ele>96.0</ele><time>2026-05-02T11:48:52.012Z</time></trkpt><trkpt lat="45.3848125" lon="10.4878743"><ele>96.0</ele><time>2026-05-02T11:48:53.011Z</time></trkpt><trkpt lat="45.3847724" lon="10.48803"><ele>96.0</ele><time>2026-05-02T11:48:54.011Z</time></trkpt><trkpt lat="45.3847331" lon="10.488178"><ele>96.0</ele><time>2026-05-02T11:48:55.012Z</time></trkpt><trkpt lat="45.3846937" lon="10.4883238"><ele>95.5</ele><time>2026-05-02T11:48:56.011Z</time></trkpt><trkpt lat="45.3846492" lon="10.4884714"><ele>95.0</ele><time>2026-05-02T11:48:57.012Z</time></trkpt><trkpt lat="45.3846067" lon="10.488631"><ele>94.5</ele><time>2026-05-02T11:48:58.013Z</time></trkpt><trkpt lat="45.3845626" lon="10.4887958"><ele>94.0</ele><time>2026-05-02T11:48:59.011Z</time></trkpt><trkpt lat="45.3845194" lon="10.4889666"><ele>94.0</ele><time>2026-05-02T11:49:00.012Z</time></trkpt><trkpt lat="45.3844758" lon="10.4891427"><ele>94.0</ele><time>2026-05-02T11:49:01.012Z</time></trkpt><trkpt lat="45.3844316" lon="10.4893252"><ele>94.0</ele><time>2026-05-02T11:49:02.012Z</time></trkpt><trkpt lat="45.3843824" lon="10.4895121"><ele>94.0</ele><time>2026-05-02T11:49:03.011Z</time></trkpt><trkpt lat="45.3843273" lon="10.4897015"><ele>93.75</ele><time>2026-05-02T11:49:04.011Z</time></trkpt><trkpt lat="45.3842809" lon="10.4898838"><ele>93.5</ele><time>2026-05-02T11:49:05.013Z</time></trkpt><trkpt lat="45.3842373" lon="10.4900528"><ele>93.25</ele><time>2026-05-02T11:49:06.011Z</time></trkpt><trkpt lat="45.3841951" lon="10.4902226"><ele>93.0</ele><time>2026-05-02T11:49:07.011Z</time></trkpt><trkpt lat="45.3841479" lon="10.490391"><ele>93.2</ele><time>2026-05-02T11:49:08.011Z</time></trkpt><trkpt lat="45.3841057" lon="10.4905534"><ele>93.4</ele><time>2026-05-02T11:49:09.012Z</time></trkpt><trkpt lat="45.3840639" lon="10.4907054"><ele>93.60000000000001</ele><time>2026-05-02T11:49:10.012Z</time></trkpt><trkpt lat="45.3840304" lon="10.4908475"><ele>93.80000000000001</ele><time>2026-05-02T11:49:11.012Z</time></trkpt><trkpt lat="45.3839975" lon="10.4909857"><ele>94.0</ele><time>2026-05-02T11:49:12.012Z</time></trkpt><trkpt lat="45.3839614" lon="10.491099"><ele>94.0</ele><time>2026-05-02T11:49:13.011Z</time></trkpt><trkpt lat="45.3839139" lon="10.4911931"><ele>94.0</ele><time>2026-05-02T11:49:14.011Z</time></trkpt><trkpt lat="45.3838519" lon="10.4912679"><ele>94.0</ele><time>2026-05-02T11:49:15.012Z</time></trkpt><trkpt lat="45.3837838" lon="10.4913252"><ele>94.0</ele><time>2026-05-02T11:49:16.011Z</time></trkpt><trkpt lat="45.3837099" lon="10.4913818"><ele>94.0</ele><time>2026-05-02T11:49:17.013Z</time></trkpt><trkpt lat="45.383648" lon="10.4914578"><ele>94.0</ele><time>2026-05-02T11:49:18.011Z</time></trkpt><trkpt lat="45.3836098" lon="10.4915516"><ele>93.66666666666666</ele><time>2026-05-02T11:49:19.011Z</time></trkpt><trkpt lat="45.383599" lon="10.4916625"><ele>93.33333333333333</ele><time>2026-05-02T11:49:20.012Z</time></trkpt><trkpt lat="45.3836193" lon="10.4917773"><ele>93.0</ele><time>2026-05-02T11:49:21.011Z</time></trkpt><trkpt lat="45.3836584" lon="10.4918891"><ele>92.66666666666667</ele><time>2026-05-02T11:49:22.011Z</time></trkpt><trkpt lat="45.3836791" lon="10.4920175"><ele>92.33333333333334</ele><time>2026-05-02T11:49:23.012Z</time></trkpt><trkpt lat="45.3836743" lon="10.4921583"><ele>92.0</ele><time>2026-05-02T11:49:24.012Z</time></trkpt><trkpt lat="45.3836441" lon="10.4923073"><ele>92.0</ele><time>2026-05-02T11:49:25.012Z</time></trkpt><trkpt lat="45.3836118" lon="10.4924616"><ele>92.0</ele><time>2026-05-02T11:49:26.011Z</time></trkpt><trkpt lat="45.3835688" lon="10.4926201"><ele>92.0</ele><time>2026-05-02T11:49:27.011Z</time></trkpt><trkpt lat="45.3835254" lon="10.4927898"><ele>92.0</ele><time>2026-05-02T11:49:28.012Z</time></trkpt><trkpt lat="45.3834766" lon="10.4929654"><ele>91.75</ele><time>2026-05-02T11:49:29.011Z</time></trkpt><trkpt lat="45.383423" lon="10.4931492"><ele>91.5</ele><time>2026-05-02T11:49:30.011Z</time></trkpt><trkpt lat="45.3833691" lon="10.4933376"><ele>91.25</ele><time>2026-05-02T11:49:31.012Z</time></trkpt><trkpt lat="45.3833161" lon="10.493536"><ele>91.0</ele><time>2026-05-02T11:49:32.011Z</time></trkpt><trkpt lat="45.3832653" lon="10.4937393"><ele>92.0</ele><time>2026-05-02T11:49:33.011Z</time></trkpt><trkpt lat="45.3832136" lon="10.4939442"><ele>93.0</ele><time>2026-05-02T11:49:34.012Z</time></trkpt><trkpt lat="45.3831611" lon="10.4941521"><ele>94.0</ele><time>2026-05-02T11:49:35.011Z</time></trkpt><trkpt lat="45.3831048" lon="10.494357"><ele>94.0</ele><time>2026-05-02T11:49:36.011Z</time></trkpt><trkpt lat="45.383049" lon="10.4945651"><ele>94.0</ele><time>2026-05-02T11:49:37.011Z</time></trkpt><trkpt lat="45.3829909" lon="10.4947719"><ele>94.0</ele><time>2026-05-02T11:49:38.011Z</time></trkpt><trkpt lat="45.3829342" lon="10.494982"><ele>94.33333333333333</ele><time>2026-05-02T11:49:39.013Z</time></trkpt><trkpt lat="45.382879" lon="10.4951922"><ele>94.66666666666667</ele><time>2026-05-02T11:49:40.011Z</time></trkpt><trkpt lat="45.382826" lon="10.4953999"><ele>95.0</ele><time>2026-05-02T11:49:41.012Z</time></trkpt><trkpt lat="45.382772" lon="10.4956079"><ele>95.66666666666667</ele><time>2026-05-02T11:49:42.011Z</time></trkpt><trkpt lat="45.3827165" lon="10.4958117"><ele>96.33333333333334</ele><time>2026-05-02T11:49:43.011Z</time></trkpt><trkpt lat="45.3826617" lon="10.4960149"><ele>97.0</ele><time>2026-05-02T11:49:44.012Z</time></trkpt><trkpt lat="45.3826065" lon="10.4962196"><ele>98.0</ele><time>2026-05-02T11:49:45.011Z</time></trkpt><trkpt lat="45.3825536" lon="10.4964253"><ele>99.0</ele><time>2026-05-02T11:49:46.012Z</time></trkpt><trkpt lat="45.3824984" lon="10.4966316"><ele>100.0</ele><time>2026-05-02T11:49:47.012Z</time></trkpt><trkpt lat="45.3824438" lon="10.4968354"><ele>100.0</ele><time>2026-05-02T11:49:48.011Z</time></trkpt><trkpt lat="45.3823914" lon="10.497042"><ele>100.0</ele><time>2026-05-02T11:49:49.012Z</time></trkpt><trkpt lat="45.3823401" lon="10.4972471"><ele>100.0</ele><time>2026-05-02T11:49:50.012Z</time></trkpt><trkpt lat="45.3822857" lon="10.4974508"><ele>100.0</ele><time>2026-05-02T11:49:51.011Z</time></trkpt><trkpt lat="45.382233" lon="10.4976547"><ele>100.0</ele><time>2026-05-02T11:49:52.012Z</time></trkpt><trkpt lat="45.3821779" lon="10.4978557"><ele>100.0</ele><time>2026-05-02T11:49:53.011Z</time></trkpt><trkpt lat="45.3821261" lon="10.4980471"><ele>100.0</ele><time>2026-05-02T11:49:54.011Z</time></trkpt><trkpt lat="45.3820802" lon="10.4982189"><ele>100.0</ele><time>2026-05-02T11:49:55.011Z</time></trkpt><trkpt lat="45.3820406" lon="10.4983761"><ele>100.0</ele><time>2026-05-02T11:49:56.011Z</time></trkpt><trkpt lat="45.3820054" lon="10.49851"><ele>100.0</ele><time>2026-05-02T11:49:57.011Z</time></trkpt><trkpt lat="45.3819716" lon="10.4986303"><ele>100.0</ele><time>2026-05-02T11:49:58.012Z</time></trkpt><trkpt lat="45.3819394" lon="10.4987248"><ele>100.0</ele><time>2026-05-02T11:49:59.011Z</time></trkpt><trkpt lat="45.3818861" lon="10.4988716"><ele>100.33333333333334</ele><time>2026-05-02T11:50:01.011Z</time></trkpt><trkpt lat="45.381839" lon="10.498981"><ele>100.66666666666667</ele><time>2026-05-02T11:50:03.012Z</time></trkpt><trkpt lat="45.3818033" lon="10.4990637"><ele>101.0</ele><time>2026-05-02T11:50:05.012Z</time></trkpt><trkpt lat="45.3817637" lon="10.4991366"><ele>101.33333333333334</ele><time>2026-05-02T11:50:07.011Z</time></trkpt><trkpt lat="45.3816826" lon="10.499194"><ele>101.66666666666667</ele><time>2026-05-02T11:50:11.011Z</time></trkpt><trkpt lat="45.3815876" lon="10.4992441"><ele>102.0</ele><time>2026-05-02T11:50:13.012Z</time></trkpt><trkpt lat="45.3815165" lon="10.4993689"><ele>102.0</ele><time>2026-05-02T11:50:15.011Z</time></trkpt><trkpt lat="45.3814974" lon="10.4994598"><ele>102.0</ele><time>2026-05-02T11:50:16.011Z</time></trkpt><trkpt lat="45.3814908" lon="10.4995537"><ele>102.0</ele><time>2026-05-02T11:50:17.011Z</time></trkpt><trkpt lat="45.3814551" lon="10.4997104"><ele>102.0</ele><time>2026-05-02T11:50:19.011Z</time></trkpt><trkpt lat="45.3813644" lon="10.4998498"><ele>102.0</ele><time>2026-05-02T11:50:21.013Z</time></trkpt><trkpt lat="45.3813016" lon="10.4999273"><ele>102.19999999999999</ele><time>2026-05-02T11:50:22.012Z</time></trkpt><trkpt lat="45.3812296" lon="10.5000087"><ele>102.4</ele><time>2026-05-02T11:50:23.011Z</time></trkpt><trkpt lat="45.3811576" lon="10.500089"><ele>102.6</ele><time>2026-05-02T11:50:24.012Z</time></trkpt><trkpt lat="45.3810778" lon="10.5001785"><ele>102.80000000000001</ele><time>2026-05-02T11:50:25.011Z</time></trkpt><trkpt lat="45.3809928" lon="10.5002712"><ele>103.0</ele><time>2026-05-02T11:50:26.011Z</time></trkpt><trkpt lat="45.3809011" lon="10.5003717"><ele>103.25</ele><time>2026-05-02T11:50:27.011Z</time></trkpt><trkpt lat="45.3808015" lon="10.5004749"><ele>103.5</ele><time>2026-05-02T11:50:28.011Z</time></trkpt><trkpt lat="45.3806965" lon="10.5005813"><ele>103.75</ele><time>2026-05-02T11:50:29.011Z</time></trkpt><trkpt lat="45.3805894" lon="10.5006825"><ele>104.0</ele><time>2026-05-02T11:50:30.011Z</time></trkpt><trkpt lat="45.380477" lon="10.5007872"><ele>103.75</ele><time>2026-05-02T11:50:31.011Z</time></trkpt><trkpt lat="45.3803599" lon="10.5008948"><ele>103.5</ele><time>2026-05-02T11:50:32.012Z</time></trkpt><trkpt lat="45.3802385" lon="10.5010118"><ele>103.25</ele><time>2026-05-02T11:50:33.012Z</time></trkpt><trkpt lat="45.3801135" lon="10.5011365"><ele>103.0</ele><time>2026-05-02T11:50:34.011Z</time></trkpt><trkpt lat="45.3799929" lon="10.5012556"><ele>103.0</ele><time>2026-05-02T11:50:35.012Z</time></trkpt><trkpt lat="45.3798708" lon="10.5013707"><ele>103.0</ele><time>2026-05-02T11:50:36.011Z</time></trkpt><trkpt lat="45.3797449" lon="10.5014906"><ele>103.0</ele><time>2026-05-02T11:50:37.011Z</time></trkpt><trkpt lat="45.3796156" lon="10.5016146"><ele>101.0</ele><time>2026-05-02T11:50:38.011Z</time></trkpt><trkpt lat="45.3794828" lon="10.501744"><ele>99.0</ele><time>2026-05-02T11:50:39.011Z</time></trkpt><trkpt lat="45.3793463" lon="10.5018767"><ele>97.0</ele><time>2026-05-02T11:50:40.012Z</time></trkpt><trkpt lat="45.379205" lon="10.5020128"><ele>97.66666666666667</ele><time>2026-05-02T11:50:41.011Z</time></trkpt><trkpt lat="45.3790591" lon="10.5021507"><ele>98.33333333333334</ele><time>2026-05-02T11:50:42.011Z</time></trkpt><trkpt lat="45.3789123" lon="10.5022921"><ele>99.0</ele><time>2026-05-02T11:50:43.012Z</time></trkpt><trkpt lat="45.3787636" lon="10.5024402"><ele>99.0</ele><time>2026-05-02T11:50:44.013Z</time></trkpt><trkpt lat="45.3786099" lon="10.5025901"><ele>99.0</ele><time>2026-05-02T11:50:45.012Z</time></trkpt><trkpt lat="45.3784582" lon="10.502736"><ele>99.0</ele><time>2026-05-02T11:50:46.013Z</time></trkpt><trkpt lat="45.3783052" lon="10.5028886"><ele>99.33333333333334</ele><time>2026-05-02T11:50:47.013Z</time></trkpt><trkpt lat="45.3781506" lon="10.5030349"><ele>99.66666666666667</ele><time>2026-05-02T11:50:48.012Z</time></trkpt><trkpt lat="45.3779938" lon="10.5031881"><ele>100.0</ele><time>2026-05-02T11:50:49.012Z</time></trkpt><trkpt lat="45.3778372" lon="10.5033384"><ele>100.0</ele><time>2026-05-02T11:50:50.012Z</time></trkpt><trkpt lat="45.3776801" lon="10.5034904"><ele>100.0</ele><time>2026-05-02T11:50:51.011Z</time></trkpt><trkpt lat="45.3775232" lon="10.5036445"><ele>100.0</ele><time>2026-05-02T11:50:52.011Z</time></trkpt><trkpt lat="45.3773658" lon="10.503795"><ele>100.0</ele><time>2026-05-02T11:50:53.012Z</time></trkpt><trkpt lat="45.3772098" lon="10.5039464"><ele>100.0</ele><time>2026-05-02T11:50:54.012Z</time></trkpt><trkpt lat="45.3770564" lon="10.5041016"><ele>100.0</ele><time>2026-05-02T11:50:55.011Z</time></trkpt><trkpt lat="45.3769008" lon="10.5042592"><ele>99.66666666666667</ele><time>2026-05-02T11:50:56.011Z</time></trkpt><trkpt lat="45.3767414" lon="10.5044132"><ele>99.33333333333334</ele><time>2026-05-02T11:50:57.011Z</time></trkpt><trkpt lat="45.3765827" lon="10.504567"><ele>99.0</ele><time>2026-05-02T11:50:58.012Z</time></trkpt><trkpt lat="45.3764297" lon="10.5047191"><ele>97.33333333333333</ele><time>2026-05-02T11:50:59.011Z</time></trkpt><trkpt lat="45.3762782" lon="10.5048642"><ele>95.66666666666666</ele><time>2026-05-02T11:51:00.011Z</time></trkpt><trkpt lat="45.3761316" lon="10.5050003"><ele>94.0</ele><time>2026-05-02T11:51:01.012Z</time></trkpt><trkpt lat="45.3759916" lon="10.505132"><ele>94.0</ele><time>2026-05-02T11:51:02.011Z</time></trkpt><trkpt lat="45.3758525" lon="10.5052607"><ele>94.0</ele><time>2026-05-02T11:51:03.013Z</time></trkpt><trkpt lat="45.3757118" lon="10.5053898"><ele>94.0</ele><time>2026-05-02T11:51:04.012Z</time></trkpt><trkpt lat="45.3755717" lon="10.5055261"><ele>94.0</ele><time>2026-05-02T11:51:05.012Z</time></trkpt><trkpt lat="45.3754315" lon="10.505669"><ele>94.0</ele><time>2026-05-02T11:51:06.012Z</time></trkpt><trkpt lat="45.3752887" lon="10.5058133"><ele>94.0</ele><time>2026-05-02T11:51:07.011Z</time></trkpt><trkpt lat="45.3751501" lon="10.5059496"><ele>94.0</ele><time>2026-05-02T11:51:08.011Z</time></trkpt><trkpt lat="45.3750181" lon="10.5060749"><ele>94.0</ele><time>2026-05-02T11:51:09.011Z</time></trkpt><trkpt lat="45.374888" lon="10.5061978"><ele>94.0</ele><time>2026-05-02T11:51:10.011Z</time></trkpt><trkpt lat="45.3747567" lon="10.5063226"><ele>94.0</ele><time>2026-05-02T11:51:11.012Z</time></trkpt><trkpt lat="45.3746271" lon="10.5064457"><ele>94.0</ele><time>2026-05-02T11:51:12.012Z</time></trkpt><trkpt lat="45.3745109" lon="10.5065534"><ele>94.0</ele><time>2026-05-02T11:51:13.011Z</time></trkpt><trkpt lat="45.3744122" lon="10.5066411"><ele>94.0</ele><time>2026-05-02T11:51:14.011Z</time></trkpt><trkpt lat="45.3743325" lon="10.5067183"><ele>94.0</ele><time>2026-05-02T11:51:15.012Z</time></trkpt><trkpt lat="45.3742647" lon="10.5067926"><ele>94.0</ele><time>2026-05-02T11:51:16.013Z</time></trkpt><trkpt lat="45.3741752" lon="10.5069"><ele>94.0</ele><time>2026-05-02T11:51:18.011Z</time></trkpt><trkpt lat="45.3741045" lon="10.5069766"><ele>94.0</ele><time>2026-05-02T11:51:20.012Z</time></trkpt><trkpt lat="45.3740579" lon="10.5070387"><ele>94.0</ele><time>2026-05-02T11:51:22.012Z</time></trkpt><trkpt lat="45.3740303" lon="10.5071656"><ele>94.0</ele><time>2026-05-02T11:51:27.011Z</time></trkpt><trkpt lat="45.3740305" lon="10.5072663"><ele>94.2</ele><time>2026-05-02T11:51:28.011Z</time></trkpt><trkpt lat="45.3740467" lon="10.5073843"><ele>94.4</ele><time>2026-05-02T11:51:29.012Z</time></trkpt><trkpt lat="45.3740797" lon="10.5075022"><ele>94.6</ele><time>2026-05-02T11:51:30.011Z</time></trkpt><trkpt lat="45.3741268" lon="10.5076177"><ele>94.8</ele><time>2026-05-02T11:51:31.011Z</time></trkpt><trkpt lat="45.3741807" lon="10.5077332"><ele>95.0</ele><time>2026-05-02T11:51:32.011Z</time></trkpt><trkpt lat="45.3742397" lon="10.5078576"><ele>95.5</ele><time>2026-05-02T11:51:33.011Z</time></trkpt><trkpt lat="45.3743023" lon="10.5079887"><ele>96.0</ele><time>2026-05-02T11:51:34.011Z</time></trkpt><trkpt lat="45.3743702" lon="10.508124"><ele>96.5</ele><time>2026-05-02T11:51:35.011Z</time></trkpt><trkpt lat="45.3744414" lon="10.508263"><ele>97.0</ele><time>2026-05-02T11:51:36.012Z</time></trkpt><trkpt lat="45.374515" lon="10.5084065"><ele>97.0</ele><time>2026-05-02T11:51:37.011Z</time></trkpt><trkpt lat="45.3745863" lon="10.5085447"><ele>97.0</ele><time>2026-05-02T11:51:38.011Z</time></trkpt><trkpt lat="45.3746609" lon="10.5086861"><ele>97.0</ele><time>2026-05-02T11:51:39.011Z</time></trkpt><trkpt lat="45.3747437" lon="10.5088197"><ele>97.0</ele><time>2026-05-02T11:51:40.011Z</time></trkpt><trkpt lat="45.3748358" lon="10.5089417"><ele>98.5</ele><time>2026-05-02T11:51:41.012Z</time></trkpt><trkpt lat="45.3749341" lon="10.5090527"><ele>100.0</ele><time>2026-05-02T11:51:42.011Z</time></trkpt><trkpt lat="45.3750317" lon="10.5091514"><ele>101.5</ele><time>2026-05-02T11:51:43.011Z</time></trkpt><trkpt lat="45.3751319" lon="10.5092463"><ele>103.0</ele><time>2026-05-02T11:51:44.012Z</time></trkpt><trkpt lat="45.3752363" lon="10.5093326"><ele>103.0</ele><time>2026-05-02T11:51:45.011Z</time></trkpt><trkpt lat="45.3753417" lon="10.5094146"><ele>103.0</ele><time>2026-05-02T11:51:46.011Z</time></trkpt><trkpt lat="45.3754381" lon="10.5094917"><ele>103.0</ele><time>2026-05-02T11:51:47.012Z</time></trkpt><trkpt lat="45.3755244" lon="10.5095575"><ele>103.0</ele><time>2026-05-02T11:51:48.011Z</time></trkpt><trkpt lat="45.3756081" lon="10.5096219"><ele>103.0</ele><time>2026-05-02T11:51:49.012Z</time></trkpt><trkpt lat="45.3756769" lon="10.5096964"><ele>103.66666666666667</ele><time>2026-05-02T11:51:50.011Z</time></trkpt><trkpt lat="45.3757266" lon="10.5097866"><ele>104.33333333333334</ele><time>2026-05-02T11:51:51.011Z</time></trkpt><trkpt lat="45.3757629" lon="10.509891"><ele>105.0</ele><time>2026-05-02T11:51:52.011Z</time></trkpt><trkpt lat="45.3757779" lon="10.510015"><ele>105.66666666666666</ele><time>2026-05-02T11:51:53.013Z</time></trkpt><trkpt lat="45.3757684" lon="10.5101481"><ele>106.33333333333333</ele><time>2026-05-02T11:51:54.011Z</time></trkpt><trkpt lat="45.3757318" lon="10.5102833"><ele>107.0</ele><time>2026-05-02T11:51:55.011Z</time></trkpt><trkpt lat="45.3756835" lon="10.51043"><ele>106.5</ele><time>2026-05-02T11:51:56.012Z</time></trkpt><trkpt lat="45.375624" lon="10.5105826"><ele>106.0</ele><time>2026-05-02T11:51:57.011Z</time></trkpt><trkpt lat="45.3755651" lon="10.5107404"><ele>105.5</ele><time>2026-05-02T11:51:58.012Z</time></trkpt><trkpt lat="45.3755042" lon="10.5109053"><ele>105.0</ele><time>2026-05-02T11:51:59.012Z</time></trkpt><trkpt lat="45.3754418" lon="10.5110737"><ele>105.0</ele><time>2026-05-02T11:52:00.012Z</time></trkpt><trkpt lat="45.3753831" lon="10.5112338"><ele>105.0</ele><time>2026-05-02T11:52:01.011Z</time></trkpt><trkpt lat="45.3753232" lon="10.5113969"><ele>105.0</ele><time>2026-05-02T11:52:02.011Z</time></trkpt><trkpt lat="45.3752628" lon="10.5115647"><ele>105.0</ele><time>2026-05-02T11:52:03.012Z</time></trkpt><trkpt lat="45.3751991" lon="10.5117372"><ele>105.75</ele><time>2026-05-02T11:52:04.011Z</time></trkpt><trkpt lat="45.3751316" lon="10.511909"><ele>106.5</ele><time>2026-05-02T11:52:05.011Z</time></trkpt><trkpt lat="45.3750682" lon="10.5120865"><ele>107.25</ele><time>2026-05-02T11:52:06.011Z</time></trkpt><trkpt lat="45.3750094" lon="10.5122679"><ele>108.0</ele><time>2026-05-02T11:52:07.011Z</time></trkpt><trkpt lat="45.3749519" lon="10.5124509"><ele>108.0</ele><time>2026-05-02T11:52:08.012Z</time></trkpt><trkpt lat="45.3748962" lon="10.5126395"><ele>108.0</ele><time>2026-05-02T11:52:09.011Z</time></trkpt><trkpt lat="45.3748356" lon="10.5128316"><ele>108.0</ele><time>2026-05-02T11:52:10.011Z</time></trkpt><trkpt lat="45.3747736" lon="10.5130299"><ele>108.0</ele><time>2026-05-02T11:52:11.012Z</time></trkpt><trkpt lat="45.3747119" lon="10.5132365"><ele>108.0</ele><time>2026-05-02T11:52:12.012Z</time></trkpt><trkpt lat="45.3746498" lon="10.5134476"><ele>108.0</ele><time>2026-05-02T11:52:13.012Z</time></trkpt><trkpt lat="45.3745867" lon="10.5136596"><ele>108.0</ele><time>2026-05-02T11:52:14.012Z</time></trkpt><trkpt lat="45.3745238" lon="10.5138805"><ele>107.66666666666666</ele><time>2026-05-02T11:52:15.011Z</time></trkpt><trkpt lat="45.3744628" lon="10.5141063"><ele>107.33333333333333</ele><time>2026-05-02T11:52:16.011Z</time></trkpt><trkpt lat="45.3744066" lon="10.5143371"><ele>107.0</ele><time>2026-05-02T11:52:17.012Z</time></trkpt><trkpt lat="45.3743533" lon="10.5145703"><ele>107.33333333333333</ele><time>2026-05-02T11:52:18.013Z</time></trkpt><trkpt lat="45.3743001" lon="10.5148097"><ele>107.66666666666666</ele><time>2026-05-02T11:52:19.011Z</time></trkpt><trkpt lat="45.3742439" lon="10.5150504"><ele>108.0</ele><time>2026-05-02T11:52:20.012Z</time></trkpt><trkpt lat="45.3741891" lon="10.515297"><ele>109.0</ele><time>2026-05-02T11:52:21.011Z</time></trkpt><trkpt lat="45.3741313" lon="10.515545"><ele>110.0</ele><time>2026-05-02T11:52:22.012Z</time></trkpt><trkpt lat="45.3740729" lon="10.5157952"><ele>111.0</ele><time>2026-05-02T11:52:23.012Z</time></trkpt><trkpt lat="45.374015" lon="10.516041"><ele>111.0</ele><time>2026-05-02T11:52:24.011Z</time></trkpt><trkpt lat="45.3739582" lon="10.5162843"><ele>111.0</ele><time>2026-05-02T11:52:25.011Z</time></trkpt><trkpt lat="45.3739011" lon="10.5165303"><ele>111.0</ele><time>2026-05-02T11:52:26.012Z</time></trkpt><trkpt lat="45.3738417" lon="10.5167723"><ele>110.0</ele><time>2026-05-02T11:52:27.011Z</time></trkpt><trkpt lat="45.3737785" lon="10.5170147"><ele>109.0</ele><time>2026-05-02T11:52:28.012Z</time></trkpt><trkpt lat="45.3737124" lon="10.5172557"><ele>108.0</ele><time>2026-05-02T11:52:29.012Z</time></trkpt><trkpt lat="45.3736457" lon="10.5174969"><ele>108.0</ele><time>2026-05-02T11:52:30.011Z</time></trkpt><trkpt lat="45.3735793" lon="10.5177386"><ele>108.0</ele><time>2026-05-02T11:52:31.012Z</time></trkpt><trkpt lat="45.3735113" lon="10.5179896"><ele>108.0</ele><time>2026-05-02T11:52:32.012Z</time></trkpt><trkpt lat="45.3734417" lon="10.5182419"><ele>107.66666666666666</ele><time>2026-05-02T11:52:33.012Z</time></trkpt><trkpt lat="45.3733707" lon="10.5184961"><ele>107.33333333333333</ele><time>2026-05-02T11:52:34.011Z</time></trkpt><trkpt lat="45.3733049" lon="10.5187548"><ele>107.0</ele><time>2026-05-02T11:52:35.011Z</time></trkpt><trkpt lat="45.3732397" lon="10.5190166"><ele>107.0</ele><time>2026-05-02T11:52:36.012Z</time></trkpt><trkpt lat="45.373175" lon="10.5192797"><ele>107.0</ele><time>2026-05-02T11:52:37.011Z</time></trkpt><trkpt lat="45.3731097" lon="10.5195428"><ele>107.0</ele><time>2026-05-02T11:52:38.012Z</time></trkpt><trkpt lat="45.3730496" lon="10.5198031"><ele>105.33333333333333</ele><time>2026-05-02T11:52:39.011Z</time></trkpt><trkpt lat="45.3729914" lon="10.5200515"><ele>103.66666666666666</ele><time>2026-05-02T11:52:40.013Z</time></trkpt><trkpt lat="45.3729342" lon="10.5202908"><ele>102.0</ele><time>2026-05-02T11:52:41.011Z</time></trkpt><trkpt lat="45.3728822" lon="10.5205219"><ele>101.0</ele><time>2026-05-02T11:52:42.012Z</time></trkpt><trkpt lat="45.3728283" lon="10.5207439"><ele>100.0</ele><time>2026-05-02T11:52:43.011Z</time></trkpt><trkpt lat="45.3727718" lon="10.5209606"><ele>99.0</ele><time>2026-05-02T11:52:44.013Z</time></trkpt><trkpt lat="45.3727208" lon="10.5211762"><ele>100.0</ele><time>2026-05-02T11:52:45.011Z</time></trkpt><trkpt lat="45.3726776" lon="10.5213942"><ele>101.0</ele><time>2026-05-02T11:52:46.011Z</time></trkpt><trkpt lat="45.3726439" lon="10.5216124"><ele>102.0</ele><time>2026-05-02T11:52:47.011Z</time></trkpt><trkpt lat="45.3726143" lon="10.5218413"><ele>101.66666666666666</ele><time>2026-05-02T11:52:48.011Z</time></trkpt><trkpt lat="45.3725906" lon="10.522077"><ele>101.33333333333333</ele><time>2026-05-02T11:52:49.011Z</time></trkpt><trkpt lat="45.3725722" lon="10.5223115"><ele>101.0</ele><time>2026-05-02T11:52:50.011Z</time></trkpt><trkpt lat="45.3725541" lon="10.5225387"><ele>101.0</ele><time>2026-05-02T11:52:51.011Z</time></trkpt><trkpt lat="45.3725404" lon="10.5227587"><ele>101.0</ele><time>2026-05-02T11:52:52.012Z</time></trkpt><trkpt lat="45.3725283" lon="10.5229713"><ele>101.0</ele><time>2026-05-02T11:52:53.012Z</time></trkpt><trkpt lat="45.3725119" lon="10.5231735"><ele>101.0</ele><time>2026-05-02T11:52:54.011Z</time></trkpt><trkpt lat="45.3724955" lon="10.5233791"><ele>100.75</ele><time>2026-05-02T11:52:55.011Z</time></trkpt><trkpt lat="45.3724819" lon="10.5235831"><ele>100.5</ele><time>2026-05-02T11:52:56.011Z</time></trkpt><trkpt lat="45.3724701" lon="10.5237841"><ele>100.25</ele><time>2026-05-02T11:52:57.011Z</time></trkpt><trkpt lat="45.3724541" lon="10.5239837"><ele>100.0</ele><time>2026-05-02T11:52:58.012Z</time></trkpt><trkpt lat="45.3724337" lon="10.5241826"><ele>100.0</ele><time>2026-05-02T11:52:59.011Z</time></trkpt><trkpt lat="45.3724182" lon="10.5243879"><ele>100.0</ele><time>2026-05-02T11:53:00.011Z</time></trkpt><trkpt lat="45.3724059" lon="10.5245938"><ele>100.0</ele><time>2026-05-02T11:53:01.011Z</time></trkpt><trkpt lat="45.3723899" lon="10.5247983"><ele>100.0</ele><time>2026-05-02T11:53:02.011Z</time></trkpt><trkpt lat="45.3723726" lon="10.5250028"><ele>100.75</ele><time>2026-05-02T11:53:03.011Z</time></trkpt><trkpt lat="45.3723579" lon="10.5252022"><ele>101.5</ele><time>2026-05-02T11:53:04.011Z</time></trkpt><trkpt lat="45.3723457" lon="10.5253979"><ele>102.25</ele><time>2026-05-02T11:53:05.012Z</time></trkpt><trkpt lat="45.3723325" lon="10.5255847"><ele>103.0</ele><time>2026-05-02T11:53:06.012Z</time></trkpt><trkpt lat="45.3723193" lon="10.5257728"><ele>103.0</ele><time>2026-05-02T11:53:07.011Z</time></trkpt><trkpt lat="45.3723032" lon="10.5259544"><ele>103.0</ele><time>2026-05-02T11:53:08.012Z</time></trkpt><trkpt lat="45.37229" lon="10.5261353"><ele>103.0</ele><time>2026-05-02T11:53:09.011Z</time></trkpt><trkpt lat="45.3722736" lon="10.5263177"><ele>103.0</ele><time>2026-05-02T11:53:10.012Z</time></trkpt><trkpt lat="45.3722571" lon="10.5264938"><ele>103.75</ele><time>2026-05-02T11:53:11.011Z</time></trkpt><trkpt lat="45.3722411" lon="10.5266725"><ele>104.5</ele><time>2026-05-02T11:53:12.011Z</time></trkpt><trkpt lat="45.3722253" lon="10.5268479"><ele>105.25</ele><time>2026-05-02T11:53:13.011Z</time></trkpt><trkpt lat="45.3722102" lon="10.527021"><ele>106.0</ele><time>2026-05-02T11:53:14.012Z</time></trkpt><trkpt lat="45.3721944" lon="10.5271984"><ele>106.75</ele><time>2026-05-02T11:53:15.011Z</time></trkpt><trkpt lat="45.3721733" lon="10.5273795"><ele>107.5</ele><time>2026-05-02T11:53:16.011Z</time></trkpt><trkpt lat="45.3721385" lon="10.527558"><ele>108.25</ele><time>2026-05-02T11:53:17.012Z</time></trkpt><trkpt lat="45.3720918" lon="10.5277345"><ele>109.0</ele><time>2026-05-02T11:53:18.011Z</time></trkpt><trkpt lat="45.372032" lon="10.5279095"><ele>109.25</ele><time>2026-05-02T11:53:19.012Z</time></trkpt><trkpt lat="45.3719636" lon="10.5280803"><ele>109.5</ele><time>2026-05-02T11:53:20.011Z</time></trkpt><trkpt lat="45.371889" lon="10.5282558"><ele>109.75</ele><time>2026-05-02T11:53:21.011Z</time></trkpt><trkpt lat="45.3718094" lon="10.528432"><ele>110.0</ele><time>2026-05-02T11:53:22.011Z</time></trkpt><trkpt lat="45.3717301" lon="10.5286137"><ele>110.33333333333333</ele><time>2026-05-02T11:53:23.012Z</time></trkpt><trkpt lat="45.3716506" lon="10.5287992"><ele>110.66666666666666</ele><time>2026-05-02T11:53:24.013Z</time></trkpt><trkpt lat="45.371568" lon="10.5289909"><ele>111.0</ele><time>2026-05-02T11:53:25.012Z</time></trkpt><trkpt lat="45.3714864" lon="10.5291909"><ele>111.0</ele><time>2026-05-02T11:53:26.012Z</time></trkpt><trkpt lat="45.3714021" lon="10.5293932"><ele>111.0</ele><time>2026-05-02T11:53:27.012Z</time></trkpt><trkpt lat="45.3713152" lon="10.5295976"><ele>111.0</ele><time>2026-05-02T11:53:28.011Z</time></trkpt><trkpt lat="45.3712266" lon="10.5298064"><ele>110.0</ele><time>2026-05-02T11:53:29.012Z</time></trkpt><trkpt lat="45.371136" lon="10.5300184"><ele>109.0</ele><time>2026-05-02T11:53:30.012Z</time></trkpt><trkpt lat="45.3710423" lon="10.5302315"><ele>108.0</ele><time>2026-05-02T11:53:31.011Z</time></trkpt><trkpt lat="45.3709523" lon="10.5304502"><ele>108.0</ele><time>2026-05-02T11:53:32.011Z</time></trkpt><trkpt lat="45.3708595" lon="10.5306668"><ele>108.0</ele><time>2026-05-02T11:53:33.011Z</time></trkpt><trkpt lat="45.3707668" lon="10.5308829"><ele>108.0</ele><time>2026-05-02T11:53:34.012Z</time></trkpt><trkpt lat="45.3706748" lon="10.5311012"><ele>107.66666666666666</ele><time>2026-05-02T11:53:35.012Z</time></trkpt><trkpt lat="45.3705814" lon="10.531318"><ele>107.33333333333333</ele><time>2026-05-02T11:53:36.012Z</time></trkpt><trkpt lat="45.3704883" lon="10.5315363"><ele>107.0</ele><time>2026-05-02T11:53:37.012Z</time></trkpt><trkpt lat="45.3703955" lon="10.5317545"><ele>106.0</ele><time>2026-05-02T11:53:38.011Z</time></trkpt><trkpt lat="45.3703016" lon="10.5319714"><ele>105.0</ele><time>2026-05-02T11:53:39.012Z</time></trkpt><trkpt lat="45.3702051" lon="10.5321856"><ele>104.0</ele><time>2026-05-02T11:53:40.011Z</time></trkpt><trkpt lat="45.3701107" lon="10.5324011"><ele>104.0</ele><time>2026-05-02T11:53:41.011Z</time></trkpt><trkpt lat="45.3700197" lon="10.5326163"><ele>104.0</ele><time>2026-05-02T11:53:42.011Z</time></trkpt><trkpt lat="45.3699262" lon="10.5328352"><ele>104.0</ele><time>2026-05-02T11:53:43.011Z</time></trkpt><trkpt lat="45.3698331" lon="10.5330504"><ele>104.0</ele><time>2026-05-02T11:53:44.012Z</time></trkpt><trkpt lat="45.3697393" lon="10.5332638"><ele>104.0</ele><time>2026-05-02T11:53:45.011Z</time></trkpt><trkpt lat="45.3696456" lon="10.5334778"><ele>104.0</ele><time>2026-05-02T11:53:46.012Z</time></trkpt><trkpt lat="45.3695537" lon="10.5336942"><ele>104.66666666666666</ele><time>2026-05-02T11:53:47.011Z</time></trkpt><trkpt lat="45.3694651" lon="10.5339062"><ele>105.33333333333334</ele><time>2026-05-02T11:53:48.011Z</time></trkpt><trkpt lat="45.3693722" lon="10.5341184"><ele>106.0</ele><time>2026-05-02T11:53:49.011Z</time></trkpt><trkpt lat="45.3692857" lon="10.5343175"><ele>106.0</ele><time>2026-05-02T11:53:50.012Z</time></trkpt><trkpt lat="45.3692033" lon="10.5345084"><ele>106.0</ele><time>2026-05-02T11:53:51.011Z</time></trkpt><trkpt lat="45.3691255" lon="10.5346914"><ele>106.0</ele><time>2026-05-02T11:53:52.012Z</time></trkpt><trkpt lat="45.3690472" lon="10.5348765"><ele>106.0</ele><time>2026-05-02T11:53:53.011Z</time></trkpt><trkpt lat="45.368967" lon="10.5350597"><ele>106.0</ele><time>2026-05-02T11:53:54.011Z</time></trkpt><trkpt lat="45.3688877" lon="10.535243"><ele>106.0</ele><time>2026-05-02T11:53:55.011Z</time></trkpt><trkpt lat="45.3688161" lon="10.535421"><ele>106.0</ele><time>2026-05-02T11:53:56.012Z</time></trkpt><trkpt lat="45.3687577" lon="10.5355849"><ele>106.0</ele><time>2026-05-02T11:53:57.012Z</time></trkpt><trkpt lat="45.3687018" lon="10.5357357"><ele>106.0</ele><time>2026-05-02T11:53:58.012Z</time></trkpt><trkpt lat="45.368647" lon="10.5358832"><ele>106.0</ele><time>2026-05-02T11:53:59.011Z</time></trkpt><trkpt lat="45.3685911" lon="10.5360392"><ele>106.0</ele><time>2026-05-02T11:54:00.012Z</time></trkpt><trkpt lat="45.3685327" lon="10.5362033"><ele>106.0</ele><time>2026-05-02T11:54:01.011Z</time></trkpt><trkpt lat="45.3684726" lon="10.5363754"><ele>106.0</ele><time>2026-05-02T11:54:02.012Z</time></trkpt><trkpt lat="45.3684128" lon="10.5365529"><ele>106.0</ele><time>2026-05-02T11:54:03.011Z</time></trkpt><trkpt lat="45.3683575" lon="10.536735"><ele>106.0</ele><time>2026-05-02T11:54:04.012Z</time></trkpt><trkpt lat="45.3683035" lon="10.5369257"><ele>106.25</ele><time>2026-05-02T11:54:05.011Z</time></trkpt><trkpt lat="45.368248" lon="10.5371249"><ele>106.5</ele><time>2026-05-02T11:54:06.012Z</time></trkpt><trkpt lat="45.3681927" lon="10.5373128"><ele>106.75</ele><time>2026-05-02T11:54:07.012Z</time></trkpt><trkpt lat="45.3681391" lon="10.5374791"><ele>107.0</ele><time>2026-05-02T11:54:08.012Z</time></trkpt><trkpt lat="45.3680859" lon="10.5376397"><ele>107.0</ele><time>2026-05-02T11:54:09.012Z</time></trkpt><trkpt lat="45.3680344" lon="10.537805"><ele>107.0</ele><time>2026-05-02T11:54:10.011Z</time></trkpt><trkpt lat="45.3679838" lon="10.5379744"><ele>107.0</ele><time>2026-05-02T11:54:11.011Z</time></trkpt><trkpt lat="45.3679327" lon="10.5381348"><ele>107.0</ele><time>2026-05-02T11:54:12.011Z</time></trkpt><trkpt lat="45.3678789" lon="10.5382888"><ele>106.25</ele><time>2026-05-02T11:54:13.012Z</time></trkpt><trkpt lat="45.3678219" lon="10.5384459"><ele>105.5</ele><time>2026-05-02T11:54:14.011Z</time></trkpt><trkpt lat="45.3677641" lon="10.538603"><ele>104.75</ele><time>2026-05-02T11:54:15.012Z</time></trkpt><trkpt lat="45.3677056" lon="10.538756"><ele>104.0</ele><time>2026-05-02T11:54:16.011Z</time></trkpt><trkpt lat="45.3676465" lon="10.5389039"><ele>103.75</ele><time>2026-05-02T11:54:17.012Z</time></trkpt><trkpt lat="45.3675887" lon="10.5390466"><ele>103.5</ele><time>2026-05-02T11:54:18.011Z</time></trkpt><trkpt lat="45.3675298" lon="10.5391923"><ele>103.25</ele><time>2026-05-02T11:54:19.012Z</time></trkpt><trkpt lat="45.3674677" lon="10.5393467"><ele>103.0</ele><time>2026-05-02T11:54:20.012Z</time></trkpt><trkpt lat="45.367403" lon="10.5395049"><ele>103.25</ele><time>2026-05-02T11:54:21.011Z</time></trkpt><trkpt lat="45.3673412" lon="10.5396653"><ele>103.5</ele><time>2026-05-02T11:54:22.011Z</time></trkpt><trkpt lat="45.3672792" lon="10.5398296"><ele>103.75</ele><time>2026-05-02T11:54:23.011Z</time></trkpt><trkpt lat="45.3672128" lon="10.5399962"><ele>104.0</ele><time>2026-05-02T11:54:24.011Z</time></trkpt><trkpt lat="45.3671485" lon="10.5401607"><ele>104.0</ele><time>2026-05-02T11:54:25.011Z</time></trkpt><trkpt lat="45.3670883" lon="10.5403177"><ele>104.0</ele><time>2026-05-02T11:54:26.011Z</time></trkpt><trkpt lat="45.3670305" lon="10.5404688"><ele>104.0</ele><time>2026-05-02T11:54:27.011Z</time></trkpt><trkpt lat="45.3669727" lon="10.5406213"><ele>104.0</ele><time>2026-05-02T11:54:28.011Z</time></trkpt><trkpt lat="45.3669147" lon="10.5407809"><ele>104.0</ele><time>2026-05-02T11:54:29.011Z</time></trkpt><trkpt lat="45.3668609" lon="10.5409491"><ele>104.0</ele><time>2026-05-02T11:54:30.012Z</time></trkpt><trkpt lat="45.3668101" lon="10.5411239"><ele>104.0</ele><time>2026-05-02T11:54:31.011Z</time></trkpt><trkpt lat="45.3667641" lon="10.5412954"><ele>104.0</ele><time>2026-05-02T11:54:32.011Z</time></trkpt><trkpt lat="45.3667261" lon="10.5414558"><ele>104.0</ele><time>2026-05-02T11:54:33.012Z</time></trkpt><trkpt lat="45.3666981" lon="10.5416156"><ele>104.0</ele><time>2026-05-02T11:54:34.012Z</time></trkpt><trkpt lat="45.3666767" lon="10.5417854"><ele>104.0</ele><time>2026-05-02T11:54:35.011Z</time></trkpt><trkpt lat="45.3666563" lon="10.5419586"><ele>104.0</ele><time>2026-05-02T11:54:36.012Z</time></trkpt><trkpt lat="45.3666366" lon="10.5421321"><ele>104.0</ele><time>2026-05-02T11:54:37.012Z</time></trkpt><trkpt lat="45.366618" lon="10.542309"><ele>104.0</ele><time>2026-05-02T11:54:38.012Z</time></trkpt><trkpt lat="45.3665986" lon="10.542489"><ele>104.0</ele><time>2026-05-02T11:54:39.011Z</time></trkpt><trkpt lat="45.3665814" lon="10.5426594"><ele>104.0</ele><time>2026-05-02T11:54:40.012Z</time></trkpt><trkpt lat="45.366566" lon="10.5428211"><ele>104.75</ele><time>2026-05-02T11:54:41.011Z</time></trkpt><trkpt lat="45.3665476" lon="10.5429873"><ele>105.5</ele><time>2026-05-02T11:54:42.011Z</time></trkpt><trkpt lat="45.3665295" lon="10.5431618"><ele>106.25</ele><time>2026-05-02T11:54:43.011Z</time></trkpt><trkpt lat="45.366513" lon="10.543343"><ele>107.0</ele><time>2026-05-02T11:54:44.011Z</time></trkpt><trkpt lat="45.3664945" lon="10.5435267"><ele>107.0</ele><time>2026-05-02T11:54:45.011Z</time></trkpt><trkpt lat="45.3664763" lon="10.543713"><ele>107.0</ele><time>2026-05-02T11:54:46.011Z</time></trkpt><trkpt lat="45.3664608" lon="10.5439058"><ele>107.0</ele><time>2026-05-02T11:54:47.011Z</time></trkpt><trkpt lat="45.3664431" lon="10.5441028"><ele>107.0</ele><time>2026-05-02T11:54:48.012Z</time></trkpt><trkpt lat="45.3664211" lon="10.5442986"><ele>107.25</ele><time>2026-05-02T11:54:49.013Z</time></trkpt><trkpt lat="45.3663988" lon="10.5444884"><ele>107.5</ele><time>2026-05-02T11:54:50.011Z</time></trkpt><trkpt lat="45.366378" lon="10.5446666"><ele>107.75</ele><time>2026-05-02T11:54:51.011Z</time></trkpt><trkpt lat="45.3663592" lon="10.5448326"><ele>108.0</ele><time>2026-05-02T11:54:52.011Z</time></trkpt><trkpt lat="45.3663423" lon="10.5449898"><ele>107.60000000000001</ele><time>2026-05-02T11:54:53.011Z</time></trkpt><trkpt lat="45.3663229" lon="10.5451422"><ele>107.20000000000002</ele><time>2026-05-02T11:54:54.012Z</time></trkpt><trkpt lat="45.3662983" lon="10.5452975"><ele>106.8</ele><time>2026-05-02T11:54:55.012Z</time></trkpt><trkpt lat="45.366273" lon="10.5454544"><ele>106.4</ele><time>2026-05-02T11:54:56.012Z</time></trkpt><trkpt lat="45.3662478" lon="10.545614"><ele>106.0</ele><time>2026-05-02T11:54:57.013Z</time></trkpt><trkpt lat="45.3662176" lon="10.5457754"><ele>106.0</ele><time>2026-05-02T11:54:58.012Z</time></trkpt><trkpt lat="45.3661818" lon="10.5459383"><ele>106.0</ele><time>2026-05-02T11:54:59.013Z</time></trkpt><trkpt lat="45.3661454" lon="10.5461065"><ele>106.0</ele><time>2026-05-02T11:55:00.012Z</time></trkpt><trkpt lat="45.3661075" lon="10.5462799"><ele>106.0</ele><time>2026-05-02T11:55:01.012Z</time></trkpt><trkpt lat="45.3660642" lon="10.546456"><ele>106.0</ele><time>2026-05-02T11:55:02.012Z</time></trkpt><trkpt lat="45.3660147" lon="10.5466321"><ele>106.0</ele><time>2026-05-02T11:55:03.012Z</time></trkpt><trkpt lat="45.3659666" lon="10.5468074"><ele>106.0</ele><time>2026-05-02T11:55:04.012Z</time></trkpt><trkpt lat="45.365918" lon="10.5469757"><ele>106.0</ele><time>2026-05-02T11:55:05.011Z</time></trkpt><trkpt lat="45.3658669" lon="10.5471285"><ele>106.19999999999999</ele><time>2026-05-02T11:55:06.011Z</time></trkpt><trkpt lat="45.3658161" lon="10.547271"><ele>106.39999999999999</ele><time>2026-05-02T11:55:07.012Z</time></trkpt><trkpt lat="45.3657684" lon="10.5474007"><ele>106.6</ele><time>2026-05-02T11:55:08.012Z</time></trkpt><trkpt lat="45.3657235" lon="10.5475237"><ele>106.8</ele><time>2026-05-02T11:55:09.011Z</time></trkpt><trkpt lat="45.3656773" lon="10.5476459"><ele>107.0</ele><time>2026-05-02T11:55:10.011Z</time></trkpt><trkpt lat="45.3656319" lon="10.5477579"><ele>106.99999999999999</ele><time>2026-05-02T11:55:11.013Z</time></trkpt><trkpt lat="45.3655983" lon="10.5478627"><ele>107.0</ele><time>2026-05-02T11:55:12.011Z</time></trkpt><trkpt lat="45.3655903" lon="10.547975"><ele>107.0</ele><time>2026-05-02T11:55:13.011Z</time></trkpt><trkpt lat="45.3656058" lon="10.5480975"><ele>107.0</ele><time>2026-05-02T11:55:14.012Z</time></trkpt><trkpt lat="45.3656395" lon="10.5482242"><ele>106.99999999999999</ele><time>2026-05-02T11:55:15.012Z</time></trkpt><trkpt lat="45.3656885" lon="10.5483534"><ele>107.0</ele><time>2026-05-02T11:55:16.011Z</time></trkpt><trkpt lat="45.3657516" lon="10.5484828"><ele>108.0</ele><time>2026-05-02T11:55:17.012Z</time></trkpt><trkpt lat="45.3658132" lon="10.5486178"><ele>109.0</ele><time>2026-05-02T11:55:18.011Z</time></trkpt><trkpt lat="45.365858" lon="10.548766"><ele>110.0</ele><time>2026-05-02T11:55:19.012Z</time></trkpt><trkpt lat="45.365892" lon="10.5489245"><ele>111.0</ele><time>2026-05-02T11:55:20.012Z</time></trkpt><trkpt lat="45.3659247" lon="10.5490756"><ele>112.0</ele><time>2026-05-02T11:55:21.011Z</time></trkpt><trkpt lat="45.3659612" lon="10.5492304"><ele>113.0</ele><time>2026-05-02T11:55:22.011Z</time></trkpt><trkpt lat="45.3660047" lon="10.5494107"><ele>114.0</ele><time>2026-05-02T11:55:23.011Z</time></trkpt><trkpt lat="45.3660476" lon="10.5496313"><ele>115.0</ele><time>2026-05-02T11:55:24.011Z</time></trkpt><trkpt lat="45.3660881" lon="10.5498785"><ele>115.0</ele><time>2026-05-02T11:55:25.011Z</time></trkpt><trkpt lat="45.3661272" lon="10.5501324"><ele>115.0</ele><time>2026-05-02T11:55:26.011Z</time></trkpt><trkpt lat="45.3661693" lon="10.5503896"><ele>115.0</ele><time>2026-05-02T11:55:27.012Z</time></trkpt><trkpt lat="45.3662152" lon="10.5506514"><ele>115.0</ele><time>2026-05-02T11:55:28.011Z</time></trkpt><trkpt lat="45.3662665" lon="10.5509069"><ele>115.0</ele><time>2026-05-02T11:55:29.012Z</time></trkpt><trkpt lat="45.3663159" lon="10.5511572"><ele>115.0</ele><time>2026-05-02T11:55:30.011Z</time></trkpt><trkpt lat="45.3663607" lon="10.5514084"><ele>116.66666666666667</ele><time>2026-05-02T11:55:31.012Z</time></trkpt><trkpt lat="45.3664048" lon="10.5516596"><ele>118.33333333333334</ele><time>2026-05-02T11:55:32.012Z</time></trkpt><trkpt lat="45.3664517" lon="10.5519121"><ele>120.0</ele><time>2026-05-02T11:55:33.012Z</time></trkpt><trkpt lat="45.3665015" lon="10.5521674"><ele>120.33333333333334</ele><time>2026-05-02T11:55:34.011Z</time></trkpt><trkpt lat="45.366551" lon="10.5524231"><ele>120.66666666666667</ele><time>2026-05-02T11:55:35.011Z</time></trkpt><trkpt lat="45.3665984" lon="10.5526793"><ele>121.0</ele><time>2026-05-02T11:55:36.012Z</time></trkpt><trkpt lat="45.3666462" lon="10.5529325"><ele>121.33333333333334</ele><time>2026-05-02T11:55:37.011Z</time></trkpt><trkpt lat="45.3666915" lon="10.5531796"><ele>121.66666666666666</ele><time>2026-05-02T11:55:38.012Z</time></trkpt><trkpt lat="45.3667365" lon="10.5534197"><ele>122.0</ele><time>2026-05-02T11:55:39.011Z</time></trkpt><trkpt lat="45.3667827" lon="10.5536584"><ele>123.33333333333333</ele><time>2026-05-02T11:55:40.011Z</time></trkpt><trkpt lat="45.3668264" lon="10.5538956"><ele>124.66666666666666</ele><time>2026-05-02T11:55:41.012Z</time></trkpt><trkpt lat="45.3668654" lon="10.5541356"><ele>126.0</ele><time>2026-05-02T11:55:42.012Z</time></trkpt><trkpt lat="45.3669" lon="10.5543781"><ele>125.66666666666666</ele><time>2026-05-02T11:55:43.011Z</time></trkpt><trkpt lat="45.3669304" lon="10.5546212"><ele>125.33333333333333</ele><time>2026-05-02T11:55:44.011Z</time></trkpt><trkpt lat="45.3669599" lon="10.5548657"><ele>125.0</ele><time>2026-05-02T11:55:45.011Z</time></trkpt><trkpt lat="45.3669911" lon="10.5551063"><ele>125.0</ele><time>2026-05-02T11:55:46.011Z</time></trkpt><trkpt lat="45.3670245" lon="10.5553451"><ele>125.0</ele><time>2026-05-02T11:55:47.011Z</time></trkpt><trkpt lat="45.3670591" lon="10.555585"><ele>125.0</ele><time>2026-05-02T11:55:48.011Z</time></trkpt><trkpt lat="45.3670906" lon="10.5558263"><ele>124.66666666666666</ele><time>2026-05-02T11:55:49.011Z</time></trkpt><trkpt lat="45.3671181" lon="10.5560702"><ele>124.33333333333334</ele><time>2026-05-02T11:55:50.012Z</time></trkpt><trkpt lat="45.3671381" lon="10.5563132"><ele>124.0</ele><time>2026-05-02T11:55:51.011Z</time></trkpt><trkpt lat="45.3671492" lon="10.5565496"><ele>124.66666666666667</ele><time>2026-05-02T11:55:52.012Z</time></trkpt><trkpt lat="45.3671542" lon="10.5567767"><ele>125.33333333333334</ele><time>2026-05-02T11:55:53.011Z</time></trkpt><trkpt lat="45.3671547" lon="10.556996"><ele>126.0</ele><time>2026-05-02T11:55:54.011Z</time></trkpt><trkpt lat="45.3671548" lon="10.5572081"><ele>126.5</ele><time>2026-05-02T11:55:55.011Z</time></trkpt><trkpt lat="45.3671602" lon="10.5574151"><ele>127.0</ele><time>2026-05-02T11:55:56.011Z</time></trkpt><trkpt lat="45.3671796" lon="10.5576178"><ele>127.5</ele><time>2026-05-02T11:55:57.012Z</time></trkpt><trkpt lat="45.3672108" lon="10.5578158"><ele>128.0</ele><time>2026-05-02T11:55:58.011Z</time></trkpt><trkpt lat="45.3672542" lon="10.5580062"><ele>128.25</ele><time>2026-05-02T11:55:59.011Z</time></trkpt><trkpt lat="45.3673061" lon="10.5581956"><ele>128.5</ele><time>2026-05-02T11:56:00.012Z</time></trkpt><trkpt lat="45.3673655" lon="10.5583887"><ele>128.75</ele><time>2026-05-02T11:56:01.011Z</time></trkpt><trkpt lat="45.3674315" lon="10.5585808"><ele>129.0</ele><time>2026-05-02T11:56:02.011Z</time></trkpt><trkpt lat="45.3674952" lon="10.5587689"><ele>129.0</ele><time>2026-05-02T11:56:03.012Z</time></trkpt><trkpt lat="45.3675545" lon="10.5589546"><ele>129.0</ele><time>2026-05-02T11:56:04.012Z</time></trkpt><trkpt lat="45.3676128" lon="10.559142"><ele>129.0</ele><time>2026-05-02T11:56:05.011Z</time></trkpt><trkpt lat="45.3676699" lon="10.5593316"><ele>129.0</ele><time>2026-05-02T11:56:06.012Z</time></trkpt><trkpt lat="45.3677263" lon="10.5595229"><ele>129.0</ele><time>2026-05-02T11:56:07.011Z</time></trkpt><trkpt lat="45.3677783" lon="10.5597143"><ele>129.0</ele><time>2026-05-02T11:56:08.012Z</time></trkpt><trkpt lat="45.3678293" lon="10.559897"><ele>129.0</ele><time>2026-05-02T11:56:09.011Z</time></trkpt><trkpt lat="45.3678711" lon="10.5600626"><ele>129.0</ele><time>2026-05-02T11:56:10.012Z</time></trkpt><trkpt lat="45.3679072" lon="10.5602087"><ele>129.0</ele><time>2026-05-02T11:56:11.011Z</time></trkpt><trkpt lat="45.3679391" lon="10.5603338"><ele>129.0</ele><time>2026-05-02T11:56:12.011Z</time></trkpt><trkpt lat="45.3679662" lon="10.5604405"><ele>129.0</ele><time>2026-05-02T11:56:13.011Z</time></trkpt><trkpt lat="45.3679876" lon="10.5605439"><ele>129.0</ele><time>2026-05-02T11:56:14.011Z</time></trkpt><trkpt lat="45.368009" lon="10.5606647"><ele>129.0</ele><time>2026-05-02T11:56:15.011Z</time></trkpt><trkpt lat="45.3680366" lon="10.5607965"><ele>129.0</ele><time>2026-05-02T11:56:16.011Z</time></trkpt><trkpt lat="45.3680668" lon="10.5609258"><ele>129.0</ele><time>2026-05-02T11:56:17.012Z</time></trkpt><trkpt lat="45.3680957" lon="10.5610706"><ele>129.0</ele><time>2026-05-02T11:56:18.011Z</time></trkpt><trkpt lat="45.368123" lon="10.5612261"><ele>129.0</ele><time>2026-05-02T11:56:19.012Z</time></trkpt><trkpt lat="45.3681511" lon="10.5613737"><ele>129.0</ele><time>2026-05-02T11:56:20.011Z</time></trkpt><trkpt lat="45.3681815" lon="10.5615177"><ele>129.0</ele><time>2026-05-02T11:56:21.011Z</time></trkpt><trkpt lat="45.3682092" lon="10.5616739"><ele>128.5</ele><time>2026-05-02T11:56:22.011Z</time></trkpt><trkpt lat="45.368231" lon="10.5618348"><ele>128.0</ele><time>2026-05-02T11:56:23.011Z</time></trkpt><trkpt lat="45.3682429" lon="10.5619921"><ele>127.5</ele><time>2026-05-02T11:56:24.012Z</time></trkpt><trkpt lat="45.3682452" lon="10.562156"><ele>127.0</ele><time>2026-05-02T11:56:25.011Z</time></trkpt><trkpt lat="45.3682418" lon="10.5623233"><ele>126.0</ele><time>2026-05-02T11:56:26.011Z</time></trkpt><trkpt lat="45.3682359" lon="10.5624932"><ele>125.0</ele><time>2026-05-02T11:56:27.012Z</time></trkpt><trkpt lat="45.3682261" lon="10.5626614"><ele>124.0</ele><time>2026-05-02T11:56:28.012Z</time></trkpt><trkpt lat="45.3682124" lon="10.56283"><ele>123.0</ele><time>2026-05-02T11:56:29.011Z</time></trkpt><trkpt lat="45.3681991" lon="10.5630023"><ele>122.60000000000001</ele><time>2026-05-02T11:56:30.012Z</time></trkpt><trkpt lat="45.3681886" lon="10.5631628"><ele>122.20000000000002</ele><time>2026-05-02T11:56:31.011Z</time></trkpt><trkpt lat="45.3681795" lon="10.5633108"><ele>121.8</ele><time>2026-05-02T11:56:32.011Z</time></trkpt><trkpt lat="45.3681689" lon="10.5634455"><ele>121.4</ele><time>2026-05-02T11:56:33.011Z</time></trkpt><trkpt lat="45.368161" lon="10.5635742"><ele>121.0</ele><time>2026-05-02T11:56:34.011Z</time></trkpt><trkpt lat="45.3681527" lon="10.5637153"><ele>120.25</ele><time>2026-05-02T11:56:35.011Z</time></trkpt><trkpt lat="45.3681453" lon="10.5638704"><ele>119.5</ele><time>2026-05-02T11:56:36.012Z</time></trkpt><trkpt lat="45.3681358" lon="10.5640398"><ele>118.75</ele><time>2026-05-02T11:56:37.011Z</time></trkpt><trkpt lat="45.3681222" lon="10.5642185"><ele>118.0</ele><time>2026-05-02T11:56:38.011Z</time></trkpt><trkpt lat="45.3681109" lon="10.5644046"><ele>118.0</ele><time>2026-05-02T11:56:39.011Z</time></trkpt><trkpt lat="45.3680976" lon="10.5645902"><ele>118.0</ele><time>2026-05-02T11:56:40.011Z</time></trkpt><trkpt lat="45.3680818" lon="10.5647688"><ele>118.0</ele><time>2026-05-02T11:56:41.011Z</time></trkpt><trkpt lat="45.3680683" lon="10.5649355"><ele>118.0</ele><time>2026-05-02T11:56:42.013Z</time></trkpt><trkpt lat="45.3680575" lon="10.5650927"><ele>118.0</ele><time>2026-05-02T11:56:43.012Z</time></trkpt><trkpt lat="45.3680599" lon="10.5652451"><ele>118.00000000000001</ele><time>2026-05-02T11:56:44.012Z</time></trkpt><trkpt lat="45.3680724" lon="10.5653962"><ele>118.00000000000001</ele><time>2026-05-02T11:56:45.012Z</time></trkpt><trkpt lat="45.3680985" lon="10.5655476"><ele>118.0</ele><time>2026-05-02T11:56:46.011Z</time></trkpt><trkpt lat="45.3681367" lon="10.5656912"><ele>118.0</ele><time>2026-05-02T11:56:47.012Z</time></trkpt><trkpt lat="45.3681791" lon="10.5658273"><ele>118.4</ele><time>2026-05-02T11:56:48.011Z</time></trkpt><trkpt lat="45.3682194" lon="10.5659664"><ele>118.80000000000001</ele><time>2026-05-02T11:56:49.011Z</time></trkpt><trkpt lat="45.3682535" lon="10.5661032"><ele>119.2</ele><time>2026-05-02T11:56:50.012Z</time></trkpt><trkpt lat="45.3682859" lon="10.5662328"><ele>119.6</ele><time>2026-05-02T11:56:51.012Z</time></trkpt><trkpt lat="45.3683165" lon="10.5663557"><ele>120.0</ele><time>2026-05-02T11:56:52.013Z</time></trkpt><trkpt lat="45.3683403" lon="10.5664646"><ele>120.16666666666667</ele><time>2026-05-02T11:56:53.011Z</time></trkpt><trkpt lat="45.3683644" lon="10.5665592"><ele>120.33333333333334</ele><time>2026-05-02T11:56:54.011Z</time></trkpt><trkpt lat="45.3683828" lon="10.5666559"><ele>120.5</ele><time>2026-05-02T11:56:55.012Z</time></trkpt><trkpt lat="45.3683987" lon="10.5667432"><ele>120.66666666666667</ele><time>2026-05-02T11:56:56.012Z</time></trkpt><trkpt lat="45.3684128" lon="10.5668708"><ele>120.83333333333334</ele><time>2026-05-02T11:56:58.011Z</time></trkpt><trkpt lat="45.3683455" lon="10.5669501"><ele>121.0</ele><time>2026-05-02T11:57:01.012Z</time></trkpt><trkpt lat="45.3682111" lon="10.5669908"><ele>121.0</ele><time>2026-05-02T11:57:03.012Z</time></trkpt><trkpt lat="45.368122" lon="10.5670098"><ele>121.0</ele><time>2026-05-02T11:57:04.013Z</time></trkpt><trkpt lat="45.3680256" lon="10.5670203"><ele>121.0</ele><time>2026-05-02T11:57:05.011Z</time></trkpt><trkpt lat="45.3679216" lon="10.5670303"><ele>121.0</ele><time>2026-05-02T11:57:06.011Z</time></trkpt><trkpt lat="45.3678081" lon="10.5670381"><ele>121.0</ele><time>2026-05-02T11:57:07.013Z</time></trkpt><trkpt lat="45.3676855" lon="10.567042"><ele>121.4</ele><time>2026-05-02T11:57:08.013Z</time></trkpt><trkpt lat="45.3675641" lon="10.5670432"><ele>121.8</ele><time>2026-05-02T11:57:09.011Z</time></trkpt><trkpt lat="45.3674537" lon="10.5670401"><ele>122.20000000000002</ele><time>2026-05-02T11:57:10.012Z</time></trkpt><trkpt lat="45.3673518" lon="10.5670412"><ele>122.60000000000001</ele><time>2026-05-02T11:57:11.012Z</time></trkpt><trkpt lat="45.3672452" lon="10.5670377"><ele>123.0</ele><time>2026-05-02T11:57:12.011Z</time></trkpt><trkpt lat="45.3671386" lon="10.5670398"><ele>125.0</ele><time>2026-05-02T11:57:13.011Z</time></trkpt><trkpt lat="45.3670282" lon="10.5670428"><ele>127.0</ele><time>2026-05-02T11:57:14.011Z</time></trkpt><trkpt lat="45.3669155" lon="10.5670576"><ele>129.0</ele><time>2026-05-02T11:57:15.012Z</time></trkpt><trkpt lat="45.3668" lon="10.5670772"><ele>131.0</ele><time>2026-05-02T11:57:16.012Z</time></trkpt><trkpt lat="45.3666867" lon="10.5670987"><ele>131.0</ele><time>2026-05-02T11:57:17.011Z</time></trkpt><trkpt lat="45.3665902" lon="10.5671185"><ele>131.0</ele><time>2026-05-02T11:57:18.012Z</time></trkpt><trkpt lat="45.3665057" lon="10.5671429"><ele>131.0</ele><time>2026-05-02T11:57:19.011Z</time></trkpt><trkpt lat="45.3664244" lon="10.5671684"><ele>131.0</ele><time>2026-05-02T11:57:20.012Z</time></trkpt><trkpt lat="45.3663387" lon="10.5672004"><ele>131.0</ele><time>2026-05-02T11:57:21.012Z</time></trkpt><trkpt lat="45.3662499" lon="10.5672378"><ele>131.0</ele><time>2026-05-02T11:57:22.011Z</time></trkpt><trkpt lat="45.3661545" lon="10.5672761"><ele>130.6</ele><time>2026-05-02T11:57:23.011Z</time></trkpt><trkpt lat="45.3660556" lon="10.5673105"><ele>130.2</ele><time>2026-05-02T11:57:24.012Z</time></trkpt><trkpt lat="45.3659581" lon="10.5673434"><ele>129.8</ele><time>2026-05-02T11:57:25.011Z</time></trkpt><trkpt lat="45.3658583" lon="10.5673731"><ele>129.4</ele><time>2026-05-02T11:57:26.011Z</time></trkpt><trkpt lat="45.3657598" lon="10.5674053"><ele>129.0</ele><time>2026-05-02T11:57:27.011Z</time></trkpt><trkpt lat="45.3656605" lon="10.5674479"><ele>129.0</ele><time>2026-05-02T11:57:28.013Z</time></trkpt><trkpt lat="45.3655614" lon="10.567501"><ele>129.0</ele><time>2026-05-02T11:57:29.011Z</time></trkpt><trkpt lat="45.3654588" lon="10.5675614"><ele>129.0</ele><time>2026-05-02T11:57:30.013Z</time></trkpt><trkpt lat="45.3653585" lon="10.5676288"><ele>129.0</ele><time>2026-05-02T11:57:31.011Z</time></trkpt><trkpt lat="45.365259" lon="10.5676989"><ele>129.0</ele><time>2026-05-02T11:57:32.011Z</time></trkpt><trkpt lat="45.3651511" lon="10.5677518"><ele>129.0</ele><time>2026-05-02T11:57:33.012Z</time></trkpt><trkpt lat="45.3650386" lon="10.5677744"><ele>129.0</ele><time>2026-05-02T11:57:34.012Z</time></trkpt><trkpt lat="45.3649185" lon="10.5677793"><ele>129.0</ele><time>2026-05-02T11:57:35.012Z</time></trkpt><trkpt lat="45.364794" lon="10.5677662"><ele>129.0</ele><time>2026-05-02T11:57:36.011Z</time></trkpt><trkpt lat="45.364666" lon="10.5677549"><ele>129.0</ele><time>2026-05-02T11:57:37.011Z</time></trkpt><trkpt lat="45.3645382" lon="10.5677468"><ele>129.0</ele><time>2026-05-02T11:57:38.011Z</time></trkpt><trkpt lat="45.3644168" lon="10.5677406"><ele>129.0</ele><time>2026-05-02T11:57:39.011Z</time></trkpt><trkpt lat="45.3643075" lon="10.5677386"><ele>129.0</ele><time>2026-05-02T11:57:40.012Z</time></trkpt><trkpt lat="45.364218" lon="10.5677439"><ele>129.0</ele><time>2026-05-02T11:57:41.012Z</time></trkpt><trkpt lat="45.3641354" lon="10.5677486"><ele>129.0</ele><time>2026-05-02T11:57:42.012Z</time></trkpt><trkpt lat="45.3640458" lon="10.5677606"><ele>129.0</ele><time>2026-05-02T11:57:43.012Z</time></trkpt><trkpt lat="45.3639454" lon="10.5677819"><ele>129.0</ele><time>2026-05-02T11:57:44.012Z</time></trkpt><trkpt lat="45.3638364" lon="10.5678139"><ele>129.0</ele><time>2026-05-02T11:57:45.011Z</time></trkpt><trkpt lat="45.3637168" lon="10.5678493"><ele>129.0</ele><time>2026-05-02T11:57:46.011Z</time></trkpt><trkpt lat="45.3635921" lon="10.5678904"><ele>128.75</ele><time>2026-05-02T11:57:47.012Z</time></trkpt><trkpt lat="45.3634646" lon="10.5679403"><ele>128.5</ele><time>2026-05-02T11:57:48.011Z</time></trkpt><trkpt lat="45.3633346" lon="10.5679931"><ele>128.25</ele><time>2026-05-02T11:57:49.012Z</time></trkpt><trkpt lat="45.3631989" lon="10.5680379"><ele>128.0</ele><time>2026-05-02T11:57:50.012Z</time></trkpt><trkpt lat="45.3630606" lon="10.5680846"><ele>128.0</ele><time>2026-05-02T11:57:51.011Z</time></trkpt><trkpt lat="45.3629194" lon="10.568133"><ele>128.0</ele><time>2026-05-02T11:57:52.011Z</time></trkpt><trkpt lat="45.3627766" lon="10.5681851"><ele>128.0</ele><time>2026-05-02T11:57:53.012Z</time></trkpt><trkpt lat="45.3626361" lon="10.5682356"><ele>128.0</ele><time>2026-05-02T11:57:54.012Z</time></trkpt><trkpt lat="45.3624949" lon="10.5682907"><ele>128.0</ele><time>2026-05-02T11:57:55.013Z</time></trkpt><trkpt lat="45.3623483" lon="10.5683402"><ele>128.0</ele><time>2026-05-02T11:57:56.012Z</time></trkpt><trkpt lat="45.3622023" lon="10.5683933"><ele>128.0</ele><time>2026-05-02T11:57:57.011Z</time></trkpt><trkpt lat="45.3620513" lon="10.5684515"><ele>127.33333333333333</ele><time>2026-05-02T11:57:58.011Z</time></trkpt><trkpt lat="45.3618987" lon="10.5685118"><ele>126.66666666666666</ele><time>2026-05-02T11:57:59.011Z</time></trkpt><trkpt lat="45.361741" lon="10.5685708"><ele>126.0</ele><time>2026-05-02T11:58:00.011Z</time></trkpt><trkpt lat="45.3615815" lon="10.5686302"><ele>126.0</ele><time>2026-05-02T11:58:01.011Z</time></trkpt><trkpt lat="45.3614207" lon="10.5686915"><ele>126.0</ele><time>2026-05-02T11:58:02.011Z</time></trkpt><trkpt lat="45.3612545" lon="10.5687508"><ele>126.0</ele><time>2026-05-02T11:58:03.011Z</time></trkpt><trkpt lat="45.3610971" lon="10.5688074"><ele>125.25</ele><time>2026-05-02T11:58:04.011Z</time></trkpt><trkpt lat="45.3609512" lon="10.5688611"><ele>124.5</ele><time>2026-05-02T11:58:05.011Z</time></trkpt><trkpt lat="45.3608252" lon="10.5689111"><ele>123.75</ele><time>2026-05-02T11:58:06.011Z</time></trkpt><trkpt lat="45.3607123" lon="10.5689546"><ele>123.0</ele><time>2026-05-02T11:58:07.011Z</time></trkpt><trkpt lat="45.3606151" lon="10.5689924"><ele>123.0</ele><time>2026-05-02T11:58:08.011Z</time></trkpt><trkpt lat="45.3605329" lon="10.5690223"><ele>123.0</ele><time>2026-05-02T11:58:09.011Z</time></trkpt><trkpt lat="45.3604577" lon="10.5690471"><ele>123.0</ele><time>2026-05-02T11:58:10.012Z</time></trkpt><trkpt lat="45.3603825" lon="10.5690773"><ele>123.0</ele><time>2026-05-02T11:58:11.012Z</time></trkpt><trkpt lat="45.3603073" lon="10.5691089"><ele>123.0</ele><time>2026-05-02T11:58:12.011Z</time></trkpt><trkpt lat="45.3602294" lon="10.5691483"><ele>123.0</ele><time>2026-05-02T11:58:13.011Z</time></trkpt><trkpt lat="45.3601555" lon="10.5692043"><ele>122.83333333333333</ele><time>2026-05-02T11:58:14.012Z</time></trkpt><trkpt lat="45.3600909" lon="10.569282"><ele>122.66666666666666</ele><time>2026-05-02T11:58:15.013Z</time></trkpt><trkpt lat="45.3600342" lon="10.5693757"><ele>122.5</ele><time>2026-05-02T11:58:16.011Z</time></trkpt><trkpt lat="45.3599788" lon="10.5694599"><ele>122.33333333333333</ele><time>2026-05-02T11:58:17.012Z</time></trkpt><trkpt lat="45.3599195" lon="10.569527"><ele>122.16666666666666</ele><time>2026-05-02T11:58:18.011Z</time></trkpt><trkpt lat="45.3598431" lon="10.569567"><ele>122.0</ele><time>2026-05-02T11:58:19.012Z</time></trkpt><trkpt lat="45.3597523" lon="10.5695668"><ele>121.6</ele><time>2026-05-02T11:58:20.012Z</time></trkpt><trkpt lat="45.3596502" lon="10.5695359"><ele>121.19999999999999</ele><time>2026-05-02T11:58:21.012Z</time></trkpt><trkpt lat="45.3595364" lon="10.5694995"><ele>120.8</ele><time>2026-05-02T11:58:22.011Z</time></trkpt><trkpt lat="45.3594216" lon="10.5694633"><ele>120.4</ele><time>2026-05-02T11:58:23.012Z</time></trkpt><trkpt lat="45.3593181" lon="10.5694264"><ele>120.0</ele><time>2026-05-02T11:58:24.011Z</time></trkpt><trkpt lat="45.3592237" lon="10.5693854"><ele>120.0</ele><time>2026-05-02T11:58:25.012Z</time></trkpt><trkpt lat="45.359136" lon="10.5693363"><ele>120.0</ele><time>2026-05-02T11:58:26.012Z</time></trkpt><trkpt lat="45.3590543" lon="10.5692729"><ele>120.0</ele><time>2026-05-02T11:58:27.011Z</time></trkpt><trkpt lat="45.3589749" lon="10.5692039"><ele>120.0</ele><time>2026-05-02T11:58:28.012Z</time></trkpt><trkpt lat="45.3588982" lon="10.5691501"><ele>120.0</ele><time>2026-05-02T11:58:29.011Z</time></trkpt><trkpt lat="45.3588176" lon="10.5691276"><ele>120.0</ele><time>2026-05-02T11:58:30.012Z</time></trkpt><trkpt lat="45.3587308" lon="10.5691529"><ele>119.8</ele><time>2026-05-02T11:58:31.012Z</time></trkpt><trkpt lat="45.3586504" lon="10.5692222"><ele>119.6</ele><time>2026-05-02T11:58:32.011Z</time></trkpt><trkpt lat="45.3585875" lon="10.569337"><ele>119.4</ele><time>2026-05-02T11:58:33.011Z</time></trkpt><trkpt lat="45.3585355" lon="10.5694818"><ele>119.2</ele><time>2026-05-02T11:58:34.011Z</time></trkpt><trkpt lat="45.3584785" lon="10.5696365"><ele>119.0</ele><time>2026-05-02T11:58:35.011Z</time></trkpt><trkpt lat="45.3584099" lon="10.5697838"><ele>119.0</ele><time>2026-05-02T11:58:36.012Z</time></trkpt><trkpt lat="45.3583194" lon="10.5699171"><ele>119.0</ele><time>2026-05-02T11:58:37.012Z</time></trkpt><trkpt lat="45.3582102" lon="10.5700403"><ele>119.0</ele><time>2026-05-02T11:58:38.012Z</time></trkpt><trkpt lat="45.3580918" lon="10.5701624"><ele>119.0</ele><time>2026-05-02T11:58:39.011Z</time></trkpt><trkpt lat="45.357963" lon="10.5702831"><ele>118.0</ele><time>2026-05-02T11:58:40.011Z</time></trkpt><trkpt lat="45.3578297" lon="10.570404"><ele>117.0</ele><time>2026-05-02T11:58:41.012Z</time></trkpt><trkpt lat="45.3576957" lon="10.5705235"><ele>116.0</ele><time>2026-05-02T11:58:42.011Z</time></trkpt><trkpt lat="45.357558" lon="10.5706461"><ele>116.0</ele><time>2026-05-02T11:58:43.012Z</time></trkpt><trkpt lat="45.3574191" lon="10.5707669"><ele>116.0</ele><time>2026-05-02T11:58:44.012Z</time></trkpt><trkpt lat="45.3572793" lon="10.5708887"><ele>116.0</ele><time>2026-05-02T11:58:45.012Z</time></trkpt><trkpt lat="45.357144" lon="10.5710145"><ele>115.66666666666666</ele><time>2026-05-02T11:58:46.011Z</time></trkpt><trkpt lat="45.3570009" lon="10.5711369"><ele>115.33333333333334</ele><time>2026-05-02T11:58:47.012Z</time></trkpt><trkpt lat="45.3568583" lon="10.5712639"><ele>115.0</ele><time>2026-05-02T11:58:48.011Z</time></trkpt><trkpt lat="45.3567137" lon="10.5713964"><ele>115.0</ele><time>2026-05-02T11:58:49.012Z</time></trkpt><trkpt lat="45.3565739" lon="10.5715223"><ele>115.0</ele><time>2026-05-02T11:58:50.012Z</time></trkpt><trkpt lat="45.3564392" lon="10.5716341"><ele>115.0</ele><time>2026-05-02T11:58:51.011Z</time></trkpt><trkpt lat="45.3563273" lon="10.5717398"><ele>115.0</ele><time>2026-05-02T11:58:52.011Z</time></trkpt><trkpt lat="45.3562285" lon="10.5718335"><ele>115.0</ele><time>2026-05-02T11:58:53.012Z</time></trkpt><trkpt lat="45.3561494" lon="10.5719151"><ele>115.0</ele><time>2026-05-02T11:58:54.012Z</time></trkpt><trkpt lat="45.3560876" lon="10.5719864"><ele>115.0</ele><time>2026-05-02T11:58:55.012Z</time></trkpt><trkpt lat="45.3560316" lon="10.5720335"><ele>115.0</ele><time>2026-05-02T11:58:56.011Z</time></trkpt><trkpt lat="45.3559324" lon="10.5720025"><ele>114.8</ele><time>2026-05-02T11:58:58.012Z</time></trkpt><trkpt lat="45.3558761" lon="10.5718541"><ele>114.6</ele><time>2026-05-02T11:59:00.012Z</time></trkpt><trkpt lat="45.3558451" lon="10.5717517"><ele>114.4</ele><time>2026-05-02T11:59:01.011Z</time></trkpt><trkpt lat="45.3558079" lon="10.5716327"><ele>114.2</ele><time>2026-05-02T11:59:02.011Z</time></trkpt><trkpt lat="45.3557604" lon="10.5715051"><ele>114.0</ele><time>2026-05-02T11:59:03.013Z</time></trkpt><trkpt lat="45.3557059" lon="10.5713766"><ele>114.0</ele><time>2026-05-02T11:59:04.012Z</time></trkpt><trkpt lat="45.3556457" lon="10.5712357"><ele>114.0</ele><time>2026-05-02T11:59:05.011Z</time></trkpt><trkpt lat="45.3555764" lon="10.571089"><ele>114.0</ele><time>2026-05-02T11:59:06.012Z</time></trkpt><trkpt lat="45.3555034" lon="10.5709355"><ele>114.0</ele><time>2026-05-02T11:59:07.011Z</time></trkpt><trkpt lat="45.355429" lon="10.5707732"><ele>112.25</ele><time>2026-05-02T11:59:08.012Z</time></trkpt><trkpt lat="45.3553518" lon="10.5706046"><ele>110.5</ele><time>2026-05-02T11:59:09.011Z</time></trkpt><trkpt lat="45.3552592" lon="10.5704406"><ele>108.75</ele><time>2026-05-02T11:59:10.011Z</time></trkpt><trkpt lat="45.3551536" lon="10.5702856"><ele>107.0</ele><time>2026-05-02T11:59:11.012Z</time></trkpt><trkpt lat="45.355039" lon="10.5701378"><ele>106.0</ele><time>2026-05-02T11:59:12.011Z</time></trkpt><trkpt lat="45.3549161" lon="10.569998"><ele>105.0</ele><time>2026-05-02T11:59:13.012Z</time></trkpt><trkpt lat="45.3547866" lon="10.5698623"><ele>104.0</ele><time>2026-05-02T11:59:14.012Z</time></trkpt><trkpt lat="45.3546564" lon="10.5697202"><ele>103.66666666666666</ele><time>2026-05-02T11:59:15.012Z</time></trkpt><trkpt lat="45.3545219" lon="10.5695763"><ele>103.33333333333334</ele><time>2026-05-02T11:59:16.013Z</time></trkpt><trkpt lat="45.3543914" lon="10.5694381"><ele>103.0</ele><time>2026-05-02T11:59:17.013Z</time></trkpt><trkpt lat="45.3542554" lon="10.5692903"><ele>103.0</ele><time>2026-05-02T11:59:18.011Z</time></trkpt><trkpt lat="45.354118" lon="10.5691436"><ele>103.0</ele><time>2026-05-02T11:59:19.011Z</time></trkpt><trkpt lat="45.353975" lon="10.5689966"><ele>103.0</ele><time>2026-05-02T11:59:20.011Z</time></trkpt><trkpt lat="45.3538286" lon="10.5688517"><ele>103.0</ele><time>2026-05-02T11:59:21.011Z</time></trkpt><trkpt lat="45.3536741" lon="10.5687103"><ele>103.0</ele><time>2026-05-02T11:59:22.012Z</time></trkpt><trkpt lat="45.3535171" lon="10.5685774"><ele>103.0</ele><time>2026-05-02T11:59:23.013Z</time></trkpt><trkpt lat="45.3533604" lon="10.5684555"><ele>102.66666666666667</ele><time>2026-05-02T11:59:24.011Z</time></trkpt><trkpt lat="45.3532011" lon="10.568338"><ele>102.33333333333334</ele><time>2026-05-02T11:59:25.012Z</time></trkpt><trkpt lat="45.3530374" lon="10.5682233"><ele>102.0</ele><time>2026-05-02T11:59:26.012Z</time></trkpt><trkpt lat="45.3528669" lon="10.5681071"><ele>101.66666666666666</ele><time>2026-05-02T11:59:27.011Z</time></trkpt><trkpt lat="45.3526965" lon="10.5679883"><ele>101.33333333333333</ele><time>2026-05-02T11:59:28.011Z</time></trkpt><trkpt lat="45.3525234" lon="10.5678664"><ele>101.0</ele><time>2026-05-02T11:59:29.011Z</time></trkpt><trkpt lat="45.35235" lon="10.5677474"><ele>100.66666666666666</ele><time>2026-05-02T11:59:30.012Z</time></trkpt><trkpt lat="45.3521785" lon="10.5676331"><ele>100.33333333333334</ele><time>2026-05-02T11:59:31.013Z</time></trkpt><trkpt lat="45.3520096" lon="10.5675113"><ele>100.0</ele><time>2026-05-02T11:59:32.012Z</time></trkpt><trkpt lat="45.351838" lon="10.5673923"><ele>100.0</ele><time>2026-05-02T11:59:33.011Z</time></trkpt><trkpt lat="45.3516674" lon="10.5672745"><ele>100.0</ele><time>2026-05-02T11:59:34.011Z</time></trkpt><trkpt lat="45.3514961" lon="10.5671592"><ele>100.0</ele><time>2026-05-02T11:59:35.012Z</time></trkpt><trkpt lat="45.3513231" lon="10.56705"><ele>99.66666666666667</ele><time>2026-05-02T11:59:36.011Z</time></trkpt><trkpt lat="45.3511515" lon="10.5669427"><ele>99.33333333333334</ele><time>2026-05-02T11:59:37.011Z</time></trkpt><trkpt lat="45.3509798" lon="10.5668317"><ele>99.0</ele><time>2026-05-02T11:59:38.01Z</time></trkpt><trkpt lat="45.3508091" lon="10.5667214"><ele>99.0</ele><time>2026-05-02T11:59:39.01Z</time></trkpt><trkpt lat="45.3506362" lon="10.5666125"><ele>99.0</ele><time>2026-05-02T11:59:40.011Z</time></trkpt><trkpt lat="45.3504652" lon="10.5664997"><ele>99.0</ele><time>2026-05-02T11:59:41.011Z</time></trkpt><trkpt lat="45.3502965" lon="10.566391"><ele>98.0</ele><time>2026-05-02T11:59:42.01Z</time></trkpt><trkpt lat="45.3501256" lon="10.566291"><ele>97.0</ele><time>2026-05-02T11:59:43.011Z</time></trkpt><trkpt lat="45.3499551" lon="10.5661883"><ele>96.0</ele><time>2026-05-02T11:59:44.01Z</time></trkpt><trkpt lat="45.3497798" lon="10.566086"><ele>95.66666666666667</ele><time>2026-05-02T11:59:45.01Z</time></trkpt><trkpt lat="45.3496013" lon="10.5659827"><ele>95.33333333333334</ele><time>2026-05-02T11:59:46.01Z</time></trkpt><trkpt lat="45.3494226" lon="10.5658782"><ele>95.0</ele><time>2026-05-02T11:59:47.011Z</time></trkpt><trkpt lat="45.3492436" lon="10.5657735"><ele>95.0</ele><time>2026-05-02T11:59:48.01Z</time></trkpt><trkpt lat="45.349063" lon="10.5656659"><ele>95.0</ele><time>2026-05-02T11:59:49.01Z</time></trkpt><trkpt lat="45.348884" lon="10.5655577"><ele>95.0</ele><time>2026-05-02T11:59:50.01Z</time></trkpt><trkpt lat="45.3487004" lon="10.5654492"><ele>95.0</ele><time>2026-05-02T11:59:51.01Z</time></trkpt><trkpt lat="45.3485168" lon="10.5653387"><ele>95.0</ele><time>2026-05-02T11:59:52.01Z</time></trkpt><trkpt lat="45.34833" lon="10.5652263"><ele>95.0</ele><time>2026-05-02T11:59:53.01Z</time></trkpt><trkpt lat="45.3481414" lon="10.5651115"><ele>95.0</ele><time>2026-05-02T11:59:54.011Z</time></trkpt><trkpt lat="45.3479549" lon="10.5649936"><ele>95.0</ele><time>2026-05-02T11:59:55.01Z</time></trkpt><trkpt lat="45.3477717" lon="10.5648658"><ele>95.0</ele><time>2026-05-02T11:59:56.011Z</time></trkpt><trkpt lat="45.3475897" lon="10.5647307"><ele>95.0</ele><time>2026-05-02T11:59:57.01Z</time></trkpt><trkpt lat="45.3474082" lon="10.5645938"><ele>95.0</ele><time>2026-05-02T11:59:58.012Z</time></trkpt><trkpt lat="45.3472259" lon="10.5644576"><ele>95.0</ele><time>2026-05-02T11:59:59.011Z</time></trkpt><trkpt lat="45.3470449" lon="10.5643179"><ele>94.66666666666667</ele><time>2026-05-02T12:00:00.01Z</time></trkpt><trkpt lat="45.3468653" lon="10.5641762"><ele>94.33333333333333</ele><time>2026-05-02T12:00:01.011Z</time></trkpt><trkpt lat="45.3466893" lon="10.5640292"><ele>94.0</ele><time>2026-05-02T12:00:02.01Z</time></trkpt><trkpt lat="45.3465164" lon="10.5638808"><ele>93.66666666666666</ele><time>2026-05-02T12:00:03.011Z</time></trkpt><trkpt lat="45.3463438" lon="10.5637308"><ele>93.33333333333333</ele><time>2026-05-02T12:00:04.01Z</time></trkpt><trkpt lat="45.3461708" lon="10.5635822"><ele>93.0</ele><time>2026-05-02T12:00:05.011Z</time></trkpt><trkpt lat="45.3460004" lon="10.5634374"><ele>92.66666666666667</ele><time>2026-05-02T12:00:06.011Z</time></trkpt><trkpt lat="45.3458265" lon="10.5632914"><ele>92.33333333333334</ele><time>2026-05-02T12:00:07.011Z</time></trkpt><trkpt lat="45.3456577" lon="10.5631499"><ele>92.0</ele><time>2026-05-02T12:00:08.01Z</time></trkpt><trkpt lat="45.3454901" lon="10.5630056"><ele>92.0</ele><time>2026-05-02T12:00:09.011Z</time></trkpt><trkpt lat="45.3453247" lon="10.5628566"><ele>92.0</ele><time>2026-05-02T12:00:10.01Z</time></trkpt><trkpt lat="45.3451592" lon="10.5627102"><ele>92.0</ele><time>2026-05-02T12:00:11.011Z</time></trkpt><trkpt lat="45.3449936" lon="10.5625687"><ele>92.0</ele><time>2026-05-02T12:00:12.01Z</time></trkpt><trkpt lat="45.3448289" lon="10.5624215"><ele>92.0</ele><time>2026-05-02T12:00:13.01Z</time></trkpt><trkpt lat="45.3446663" lon="10.5622797"><ele>92.0</ele><time>2026-05-02T12:00:14.01Z</time></trkpt><trkpt lat="45.3445071" lon="10.5621406"><ele>91.0</ele><time>2026-05-02T12:00:15.011Z</time></trkpt><trkpt lat="45.3443515" lon="10.5620033"><ele>90.0</ele><time>2026-05-02T12:00:16.01Z</time></trkpt><trkpt lat="45.3442001" lon="10.5618697"><ele>89.0</ele><time>2026-05-02T12:00:17.01Z</time></trkpt><trkpt lat="45.3440489" lon="10.5617365"><ele>89.0</ele><time>2026-05-02T12:00:18.01Z</time></trkpt><trkpt lat="45.3438939" lon="10.561611"><ele>89.0</ele><time>2026-05-02T12:00:19.01Z</time></trkpt><trkpt lat="45.3437362" lon="10.5614894"><ele>89.0</ele><time>2026-05-02T12:00:20.011Z</time></trkpt><trkpt lat="45.3435747" lon="10.5613705"><ele>88.33333333333334</ele><time>2026-05-02T12:00:21.01Z</time></trkpt><trkpt lat="45.343414" lon="10.5612473"><ele>87.66666666666667</ele><time>2026-05-02T12:00:22.01Z</time></trkpt><trkpt lat="45.3432525" lon="10.5611276"><ele>87.0</ele><time>2026-05-02T12:00:23.011Z</time></trkpt><trkpt lat="45.3430864" lon="10.5610048"><ele>87.0</ele><time>2026-05-02T12:00:24.01Z</time></trkpt><trkpt lat="45.34292" lon="10.5608888"><ele>87.0</ele><time>2026-05-02T12:00:25.01Z</time></trkpt><trkpt lat="45.3427509" lon="10.5607632"><ele>87.0</ele><time>2026-05-02T12:00:26.01Z</time></trkpt><trkpt lat="45.3425827" lon="10.5606366"><ele>87.0</ele><time>2026-05-02T12:00:27.01Z</time></trkpt><trkpt lat="45.3424143" lon="10.5605111"><ele>87.0</ele><time>2026-05-02T12:00:28.011Z</time></trkpt><trkpt lat="45.3422473" lon="10.5603863"><ele>87.0</ele><time>2026-05-02T12:00:29.01Z</time></trkpt><trkpt lat="45.3420859" lon="10.5602653"><ele>86.33333333333333</ele><time>2026-05-02T12:00:30.01Z</time></trkpt><trkpt lat="45.3419239" lon="10.5601475"><ele>85.66666666666666</ele><time>2026-05-02T12:00:31.01Z</time></trkpt><trkpt lat="45.3417608" lon="10.5600279"><ele>85.0</ele><time>2026-05-02T12:00:32.01Z</time></trkpt><trkpt lat="45.3416009" lon="10.5599091"><ele>85.0</ele><time>2026-05-02T12:00:33.011Z</time></trkpt><trkpt lat="45.3414452" lon="10.5597859"><ele>85.0</ele><time>2026-05-02T12:00:34.01Z</time></trkpt><trkpt lat="45.3412928" lon="10.5596514"><ele>85.0</ele><time>2026-05-02T12:00:35.011Z</time></trkpt><trkpt lat="45.3411533" lon="10.5594986"><ele>85.0</ele><time>2026-05-02T12:00:36.011Z</time></trkpt><trkpt lat="45.3410246" lon="10.5593206"><ele>85.0</ele><time>2026-05-02T12:00:37.011Z</time></trkpt><trkpt lat="45.3409117" lon="10.5591202"><ele>85.0</ele><time>2026-05-02T12:00:38.01Z</time></trkpt><trkpt lat="45.3408038" lon="10.5589116"><ele>85.0</ele><time>2026-05-02T12:00:39.01Z</time></trkpt><trkpt lat="45.3406914" lon="10.5587008"><ele>85.0</ele><time>2026-05-02T12:00:40.01Z</time></trkpt><trkpt lat="45.3405761" lon="10.5584889"><ele>85.0</ele><time>2026-05-02T12:00:41.01Z</time></trkpt><trkpt lat="45.3404625" lon="10.5582765"><ele>84.66666666666666</ele><time>2026-05-02T12:00:42.01Z</time></trkpt><trkpt lat="45.3403461" lon="10.5580655"><ele>84.33333333333333</ele><time>2026-05-02T12:00:43.011Z</time></trkpt><trkpt lat="45.3402314" lon="10.5578488"><ele>84.0</ele><time>2026-05-02T12:00:44.01Z</time></trkpt><trkpt lat="45.3401124" lon="10.5576265"><ele>84.0</ele><time>2026-05-02T12:00:45.011Z</time></trkpt><trkpt lat="45.339994" lon="10.5574052"><ele>84.0</ele><time>2026-05-02T12:00:46.011Z</time></trkpt><trkpt lat="45.3398723" lon="10.5571811"><ele>84.0</ele><time>2026-05-02T12:00:47.011Z</time></trkpt><trkpt lat="45.3397479" lon="10.5569543"><ele>83.33333333333333</ele><time>2026-05-02T12:00:48.01Z</time></trkpt><trkpt lat="45.3396251" lon="10.5567239"><ele>82.66666666666666</ele><time>2026-05-02T12:00:49.01Z</time></trkpt><trkpt lat="45.3395008" lon="10.5564877"><ele>82.0</ele><time>2026-05-02T12:00:50.01Z</time></trkpt><trkpt lat="45.339377" lon="10.5562508"><ele>81.66666666666666</ele><time>2026-05-02T12:00:51.011Z</time></trkpt><trkpt lat="45.3392493" lon="10.5560142"><ele>81.33333333333333</ele><time>2026-05-02T12:00:52.01Z</time></trkpt><trkpt lat="45.3391206" lon="10.5557797"><ele>81.0</ele><time>2026-05-02T12:00:53.01Z</time></trkpt><trkpt lat="45.3389906" lon="10.5555436"><ele>80.66666666666667</ele><time>2026-05-02T12:00:54.01Z</time></trkpt><trkpt lat="45.3388605" lon="10.5553056"><ele>80.33333333333334</ele><time>2026-05-02T12:00:55.011Z</time></trkpt><trkpt lat="45.3387308" lon="10.5550635"><ele>80.0</ele><time>2026-05-02T12:00:56.01Z</time></trkpt><trkpt lat="45.3386" lon="10.5548192"><ele>80.0</ele><time>2026-05-02T12:00:57.01Z</time></trkpt><trkpt lat="45.3384692" lon="10.554573"><ele>80.0</ele><time>2026-05-02T12:00:58.011Z</time></trkpt><trkpt lat="45.3383366" lon="10.5543256"><ele>80.0</ele><time>2026-05-02T12:00:59.01Z</time></trkpt><trkpt lat="45.3382026" lon="10.5540775"><ele>80.0</ele><time>2026-05-02T12:01:00.01Z</time></trkpt><trkpt lat="45.3380718" lon="10.5538355"><ele>80.0</ele><time>2026-05-02T12:01:01.011Z</time></trkpt><trkpt lat="45.3379472" lon="10.5536052"><ele>80.0</ele><time>2026-05-02T12:01:02.011Z</time></trkpt><trkpt lat="45.3378277" lon="10.5533839"><ele>80.0</ele><time>2026-05-02T12:01:03.01Z</time></trkpt><trkpt lat="45.3377161" lon="10.5531712"><ele>80.0</ele><time>2026-05-02T12:01:04.01Z</time></trkpt><trkpt lat="45.3376036" lon="10.5529697"><ele>80.0</ele><time>2026-05-02T12:01:05.01Z</time></trkpt><trkpt lat="45.3374967" lon="10.5527761"><ele>79.33333333333334</ele><time>2026-05-02T12:01:06.01Z</time></trkpt><trkpt lat="45.3373978" lon="10.5525899"><ele>78.66666666666667</ele><time>2026-05-02T12:01:07.01Z</time></trkpt><trkpt lat="45.3373032" lon="10.5524115"><ele>78.0</ele><time>2026-05-02T12:01:08.011Z</time></trkpt><trkpt lat="45.3372079" lon="10.5522382"><ele>78.0</ele><time>2026-05-02T12:01:09.01Z</time></trkpt><trkpt lat="45.337112" lon="10.5520589"><ele>78.0</ele><time>2026-05-02T12:01:10.011Z</time></trkpt><trkpt lat="45.3370181" lon="10.551884"><ele>78.0</ele><time>2026-05-02T12:01:11.01Z</time></trkpt><trkpt lat="45.3369327" lon="10.5517118"><ele>77.5</ele><time>2026-05-02T12:01:12.011Z</time></trkpt><trkpt lat="45.3368592" lon="10.5515391"><ele>77.0</ele><time>2026-05-02T12:01:13.011Z</time></trkpt><trkpt lat="45.3367998" lon="10.5513639"><ele>76.5</ele><time>2026-05-02T12:01:14.01Z</time></trkpt><trkpt lat="45.336761" lon="10.5511933"><ele>76.0</ele><time>2026-05-02T12:01:15.011Z</time></trkpt><trkpt lat="45.336743" lon="10.5510278"><ele>76.0</ele><time>2026-05-02T12:01:16.01Z</time></trkpt><trkpt lat="45.3367307" lon="10.5508738"><ele>76.0</ele><time>2026-05-02T12:01:17.011Z</time></trkpt><trkpt lat="45.3367275" lon="10.5507363"><ele>76.0</ele><time>2026-05-02T12:01:18.01Z</time></trkpt><trkpt lat="45.3367342" lon="10.5506118"><ele>76.0</ele><time>2026-05-02T12:01:19.01Z</time></trkpt><trkpt lat="45.336758" lon="10.550482"><ele>76.0</ele><time>2026-05-02T12:01:20.01Z</time></trkpt><trkpt lat="45.336801" lon="10.550354"><ele>76.2</ele><time>2026-05-02T12:01:21.012Z</time></trkpt><trkpt lat="45.3368533" lon="10.5502333"><ele>76.39999999999999</ele><time>2026-05-02T12:01:22.01Z</time></trkpt><trkpt lat="45.3368876" lon="10.5501008"><ele>76.6</ele><time>2026-05-02T12:01:23.01Z</time></trkpt><trkpt lat="45.3368964" lon="10.5499577"><ele>76.8</ele><time>2026-05-02T12:01:24.011Z</time></trkpt><trkpt lat="45.3368755" lon="10.5498172"><ele>77.0</ele><time>2026-05-02T12:01:25.011Z</time></trkpt><trkpt lat="45.3368277" lon="10.5496871"><ele>77.0</ele><time>2026-05-02T12:01:26.01Z</time></trkpt><trkpt lat="45.3367592" lon="10.5495766"><ele>77.0</ele><time>2026-05-02T12:01:27.01Z</time></trkpt><trkpt lat="45.3366745" lon="10.5494956"><ele>77.0</ele><time>2026-05-02T12:01:28.011Z</time></trkpt><trkpt lat="45.3365723" lon="10.5494499"><ele>77.0</ele><time>2026-05-02T12:01:29.011Z</time></trkpt><trkpt lat="45.3364632" lon="10.5494407"><ele>77.0</ele><time>2026-05-02T12:01:30.01Z</time></trkpt><trkpt lat="45.3363504" lon="10.5494691"><ele>77.0</ele><time>2026-05-02T12:01:31.011Z</time></trkpt><trkpt lat="45.3362342" lon="10.5495072"><ele>77.0</ele><time>2026-05-02T12:01:32.01Z</time></trkpt><trkpt lat="45.336111" lon="10.5495053"><ele>77.0</ele><time>2026-05-02T12:01:33.011Z</time></trkpt><trkpt lat="45.3359876" lon="10.5494726"><ele>77.0</ele><time>2026-05-02T12:01:34.011Z</time></trkpt><trkpt lat="45.3358762" lon="10.5493858"><ele>77.0</ele><time>2026-05-02T12:01:35.01Z</time></trkpt><trkpt lat="45.3357807" lon="10.5492617"><ele>77.0</ele><time>2026-05-02T12:01:36.011Z</time></trkpt><trkpt lat="45.3357048" lon="10.5491013"><ele>77.0</ele><time>2026-05-02T12:01:37.01Z</time></trkpt><trkpt lat="45.3356329" lon="10.5489303"><ele>77.0</ele><time>2026-05-02T12:01:38.01Z</time></trkpt><trkpt lat="45.3355561" lon="10.5487598"><ele>76.5</ele><time>2026-05-02T12:01:39.01Z</time></trkpt><trkpt lat="45.3354794" lon="10.5486019"><ele>76.0</ele><time>2026-05-02T12:01:40.011Z</time></trkpt><trkpt lat="45.335404" lon="10.5484604"><ele>75.5</ele><time>2026-05-02T12:01:41.01Z</time></trkpt><trkpt lat="45.3353275" lon="10.5483281"><ele>75.0</ele><time>2026-05-02T12:01:42.011Z</time></trkpt><trkpt lat="45.3352589" lon="10.5482025"><ele>75.0</ele><time>2026-05-02T12:01:43.01Z</time></trkpt><trkpt lat="45.3352024" lon="10.5480732"><ele>75.0</ele><time>2026-05-02T12:01:44.011Z</time></trkpt><trkpt lat="45.3351558" lon="10.5479385"><ele>75.0</ele><time>2026-05-02T12:01:45.01Z</time></trkpt><trkpt lat="45.3351289" lon="10.5477963"><ele>75.0</ele><time>2026-05-02T12:01:46.011Z</time></trkpt><trkpt lat="45.3351004" lon="10.5476496"><ele>75.0</ele><time>2026-05-02T12:01:47.01Z</time></trkpt><trkpt lat="45.3350422" lon="10.5475119"><ele>74.5</ele><time>2026-05-02T12:01:48.011Z</time></trkpt><trkpt lat="45.3349618" lon="10.5473854"><ele>74.0</ele><time>2026-05-02T12:01:49.01Z</time></trkpt><trkpt lat="45.3348777" lon="10.5472453"><ele>73.5</ele><time>2026-05-02T12:01:50.01Z</time></trkpt><trkpt lat="45.3348107" lon="10.547084"><ele>73.0</ele><time>2026-05-02T12:01:51.01Z</time></trkpt><trkpt lat="45.3347547" lon="10.5469013"><ele>73.0</ele><time>2026-05-02T12:01:52.01Z</time></trkpt><trkpt lat="45.3347091" lon="10.5467061"><ele>73.0</ele><time>2026-05-02T12:01:53.01Z</time></trkpt><trkpt lat="45.3346663" lon="10.5465009"><ele>73.0</ele><time>2026-05-02T12:01:54.01Z</time></trkpt><trkpt lat="45.3346164" lon="10.5462937"><ele>73.0</ele><time>2026-05-02T12:01:55.011Z</time></trkpt><trkpt lat="45.3345588" lon="10.5460972"><ele>73.33333333333333</ele><time>2026-05-02T12:01:56.01Z</time></trkpt><trkpt lat="45.3344897" lon="10.5459074"><ele>73.66666666666667</ele><time>2026-05-02T12:01:57.011Z</time></trkpt><trkpt lat="45.3344132" lon="10.5457168"><ele>74.0</ele><time>2026-05-02T12:01:58.011Z</time></trkpt><trkpt lat="45.3343399" lon="10.5455264"><ele>73.33333333333334</ele><time>2026-05-02T12:01:59.011Z</time></trkpt><trkpt lat="45.3342662" lon="10.5453339"><ele>72.66666666666667</ele><time>2026-05-02T12:02:00.01Z</time></trkpt><trkpt lat="45.3341918" lon="10.5451384"><ele>72.0</ele><time>2026-05-02T12:02:01.011Z</time></trkpt><trkpt lat="45.334122" lon="10.544946"><ele>72.0</ele><time>2026-05-02T12:02:02.01Z</time></trkpt><trkpt lat="45.3340467" lon="10.5447458"><ele>72.0</ele><time>2026-05-02T12:02:03.011Z</time></trkpt><trkpt lat="45.3339708" lon="10.5445471"><ele>72.0</ele><time>2026-05-02T12:02:04.012Z</time></trkpt><trkpt lat="45.3338932" lon="10.5443451"><ele>71.66666666666667</ele><time>2026-05-02T12:02:05.011Z</time></trkpt><trkpt lat="45.333814" lon="10.5441357"><ele>71.33333333333334</ele><time>2026-05-02T12:02:06.01Z</time></trkpt><trkpt lat="45.333732" lon="10.5439231"><ele>71.0</ele><time>2026-05-02T12:02:07.01Z</time></trkpt><trkpt lat="45.333649" lon="10.5437041"><ele>70.66666666666667</ele><time>2026-05-02T12:02:08.011Z</time></trkpt><trkpt lat="45.3335657" lon="10.5434799"><ele>70.33333333333333</ele><time>2026-05-02T12:02:09.011Z</time></trkpt><trkpt lat="45.3334769" lon="10.5432529"><ele>70.0</ele><time>2026-05-02T12:02:10.011Z</time></trkpt><trkpt lat="45.3333864" lon="10.5430222"><ele>70.66666666666666</ele><time>2026-05-02T12:02:11.012Z</time></trkpt><trkpt lat="45.3332959" lon="10.542785"><ele>71.33333333333333</ele><time>2026-05-02T12:02:12.01Z</time></trkpt><trkpt lat="45.3332039" lon="10.542545"><ele>72.0</ele><time>2026-05-02T12:02:13.012Z</time></trkpt><trkpt lat="45.3331101" lon="10.5423005"><ele>71.66666666666667</ele><time>2026-05-02T12:02:14.011Z</time></trkpt><trkpt lat="45.3330155" lon="10.5420531"><ele>71.33333333333334</ele><time>2026-05-02T12:02:15.01Z</time></trkpt><trkpt lat="45.3329197" lon="10.5418042"><ele>71.0</ele><time>2026-05-02T12:02:16.01Z</time></trkpt><trkpt lat="45.332823" lon="10.5415536"><ele>71.0</ele><time>2026-05-02T12:02:17.011Z</time></trkpt><trkpt lat="45.3327256" lon="10.5413022"><ele>71.0</ele><time>2026-05-02T12:02:18.011Z</time></trkpt><trkpt lat="45.3326276" lon="10.5410478"><ele>71.0</ele><time>2026-05-02T12:02:19.01Z</time></trkpt><trkpt lat="45.3325294" lon="10.5407915"><ele>71.0</ele><time>2026-05-02T12:02:20.011Z</time></trkpt><trkpt lat="45.3324302" lon="10.5405329"><ele>71.0</ele><time>2026-05-02T12:02:21.011Z</time></trkpt><trkpt lat="45.3323298" lon="10.540274"><ele>71.0</ele><time>2026-05-02T12:02:22.01Z</time></trkpt><trkpt lat="45.3322309" lon="10.5400152"><ele>70.66666666666667</ele><time>2026-05-02T12:02:23.011Z</time></trkpt><trkpt lat="45.3321313" lon="10.5397593"><ele>70.33333333333333</ele><time>2026-05-02T12:02:24.011Z</time></trkpt><trkpt lat="45.3320308" lon="10.5395032"><ele>70.0</ele><time>2026-05-02T12:02:25.01Z</time></trkpt><trkpt lat="45.3319334" lon="10.5392431"><ele>70.0</ele><time>2026-05-02T12:02:26.01Z</time></trkpt><trkpt lat="45.3318371" lon="10.5389828"><ele>70.0</ele><time>2026-05-02T12:02:27.01Z</time></trkpt><trkpt lat="45.3317383" lon="10.5387274"><ele>70.0</ele><time>2026-05-02T12:02:28.01Z</time></trkpt><trkpt lat="45.3316402" lon="10.5384748"><ele>70.33333333333333</ele><time>2026-05-02T12:02:29.012Z</time></trkpt><trkpt lat="45.3315419" lon="10.5382208"><ele>70.66666666666667</ele><time>2026-05-02T12:02:30.01Z</time></trkpt><trkpt lat="45.3314441" lon="10.5379681"><ele>71.0</ele><time>2026-05-02T12:02:31.011Z</time></trkpt><trkpt lat="45.3313486" lon="10.5377191"><ele>70.0</ele><time>2026-05-02T12:02:32.011Z</time></trkpt><trkpt lat="45.331254" lon="10.5374711"><ele>69.0</ele><time>2026-05-02T12:02:33.011Z</time></trkpt><trkpt lat="45.3311587" lon="10.5372223"><ele>68.0</ele><time>2026-05-02T12:02:34.01Z</time></trkpt><trkpt lat="45.3310627" lon="10.5369716"><ele>67.66666666666667</ele><time>2026-05-02T12:02:35.01Z</time></trkpt><trkpt lat="45.3309653" lon="10.536721"><ele>67.33333333333333</ele><time>2026-05-02T12:02:36.011Z</time></trkpt><trkpt lat="45.3308663" lon="10.5364692"><ele>67.0</ele><time>2026-05-02T12:02:37.01Z</time></trkpt><trkpt lat="45.3307681" lon="10.5362136"><ele>67.0</ele><time>2026-05-02T12:02:38.01Z</time></trkpt><trkpt lat="45.3306692" lon="10.5359564"><ele>67.0</ele><time>2026-05-02T12:02:39.01Z</time></trkpt><trkpt lat="45.3305702" lon="10.5356981"><ele>67.0</ele><time>2026-05-02T12:02:40.011Z</time></trkpt><trkpt lat="45.3304712" lon="10.535439"><ele>66.66666666666666</ele><time>2026-05-02T12:02:41.011Z</time></trkpt><trkpt lat="45.3303735" lon="10.5351783"><ele>66.33333333333333</ele><time>2026-05-02T12:02:42.011Z</time></trkpt><trkpt lat="45.3302749" lon="10.534919"><ele>66.0</ele><time>2026-05-02T12:02:43.011Z</time></trkpt><trkpt lat="45.3301739" lon="10.5346604"><ele>66.0</ele><time>2026-05-02T12:02:44.011Z</time></trkpt><trkpt lat="45.3300749" lon="10.5343986"><ele>66.0</ele><time>2026-05-02T12:02:45.01Z</time></trkpt><trkpt lat="45.3299749" lon="10.5341365"><ele>66.0</ele><time>2026-05-02T12:02:46.011Z</time></trkpt><trkpt lat="45.3298744" lon="10.5338733"><ele>66.33333333333333</ele><time>2026-05-02T12:02:47.01Z</time></trkpt><trkpt lat="45.3297731" lon="10.5336111"><ele>66.66666666666666</ele><time>2026-05-02T12:02:48.011Z</time></trkpt><trkpt lat="45.3296734" lon="10.5333525"><ele>67.0</ele><time>2026-05-02T12:02:49.011Z</time></trkpt><trkpt lat="45.3295771" lon="10.5330983"><ele>66.66666666666666</ele><time>2026-05-02T12:02:50.012Z</time></trkpt><trkpt lat="45.3294809" lon="10.532846"><ele>66.33333333333333</ele><time>2026-05-02T12:02:51.011Z</time></trkpt><trkpt lat="45.3293861" lon="10.532596"><ele>66.0</ele><time>2026-05-02T12:02:52.011Z</time></trkpt><trkpt lat="45.3292893" lon="10.5323476"><ele>66.0</ele><time>2026-05-02T12:02:53.011Z</time></trkpt><trkpt lat="45.3291964" lon="10.5321006"><ele>66.0</ele><time>2026-05-02T12:02:54.01Z</time></trkpt><trkpt lat="45.3291025" lon="10.5318547"><ele>66.0</ele><time>2026-05-02T12:02:55.01Z</time></trkpt><trkpt lat="45.3290093" lon="10.5316079"><ele>65.66666666666667</ele><time>2026-05-02T12:02:56.01Z</time></trkpt><trkpt lat="45.3289146" lon="10.5313608"><ele>65.33333333333334</ele><time>2026-05-02T12:02:57.01Z</time></trkpt><trkpt lat="45.3288203" lon="10.531112"><ele>65.0</ele><time>2026-05-02T12:02:58.012Z</time></trkpt><trkpt lat="45.3287249" lon="10.5308652"><ele>65.0</ele><time>2026-05-02T12:02:59.01Z</time></trkpt><trkpt lat="45.3286305" lon="10.5306227"><ele>65.0</ele><time>2026-05-02T12:03:00.011Z</time></trkpt><trkpt lat="45.3285366" lon="10.5303807"><ele>65.0</ele><time>2026-05-02T12:03:01.01Z</time></trkpt><trkpt lat="45.328446" lon="10.5301405"><ele>64.66666666666667</ele><time>2026-05-02T12:03:02.01Z</time></trkpt><trkpt lat="45.3283565" lon="10.5299002"><ele>64.33333333333333</ele><time>2026-05-02T12:03:03.01Z</time></trkpt><trkpt lat="45.3282646" lon="10.529663"><ele>64.0</ele><time>2026-05-02T12:03:04.011Z</time></trkpt><trkpt lat="45.3281695" lon="10.5294279"><ele>64.0</ele><time>2026-05-02T12:03:05.01Z</time></trkpt><trkpt lat="45.3280761" lon="10.5291904"><ele>64.0</ele><time>2026-05-02T12:03:06.01Z</time></trkpt><trkpt lat="45.3279839" lon="10.5289512"><ele>64.0</ele><time>2026-05-02T12:03:07.01Z</time></trkpt><trkpt lat="45.3278912" lon="10.5287122"><ele>63.666666666666664</ele><time>2026-05-02T12:03:08.011Z</time></trkpt><trkpt lat="45.3277985" lon="10.5284725"><ele>63.33333333333333</ele><time>2026-05-02T12:03:09.01Z</time></trkpt><trkpt lat="45.3277071" lon="10.5282328"><ele>63.0</ele><time>2026-05-02T12:03:10.01Z</time></trkpt><trkpt lat="45.3276173" lon="10.5279945"><ele>63.33333333333333</ele><time>2026-05-02T12:03:11.01Z</time></trkpt><trkpt lat="45.3275287" lon="10.5277595"><ele>63.666666666666664</ele><time>2026-05-02T12:03:12.01Z</time></trkpt><trkpt lat="45.3274414" lon="10.5275292"><ele>64.0</ele><time>2026-05-02T12:03:13.011Z</time></trkpt><trkpt lat="45.3273552" lon="10.5273038"><ele>64.0</ele><time>2026-05-02T12:03:14.01Z</time></trkpt><trkpt lat="45.3272688" lon="10.5270811"><ele>64.0</ele><time>2026-05-02T12:03:15.011Z</time></trkpt><trkpt lat="45.3271852" lon="10.5268635"><ele>64.0</ele><time>2026-05-02T12:03:16.01Z</time></trkpt><trkpt lat="45.3271037" lon="10.5266547"><ele>63.0</ele><time>2026-05-02T12:03:17.011Z</time></trkpt><trkpt lat="45.3270238" lon="10.5264466"><ele>62.0</ele><time>2026-05-02T12:03:18.01Z</time></trkpt><trkpt lat="45.3269416" lon="10.5262335"><ele>61.0</ele><time>2026-05-02T12:03:19.01Z</time></trkpt><trkpt lat="45.3268604" lon="10.5260196"><ele>60.666666666666664</ele><time>2026-05-02T12:03:20.011Z</time></trkpt><trkpt lat="45.3267803" lon="10.5258065"><ele>60.33333333333333</ele><time>2026-05-02T12:03:21.01Z</time></trkpt><trkpt lat="45.3267023" lon="10.5255963"><ele>60.0</ele><time>2026-05-02T12:03:22.01Z</time></trkpt><trkpt lat="45.3266315" lon="10.5253821"><ele>59.66666666666667</ele><time>2026-05-02T12:03:23.01Z</time></trkpt><trkpt lat="45.3265847" lon="10.5251571"><ele>59.333333333333336</ele><time>2026-05-02T12:03:24.011Z</time></trkpt><trkpt lat="45.3265618" lon="10.5249269"><ele>59.0</ele><time>2026-05-02T12:03:25.01Z</time></trkpt><trkpt lat="45.3265557" lon="10.5247058"><ele>59.333333333333336</ele><time>2026-05-02T12:03:26.01Z</time></trkpt><trkpt lat="45.3265584" lon="10.5244848"><ele>59.66666666666667</ele><time>2026-05-02T12:03:27.01Z</time></trkpt><trkpt lat="45.3265617" lon="10.5242593"><ele>60.0</ele><time>2026-05-02T12:03:28.01Z</time></trkpt><trkpt lat="45.3265659" lon="10.5240341"><ele>60.0</ele><time>2026-05-02T12:03:29.01Z</time></trkpt><trkpt lat="45.3265673" lon="10.5238159"><ele>60.0</ele><time>2026-05-02T12:03:30.01Z</time></trkpt><trkpt lat="45.3265677" lon="10.5236102"><ele>60.0</ele><time>2026-05-02T12:03:31.01Z</time></trkpt><trkpt lat="45.3265665" lon="10.5234062"><ele>60.0</ele><time>2026-05-02T12:03:32.01Z</time></trkpt><trkpt lat="45.3265635" lon="10.5231999"><ele>60.25</ele><time>2026-05-02T12:03:33.011Z</time></trkpt><trkpt lat="45.326562" lon="10.522994"><ele>60.5</ele><time>2026-05-02T12:03:34.01Z</time></trkpt><trkpt lat="45.3265644" lon="10.5227881"><ele>60.75</ele><time>2026-05-02T12:03:35.011Z</time></trkpt><trkpt lat="45.3265697" lon="10.5225937"><ele>61.0</ele><time>2026-05-02T12:03:36.011Z</time></trkpt><trkpt lat="45.3265707" lon="10.5224088"><ele>61.5</ele><time>2026-05-02T12:03:37.01Z</time></trkpt><trkpt lat="45.3265705" lon="10.5222295"><ele>62.0</ele><time>2026-05-02T12:03:38.01Z</time></trkpt><trkpt lat="45.3265706" lon="10.522048"><ele>62.5</ele><time>2026-05-02T12:03:39.01Z</time></trkpt><trkpt lat="45.3265682" lon="10.5218621"><ele>63.0</ele><time>2026-05-02T12:03:40.01Z</time></trkpt><trkpt lat="45.3265666" lon="10.5216723"><ele>63.0</ele><time>2026-05-02T12:03:41.01Z</time></trkpt><trkpt lat="45.3265665" lon="10.5214912"><ele>63.0</ele><time>2026-05-02T12:03:42.011Z</time></trkpt><trkpt lat="45.326567" lon="10.5213177"><ele>63.0</ele><time>2026-05-02T12:03:43.01Z</time></trkpt><trkpt lat="45.3265663" lon="10.5211456"><ele>63.0</ele><time>2026-05-02T12:03:44.01Z</time></trkpt><trkpt lat="45.3265677" lon="10.5209649"><ele>63.0</ele><time>2026-05-02T12:03:45.011Z</time></trkpt><trkpt lat="45.3265701" lon="10.5207768"><ele>63.0</ele><time>2026-05-02T12:03:46.01Z</time></trkpt><trkpt lat="45.3265699" lon="10.5205872"><ele>63.0</ele><time>2026-05-02T12:03:47.01Z</time></trkpt><trkpt lat="45.3265707" lon="10.5204044"><ele>63.0</ele><time>2026-05-02T12:03:48.01Z</time></trkpt><trkpt lat="45.3265746" lon="10.5202317"><ele>63.0</ele><time>2026-05-02T12:03:49.01Z</time></trkpt><trkpt lat="45.3265753" lon="10.5200611"><ele>63.0</ele><time>2026-05-02T12:03:50.011Z</time></trkpt><trkpt lat="45.3265739" lon="10.5198963"><ele>63.0</ele><time>2026-05-02T12:03:51.01Z</time></trkpt><trkpt lat="45.3265667" lon="10.5197424"><ele>63.0</ele><time>2026-05-02T12:03:52.01Z</time></trkpt><trkpt lat="45.3265443" lon="10.5195981"><ele>63.0</ele><time>2026-05-02T12:03:53.011Z</time></trkpt><trkpt lat="45.3264978" lon="10.5194605"><ele>62.5</ele><time>2026-05-02T12:03:54.011Z</time></trkpt><trkpt lat="45.3264312" lon="10.5193314"><ele>62.0</ele><time>2026-05-02T12:03:55.01Z</time></trkpt><trkpt lat="45.3263505" lon="10.5192148"><ele>61.5</ele><time>2026-05-02T12:03:56.01Z</time></trkpt><trkpt lat="45.3262635" lon="10.519097"><ele>61.0</ele><time>2026-05-02T12:03:57.011Z</time></trkpt><trkpt lat="45.3261723" lon="10.5189708"><ele>61.0</ele><time>2026-05-02T12:03:58.011Z</time></trkpt><trkpt lat="45.3260742" lon="10.5188378"><ele>61.0</ele><time>2026-05-02T12:03:59.01Z</time></trkpt><trkpt lat="45.325977" lon="10.5187059"><ele>61.0</ele><time>2026-05-02T12:04:00.011Z</time></trkpt><trkpt lat="45.3258765" lon="10.5185664"><ele>61.0</ele><time>2026-05-02T12:04:01.011Z</time></trkpt><trkpt lat="45.3257788" lon="10.5184315"><ele>60.75</ele><time>2026-05-02T12:04:02.01Z</time></trkpt><trkpt lat="45.3256843" lon="10.5182912"><ele>60.5</ele><time>2026-05-02T12:04:03.011Z</time></trkpt><trkpt lat="45.3255873" lon="10.5181556"><ele>60.25</ele><time>2026-05-02T12:04:04.01Z</time></trkpt><trkpt lat="45.3254909" lon="10.5180199"><ele>60.0</ele><time>2026-05-02T12:04:05.01Z</time></trkpt><trkpt lat="45.3253938" lon="10.5178832"><ele>60.0</ele><time>2026-05-02T12:04:06.01Z</time></trkpt><trkpt lat="45.3252982" lon="10.5177465"><ele>60.0</ele><time>2026-05-02T12:04:07.01Z</time></trkpt><trkpt lat="45.3252043" lon="10.5176116"><ele>60.0</ele><time>2026-05-02T12:04:08.01Z</time></trkpt><trkpt lat="45.325111" lon="10.5174812"><ele>60.0</ele><time>2026-05-02T12:04:09.01Z</time></trkpt><trkpt lat="45.3250191" lon="10.5173566"><ele>60.0</ele><time>2026-05-02T12:04:10.011Z</time></trkpt><trkpt lat="45.3249298" lon="10.5172365"><ele>60.0</ele><time>2026-05-02T12:04:11.011Z</time></trkpt><trkpt lat="45.3248466" lon="10.5171248"><ele>60.0</ele><time>2026-05-02T12:04:12.011Z</time></trkpt><trkpt lat="45.3247747" lon="10.5170116"><ele>60.0</ele><time>2026-05-02T12:04:13.01Z</time></trkpt><trkpt lat="45.3247167" lon="10.5168865"><ele>60.0</ele><time>2026-05-02T12:04:14.011Z</time></trkpt><trkpt lat="45.3246627" lon="10.5167534"><ele>60.0</ele><time>2026-05-02T12:04:15.011Z</time></trkpt><trkpt lat="45.3246121" lon="10.5166217"><ele>60.0</ele><time>2026-05-02T12:04:16.011Z</time></trkpt><trkpt lat="45.3245603" lon="10.5164832"><ele>60.0</ele><time>2026-05-02T12:04:17.011Z</time></trkpt><trkpt lat="45.3245069" lon="10.5163398"><ele>60.0</ele><time>2026-05-02T12:04:18.01Z</time></trkpt><trkpt lat="45.3244553" lon="10.5161885"><ele>59.75</ele><time>2026-05-02T12:04:19.011Z</time></trkpt><trkpt lat="45.3244054" lon="10.5160331"><ele>59.5</ele><time>2026-05-02T12:04:20.012Z</time></trkpt><trkpt lat="45.324355" lon="10.5158828"><ele>59.25</ele><time>2026-05-02T12:04:21.011Z</time></trkpt><trkpt lat="45.324302" lon="10.5157362"><ele>59.0</ele><time>2026-05-02T12:04:22.01Z</time></trkpt><trkpt lat="45.3242496" lon="10.5155915"><ele>59.00000000000001</ele><time>2026-05-02T12:04:23.01Z</time></trkpt><trkpt lat="45.3241978" lon="10.5154501"><ele>59.0</ele><time>2026-05-02T12:04:24.011Z</time></trkpt><trkpt lat="45.3241563" lon="10.5153255"><ele>59.0</ele><time>2026-05-02T12:04:25.011Z</time></trkpt><trkpt lat="45.3241214" lon="10.5152185"><ele>59.0</ele><time>2026-05-02T12:04:26.01Z</time></trkpt><trkpt lat="45.324097" lon="10.5151168"><ele>59.00000000000001</ele><time>2026-05-02T12:04:27.011Z</time></trkpt><trkpt lat="45.3240891" lon="10.5150082"><ele>59.0</ele><time>2026-05-02T12:04:28.011Z</time></trkpt><trkpt lat="45.3240933" lon="10.5148983"><ele>59.00000000000001</ele><time>2026-05-02T12:04:29.011Z</time></trkpt><trkpt lat="45.3240749" lon="10.5147947"><ele>59.0</ele><time>2026-05-02T12:04:30.01Z</time></trkpt><trkpt lat="45.3240305" lon="10.5147075"><ele>59.0</ele><time>2026-05-02T12:04:31.01Z</time></trkpt><trkpt lat="45.3239694" lon="10.5146243"><ele>59.0</ele><time>2026-05-02T12:04:32.01Z</time></trkpt><trkpt lat="45.3239094" lon="10.5145287"><ele>59.00000000000001</ele><time>2026-05-02T12:04:33.01Z</time></trkpt><trkpt lat="45.3238584" lon="10.5144066"><ele>59.0</ele><time>2026-05-02T12:04:34.011Z</time></trkpt><trkpt lat="45.3238199" lon="10.5142585"><ele>59.0</ele><time>2026-05-02T12:04:35.01Z</time></trkpt><trkpt lat="45.3237853" lon="10.5140953"><ele>59.0</ele><time>2026-05-02T12:04:36.01Z</time></trkpt><trkpt lat="45.3237535" lon="10.5139352"><ele>59.0</ele><time>2026-05-02T12:04:37.011Z</time></trkpt><trkpt lat="45.3237183" lon="10.5137616"><ele>59.0</ele><time>2026-05-02T12:04:38.01Z</time></trkpt><trkpt lat="45.323681" lon="10.5135808"><ele>59.0</ele><time>2026-05-02T12:04:39.011Z</time></trkpt><trkpt lat="45.3236381" lon="10.5133935"><ele>59.0</ele><time>2026-05-02T12:04:40.01Z</time></trkpt><trkpt lat="45.3235963" lon="10.5131982"><ele>59.0</ele><time>2026-05-02T12:04:41.011Z</time></trkpt><trkpt lat="45.3235546" lon="10.5129963"><ele>59.0</ele><time>2026-05-02T12:04:42.01Z</time></trkpt><trkpt lat="45.3235108" lon="10.5127943"><ele>59.0</ele><time>2026-05-02T12:04:43.011Z</time></trkpt><trkpt lat="45.323467" lon="10.5125938"><ele>59.0</ele><time>2026-05-02T12:04:44.01Z</time></trkpt><trkpt lat="45.3234241" lon="10.5123949"><ele>59.0</ele><time>2026-05-02T12:04:45.01Z</time></trkpt><trkpt lat="45.323382" lon="10.5121998"><ele>59.0</ele><time>2026-05-02T12:04:46.011Z</time></trkpt><trkpt lat="45.3233407" lon="10.5120082"><ele>59.0</ele><time>2026-05-02T12:04:47.01Z</time></trkpt><trkpt lat="45.3232994" lon="10.5118226"><ele>59.0</ele><time>2026-05-02T12:04:48.011Z</time></trkpt><trkpt lat="45.3232606" lon="10.5116356"><ele>59.0</ele><time>2026-05-02T12:04:49.01Z</time></trkpt><trkpt lat="45.3232209" lon="10.5114478"><ele>59.0</ele><time>2026-05-02T12:04:50.011Z</time></trkpt><trkpt lat="45.3231771" lon="10.51126"><ele>59.0</ele><time>2026-05-02T12:04:51.012Z</time></trkpt><trkpt lat="45.3231365" lon="10.511069"><ele>59.0</ele><time>2026-05-02T12:04:52.01Z</time></trkpt><trkpt lat="45.323097" lon="10.5108721"><ele>59.0</ele><time>2026-05-02T12:04:53.01Z</time></trkpt><trkpt lat="45.3230536" lon="10.5106749"><ele>59.0</ele><time>2026-05-02T12:04:54.011Z</time></trkpt><trkpt lat="45.3230132" lon="10.5104733"><ele>58.5</ele><time>2026-05-02T12:04:55.01Z</time></trkpt><trkpt lat="45.322973" lon="10.5102845"><ele>58.0</ele><time>2026-05-02T12:04:56.011Z</time></trkpt><trkpt lat="45.3229323" lon="10.5101017"><ele>57.5</ele><time>2026-05-02T12:04:57.01Z</time></trkpt><trkpt lat="45.3228919" lon="10.5099185"><ele>57.0</ele><time>2026-05-02T12:04:58.011Z</time></trkpt><trkpt lat="45.3228522" lon="10.5097366"><ele>56.75</ele><time>2026-05-02T12:04:59.01Z</time></trkpt><trkpt lat="45.3228118" lon="10.5095524"><ele>56.5</ele><time>2026-05-02T12:05:00.011Z</time></trkpt><trkpt lat="45.3227741" lon="10.5093669"><ele>56.25</ele><time>2026-05-02T12:05:01.011Z</time></trkpt><trkpt lat="45.3227347" lon="10.5091852"><ele>56.0</ele><time>2026-05-02T12:05:02.01Z</time></trkpt><trkpt lat="45.3226963" lon="10.5090095"><ele>56.0</ele><time>2026-05-02T12:05:03.011Z</time></trkpt><trkpt lat="45.3226602" lon="10.5088455"><ele>55.99999999999999</ele><time>2026-05-02T12:05:04.011Z</time></trkpt><trkpt lat="45.3226292" lon="10.5086895"><ele>55.99999999999999</ele><time>2026-05-02T12:05:05.01Z</time></trkpt><trkpt lat="45.3225984" lon="10.5085384"><ele>56.0</ele><time>2026-05-02T12:05:06.01Z</time></trkpt><trkpt lat="45.3225693" lon="10.5083986"><ele>56.0</ele><time>2026-05-02T12:05:07.01Z</time></trkpt><trkpt lat="45.3225468" lon="10.5082829"><ele>56.16666666666667</ele><time>2026-05-02T12:05:08.01Z</time></trkpt><trkpt lat="45.3225403" lon="10.5081906"><ele>56.333333333333336</ele><time>2026-05-02T12:05:09.01Z</time></trkpt><trkpt lat="45.3225576" lon="10.5080266"><ele>56.5</ele><time>2026-05-02T12:05:11.011Z</time></trkpt><trkpt lat="45.3225604" lon="10.5079351"><ele>56.66666666666667</ele><time>2026-05-02T12:05:12.011Z</time></trkpt><trkpt lat="45.3225412" lon="10.5078358"><ele>56.833333333333336</ele><time>2026-05-02T12:05:13.011Z</time></trkpt><trkpt lat="45.322495" lon="10.5077376"><ele>57.0</ele><time>2026-05-02T12:05:14.012Z</time></trkpt><trkpt lat="45.3224283" lon="10.5076406"><ele>57.25</ele><time>2026-05-02T12:05:15.01Z</time></trkpt><trkpt lat="45.3223783" lon="10.5075038"><ele>57.5</ele><time>2026-05-02T12:05:16.011Z</time></trkpt><trkpt lat="45.3223413" lon="10.5073439"><ele>57.75</ele><time>2026-05-02T12:05:17.011Z</time></trkpt><trkpt lat="45.3223031" lon="10.5071745"><ele>58.0</ele><time>2026-05-02T12:05:18.01Z</time></trkpt><trkpt lat="45.3222627" lon="10.5070113"><ele>58.0</ele><time>2026-05-02T12:05:19.011Z</time></trkpt><trkpt lat="45.3222181" lon="10.5068374"><ele>58.0</ele><time>2026-05-02T12:05:20.01Z</time></trkpt><trkpt lat="45.3221667" lon="10.5066611"><ele>58.0</ele><time>2026-05-02T12:05:21.01Z</time></trkpt><trkpt lat="45.3221164" lon="10.5064815"><ele>58.0</ele><time>2026-05-02T12:05:22.011Z</time></trkpt><trkpt lat="45.3220659" lon="10.5063164"><ele>57.599999999999994</ele><time>2026-05-02T12:05:23.012Z</time></trkpt><trkpt lat="45.3220142" lon="10.5061652"><ele>57.199999999999996</ele><time>2026-05-02T12:05:24.01Z</time></trkpt><trkpt lat="45.3219634" lon="10.5060252"><ele>56.8</ele><time>2026-05-02T12:05:25.01Z</time></trkpt><trkpt lat="45.3219163" lon="10.5059064"><ele>56.4</ele><time>2026-05-02T12:05:26.01Z</time></trkpt><trkpt lat="45.321871" lon="10.5057875"><ele>56.0</ele><time>2026-05-02T12:05:27.011Z</time></trkpt><trkpt lat="45.3218196" lon="10.5056618"><ele>56.0</ele><time>2026-05-02T12:05:28.01Z</time></trkpt><trkpt lat="45.3217583" lon="10.5055335"><ele>56.0</ele><time>2026-05-02T12:05:29.012Z</time></trkpt><trkpt lat="45.321689" lon="10.5054014"><ele>56.0</ele><time>2026-05-02T12:05:30.01Z</time></trkpt><trkpt lat="45.3216111" lon="10.5052698"><ele>56.0</ele><time>2026-05-02T12:05:31.01Z</time></trkpt><trkpt lat="45.3215201" lon="10.5051386"><ele>56.0</ele><time>2026-05-02T12:05:32.012Z</time></trkpt><trkpt lat="45.3214227" lon="10.5050043"><ele>56.0</ele><time>2026-05-02T12:05:33.011Z</time></trkpt><trkpt lat="45.3213219" lon="10.5048591"><ele>56.0</ele><time>2026-05-02T12:05:34.01Z</time></trkpt><trkpt lat="45.3212142" lon="10.5047069"><ele>56.0</ele><time>2026-05-02T12:05:35.011Z</time></trkpt><trkpt lat="45.3211046" lon="10.5045492"><ele>55.66666666666667</ele><time>2026-05-02T12:05:36.011Z</time></trkpt><trkpt lat="45.3209933" lon="10.504395"><ele>55.33333333333333</ele><time>2026-05-02T12:05:37.01Z</time></trkpt><trkpt lat="45.3208826" lon="10.5042325"><ele>55.0</ele><time>2026-05-02T12:05:38.01Z</time></trkpt><trkpt lat="45.320768" lon="10.5040719"><ele>55.0</ele><time>2026-05-02T12:05:39.011Z</time></trkpt><trkpt lat="45.3206538" lon="10.5039106"><ele>55.0</ele><time>2026-05-02T12:05:40.01Z</time></trkpt><trkpt lat="45.3205361" lon="10.5037463"><ele>55.0</ele><time>2026-05-02T12:05:41.01Z</time></trkpt><trkpt lat="45.320419" lon="10.5035793"><ele>54.0</ele><time>2026-05-02T12:05:42.01Z</time></trkpt><trkpt lat="45.3202999" lon="10.5034142"><ele>53.0</ele><time>2026-05-02T12:05:43.01Z</time></trkpt><trkpt lat="45.3201799" lon="10.5032442"><ele>52.0</ele><time>2026-05-02T12:05:44.011Z</time></trkpt><trkpt lat="45.3200588" lon="10.5030745"><ele>52.0</ele><time>2026-05-02T12:05:45.011Z</time></trkpt><trkpt lat="45.3199363" lon="10.5029053"><ele>52.0</ele><time>2026-05-02T12:05:46.01Z</time></trkpt><trkpt lat="45.3198191" lon="10.5027371"><ele>52.0</ele><time>2026-05-02T12:05:47.011Z</time></trkpt><trkpt lat="45.319701" lon="10.5025673"><ele>52.666666666666664</ele><time>2026-05-02T12:05:48.01Z</time></trkpt><trkpt lat="45.3195808" lon="10.5023985"><ele>53.33333333333333</ele><time>2026-05-02T12:05:49.01Z</time></trkpt><trkpt lat="45.3194599" lon="10.5022268"><ele>54.0</ele><time>2026-05-02T12:05:50.01Z</time></trkpt><trkpt lat="45.3193353" lon="10.5020537"><ele>54.33333333333333</ele><time>2026-05-02T12:05:51.01Z</time></trkpt><trkpt lat="45.3192104" lon="10.5018793"><ele>54.666666666666664</ele><time>2026-05-02T12:05:52.012Z</time></trkpt><trkpt lat="45.3190835" lon="10.5017025"><ele>55.0</ele><time>2026-05-02T12:05:53.011Z</time></trkpt><trkpt lat="45.3189557" lon="10.5015243"><ele>55.33333333333333</ele><time>2026-05-02T12:05:54.011Z</time></trkpt><trkpt lat="45.3188269" lon="10.5013443"><ele>55.66666666666667</ele><time>2026-05-02T12:05:55.011Z</time></trkpt><trkpt lat="45.3186977" lon="10.501166"><ele>56.0</ele><time>2026-05-02T12:05:56.01Z</time></trkpt><trkpt lat="45.3185715" lon="10.5009857"><ele>55.333333333333336</ele><time>2026-05-02T12:05:57.011Z</time></trkpt><trkpt lat="45.3184464" lon="10.5008112"><ele>54.66666666666667</ele><time>2026-05-02T12:05:58.011Z</time></trkpt><trkpt lat="45.3183284" lon="10.5006423"><ele>54.0</ele><time>2026-05-02T12:05:59.012Z</time></trkpt><trkpt lat="45.3182147" lon="10.5004864"><ele>53.66666666666667</ele><time>2026-05-02T12:06:00.011Z</time></trkpt><trkpt lat="45.3181002" lon="10.500328"><ele>53.333333333333336</ele><time>2026-05-02T12:06:01.01Z</time></trkpt><trkpt lat="45.3179871" lon="10.5001643"><ele>53.0</ele><time>2026-05-02T12:06:02.011Z</time></trkpt><trkpt lat="45.3178693" lon="10.500001"><ele>53.0</ele><time>2026-05-02T12:06:03.01Z</time></trkpt><trkpt lat="45.3177502" lon="10.4998362"><ele>53.0</ele><time>2026-05-02T12:06:04.01Z</time></trkpt><trkpt lat="45.3176301" lon="10.4996683"><ele>53.0</ele><time>2026-05-02T12:06:05.011Z</time></trkpt><trkpt lat="45.3175074" lon="10.4994985"><ele>52.66666666666667</ele><time>2026-05-02T12:06:06.011Z</time></trkpt><trkpt lat="45.317383" lon="10.4993259"><ele>52.33333333333333</ele><time>2026-05-02T12:06:07.01Z</time></trkpt><trkpt lat="45.3172561" lon="10.4991523"><ele>52.0</ele><time>2026-05-02T12:06:08.011Z</time></trkpt><trkpt lat="45.3171295" lon="10.4989751"><ele>52.666666666666664</ele><time>2026-05-02T12:06:09.01Z</time></trkpt><trkpt lat="45.3169993" lon="10.4987953"><ele>53.33333333333333</ele><time>2026-05-02T12:06:10.01Z</time></trkpt><trkpt lat="45.3168688" lon="10.4986158"><ele>54.0</ele><time>2026-05-02T12:06:11.01Z</time></trkpt><trkpt lat="45.3167387" lon="10.4984345"><ele>54.0</ele><time>2026-05-02T12:06:12.01Z</time></trkpt><trkpt lat="45.3166059" lon="10.498249"><ele>54.0</ele><time>2026-05-02T12:06:13.011Z</time></trkpt><trkpt lat="45.3164715" lon="10.4980618"><ele>54.0</ele><time>2026-05-02T12:06:14.01Z</time></trkpt><trkpt lat="45.3163387" lon="10.4978716"><ele>55.0</ele><time>2026-05-02T12:06:15.011Z</time></trkpt><trkpt lat="45.3162054" lon="10.4976836"><ele>56.0</ele><time>2026-05-02T12:06:16.01Z</time></trkpt><trkpt lat="45.3160707" lon="10.4974972"><ele>57.0</ele><time>2026-05-02T12:06:17.012Z</time></trkpt><trkpt lat="45.3159369" lon="10.4973104"><ele>57.0</ele><time>2026-05-02T12:06:18.011Z</time></trkpt><trkpt lat="45.3158028" lon="10.4971251"><ele>57.0</ele><time>2026-05-02T12:06:19.01Z</time></trkpt><trkpt lat="45.3156687" lon="10.4969363"><ele>57.0</ele><time>2026-05-02T12:06:20.01Z</time></trkpt><trkpt lat="45.3155351" lon="10.4967472"><ele>56.66666666666667</ele><time>2026-05-02T12:06:21.011Z</time></trkpt><trkpt lat="45.3154001" lon="10.4965629"><ele>56.333333333333336</ele><time>2026-05-02T12:06:22.011Z</time></trkpt><trkpt lat="45.3152692" lon="10.4963879"><ele>56.0</ele><time>2026-05-02T12:06:23.01Z</time></trkpt><trkpt lat="45.3151488" lon="10.496222"><ele>54.66666666666667</ele><time>2026-05-02T12:06:24.011Z</time></trkpt><trkpt lat="45.3150369" lon="10.4960631"><ele>53.33333333333333</ele><time>2026-05-02T12:06:25.01Z</time></trkpt><trkpt lat="45.3149369" lon="10.4959082"><ele>52.0</ele><time>2026-05-02T12:06:26.009Z</time></trkpt><trkpt lat="45.3148519" lon="10.4957404"><ele>52.0</ele><time>2026-05-02T12:06:27.011Z</time></trkpt><trkpt lat="45.3147847" lon="10.4955455"><ele>52.0</ele><time>2026-05-02T12:06:28.01Z</time></trkpt><trkpt lat="45.314743" lon="10.4953309"><ele>52.0</ele><time>2026-05-02T12:06:29.01Z</time></trkpt><trkpt lat="45.3147298" lon="10.4951055"><ele>52.33333333333333</ele><time>2026-05-02T12:06:30.011Z</time></trkpt><trkpt lat="45.3147509" lon="10.494878"><ele>52.66666666666667</ele><time>2026-05-02T12:06:31.01Z</time></trkpt><trkpt lat="45.3148089" lon="10.494655"><ele>53.0</ele><time>2026-05-02T12:06:32.011Z</time></trkpt><trkpt lat="45.3148834" lon="10.4944363"><ele>53.0</ele><time>2026-05-02T12:06:33.011Z</time></trkpt><trkpt lat="45.3149489" lon="10.4942326"><ele>53.0</ele><time>2026-05-02T12:06:34.011Z</time></trkpt><trkpt lat="45.3150051" lon="10.4940537"><ele>53.0</ele><time>2026-05-02T12:06:35.01Z</time></trkpt><trkpt lat="45.3150492" lon="10.4939024"><ele>53.0</ele><time>2026-05-02T12:06:36.011Z</time></trkpt><trkpt lat="45.3150846" lon="10.4937754"><ele>52.8</ele><time>2026-05-02T12:06:37.011Z</time></trkpt><trkpt lat="45.3151224" lon="10.4936549"><ele>52.599999999999994</ele><time>2026-05-02T12:06:38.011Z</time></trkpt><trkpt lat="45.3151753" lon="10.4935288"><ele>52.400000000000006</ele><time>2026-05-02T12:06:39.01Z</time></trkpt><trkpt lat="45.3152433" lon="10.4934073"><ele>52.2</ele><time>2026-05-02T12:06:40.01Z</time></trkpt><trkpt lat="45.3153047" lon="10.4932877"><ele>52.0</ele><time>2026-05-02T12:06:41.01Z</time></trkpt><trkpt lat="45.3153511" lon="10.4931629"><ele>52.0</ele><time>2026-05-02T12:06:42.011Z</time></trkpt><trkpt lat="45.3153829" lon="10.4930241"><ele>52.0</ele><time>2026-05-02T12:06:43.01Z</time></trkpt><trkpt lat="45.31539" lon="10.4928775"><ele>52.0</ele><time>2026-05-02T12:06:44.01Z</time></trkpt><trkpt lat="45.3153621" lon="10.4927391"><ele>52.0</ele><time>2026-05-02T12:06:45.011Z</time></trkpt><trkpt lat="45.3153051" lon="10.4926206"><ele>52.0</ele><time>2026-05-02T12:06:46.01Z</time></trkpt><trkpt lat="45.3152146" lon="10.4925435"><ele>52.2</ele><time>2026-05-02T12:06:47.01Z</time></trkpt><trkpt lat="45.3151232" lon="10.4924903"><ele>52.400000000000006</ele><time>2026-05-02T12:06:48.01Z</time></trkpt><trkpt lat="45.3150229" lon="10.4924724"><ele>52.599999999999994</ele><time>2026-05-02T12:06:49.011Z</time></trkpt><trkpt lat="45.3149243" lon="10.4924996"><ele>52.8</ele><time>2026-05-02T12:06:50.011Z</time></trkpt><trkpt lat="45.3148363" lon="10.4925691"><ele>53.0</ele><time>2026-05-02T12:06:51.01Z</time></trkpt><trkpt lat="45.3147683" lon="10.4926836"><ele>53.0</ele><time>2026-05-02T12:06:52.01Z</time></trkpt><trkpt lat="45.3147174" lon="10.4928251"><ele>53.0</ele><time>2026-05-02T12:06:53.01Z</time></trkpt><trkpt lat="45.3146773" lon="10.4929806"><ele>53.0</ele><time>2026-05-02T12:06:54.01Z</time></trkpt><trkpt lat="45.3146242" lon="10.4931279"><ele>53.0</ele><time>2026-05-02T12:06:55.01Z</time></trkpt><trkpt lat="45.3145299" lon="10.4932367"><ele>53.0</ele><time>2026-05-02T12:06:56.011Z</time></trkpt><trkpt lat="45.314417" lon="10.4933368"><ele>53.0</ele><time>2026-05-02T12:06:57.011Z</time></trkpt><trkpt lat="45.314289" lon="10.4934114"><ele>53.0</ele><time>2026-05-02T12:06:58.01Z</time></trkpt><trkpt lat="45.3141152" lon="10.4934491"><ele>53.0</ele><time>2026-05-02T12:06:59.01Z</time></trkpt><trkpt lat="45.3139451" lon="10.4934732"><ele>52.66666666666667</ele><time>2026-05-02T12:07:00.01Z</time></trkpt><trkpt lat="45.3137736" lon="10.4934752"><ele>52.33333333333333</ele><time>2026-05-02T12:07:01.012Z</time></trkpt><trkpt lat="45.3135969" lon="10.493446"><ele>52.0</ele><time>2026-05-02T12:07:02.01Z</time></trkpt><trkpt lat="45.3134263" lon="10.4933912"><ele>52.0</ele><time>2026-05-02T12:07:03.01Z</time></trkpt><trkpt lat="45.3132545" lon="10.493325"><ele>52.0</ele><time>2026-05-02T12:07:04.01Z</time></trkpt><trkpt lat="45.3130843" lon="10.4932562"><ele>52.0</ele><time>2026-05-02T12:07:05.01Z</time></trkpt><trkpt lat="45.3129134" lon="10.4931831"><ele>52.0</ele><time>2026-05-02T12:07:06.01Z</time></trkpt><trkpt lat="45.3127407" lon="10.4931158"><ele>52.0</ele><time>2026-05-02T12:07:07.011Z</time></trkpt><trkpt lat="45.3125657" lon="10.4930492"><ele>52.0</ele><time>2026-05-02T12:07:08.011Z</time></trkpt><trkpt lat="45.3123876" lon="10.4929847"><ele>52.0</ele><time>2026-05-02T12:07:09.011Z</time></trkpt><trkpt lat="45.3122067" lon="10.4929218"><ele>52.0</ele><time>2026-05-02T12:07:10.011Z</time></trkpt><trkpt lat="45.3120215" lon="10.4928744"><ele>52.0</ele><time>2026-05-02T12:07:11.01Z</time></trkpt><trkpt lat="45.3118309" lon="10.4928296"><ele>52.0</ele><time>2026-05-02T12:07:12.01Z</time></trkpt><trkpt lat="45.3116352" lon="10.4927929"><ele>52.0</ele><time>2026-05-02T12:07:13.01Z</time></trkpt><trkpt lat="45.3114351" lon="10.4927683"><ele>52.0</ele><time>2026-05-02T12:07:14.01Z</time></trkpt><trkpt lat="45.3112318" lon="10.4927498"><ele>52.0</ele><time>2026-05-02T12:07:15.01Z</time></trkpt><trkpt lat="45.3110255" lon="10.4927371"><ele>52.0</ele><time>2026-05-02T12:07:16.01Z</time></trkpt><trkpt lat="45.3108164" lon="10.4927316"><ele>52.0</ele><time>2026-05-02T12:07:17.01Z</time></trkpt><trkpt lat="45.3106061" lon="10.4927381"><ele>52.0</ele><time>2026-05-02T12:07:18.01Z</time></trkpt><trkpt lat="45.3103921" lon="10.4927562"><ele>52.0</ele><time>2026-05-02T12:07:19.011Z</time></trkpt><trkpt lat="45.3101737" lon="10.4927832"><ele>52.0</ele><time>2026-05-02T12:07:20.01Z</time></trkpt><trkpt lat="45.3099518" lon="10.4928172"><ele>52.5</ele><time>2026-05-02T12:07:21.012Z</time></trkpt><trkpt lat="45.3097305" lon="10.4928583"><ele>53.0</ele><time>2026-05-02T12:07:22.01Z</time></trkpt><trkpt lat="45.3095041" lon="10.4929021"><ele>53.0</ele><time>2026-05-02T12:07:23.01Z</time></trkpt><trkpt lat="45.3092814" lon="10.4929536"><ele>53.0</ele><time>2026-05-02T12:07:24.01Z</time></trkpt><trkpt lat="45.3090589" lon="10.4930024"><ele>52.333333333333336</ele><time>2026-05-02T12:07:25.01Z</time></trkpt><trkpt lat="45.3088366" lon="10.4930425"><ele>51.66666666666667</ele><time>2026-05-02T12:07:26.01Z</time></trkpt><trkpt lat="45.308616" lon="10.4930856"><ele>51.0</ele><time>2026-05-02T12:07:27.01Z</time></trkpt><trkpt lat="45.3083951" lon="10.4931294"><ele>51.0</ele><time>2026-05-02T12:07:28.011Z</time></trkpt><trkpt lat="45.3081781" lon="10.4931711"><ele>51.0</ele><time>2026-05-02T12:07:29.01Z</time></trkpt><trkpt lat="45.3079623" lon="10.4932136"><ele>51.0</ele><time>2026-05-02T12:07:30.01Z</time></trkpt><trkpt lat="45.3077434" lon="10.4932575"><ele>51.33333333333333</ele><time>2026-05-02T12:07:31.011Z</time></trkpt><trkpt lat="45.3075232" lon="10.493303"><ele>51.666666666666664</ele><time>2026-05-02T12:07:32.011Z</time></trkpt><trkpt lat="45.3073022" lon="10.4933522"><ele>52.0</ele><time>2026-05-02T12:07:33.01Z</time></trkpt><trkpt lat="45.3070777" lon="10.4933972"><ele>51.0</ele><time>2026-05-02T12:07:34.01Z</time></trkpt><trkpt lat="45.3068523" lon="10.4934433"><ele>50.0</ele><time>2026-05-02T12:07:35.01Z</time></trkpt><trkpt lat="45.3066254" lon="10.4934883"><ele>51.0</ele><time>2026-05-02T12:07:36.011Z</time></trkpt><trkpt lat="45.3063964" lon="10.4935357"><ele>52.0</ele><time>2026-05-02T12:07:37.01Z</time></trkpt><trkpt lat="45.3061618" lon="10.4935701"><ele>52.0</ele><time>2026-05-02T12:07:38.01Z</time></trkpt><trkpt lat="45.3059218" lon="10.4935893"><ele>52.0</ele><time>2026-05-02T12:07:39.01Z</time></trkpt><trkpt lat="45.3056772" lon="10.4935989"><ele>51.0</ele><time>2026-05-02T12:07:40.011Z</time></trkpt><trkpt lat="45.3054323" lon="10.4935986"><ele>50.0</ele><time>2026-05-02T12:07:41.01Z</time></trkpt><trkpt lat="45.3051825" lon="10.4935879"><ele>50.0</ele><time>2026-05-02T12:07:42.01Z</time></trkpt><trkpt lat="45.3049298" lon="10.4935629"><ele>50.0</ele><time>2026-05-02T12:07:43.011Z</time></trkpt><trkpt lat="45.3046819" lon="10.4935257"><ele>50.5</ele><time>2026-05-02T12:07:44.01Z</time></trkpt><trkpt lat="45.3044367" lon="10.4934718"><ele>51.0</ele><time>2026-05-02T12:07:45.01Z</time></trkpt><trkpt lat="45.3041937" lon="10.4934023"><ele>51.0</ele><time>2026-05-02T12:07:46.011Z</time></trkpt><trkpt lat="45.3039531" lon="10.4933239"><ele>51.0</ele><time>2026-05-02T12:07:47.011Z</time></trkpt><trkpt lat="45.3037161" lon="10.4932401"><ele>51.0</ele><time>2026-05-02T12:07:48.01Z</time></trkpt><trkpt lat="45.3034809" lon="10.4931525"><ele>51.0</ele><time>2026-05-02T12:07:49.01Z</time></trkpt><trkpt lat="45.3032462" lon="10.4930633"><ele>50.5</ele><time>2026-05-02T12:07:50.01Z</time></trkpt><trkpt lat="45.3030139" lon="10.4929723"><ele>50.0</ele><time>2026-05-02T12:07:51.011Z</time></trkpt><trkpt lat="45.3027851" lon="10.492883"><ele>50.0</ele><time>2026-05-02T12:07:52.01Z</time></trkpt><trkpt lat="45.302558" lon="10.492793"><ele>50.0</ele><time>2026-05-02T12:07:53.01Z</time></trkpt><trkpt lat="45.302331" lon="10.4927041"><ele>49.5</ele><time>2026-05-02T12:07:54.01Z</time></trkpt><trkpt lat="45.3021049" lon="10.4926136"><ele>49.0</ele><time>2026-05-02T12:07:55.01Z</time></trkpt><trkpt lat="45.3018777" lon="10.4925285"><ele>49.0</ele><time>2026-05-02T12:07:56.01Z</time></trkpt><trkpt lat="45.3016505" lon="10.4924396"><ele>49.0</ele><time>2026-05-02T12:07:57.01Z</time></trkpt><trkpt lat="45.301423" lon="10.4923511"><ele>49.5</ele><time>2026-05-02T12:07:58.011Z</time></trkpt><trkpt lat="45.3011954" lon="10.4922686"><ele>50.0</ele><time>2026-05-02T12:07:59.01Z</time></trkpt><trkpt lat="45.3009665" lon="10.4921847"><ele>50.0</ele><time>2026-05-02T12:08:00.01Z</time></trkpt><trkpt lat="45.3007391" lon="10.4921027"><ele>50.0</ele><time>2026-05-02T12:08:01.011Z</time></trkpt><trkpt lat="45.3005118" lon="10.4920191"><ele>50.5</ele><time>2026-05-02T12:08:02.01Z</time></trkpt><trkpt lat="45.3002851" lon="10.4919365"><ele>51.0</ele><time>2026-05-02T12:08:03.011Z</time></trkpt><trkpt lat="45.3000599" lon="10.4918504"><ele>51.0</ele><time>2026-05-02T12:08:04.01Z</time></trkpt><trkpt lat="45.299834" lon="10.4917658"><ele>51.0</ele><time>2026-05-02T12:08:05.01Z</time></trkpt><trkpt lat="45.2996083" lon="10.4916819"><ele>50.0</ele><time>2026-05-02T12:08:06.01Z</time></trkpt><trkpt lat="45.2993854" lon="10.4916001"><ele>49.0</ele><time>2026-05-02T12:08:07.011Z</time></trkpt><trkpt lat="45.2991612" lon="10.4915101"><ele>49.0</ele><time>2026-05-02T12:08:08.011Z</time></trkpt><trkpt lat="45.2989379" lon="10.491421"><ele>49.0</ele><time>2026-05-02T12:08:09.011Z</time></trkpt><trkpt lat="45.2987142" lon="10.4913385"><ele>50.0</ele><time>2026-05-02T12:08:10.01Z</time></trkpt><trkpt lat="45.2984891" lon="10.491253"><ele>51.0</ele><time>2026-05-02T12:08:11.01Z</time></trkpt><trkpt lat="45.298267" lon="10.4911642"><ele>51.0</ele><time>2026-05-02T12:08:12.01Z</time></trkpt><trkpt lat="45.2980457" lon="10.4910741"><ele>51.0</ele><time>2026-05-02T12:08:13.01Z</time></trkpt><trkpt lat="45.2978223" lon="10.4909914"><ele>51.0</ele><time>2026-05-02T12:08:14.011Z</time></trkpt><trkpt lat="45.2976026" lon="10.490916"><ele>51.0</ele><time>2026-05-02T12:08:15.01Z</time></trkpt><trkpt lat="45.2973832" lon="10.4908451"><ele>50.5</ele><time>2026-05-02T12:08:16.011Z</time></trkpt><trkpt lat="45.2971609" lon="10.4907849"><ele>50.0</ele><time>2026-05-02T12:08:17.01Z</time></trkpt><trkpt lat="45.2969366" lon="10.4907327"><ele>50.0</ele><time>2026-05-02T12:08:18.01Z</time></trkpt><trkpt lat="45.2967105" lon="10.4906941"><ele>50.0</ele><time>2026-05-02T12:08:19.011Z</time></trkpt><trkpt lat="45.2964835" lon="10.4906694"><ele>50.333333333333336</ele><time>2026-05-02T12:08:20.01Z</time></trkpt><trkpt lat="45.2962582" lon="10.4906545"><ele>50.66666666666667</ele><time>2026-05-02T12:08:21.011Z</time></trkpt><trkpt lat="45.2960362" lon="10.4906415"><ele>51.0</ele><time>2026-05-02T12:08:22.011Z</time></trkpt><trkpt lat="45.2958271" lon="10.4906215"><ele>51.0</ele><time>2026-05-02T12:08:23.01Z</time></trkpt><trkpt lat="45.2956303" lon="10.4905929"><ele>51.0</ele><time>2026-05-02T12:08:24.012Z</time></trkpt><trkpt lat="45.2954502" lon="10.490559"><ele>51.0</ele><time>2026-05-02T12:08:25.011Z</time></trkpt><trkpt lat="45.2952847" lon="10.4905188"><ele>51.0</ele><time>2026-05-02T12:08:26.01Z</time></trkpt><trkpt lat="45.2951273" lon="10.4904779"><ele>51.0</ele><time>2026-05-02T12:08:27.01Z</time></trkpt><trkpt lat="45.2949929" lon="10.4904423"><ele>51.0</ele><time>2026-05-02T12:08:28.01Z</time></trkpt><trkpt lat="45.2948764" lon="10.490394"><ele>51.0</ele><time>2026-05-02T12:08:29.01Z</time></trkpt><trkpt lat="45.2947776" lon="10.4903209"><ele>50.599999999999994</ele><time>2026-05-02T12:08:30.011Z</time></trkpt><trkpt lat="45.2946937" lon="10.4902252"><ele>50.2</ele><time>2026-05-02T12:08:31.011Z</time></trkpt><trkpt lat="45.2946313" lon="10.4900975"><ele>49.8</ele><time>2026-05-02T12:08:32.011Z</time></trkpt><trkpt lat="45.2945853" lon="10.4899541"><ele>49.400000000000006</ele><time>2026-05-02T12:08:33.011Z</time></trkpt><trkpt lat="45.2945294" lon="10.489823"><ele>49.0</ele><time>2026-05-02T12:08:34.011Z</time></trkpt><trkpt lat="45.2944476" lon="10.4897195"><ele>49.0</ele><time>2026-05-02T12:08:35.01Z</time></trkpt><trkpt lat="45.2943507" lon="10.4896541"><ele>49.0</ele><time>2026-05-02T12:08:36.011Z</time></trkpt><trkpt lat="45.2942394" lon="10.4896244"><ele>49.0</ele><time>2026-05-02T12:08:37.011Z</time></trkpt><trkpt lat="45.2941162" lon="10.4896364"><ele>49.0</ele><time>2026-05-02T12:08:38.011Z</time></trkpt><trkpt lat="45.2939918" lon="10.4896891"><ele>49.0</ele><time>2026-05-02T12:08:39.01Z</time></trkpt><trkpt lat="45.2938608" lon="10.4897228"><ele>49.0</ele><time>2026-05-02T12:08:40.011Z</time></trkpt><trkpt lat="45.2937265" lon="10.4897044"><ele>49.0</ele><time>2026-05-02T12:08:41.01Z</time></trkpt><trkpt lat="45.2935896" lon="10.4896491"><ele>49.0</ele><time>2026-05-02T12:08:42.011Z</time></trkpt><trkpt lat="45.2934501" lon="10.4895532"><ele>49.0</ele><time>2026-05-02T12:08:43.01Z</time></trkpt><trkpt lat="45.293305" lon="10.4894388"><ele>49.0</ele><time>2026-05-02T12:08:44.011Z</time></trkpt><trkpt lat="45.2931592" lon="10.4893055"><ele>49.0</ele><time>2026-05-02T12:08:45.011Z</time></trkpt><trkpt lat="45.2930134" lon="10.4891524"><ele>49.0</ele><time>2026-05-02T12:08:46.01Z</time></trkpt><trkpt lat="45.2928654" lon="10.4889903"><ele>49.0</ele><time>2026-05-02T12:08:47.01Z</time></trkpt><trkpt lat="45.2927193" lon="10.4888269"><ele>49.0</ele><time>2026-05-02T12:08:48.011Z</time></trkpt><trkpt lat="45.2925738" lon="10.4886605"><ele>49.0</ele><time>2026-05-02T12:08:49.011Z</time></trkpt><trkpt lat="45.2924261" lon="10.4884904"><ele>49.0</ele><time>2026-05-02T12:08:50.01Z</time></trkpt><trkpt lat="45.2922773" lon="10.488317"><ele>49.0</ele><time>2026-05-02T12:08:51.011Z</time></trkpt><trkpt lat="45.292125" lon="10.4881463"><ele>49.0</ele><time>2026-05-02T12:08:52.012Z</time></trkpt><trkpt lat="45.2919718" lon="10.4879716"><ele>49.0</ele><time>2026-05-02T12:08:53.012Z</time></trkpt><trkpt lat="45.2918199" lon="10.4877947"><ele>49.0</ele><time>2026-05-02T12:08:54.011Z</time></trkpt><trkpt lat="45.291666" lon="10.4876158"><ele>49.33333333333333</ele><time>2026-05-02T12:08:55.011Z</time></trkpt><trkpt lat="45.2915097" lon="10.4874409"><ele>49.66666666666667</ele><time>2026-05-02T12:08:56.01Z</time></trkpt><trkpt lat="45.2913549" lon="10.4872669"><ele>50.0</ele><time>2026-05-02T12:08:57.011Z</time></trkpt><trkpt lat="45.2912009" lon="10.4870958"><ele>48.66666666666667</ele><time>2026-05-02T12:08:58.011Z</time></trkpt><trkpt lat="45.2910458" lon="10.4869293"><ele>47.333333333333336</ele><time>2026-05-02T12:08:59.01Z</time></trkpt><trkpt lat="45.2908875" lon="10.4867677"><ele>46.0</ele><time>2026-05-02T12:09:00.012Z</time></trkpt><trkpt lat="45.2907242" lon="10.4866089"><ele>46.66666666666667</ele><time>2026-05-02T12:09:01.01Z</time></trkpt><trkpt lat="45.2905589" lon="10.4864567"><ele>47.333333333333336</ele><time>2026-05-02T12:09:02.011Z</time></trkpt><trkpt lat="45.2903898" lon="10.4863114"><ele>48.0</ele><time>2026-05-02T12:09:03.01Z</time></trkpt><trkpt lat="45.2902197" lon="10.4861736"><ele>48.0</ele><time>2026-05-02T12:09:04.011Z</time></trkpt><trkpt lat="45.2900444" lon="10.4860434"><ele>48.0</ele><time>2026-05-02T12:09:05.011Z</time></trkpt><trkpt lat="45.2898656" lon="10.4859233"><ele>48.0</ele><time>2026-05-02T12:09:06.011Z</time></trkpt><trkpt lat="45.289686" lon="10.4858141"><ele>48.0</ele><time>2026-05-02T12:09:07.01Z</time></trkpt><trkpt lat="45.2895058" lon="10.4857153"><ele>48.0</ele><time>2026-05-02T12:09:08.01Z</time></trkpt><trkpt lat="45.2893228" lon="10.4856214"><ele>48.0</ele><time>2026-05-02T12:09:09.01Z</time></trkpt><trkpt lat="45.2891424" lon="10.4855317"><ele>48.0</ele><time>2026-05-02T12:09:10.01Z</time></trkpt><trkpt lat="45.28896" lon="10.4854464"><ele>48.0</ele><time>2026-05-02T12:09:11.011Z</time></trkpt><trkpt lat="45.2887767" lon="10.485366"><ele>48.0</ele><time>2026-05-02T12:09:12.011Z</time></trkpt><trkpt lat="45.2885944" lon="10.4852865"><ele>48.0</ele><time>2026-05-02T12:09:13.011Z</time></trkpt><trkpt lat="45.2884162" lon="10.4852047"><ele>48.0</ele><time>2026-05-02T12:09:14.011Z</time></trkpt><trkpt lat="45.288239" lon="10.4851234"><ele>48.0</ele><time>2026-05-02T12:09:15.01Z</time></trkpt><trkpt lat="45.2880617" lon="10.485046"><ele>47.666666666666664</ele><time>2026-05-02T12:09:16.011Z</time></trkpt><trkpt lat="45.2878861" lon="10.4849701"><ele>47.33333333333333</ele><time>2026-05-02T12:09:17.01Z</time></trkpt><trkpt lat="45.2877114" lon="10.4848903"><ele>47.0</ele><time>2026-05-02T12:09:18.01Z</time></trkpt><trkpt lat="45.2875391" lon="10.4848068"><ele>47.0</ele><time>2026-05-02T12:09:19.01Z</time></trkpt><trkpt lat="45.2873685" lon="10.4847231"><ele>47.0</ele><time>2026-05-02T12:09:20.01Z</time></trkpt><trkpt lat="45.2872018" lon="10.484648"><ele>47.0</ele><time>2026-05-02T12:09:21.01Z</time></trkpt><trkpt lat="45.287035" lon="10.4845722"><ele>47.33333333333333</ele><time>2026-05-02T12:09:22.011Z</time></trkpt><trkpt lat="45.2868554" lon="10.4844967"><ele>47.666666666666664</ele><time>2026-05-02T12:09:23.011Z</time></trkpt><trkpt lat="45.2866653" lon="10.4844139"><ele>48.0</ele><time>2026-05-02T12:09:24.01Z</time></trkpt><trkpt lat="45.2864576" lon="10.484325"><ele>47.5</ele><time>2026-05-02T12:09:25.011Z</time></trkpt><trkpt lat="45.2862301" lon="10.4842186"><ele>47.0</ele><time>2026-05-02T12:09:26.01Z</time></trkpt><trkpt lat="45.2859849" lon="10.4841043"><ele>47.0</ele><time>2026-05-02T12:09:27.01Z</time></trkpt><trkpt lat="45.2857235" lon="10.4839793"><ele>47.0</ele><time>2026-05-02T12:09:28.01Z</time></trkpt><trkpt lat="45.2854433" lon="10.4838528"><ele>47.5</ele><time>2026-05-02T12:09:29.01Z</time></trkpt><trkpt lat="45.2851534" lon="10.4837228"><ele>48.0</ele><time>2026-05-02T12:09:30.01Z</time></trkpt><trkpt lat="45.2848514" lon="10.4835879"><ele>47.5</ele><time>2026-05-02T12:09:31.01Z</time></trkpt><trkpt lat="45.2845362" lon="10.4834447"><ele>47.0</ele><time>2026-05-02T12:09:32.01Z</time></trkpt><trkpt lat="45.2842109" lon="10.4832955"><ele>47.5</ele><time>2026-05-02T12:09:33.01Z</time></trkpt><trkpt lat="45.2838813" lon="10.483143"><ele>48.0</ele><time>2026-05-02T12:09:34.01Z</time></trkpt><trkpt lat="45.2835434" lon="10.482989"><ele>47.5</ele><time>2026-05-02T12:09:35.01Z</time></trkpt><trkpt lat="45.2831982" lon="10.4828306"><ele>47.0</ele><time>2026-05-02T12:09:36.01Z</time></trkpt><trkpt lat="45.2828507" lon="10.4826714"><ele>47.0</ele><time>2026-05-02T12:09:37.011Z</time></trkpt><trkpt lat="45.2825229" lon="10.4825236"><ele>47.0</ele><time>2026-05-02T12:09:38.01Z</time></trkpt><trkpt lat="45.2822097" lon="10.4823802"><ele>47.0</ele><time>2026-05-02T12:09:39.01Z</time></trkpt><trkpt lat="45.2819118" lon="10.4822464"><ele>47.0</ele><time>2026-05-02T12:09:40.011Z</time></trkpt><trkpt lat="45.2816243" lon="10.4821178"><ele>47.0</ele><time>2026-05-02T12:09:41.011Z</time></trkpt><trkpt lat="45.2813423" lon="10.4819916"><ele>47.0</ele><time>2026-05-02T12:09:42.01Z</time></trkpt><trkpt lat="45.2810639" lon="10.4818626"><ele>47.0</ele><time>2026-05-02T12:09:43.01Z</time></trkpt><trkpt lat="45.2807813" lon="10.4817305"><ele>47.0</ele><time>2026-05-02T12:09:44.011Z</time></trkpt><trkpt lat="45.2805008" lon="10.4815808"><ele>47.0</ele><time>2026-05-02T12:09:45.011Z</time></trkpt><trkpt lat="45.2802181" lon="10.481413"><ele>47.0</ele><time>2026-05-02T12:09:46.01Z</time></trkpt><trkpt lat="45.2799315" lon="10.4812275"><ele>47.0</ele><time>2026-05-02T12:09:47.011Z</time></trkpt><trkpt lat="45.2796477" lon="10.4810197"><ele>47.0</ele><time>2026-05-02T12:09:48.01Z</time></trkpt><trkpt lat="45.2793812" lon="10.4808058"><ele>47.0</ele><time>2026-05-02T12:09:49.01Z</time></trkpt><trkpt lat="45.279129" lon="10.4805986"><ele>47.0</ele><time>2026-05-02T12:09:50.01Z</time></trkpt><trkpt lat="45.2788833" lon="10.4803965"><ele>46.0</ele><time>2026-05-02T12:09:51.011Z</time></trkpt><trkpt lat="45.2786622" lon="10.4802033"><ele>45.0</ele><time>2026-05-02T12:09:52.01Z</time></trkpt><trkpt lat="45.2784457" lon="10.4800251"><ele>45.0</ele><time>2026-05-02T12:09:53.01Z</time></trkpt><trkpt lat="45.2782423" lon="10.4798549"><ele>45.0</ele><time>2026-05-02T12:09:54.011Z</time></trkpt><trkpt lat="45.278047" lon="10.4796919"><ele>45.333333333333336</ele><time>2026-05-02T12:09:55.01Z</time></trkpt><trkpt lat="45.277859" lon="10.4795274"><ele>45.66666666666667</ele><time>2026-05-02T12:09:56.011Z</time></trkpt><trkpt lat="45.277674" lon="10.4793534"><ele>46.0</ele><time>2026-05-02T12:09:57.011Z</time></trkpt><trkpt lat="45.2774962" lon="10.4791675"><ele>46.0</ele><time>2026-05-02T12:09:58.011Z</time></trkpt><trkpt lat="45.277327" lon="10.4789695"><ele>46.0</ele><time>2026-05-02T12:09:59.01Z</time></trkpt><trkpt lat="45.2771736" lon="10.4787713"><ele>46.0</ele><time>2026-05-02T12:10:00.01Z</time></trkpt><trkpt lat="45.2770319" lon="10.478573"><ele>46.0</ele><time>2026-05-02T12:10:01.012Z</time></trkpt><trkpt lat="45.276907" lon="10.4783775"><ele>46.0</ele><time>2026-05-02T12:10:02.011Z</time></trkpt><trkpt lat="45.276792" lon="10.4781837"><ele>46.0</ele><time>2026-05-02T12:10:03.011Z</time></trkpt><trkpt lat="45.2766891" lon="10.4779951"><ele>46.333333333333336</ele><time>2026-05-02T12:10:04.01Z</time></trkpt><trkpt lat="45.2765884" lon="10.4778022"><ele>46.666666666666664</ele><time>2026-05-02T12:10:05.011Z</time></trkpt><trkpt lat="45.2764977" lon="10.4776059"><ele>47.0</ele><time>2026-05-02T12:10:06.011Z</time></trkpt><trkpt lat="45.2764201" lon="10.4774118"><ele>46.5</ele><time>2026-05-02T12:10:07.011Z</time></trkpt><trkpt lat="45.2763471" lon="10.4772237"><ele>46.0</ele><time>2026-05-02T12:10:08.011Z</time></trkpt><trkpt lat="45.2762799" lon="10.4770456"><ele>45.5</ele><time>2026-05-02T12:10:09.01Z</time></trkpt><trkpt lat="45.2762177" lon="10.4768772"><ele>45.0</ele><time>2026-05-02T12:10:10.011Z</time></trkpt><trkpt lat="45.2761692" lon="10.4767161"><ele>45.0</ele><time>2026-05-02T12:10:11.012Z</time></trkpt><trkpt lat="45.2761472" lon="10.4765543"><ele>45.0</ele><time>2026-05-02T12:10:12.011Z</time></trkpt><trkpt lat="45.276152" lon="10.476395"><ele>45.0</ele><time>2026-05-02T12:10:13.011Z</time></trkpt><trkpt lat="45.2761775" lon="10.4762457"><ele>45.0</ele><time>2026-05-02T12:10:14.011Z</time></trkpt><trkpt lat="45.2761982" lon="10.4760955"><ele>45.0</ele><time>2026-05-02T12:10:15.01Z</time></trkpt><trkpt lat="45.2761799" lon="10.4759482"><ele>45.2</ele><time>2026-05-02T12:10:16.01Z</time></trkpt><trkpt lat="45.2761359" lon="10.4758111"><ele>45.4</ele><time>2026-05-02T12:10:17.011Z</time></trkpt><trkpt lat="45.2760634" lon="10.4756947"><ele>45.599999999999994</ele><time>2026-05-02T12:10:18.012Z</time></trkpt><trkpt lat="45.2759707" lon="10.4756154"><ele>45.8</ele><time>2026-05-02T12:10:19.01Z</time></trkpt><trkpt lat="45.2758686" lon="10.4755775"><ele>46.0</ele><time>2026-05-02T12:10:20.011Z</time></trkpt><trkpt lat="45.2757623" lon="10.47559"><ele>46.0</ele><time>2026-05-02T12:10:21.01Z</time></trkpt><trkpt lat="45.2756596" lon="10.4756493"><ele>46.0</ele><time>2026-05-02T12:10:22.011Z</time></trkpt><trkpt lat="45.2755721" lon="10.4757524"><ele>46.0</ele><time>2026-05-02T12:10:23.01Z</time></trkpt><trkpt lat="45.2755014" lon="10.4758926"><ele>46.0</ele><time>2026-05-02T12:10:24.01Z</time></trkpt><trkpt lat="45.2754228" lon="10.4760345"><ele>46.0</ele><time>2026-05-02T12:10:25.01Z</time></trkpt><trkpt lat="45.2753216" lon="10.4761622"><ele>46.0</ele><time>2026-05-02T12:10:26.01Z</time></trkpt><trkpt lat="45.2752051" lon="10.4762759"><ele>46.0</ele><time>2026-05-02T12:10:27.011Z</time></trkpt><trkpt lat="45.2750731" lon="10.4763671"><ele>46.0</ele><time>2026-05-02T12:10:28.01Z</time></trkpt><trkpt lat="45.2749355" lon="10.4764422"><ele>46.333333333333336</ele><time>2026-05-02T12:10:29.01Z</time></trkpt><trkpt lat="45.2747913" lon="10.4765112"><ele>46.666666666666664</ele><time>2026-05-02T12:10:30.01Z</time></trkpt><trkpt lat="45.2746391" lon="10.4765736"><ele>47.0</ele><time>2026-05-02T12:10:31.01Z</time></trkpt><trkpt lat="45.2744827" lon="10.4766257"><ele>47.0</ele><time>2026-05-02T12:10:32.01Z</time></trkpt><trkpt lat="45.2743245" lon="10.4766678"><ele>47.0</ele><time>2026-05-02T12:10:33.01Z</time></trkpt><trkpt lat="45.2741602" lon="10.476698"><ele>47.0</ele><time>2026-05-02T12:10:34.01Z</time></trkpt><trkpt lat="45.2739896" lon="10.4767108"><ele>46.666666666666664</ele><time>2026-05-02T12:10:35.01Z</time></trkpt><trkpt lat="45.2738181" lon="10.4767248"><ele>46.333333333333336</ele><time>2026-05-02T12:10:36.01Z</time></trkpt><trkpt lat="45.2736437" lon="10.4767397"><ele>46.0</ele><time>2026-05-02T12:10:37.01Z</time></trkpt><trkpt lat="45.2734645" lon="10.4767558"><ele>46.0</ele><time>2026-05-02T12:10:38.01Z</time></trkpt><trkpt lat="45.2732848" lon="10.4767689"><ele>46.0</ele><time>2026-05-02T12:10:39.01Z</time></trkpt><trkpt lat="45.2731041" lon="10.4767854"><ele>46.0</ele><time>2026-05-02T12:10:40.01Z</time></trkpt><trkpt lat="45.2729246" lon="10.4768008"><ele>45.66666666666667</ele><time>2026-05-02T12:10:41.01Z</time></trkpt><trkpt lat="45.2727428" lon="10.4768142"><ele>45.333333333333336</ele><time>2026-05-02T12:10:42.01Z</time></trkpt><trkpt lat="45.2725588" lon="10.476828"><ele>45.0</ele><time>2026-05-02T12:10:43.011Z</time></trkpt><trkpt lat="45.2723744" lon="10.4768388"><ele>44.666666666666664</ele><time>2026-05-02T12:10:44.011Z</time></trkpt><trkpt lat="45.2721914" lon="10.4768535"><ele>44.33333333333333</ele><time>2026-05-02T12:10:45.012Z</time></trkpt><trkpt lat="45.2720128" lon="10.4768703"><ele>44.0</ele><time>2026-05-02T12:10:46.01Z</time></trkpt><trkpt lat="45.2718347" lon="10.4768826"><ele>44.0</ele><time>2026-05-02T12:10:47.011Z</time></trkpt><trkpt lat="45.2716629" lon="10.4768937"><ele>44.0</ele><time>2026-05-02T12:10:48.01Z</time></trkpt><trkpt lat="45.2714929" lon="10.476907"><ele>44.0</ele><time>2026-05-02T12:10:49.011Z</time></trkpt><trkpt lat="45.2713268" lon="10.476922"><ele>45.33333333333333</ele><time>2026-05-02T12:10:50.01Z</time></trkpt><trkpt lat="45.2711606" lon="10.4769353"><ele>46.666666666666664</ele><time>2026-05-02T12:10:51.01Z</time></trkpt><trkpt lat="45.2709961" lon="10.4769466"><ele>48.0</ele><time>2026-05-02T12:10:52.011Z</time></trkpt><trkpt lat="45.2708292" lon="10.4769599"><ele>48.0</ele><time>2026-05-02T12:10:53.01Z</time></trkpt><trkpt lat="45.2706579" lon="10.4769764"><ele>48.0</ele><time>2026-05-02T12:10:54.01Z</time></trkpt><trkpt lat="45.2704798" lon="10.4769889"><ele>48.0</ele><time>2026-05-02T12:10:55.01Z</time></trkpt><trkpt lat="45.270294" lon="10.4770015"><ele>47.666666666666664</ele><time>2026-05-02T12:10:56.01Z</time></trkpt><trkpt lat="45.2701029" lon="10.47702"><ele>47.33333333333333</ele><time>2026-05-02T12:10:57.011Z</time></trkpt><trkpt lat="45.2699095" lon="10.4770342"><ele>47.0</ele><time>2026-05-02T12:10:58.01Z</time></trkpt><trkpt lat="45.2697126" lon="10.4770475"><ele>47.0</ele><time>2026-05-02T12:10:59.012Z</time></trkpt><trkpt lat="45.2695142" lon="10.4770597"><ele>47.0</ele><time>2026-05-02T12:11:00.01Z</time></trkpt><trkpt lat="45.2693216" lon="10.4770754"><ele>47.0</ele><time>2026-05-02T12:11:01.01Z</time></trkpt><trkpt lat="45.2691311" lon="10.4770938"><ele>46.33333333333333</ele><time>2026-05-02T12:11:02.01Z</time></trkpt><trkpt lat="45.2689384" lon="10.4771086"><ele>45.666666666666664</ele><time>2026-05-02T12:11:03.01Z</time></trkpt><trkpt lat="45.2687464" lon="10.4771179"><ele>45.0</ele><time>2026-05-02T12:11:04.011Z</time></trkpt><trkpt lat="45.2685574" lon="10.4771248"><ele>45.0</ele><time>2026-05-02T12:11:05.01Z</time></trkpt><trkpt lat="45.2683692" lon="10.4771245"><ele>45.0</ele><time>2026-05-02T12:11:06.01Z</time></trkpt><trkpt lat="45.2681855" lon="10.4771275"><ele>45.0</ele><time>2026-05-02T12:11:07.01Z</time></trkpt><trkpt lat="45.2680012" lon="10.477137"><ele>44.333333333333336</ele><time>2026-05-02T12:11:08.01Z</time></trkpt><trkpt lat="45.2678178" lon="10.4771521"><ele>43.66666666666667</ele><time>2026-05-02T12:11:09.011Z</time></trkpt><trkpt lat="45.2676341" lon="10.4771697"><ele>43.0</ele><time>2026-05-02T12:11:10.012Z</time></trkpt><trkpt lat="45.2674508" lon="10.4771892"><ele>43.0</ele><time>2026-05-02T12:11:11.01Z</time></trkpt><trkpt lat="45.2672636" lon="10.4772097"><ele>43.0</ele><time>2026-05-02T12:11:12.01Z</time></trkpt><trkpt lat="45.2670765" lon="10.477232"><ele>43.0</ele><time>2026-05-02T12:11:13.01Z</time></trkpt><trkpt lat="45.2668868" lon="10.4772557"><ele>43.0</ele><time>2026-05-02T12:11:14.011Z</time></trkpt><trkpt lat="45.2667006" lon="10.4772784"><ele>43.0</ele><time>2026-05-02T12:11:15.011Z</time></trkpt><trkpt lat="45.266512" lon="10.4772981"><ele>43.0</ele><time>2026-05-02T12:11:16.011Z</time></trkpt><trkpt lat="45.2663224" lon="10.4773153"><ele>43.66666666666667</ele><time>2026-05-02T12:11:17.011Z</time></trkpt><trkpt lat="45.2661335" lon="10.4773269"><ele>44.333333333333336</ele><time>2026-05-02T12:11:18.012Z</time></trkpt><trkpt lat="45.2659403" lon="10.477334"><ele>45.0</ele><time>2026-05-02T12:11:19.011Z</time></trkpt><trkpt lat="45.265745" lon="10.4773408"><ele>44.666666666666664</ele><time>2026-05-02T12:11:20.011Z</time></trkpt><trkpt lat="45.2655483" lon="10.4773418"><ele>44.33333333333333</ele><time>2026-05-02T12:11:21.011Z</time></trkpt><trkpt lat="45.2653615" lon="10.4773429"><ele>44.0</ele><time>2026-05-02T12:11:22.01Z</time></trkpt><trkpt lat="45.2651729" lon="10.4773415"><ele>44.0</ele><time>2026-05-02T12:11:23.011Z</time></trkpt><trkpt lat="45.2649843" lon="10.4773357"><ele>44.0</ele><time>2026-05-02T12:11:24.01Z</time></trkpt><trkpt lat="45.2647949" lon="10.4773332"><ele>44.0</ele><time>2026-05-02T12:11:25.01Z</time></trkpt><trkpt lat="45.2646016" lon="10.4773339"><ele>44.0</ele><time>2026-05-02T12:11:26.01Z</time></trkpt><trkpt lat="45.2644033" lon="10.4773325"><ele>44.0</ele><time>2026-05-02T12:11:27.01Z</time></trkpt><trkpt lat="45.2642015" lon="10.4773275"><ele>44.0</ele><time>2026-05-02T12:11:28.011Z</time></trkpt><trkpt lat="45.2639969" lon="10.4773233"><ele>44.33333333333333</ele><time>2026-05-02T12:11:29.01Z</time></trkpt><trkpt lat="45.2637942" lon="10.4773242"><ele>44.666666666666664</ele><time>2026-05-02T12:11:30.01Z</time></trkpt><trkpt lat="45.2636004" lon="10.4773248"><ele>45.0</ele><time>2026-05-02T12:11:31.01Z</time></trkpt><trkpt lat="45.2634146" lon="10.4773221"><ele>45.0</ele><time>2026-05-02T12:11:32.011Z</time></trkpt><trkpt lat="45.263239" lon="10.4773215"><ele>45.0</ele><time>2026-05-02T12:11:33.011Z</time></trkpt><trkpt lat="45.2630732" lon="10.477319"><ele>45.0</ele><time>2026-05-02T12:11:34.01Z</time></trkpt><trkpt lat="45.2629071" lon="10.4773194"><ele>45.333333333333336</ele><time>2026-05-02T12:11:35.011Z</time></trkpt><trkpt lat="45.262738" lon="10.4773141"><ele>45.66666666666667</ele><time>2026-05-02T12:11:36.011Z</time></trkpt><trkpt lat="45.2625636" lon="10.4773121"><ele>46.0</ele><time>2026-05-02T12:11:37.011Z</time></trkpt><trkpt lat="45.2623872" lon="10.4773143"><ele>45.66666666666667</ele><time>2026-05-02T12:11:38.01Z</time></trkpt><trkpt lat="45.2622082" lon="10.4773104"><ele>45.333333333333336</ele><time>2026-05-02T12:11:39.01Z</time></trkpt><trkpt lat="45.2620357" lon="10.4773083"><ele>45.0</ele><time>2026-05-02T12:11:40.011Z</time></trkpt><trkpt lat="45.2618693" lon="10.4773054"><ele>45.0</ele><time>2026-05-02T12:11:41.011Z</time></trkpt><trkpt lat="45.2617086" lon="10.477302"><ele>45.0</ele><time>2026-05-02T12:11:42.01Z</time></trkpt><trkpt lat="45.2615471" lon="10.4772988"><ele>45.0</ele><time>2026-05-02T12:11:43.01Z</time></trkpt><trkpt lat="45.2613867" lon="10.4772944"><ele>44.666666666666664</ele><time>2026-05-02T12:11:44.01Z</time></trkpt><trkpt lat="45.2612245" lon="10.4772848"><ele>44.33333333333333</ele><time>2026-05-02T12:11:45.01Z</time></trkpt><trkpt lat="45.2610616" lon="10.4772521"><ele>44.0</ele><time>2026-05-02T12:11:46.012Z</time></trkpt><trkpt lat="45.2609084" lon="10.4771931"><ele>44.0</ele><time>2026-05-02T12:11:47.01Z</time></trkpt><trkpt lat="45.2607615" lon="10.4771116"><ele>44.0</ele><time>2026-05-02T12:11:48.01Z</time></trkpt><trkpt lat="45.2606165" lon="10.477015"><ele>44.0</ele><time>2026-05-02T12:11:49.01Z</time></trkpt><trkpt lat="45.2604701" lon="10.4769199"><ele>43.75</ele><time>2026-05-02T12:11:50.01Z</time></trkpt><trkpt lat="45.2603302" lon="10.4768284"><ele>43.5</ele><time>2026-05-02T12:11:51.012Z</time></trkpt><trkpt lat="45.260199" lon="10.4767458"><ele>43.25</ele><time>2026-05-02T12:11:52.01Z</time></trkpt><trkpt lat="45.2600734" lon="10.476671"><ele>43.0</ele><time>2026-05-02T12:11:53.011Z</time></trkpt><trkpt lat="45.2599521" lon="10.4765956"><ele>43.0</ele><time>2026-05-02T12:11:54.01Z</time></trkpt><trkpt lat="45.2598335" lon="10.4765224"><ele>43.0</ele><time>2026-05-02T12:11:55.01Z</time></trkpt><trkpt lat="45.2597219" lon="10.4764501"><ele>43.0</ele><time>2026-05-02T12:11:56.01Z</time></trkpt><trkpt lat="45.2596135" lon="10.4763769"><ele>43.0</ele><time>2026-05-02T12:11:57.01Z</time></trkpt><trkpt lat="45.2595052" lon="10.4763031"><ele>43.25</ele><time>2026-05-02T12:11:58.011Z</time></trkpt><trkpt lat="45.2593983" lon="10.4762316"><ele>43.5</ele><time>2026-05-02T12:11:59.012Z</time></trkpt><trkpt lat="45.2592943" lon="10.4761676"><ele>43.75</ele><time>2026-05-02T12:12:00.01Z</time></trkpt><trkpt lat="45.2591943" lon="10.4761018"><ele>44.0</ele><time>2026-05-02T12:12:01.01Z</time></trkpt><trkpt lat="45.2590931" lon="10.4760321"><ele>44.0</ele><time>2026-05-02T12:12:02.01Z</time></trkpt><trkpt lat="45.2589879" lon="10.4759583"><ele>44.0</ele><time>2026-05-02T12:12:03.01Z</time></trkpt><trkpt lat="45.2588777" lon="10.4758876"><ele>44.0</ele><time>2026-05-02T12:12:04.01Z</time></trkpt><trkpt lat="45.2587653" lon="10.4758156"><ele>44.0</ele><time>2026-05-02T12:12:05.01Z</time></trkpt><trkpt lat="45.2586466" lon="10.4757389"><ele>44.0</ele><time>2026-05-02T12:12:06.011Z</time></trkpt><trkpt lat="45.2585253" lon="10.4756605"><ele>44.0</ele><time>2026-05-02T12:12:07.01Z</time></trkpt><trkpt lat="45.2584026" lon="10.4755796"><ele>44.0</ele><time>2026-05-02T12:12:08.01Z</time></trkpt><trkpt lat="45.2582776" lon="10.4754928"><ele>44.0</ele><time>2026-05-02T12:12:09.011Z</time></trkpt><trkpt lat="45.2581486" lon="10.4754077"><ele>44.0</ele><time>2026-05-02T12:12:10.011Z</time></trkpt><trkpt lat="45.2580177" lon="10.475323"><ele>44.0</ele><time>2026-05-02T12:12:11.01Z</time></trkpt><trkpt lat="45.2578863" lon="10.4752403"><ele>44.0</ele><time>2026-05-02T12:12:12.011Z</time></trkpt><trkpt lat="45.2577536" lon="10.4751541"><ele>44.0</ele><time>2026-05-02T12:12:13.01Z</time></trkpt><trkpt lat="45.2576221" lon="10.475069"><ele>44.0</ele><time>2026-05-02T12:12:14.01Z</time></trkpt><trkpt lat="45.2574903" lon="10.4749851"><ele>44.0</ele><time>2026-05-02T12:12:15.01Z</time></trkpt><trkpt lat="45.2573592" lon="10.4749018"><ele>44.0</ele><time>2026-05-02T12:12:16.012Z</time></trkpt><trkpt lat="45.2572271" lon="10.4748148"><ele>44.0</ele><time>2026-05-02T12:12:17.01Z</time></trkpt><trkpt lat="45.2570953" lon="10.4747294"><ele>44.0</ele><time>2026-05-02T12:12:18.01Z</time></trkpt><trkpt lat="45.2569686" lon="10.4746451"><ele>44.0</ele><time>2026-05-02T12:12:19.01Z</time></trkpt><trkpt lat="45.256843" lon="10.4745632"><ele>44.0</ele><time>2026-05-02T12:12:20.01Z</time></trkpt><trkpt lat="45.2567192" lon="10.4744805"><ele>44.0</ele><time>2026-05-02T12:12:21.01Z</time></trkpt><trkpt lat="45.2565992" lon="10.4744051"><ele>44.0</ele><time>2026-05-02T12:12:22.01Z</time></trkpt><trkpt lat="45.256481" lon="10.4743295"><ele>44.0</ele><time>2026-05-02T12:12:23.01Z</time></trkpt><trkpt lat="45.2563687" lon="10.4742539"><ele>44.0</ele><time>2026-05-02T12:12:24.011Z</time></trkpt><trkpt lat="45.2562657" lon="10.4741824"><ele>44.0</ele><time>2026-05-02T12:12:25.011Z</time></trkpt><trkpt lat="45.2561658" lon="10.4741173"><ele>44.0</ele><time>2026-05-02T12:12:26.012Z</time></trkpt><trkpt lat="45.2560733" lon="10.4740547"><ele>44.0</ele><time>2026-05-02T12:12:27.01Z</time></trkpt><trkpt lat="45.2559852" lon="10.4739997"><ele>44.0</ele><time>2026-05-02T12:12:28.01Z</time></trkpt><trkpt lat="45.255896" lon="10.4739465"><ele>44.0</ele><time>2026-05-02T12:12:29.01Z</time></trkpt><trkpt lat="45.2558069" lon="10.4738947"><ele>44.0</ele><time>2026-05-02T12:12:30.01Z</time></trkpt><trkpt lat="45.2557165" lon="10.4738437"><ele>44.0</ele><time>2026-05-02T12:12:31.01Z</time></trkpt><trkpt lat="45.2556262" lon="10.4737966"><ele>44.0</ele><time>2026-05-02T12:12:32.011Z</time></trkpt><trkpt lat="45.255539" lon="10.4737498"><ele>44.0</ele><time>2026-05-02T12:12:33.011Z</time></trkpt><trkpt lat="45.2554521" lon="10.4737048"><ele>44.0</ele><time>2026-05-02T12:12:34.011Z</time></trkpt><trkpt lat="45.2553648" lon="10.4736612"><ele>44.0</ele><time>2026-05-02T12:12:35.01Z</time></trkpt><trkpt lat="45.2552794" lon="10.4736216"><ele>44.166666666666664</ele><time>2026-05-02T12:12:36.01Z</time></trkpt><trkpt lat="45.2551982" lon="10.473585"><ele>44.33333333333333</ele><time>2026-05-02T12:12:37.01Z</time></trkpt><trkpt lat="45.2551162" lon="10.4735533"><ele>44.5</ele><time>2026-05-02T12:12:38.011Z</time></trkpt><trkpt lat="45.2550382" lon="10.473524"><ele>44.666666666666664</ele><time>2026-05-02T12:12:39.011Z</time></trkpt><trkpt lat="45.2549746" lon="10.4734943"><ele>44.833333333333336</ele><time>2026-05-02T12:12:40.01Z</time></trkpt><trkpt lat="45.2548855" lon="10.4734449"><ele>45.0</ele><time>2026-05-02T12:12:42.011Z</time></trkpt><trkpt lat="45.2547679" lon="10.473401"><ele>45.0</ele><time>2026-05-02T12:12:44.01Z</time></trkpt><trkpt lat="45.2546986" lon="10.473375"><ele>45.0</ele><time>2026-05-02T12:12:45.01Z</time></trkpt><trkpt lat="45.2546291" lon="10.4733429"><ele>45.0</ele><time>2026-05-02T12:12:46.01Z</time></trkpt><trkpt lat="45.2545555" lon="10.4733075"><ele>45.0</ele><time>2026-05-02T12:12:47.011Z</time></trkpt><trkpt lat="45.254487" lon="10.4732598"><ele>45.0</ele><time>2026-05-02T12:12:48.011Z</time></trkpt><trkpt lat="45.2544334" lon="10.4732005"><ele>45.0</ele><time>2026-05-02T12:12:49.01Z</time></trkpt><trkpt lat="45.2543729" lon="10.4730961"><ele>45.0</ele><time>2026-05-02T12:12:51.01Z</time></trkpt><trkpt lat="45.2543581" lon="10.4729524"><ele>45.0</ele><time>2026-05-02T12:12:53.01Z</time></trkpt><trkpt lat="45.2543763" lon="10.472856"><ele>45.0</ele><time>2026-05-02T12:12:54.01Z</time></trkpt><trkpt lat="45.2544005" lon="10.4727389"><ele>45.0</ele><time>2026-05-02T12:12:55.01Z</time></trkpt><trkpt lat="45.2544275" lon="10.4725988"><ele>45.0</ele><time>2026-05-02T12:12:56.01Z</time></trkpt><trkpt lat="45.2544601" lon="10.4724469"><ele>45.0</ele><time>2026-05-02T12:12:57.01Z</time></trkpt><trkpt lat="45.2544949" lon="10.4722842"><ele>45.0</ele><time>2026-05-02T12:12:58.011Z</time></trkpt><trkpt lat="45.254534" lon="10.4721233"><ele>45.0</ele><time>2026-05-02T12:12:59.011Z</time></trkpt><trkpt lat="45.2545723" lon="10.4719576"><ele>45.0</ele><time>2026-05-02T12:13:00.011Z</time></trkpt><trkpt lat="45.2546092" lon="10.4717847"><ele>45.0</ele><time>2026-05-02T12:13:01.01Z</time></trkpt><trkpt lat="45.2546467" lon="10.4716074"><ele>45.0</ele><time>2026-05-02T12:13:02.011Z</time></trkpt><trkpt lat="45.254688" lon="10.4714338"><ele>45.0</ele><time>2026-05-02T12:13:03.01Z</time></trkpt><trkpt lat="45.2547293" lon="10.4712556"><ele>45.0</ele><time>2026-05-02T12:13:04.011Z</time></trkpt><trkpt lat="45.2547634" lon="10.4710731"><ele>44.75</ele><time>2026-05-02T12:13:05.01Z</time></trkpt><trkpt lat="45.2547877" lon="10.4708826"><ele>44.5</ele><time>2026-05-02T12:13:06.011Z</time></trkpt><trkpt lat="45.2547984" lon="10.4706872"><ele>44.25</ele><time>2026-05-02T12:13:07.01Z</time></trkpt><trkpt lat="45.254801" lon="10.4704852"><ele>44.0</ele><time>2026-05-02T12:13:08.01Z</time></trkpt><trkpt lat="45.2547902" lon="10.4702813"><ele>44.0</ele><time>2026-05-02T12:13:09.01Z</time></trkpt><trkpt lat="45.2547721" lon="10.4700763"><ele>44.0</ele><time>2026-05-02T12:13:10.011Z</time></trkpt><trkpt lat="45.2547431" lon="10.4698766"><ele>44.0</ele><time>2026-05-02T12:13:11.01Z</time></trkpt><trkpt lat="45.2546992" lon="10.4696851"><ele>44.0</ele><time>2026-05-02T12:13:12.01Z</time></trkpt><trkpt lat="45.2546473" lon="10.4694967"><ele>44.0</ele><time>2026-05-02T12:13:13.01Z</time></trkpt><trkpt lat="45.2545964" lon="10.4693079"><ele>44.0</ele><time>2026-05-02T12:13:14.011Z</time></trkpt><trkpt lat="45.2545441" lon="10.4691163"><ele>44.0</ele><time>2026-05-02T12:13:15.011Z</time></trkpt><trkpt lat="45.2544949" lon="10.4689246"><ele>44.0</ele><time>2026-05-02T12:13:16.01Z</time></trkpt><trkpt lat="45.2544404" lon="10.4687321"><ele>44.25</ele><time>2026-05-02T12:13:17.01Z</time></trkpt><trkpt lat="45.2543809" lon="10.4685421"><ele>44.5</ele><time>2026-05-02T12:13:18.011Z</time></trkpt><trkpt lat="45.2543193" lon="10.4683561"><ele>44.75</ele><time>2026-05-02T12:13:19.01Z</time></trkpt><trkpt lat="45.254255" lon="10.4681734"><ele>45.0</ele><time>2026-05-02T12:13:20.01Z</time></trkpt><trkpt lat="45.2541811" lon="10.468004"><ele>45.0</ele><time>2026-05-02T12:13:21.01Z</time></trkpt><trkpt lat="45.2541049" lon="10.4678484"><ele>45.0</ele><time>2026-05-02T12:13:22.01Z</time></trkpt><trkpt lat="45.2540182" lon="10.4676957"><ele>45.0</ele><time>2026-05-02T12:13:23.011Z</time></trkpt><trkpt lat="45.2539287" lon="10.4675471"><ele>45.0</ele><time>2026-05-02T12:13:24.01Z</time></trkpt><trkpt lat="45.2538411" lon="10.4673994"><ele>45.0</ele><time>2026-05-02T12:13:25.01Z</time></trkpt><trkpt lat="45.2537495" lon="10.46725"><ele>45.0</ele><time>2026-05-02T12:13:26.01Z</time></trkpt><trkpt lat="45.2536604" lon="10.4671002"><ele>45.0</ele><time>2026-05-02T12:13:27.011Z</time></trkpt><trkpt lat="45.2535683" lon="10.4669463"><ele>45.0</ele><time>2026-05-02T12:13:28.01Z</time></trkpt><trkpt lat="45.253475" lon="10.4667889"><ele>45.0</ele><time>2026-05-02T12:13:29.01Z</time></trkpt><trkpt lat="45.2533786" lon="10.4666323"><ele>45.0</ele><time>2026-05-02T12:13:30.01Z</time></trkpt><trkpt lat="45.2532857" lon="10.4664793"><ele>45.0</ele><time>2026-05-02T12:13:31.01Z</time></trkpt><trkpt lat="45.2531868" lon="10.4663183"><ele>45.0</ele><time>2026-05-02T12:13:32.011Z</time></trkpt><trkpt lat="45.2530862" lon="10.4661497"><ele>44.666666666666664</ele><time>2026-05-02T12:13:33.011Z</time></trkpt><trkpt lat="45.2529783" lon="10.4659733"><ele>44.33333333333333</ele><time>2026-05-02T12:13:34.01Z</time></trkpt><trkpt lat="45.2528697" lon="10.4657966"><ele>44.0</ele><time>2026-05-02T12:13:35.011Z</time></trkpt><trkpt lat="45.2527592" lon="10.4656129"><ele>43.33333333333333</ele><time>2026-05-02T12:13:36.01Z</time></trkpt><trkpt lat="45.2526441" lon="10.4654281"><ele>42.666666666666664</ele><time>2026-05-02T12:13:37.011Z</time></trkpt><trkpt lat="45.2525293" lon="10.4652481"><ele>42.0</ele><time>2026-05-02T12:13:38.01Z</time></trkpt><trkpt lat="45.2524174" lon="10.465066"><ele>42.0</ele><time>2026-05-02T12:13:39.01Z</time></trkpt><trkpt lat="45.2523143" lon="10.4648913"><ele>42.0</ele><time>2026-05-02T12:13:40.01Z</time></trkpt><trkpt lat="45.2522114" lon="10.4647162"><ele>42.0</ele><time>2026-05-02T12:13:41.011Z</time></trkpt><trkpt lat="45.2521077" lon="10.4645388"><ele>41.666666666666664</ele><time>2026-05-02T12:13:42.01Z</time></trkpt><trkpt lat="45.2519996" lon="10.4643658"><ele>41.33333333333333</ele><time>2026-05-02T12:13:43.011Z</time></trkpt><trkpt lat="45.2518906" lon="10.4641928"><ele>41.0</ele><time>2026-05-02T12:13:44.011Z</time></trkpt><trkpt lat="45.2517816" lon="10.4640149"><ele>41.0</ele><time>2026-05-02T12:13:45.01Z</time></trkpt><trkpt lat="45.2516709" lon="10.4638357"><ele>41.0</ele><time>2026-05-02T12:13:46.01Z</time></trkpt><trkpt lat="45.2515608" lon="10.4636553"><ele>41.0</ele><time>2026-05-02T12:13:47.012Z</time></trkpt><trkpt lat="45.2514509" lon="10.463478"><ele>40.666666666666664</ele><time>2026-05-02T12:13:48.01Z</time></trkpt><trkpt lat="45.2513434" lon="10.4632974"><ele>40.333333333333336</ele><time>2026-05-02T12:13:49.012Z</time></trkpt><trkpt lat="45.2512328" lon="10.463113"><ele>40.0</ele><time>2026-05-02T12:13:50.011Z</time></trkpt><trkpt lat="45.2511218" lon="10.462928"><ele>41.0</ele><time>2026-05-02T12:13:51.01Z</time></trkpt><trkpt lat="45.2510081" lon="10.462741"><ele>42.0</ele><time>2026-05-02T12:13:52.01Z</time></trkpt><trkpt lat="45.2508937" lon="10.4625572"><ele>43.0</ele><time>2026-05-02T12:13:53.01Z</time></trkpt><trkpt lat="45.2507784" lon="10.4623727"><ele>43.0</ele><time>2026-05-02T12:13:54.011Z</time></trkpt><trkpt lat="45.2506639" lon="10.462185"><ele>43.0</ele><time>2026-05-02T12:13:55.01Z</time></trkpt><trkpt lat="45.2505531" lon="10.4619965"><ele>43.0</ele><time>2026-05-02T12:13:56.01Z</time></trkpt><trkpt lat="45.2504382" lon="10.4618078"><ele>43.0</ele><time>2026-05-02T12:13:57.01Z</time></trkpt><trkpt lat="45.250322" lon="10.4616202"><ele>43.0</ele><time>2026-05-02T12:13:58.01Z</time></trkpt><trkpt lat="45.2502047" lon="10.4614348"><ele>43.0</ele><time>2026-05-02T12:13:59.01Z</time></trkpt><trkpt lat="45.250088" lon="10.4612494"><ele>42.66666666666667</ele><time>2026-05-02T12:14:00.01Z</time></trkpt><trkpt lat="45.2499685" lon="10.4610582"><ele>42.333333333333336</ele><time>2026-05-02T12:14:01.011Z</time></trkpt><trkpt lat="45.2498486" lon="10.4608642"><ele>42.0</ele><time>2026-05-02T12:14:02.012Z</time></trkpt><trkpt lat="45.2497278" lon="10.4606669"><ele>42.0</ele><time>2026-05-02T12:14:03.011Z</time></trkpt><trkpt lat="45.2496083" lon="10.460472"><ele>42.0</ele><time>2026-05-02T12:14:04.011Z</time></trkpt><trkpt lat="45.2494899" lon="10.4602803"><ele>42.0</ele><time>2026-05-02T12:14:05.01Z</time></trkpt><trkpt lat="45.2493695" lon="10.4600952"><ele>41.666666666666664</ele><time>2026-05-02T12:14:06.011Z</time></trkpt><trkpt lat="45.249246" lon="10.4599114"><ele>41.33333333333333</ele><time>2026-05-02T12:14:07.011Z</time></trkpt><trkpt lat="45.2491212" lon="10.4597318"><ele>41.0</ele><time>2026-05-02T12:14:08.01Z</time></trkpt><trkpt lat="45.2489965" lon="10.4595564"><ele>41.0</ele><time>2026-05-02T12:14:09.01Z</time></trkpt><trkpt lat="45.248871" lon="10.4593822"><ele>41.0</ele><time>2026-05-02T12:14:10.011Z</time></trkpt><trkpt lat="45.2487464" lon="10.4592101"><ele>41.0</ele><time>2026-05-02T12:14:11.01Z</time></trkpt><trkpt lat="45.2486284" lon="10.4590415"><ele>41.0</ele><time>2026-05-02T12:14:12.011Z</time></trkpt><trkpt lat="45.2485148" lon="10.4588797"><ele>41.0</ele><time>2026-05-02T12:14:13.01Z</time></trkpt><trkpt lat="45.2484025" lon="10.4587221"><ele>41.0</ele><time>2026-05-02T12:14:14.011Z</time></trkpt><trkpt lat="45.2482878" lon="10.4585621"><ele>41.33333333333333</ele><time>2026-05-02T12:14:15.011Z</time></trkpt><trkpt lat="45.2481755" lon="10.4584"><ele>41.666666666666664</ele><time>2026-05-02T12:14:16.011Z</time></trkpt><trkpt lat="45.2480705" lon="10.4582456"><ele>42.0</ele><time>2026-05-02T12:14:17.01Z</time></trkpt><trkpt lat="45.2479707" lon="10.4581022"><ele>42.25</ele><time>2026-05-02T12:14:18.01Z</time></trkpt><trkpt lat="45.2478709" lon="10.45796"><ele>42.5</ele><time>2026-05-02T12:14:19.01Z</time></trkpt><trkpt lat="45.2477668" lon="10.4578145"><ele>42.75</ele><time>2026-05-02T12:14:20.011Z</time></trkpt><trkpt lat="45.2476584" lon="10.4576654"><ele>43.0</ele><time>2026-05-02T12:14:21.011Z</time></trkpt><trkpt lat="45.2475484" lon="10.4575129"><ele>43.0</ele><time>2026-05-02T12:14:22.01Z</time></trkpt><trkpt lat="45.2474409" lon="10.4573597"><ele>43.0</ele><time>2026-05-02T12:14:23.01Z</time></trkpt><trkpt lat="45.2473348" lon="10.4572092"><ele>43.0</ele><time>2026-05-02T12:14:24.01Z</time></trkpt><trkpt lat="45.2472316" lon="10.457062"><ele>43.0</ele><time>2026-05-02T12:14:25.012Z</time></trkpt><trkpt lat="45.2471284" lon="10.4569165"><ele>43.25</ele><time>2026-05-02T12:14:26.011Z</time></trkpt><trkpt lat="45.2470288" lon="10.4567732"><ele>43.5</ele><time>2026-05-02T12:14:27.01Z</time></trkpt><trkpt lat="45.2469338" lon="10.4566403"><ele>43.75</ele><time>2026-05-02T12:14:28.01Z</time></trkpt><trkpt lat="45.2468431" lon="10.4565094"><ele>44.0</ele><time>2026-05-02T12:14:29.01Z</time></trkpt><trkpt lat="45.2467574" lon="10.456383"><ele>44.0</ele><time>2026-05-02T12:14:30.01Z</time></trkpt><trkpt lat="45.2466698" lon="10.4562619"><ele>44.0</ele><time>2026-05-02T12:14:31.01Z</time></trkpt><trkpt lat="45.246587" lon="10.4561436"><ele>44.0</ele><time>2026-05-02T12:14:32.011Z</time></trkpt><trkpt lat="45.2465032" lon="10.4560233"><ele>44.0</ele><time>2026-05-02T12:14:33.011Z</time></trkpt><trkpt lat="45.2464112" lon="10.4558939"><ele>44.0</ele><time>2026-05-02T12:14:34.01Z</time></trkpt><trkpt lat="45.246314" lon="10.455757"><ele>44.0</ele><time>2026-05-02T12:14:35.011Z</time></trkpt><trkpt lat="45.2462204" lon="10.4556176"><ele>44.0</ele><time>2026-05-02T12:14:36.011Z</time></trkpt><trkpt lat="45.2461231" lon="10.4554789"><ele>44.0</ele><time>2026-05-02T12:14:37.01Z</time></trkpt><trkpt lat="45.2460241" lon="10.4553461"><ele>44.0</ele><time>2026-05-02T12:14:38.011Z</time></trkpt><trkpt lat="45.2459233" lon="10.4552158"><ele>44.0</ele><time>2026-05-02T12:14:39.011Z</time></trkpt><trkpt lat="45.2458181" lon="10.4550777"><ele>44.0</ele><time>2026-05-02T12:14:40.011Z</time></trkpt><trkpt lat="45.2457155" lon="10.4549384"><ele>44.0</ele><time>2026-05-02T12:14:41.01Z</time></trkpt><trkpt lat="45.2456084" lon="10.4547919"><ele>44.0</ele><time>2026-05-02T12:14:42.01Z</time></trkpt><trkpt lat="45.2455012" lon="10.454644"><ele>44.0</ele><time>2026-05-02T12:14:43.011Z</time></trkpt><trkpt lat="45.2453997" lon="10.4544926"><ele>44.0</ele><time>2026-05-02T12:14:44.011Z</time></trkpt><trkpt lat="45.2453067" lon="10.4543259"><ele>44.0</ele><time>2026-05-02T12:14:45.01Z</time></trkpt><trkpt lat="45.2452322" lon="10.4541378"><ele>43.666666666666664</ele><time>2026-05-02T12:14:46.01Z</time></trkpt><trkpt lat="45.2451647" lon="10.4539288"><ele>43.333333333333336</ele><time>2026-05-02T12:14:47.01Z</time></trkpt><trkpt lat="45.2450966" lon="10.4537116"><ele>43.0</ele><time>2026-05-02T12:14:48.01Z</time></trkpt><trkpt lat="45.2450265" lon="10.453479"><ele>43.0</ele><time>2026-05-02T12:14:49.01Z</time></trkpt><trkpt lat="45.2449443" lon="10.4532236"><ele>43.0</ele><time>2026-05-02T12:14:50.01Z</time></trkpt><trkpt lat="45.2448636" lon="10.4529441"><ele>43.0</ele><time>2026-05-02T12:14:51.01Z</time></trkpt><trkpt lat="45.2447909" lon="10.4526515"><ele>42.66666666666667</ele><time>2026-05-02T12:14:52.011Z</time></trkpt><trkpt lat="45.2447212" lon="10.4523605"><ele>42.333333333333336</ele><time>2026-05-02T12:14:53.01Z</time></trkpt><trkpt lat="45.2446583" lon="10.4520651"><ele>42.0</ele><time>2026-05-02T12:14:54.01Z</time></trkpt><trkpt lat="45.2446043" lon="10.4517633"><ele>42.0</ele><time>2026-05-02T12:14:55.01Z</time></trkpt><trkpt lat="45.2445558" lon="10.4514616"><ele>42.0</ele><time>2026-05-02T12:14:56.011Z</time></trkpt><trkpt lat="45.2445053" lon="10.4511703"><ele>42.0</ele><time>2026-05-02T12:14:57.01Z</time></trkpt><trkpt lat="45.2444589" lon="10.4508787"><ele>41.666666666666664</ele><time>2026-05-02T12:14:58.01Z</time></trkpt><trkpt lat="45.2444133" lon="10.4505906"><ele>41.33333333333333</ele><time>2026-05-02T12:14:59.011Z</time></trkpt><trkpt lat="45.2443644" lon="10.4503041"><ele>41.0</ele><time>2026-05-02T12:15:00.01Z</time></trkpt><trkpt lat="45.2443154" lon="10.4500176"><ele>41.0</ele><time>2026-05-02T12:15:01.01Z</time></trkpt><trkpt lat="45.2442675" lon="10.4497303"><ele>41.0</ele><time>2026-05-02T12:15:02.01Z</time></trkpt><trkpt lat="45.2442255" lon="10.4494441"><ele>41.0</ele><time>2026-05-02T12:15:03.01Z</time></trkpt><trkpt lat="45.2441757" lon="10.4491628"><ele>41.0</ele><time>2026-05-02T12:15:04.01Z</time></trkpt><trkpt lat="45.2441063" lon="10.4489029"><ele>41.0</ele><time>2026-05-02T12:15:05.011Z</time></trkpt><trkpt lat="45.2440099" lon="10.4486783"><ele>41.0</ele><time>2026-05-02T12:15:06.01Z</time></trkpt><trkpt lat="45.2438858" lon="10.4484658"><ele>41.0</ele><time>2026-05-02T12:15:07.011Z</time></trkpt><trkpt lat="45.2437516" lon="10.4482396"><ele>41.0</ele><time>2026-05-02T12:15:08.01Z</time></trkpt><trkpt lat="45.2436086" lon="10.4480037"><ele>41.0</ele><time>2026-05-02T12:15:09.011Z</time></trkpt><trkpt lat="45.2434585" lon="10.4477646"><ele>41.0</ele><time>2026-05-02T12:15:10.01Z</time></trkpt><trkpt lat="45.2433075" lon="10.4475201"><ele>41.0</ele><time>2026-05-02T12:15:11.011Z</time></trkpt><trkpt lat="45.2431514" lon="10.4472727"><ele>41.5</ele><time>2026-05-02T12:15:12.011Z</time></trkpt><trkpt lat="45.2429915" lon="10.4470198"><ele>42.0</ele><time>2026-05-02T12:15:13.01Z</time></trkpt><trkpt lat="45.2428336" lon="10.4467707"><ele>42.0</ele><time>2026-05-02T12:15:14.01Z</time></trkpt><trkpt lat="45.2426796" lon="10.4465253"><ele>42.0</ele><time>2026-05-02T12:15:15.01Z</time></trkpt><trkpt lat="45.2425246" lon="10.4462787"><ele>42.0</ele><time>2026-05-02T12:15:16.01Z</time></trkpt><trkpt lat="45.2423706" lon="10.4460346"><ele>42.0</ele><time>2026-05-02T12:15:17.012Z</time></trkpt><trkpt lat="45.2422161" lon="10.44579"><ele>42.0</ele><time>2026-05-02T12:15:18.01Z</time></trkpt><trkpt lat="45.2420602" lon="10.4455427"><ele>42.0</ele><time>2026-05-02T12:15:19.011Z</time></trkpt><trkpt lat="45.2419044" lon="10.4452967"><ele>41.0</ele><time>2026-05-02T12:15:20.01Z</time></trkpt><trkpt lat="45.2417471" lon="10.4450484"><ele>40.0</ele><time>2026-05-02T12:15:21.011Z</time></trkpt><trkpt lat="45.2415867" lon="10.4447976"><ele>39.5</ele><time>2026-05-02T12:15:22.011Z</time></trkpt><trkpt lat="45.2414282" lon="10.4445459"><ele>39.0</ele><time>2026-05-02T12:15:23.011Z</time></trkpt><trkpt lat="45.2412672" lon="10.4442905"><ele>39.0</ele><time>2026-05-02T12:15:24.01Z</time></trkpt><trkpt lat="45.2411055" lon="10.4440378"><ele>39.0</ele><time>2026-05-02T12:15:25.012Z</time></trkpt><trkpt lat="45.2409437" lon="10.4437845"><ele>39.0</ele><time>2026-05-02T12:15:26.011Z</time></trkpt><trkpt lat="45.2407841" lon="10.4435313"><ele>39.0</ele><time>2026-05-02T12:15:27.012Z</time></trkpt><trkpt lat="45.2406245" lon="10.443277"><ele>39.0</ele><time>2026-05-02T12:15:28.01Z</time></trkpt><trkpt lat="45.2404652" lon="10.4430262"><ele>39.0</ele><time>2026-05-02T12:15:29.01Z</time></trkpt><trkpt lat="45.2403032" lon="10.4427746"><ele>39.0</ele><time>2026-05-02T12:15:30.012Z</time></trkpt><trkpt lat="45.2401446" lon="10.4425222"><ele>39.0</ele><time>2026-05-02T12:15:31.012Z</time></trkpt><trkpt lat="45.2399888" lon="10.4422751"><ele>40.5</ele><time>2026-05-02T12:15:32.01Z</time></trkpt><trkpt lat="45.2398295" lon="10.4420304"><ele>42.0</ele><time>2026-05-02T12:15:33.011Z</time></trkpt><trkpt lat="45.2396719" lon="10.4417832"><ele>42.0</ele><time>2026-05-02T12:15:34.01Z</time></trkpt><trkpt lat="45.2395143" lon="10.4415382"><ele>42.0</ele><time>2026-05-02T12:15:35.01Z</time></trkpt><trkpt lat="45.2393604" lon="10.4412925"><ele>42.0</ele><time>2026-05-02T12:15:36.01Z</time></trkpt><trkpt lat="45.2392073" lon="10.4410489"><ele>42.0</ele><time>2026-05-02T12:15:37.01Z</time></trkpt><trkpt lat="45.2390523" lon="10.4408054"><ele>41.666666666666664</ele><time>2026-05-02T12:15:38.009Z</time></trkpt><trkpt lat="45.238902" lon="10.4405643"><ele>41.33333333333333</ele><time>2026-05-02T12:15:39.01Z</time></trkpt><trkpt lat="45.2387573" lon="10.4403317"><ele>41.0</ele><time>2026-05-02T12:15:40.009Z</time></trkpt><trkpt lat="45.2386107" lon="10.4401006"><ele>40.666666666666664</ele><time>2026-05-02T12:15:41.009Z</time></trkpt><trkpt lat="45.2384633" lon="10.4398673"><ele>40.333333333333336</ele><time>2026-05-02T12:15:42.009Z</time></trkpt><trkpt lat="45.2383173" lon="10.4396326"><ele>40.0</ele><time>2026-05-02T12:15:43.01Z</time></trkpt><trkpt lat="45.2381687" lon="10.439399"><ele>40.0</ele><time>2026-05-02T12:15:44.01Z</time></trkpt><trkpt lat="45.238017" lon="10.4391648"><ele>40.0</ele><time>2026-05-02T12:15:45.01Z</time></trkpt><trkpt lat="45.2378657" lon="10.438933"><ele>40.0</ele><time>2026-05-02T12:15:46.01Z</time></trkpt><trkpt lat="45.2377144" lon="10.438697"><ele>40.0</ele><time>2026-05-02T12:15:47.009Z</time></trkpt><trkpt lat="45.2375625" lon="10.4384614"><ele>40.0</ele><time>2026-05-02T12:15:48.01Z</time></trkpt><trkpt lat="45.237411" lon="10.4382247"><ele>40.0</ele><time>2026-05-02T12:15:49.01Z</time></trkpt><trkpt lat="45.2372593" lon="10.4379835"><ele>40.0</ele><time>2026-05-02T12:15:50.009Z</time></trkpt><trkpt lat="45.237108" lon="10.4377475"><ele>40.0</ele><time>2026-05-02T12:15:51.01Z</time></trkpt><trkpt lat="45.2369573" lon="10.437507"><ele>40.0</ele><time>2026-05-02T12:15:52.01Z</time></trkpt><trkpt lat="45.2368083" lon="10.4372655"><ele>40.5</ele><time>2026-05-02T12:15:53.009Z</time></trkpt><trkpt lat="45.2366595" lon="10.4370241"><ele>41.0</ele><time>2026-05-02T12:15:54.01Z</time></trkpt><trkpt lat="45.2365087" lon="10.4367887"><ele>41.0</ele><time>2026-05-02T12:15:55.009Z</time></trkpt><trkpt lat="45.2363572" lon="10.4365516"><ele>41.0</ele><time>2026-05-02T12:15:56.009Z</time></trkpt><trkpt lat="45.2362046" lon="10.4363149"><ele>40.666666666666664</ele><time>2026-05-02T12:15:57.01Z</time></trkpt><trkpt lat="45.236055" lon="10.4360828"><ele>40.333333333333336</ele><time>2026-05-02T12:15:58.01Z</time></trkpt><trkpt lat="45.2359076" lon="10.4358529"><ele>40.0</ele><time>2026-05-02T12:15:59.01Z</time></trkpt><trkpt lat="45.2357527" lon="10.4356337"><ele>39.66666666666667</ele><time>2026-05-02T12:16:00.01Z</time></trkpt><trkpt lat="45.2355838" lon="10.4354367"><ele>39.333333333333336</ele><time>2026-05-02T12:16:01.01Z</time></trkpt><trkpt lat="45.2354004" lon="10.4352619"><ele>39.0</ele><time>2026-05-02T12:16:02.009Z</time></trkpt><trkpt lat="45.2352043" lon="10.4351072"><ele>39.0</ele><time>2026-05-02T12:16:03.009Z</time></trkpt><trkpt lat="45.2350003" lon="10.4349511"><ele>39.0</ele><time>2026-05-02T12:16:04.009Z</time></trkpt><trkpt lat="45.2347955" lon="10.4347918"><ele>39.5</ele><time>2026-05-02T12:16:05.011Z</time></trkpt><trkpt lat="45.2345875" lon="10.4346361"><ele>40.0</ele><time>2026-05-02T12:16:06.01Z</time></trkpt><trkpt lat="45.2343766" lon="10.4344811"><ele>40.0</ele><time>2026-05-02T12:16:07.01Z</time></trkpt><trkpt lat="45.2341655" lon="10.4343219"><ele>40.0</ele><time>2026-05-02T12:16:08.009Z</time></trkpt><trkpt lat="45.2339536" lon="10.4341671"><ele>39.0</ele><time>2026-05-02T12:16:09.009Z</time></trkpt><trkpt lat="45.2337403" lon="10.4340117"><ele>38.0</ele><time>2026-05-02T12:16:10.009Z</time></trkpt><trkpt lat="45.2335272" lon="10.4338535"><ele>38.0</ele><time>2026-05-02T12:16:11.01Z</time></trkpt><trkpt lat="45.2333166" lon="10.4336979"><ele>38.0</ele><time>2026-05-02T12:16:12.01Z</time></trkpt><trkpt lat="45.2331045" lon="10.4335391"><ele>38.0</ele><time>2026-05-02T12:16:13.009Z</time></trkpt><trkpt lat="45.2328918" lon="10.4333816"><ele>38.0</ele><time>2026-05-02T12:16:14.01Z</time></trkpt><trkpt lat="45.2326803" lon="10.4332242"><ele>38.0</ele><time>2026-05-02T12:16:15.009Z</time></trkpt><trkpt lat="45.23247" lon="10.4330683"><ele>38.0</ele><time>2026-05-02T12:16:16.01Z</time></trkpt><trkpt lat="45.2322614" lon="10.4329168"><ele>38.0</ele><time>2026-05-02T12:16:17.009Z</time></trkpt><trkpt lat="45.2320522" lon="10.4327775"><ele>38.0</ele><time>2026-05-02T12:16:18.009Z</time></trkpt><trkpt lat="45.2318386" lon="10.4326572"><ele>38.0</ele><time>2026-05-02T12:16:19.01Z</time></trkpt><trkpt lat="45.2316196" lon="10.4325555"><ele>38.0</ele><time>2026-05-02T12:16:20.009Z</time></trkpt><trkpt lat="45.2313962" lon="10.432475"><ele>38.0</ele><time>2026-05-02T12:16:21.011Z</time></trkpt><trkpt lat="45.2311687" lon="10.432401"><ele>38.0</ele><time>2026-05-02T12:16:22.01Z</time></trkpt><trkpt lat="45.2309403" lon="10.4323215"><ele>38.0</ele><time>2026-05-02T12:16:23.01Z</time></trkpt><trkpt lat="45.2307146" lon="10.4322401"><ele>38.0</ele><time>2026-05-02T12:16:24.009Z</time></trkpt><trkpt lat="45.2304991" lon="10.4321597"><ele>38.33333333333333</ele><time>2026-05-02T12:16:25.01Z</time></trkpt><trkpt lat="45.2302922" lon="10.4320781"><ele>38.666666666666664</ele><time>2026-05-02T12:16:26.009Z</time></trkpt><trkpt lat="45.2300991" lon="10.431986"><ele>39.0</ele><time>2026-05-02T12:16:27.01Z</time></trkpt><trkpt lat="45.2299184" lon="10.4318761"><ele>39.333333333333336</ele><time>2026-05-02T12:16:28.009Z</time></trkpt><trkpt lat="45.2297521" lon="10.4317574"><ele>39.66666666666667</ele><time>2026-05-02T12:16:29.009Z</time></trkpt><trkpt lat="45.2296025" lon="10.4316281"><ele>40.0</ele><time>2026-05-02T12:16:30.009Z</time></trkpt><trkpt lat="45.229472" lon="10.4314923"><ele>40.0</ele><time>2026-05-02T12:16:31.009Z</time></trkpt><trkpt lat="45.2293507" lon="10.4313551"><ele>40.0</ele><time>2026-05-02T12:16:32.009Z</time></trkpt><trkpt lat="45.2292434" lon="10.4312115"><ele>40.0</ele><time>2026-05-02T12:16:33.01Z</time></trkpt><trkpt lat="45.2291558" lon="10.4310716"><ele>40.0</ele><time>2026-05-02T12:16:34.009Z</time></trkpt><trkpt lat="45.2290851" lon="10.4309335"><ele>39.75</ele><time>2026-05-02T12:16:35.009Z</time></trkpt><trkpt lat="45.2290299" lon="10.4307876"><ele>39.5</ele><time>2026-05-02T12:16:36.009Z</time></trkpt><trkpt lat="45.228996" lon="10.4306246"><ele>39.25</ele><time>2026-05-02T12:16:37.009Z</time></trkpt><trkpt lat="45.2289804" lon="10.4304624"><ele>39.0</ele><time>2026-05-02T12:16:38.009Z</time></trkpt><trkpt lat="45.2289437" lon="10.4303177"><ele>39.0</ele><time>2026-05-02T12:16:39.01Z</time></trkpt><trkpt lat="45.2288734" lon="10.4302045"><ele>39.0</ele><time>2026-05-02T12:16:40.009Z</time></trkpt><trkpt lat="45.2287719" lon="10.4301152"><ele>39.0</ele><time>2026-05-02T12:16:41.011Z</time></trkpt><trkpt lat="45.2286517" lon="10.4300393"><ele>39.0</ele><time>2026-05-02T12:16:42.01Z</time></trkpt><trkpt lat="45.2285317" lon="10.4299353"><ele>39.0</ele><time>2026-05-02T12:16:43.009Z</time></trkpt><trkpt lat="45.2284203" lon="10.4298013"><ele>39.0</ele><time>2026-05-02T12:16:44.009Z</time></trkpt><trkpt lat="45.228315" lon="10.4296451"><ele>39.0</ele><time>2026-05-02T12:16:45.009Z</time></trkpt><trkpt lat="45.2282146" lon="10.429473"><ele>38.333333333333336</ele><time>2026-05-02T12:16:46.01Z</time></trkpt><trkpt lat="45.2281091" lon="10.4292936"><ele>37.66666666666667</ele><time>2026-05-02T12:16:47.01Z</time></trkpt><trkpt lat="45.2280012" lon="10.4291093"><ele>37.0</ele><time>2026-05-02T12:16:48.01Z</time></trkpt><trkpt lat="45.2278905" lon="10.4289203"><ele>36.66666666666667</ele><time>2026-05-02T12:16:49.009Z</time></trkpt><trkpt lat="45.2277795" lon="10.4287253"><ele>36.333333333333336</ele><time>2026-05-02T12:16:50.01Z</time></trkpt><trkpt lat="45.2276668" lon="10.4285307"><ele>36.0</ele><time>2026-05-02T12:16:51.009Z</time></trkpt><trkpt lat="45.2275518" lon="10.4283352"><ele>36.0</ele><time>2026-05-02T12:16:52.009Z</time></trkpt><trkpt lat="45.2274362" lon="10.4281386"><ele>36.0</ele><time>2026-05-02T12:16:53.009Z</time></trkpt><trkpt lat="45.2273237" lon="10.4279397"><ele>36.0</ele><time>2026-05-02T12:16:54.011Z</time></trkpt><trkpt lat="45.2272103" lon="10.4277425"><ele>36.333333333333336</ele><time>2026-05-02T12:16:55.011Z</time></trkpt><trkpt lat="45.2270934" lon="10.4275461"><ele>36.66666666666667</ele><time>2026-05-02T12:16:56.01Z</time></trkpt><trkpt lat="45.2269783" lon="10.4273506"><ele>37.0</ele><time>2026-05-02T12:16:57.009Z</time></trkpt><trkpt lat="45.226864" lon="10.4271548"><ele>37.0</ele><time>2026-05-02T12:16:58.009Z</time></trkpt><trkpt lat="45.2267526" lon="10.4269583"><ele>37.0</ele><time>2026-05-02T12:16:59.009Z</time></trkpt><trkpt lat="45.2266379" lon="10.4267609"><ele>37.0</ele><time>2026-05-02T12:17:00.01Z</time></trkpt><trkpt lat="45.2265223" lon="10.4265631"><ele>37.333333333333336</ele><time>2026-05-02T12:17:01.01Z</time></trkpt><trkpt lat="45.2264046" lon="10.4263644"><ele>37.666666666666664</ele><time>2026-05-02T12:17:02.01Z</time></trkpt><trkpt lat="45.2262909" lon="10.4261663"><ele>38.0</ele><time>2026-05-02T12:17:03.009Z</time></trkpt><trkpt lat="45.2261735" lon="10.4259689"><ele>38.0</ele><time>2026-05-02T12:17:04.009Z</time></trkpt><trkpt lat="45.2260571" lon="10.4257694"><ele>38.0</ele><time>2026-05-02T12:17:05.01Z</time></trkpt><trkpt lat="45.2259402" lon="10.42557"><ele>38.0</ele><time>2026-05-02T12:17:06.01Z</time></trkpt><trkpt lat="45.225825" lon="10.4253729"><ele>37.666666666666664</ele><time>2026-05-02T12:17:07.01Z</time></trkpt><trkpt lat="45.2257081" lon="10.4251757"><ele>37.333333333333336</ele><time>2026-05-02T12:17:08.009Z</time></trkpt><trkpt lat="45.2255972" lon="10.4249846"><ele>37.0</ele><time>2026-05-02T12:17:09.009Z</time></trkpt><trkpt lat="45.2254932" lon="10.4248025"><ele>37.25</ele><time>2026-05-02T12:17:10.009Z</time></trkpt><trkpt lat="45.2253945" lon="10.4246298"><ele>37.5</ele><time>2026-05-02T12:17:11.011Z</time></trkpt><trkpt lat="45.225301" lon="10.424466"><ele>37.75</ele><time>2026-05-02T12:17:12.009Z</time></trkpt><trkpt lat="45.2252189" lon="10.4243217"><ele>38.0</ele><time>2026-05-02T12:17:13.009Z</time></trkpt><trkpt lat="45.2251429" lon="10.4241877"><ele>38.0</ele><time>2026-05-02T12:17:14.009Z</time></trkpt><trkpt lat="45.2250701" lon="10.4240628"><ele>38.0</ele><time>2026-05-02T12:17:15.009Z</time></trkpt><trkpt lat="45.2249965" lon="10.423939"><ele>38.0</ele><time>2026-05-02T12:17:16.009Z</time></trkpt><trkpt lat="45.224922" lon="10.4238097"><ele>38.0</ele><time>2026-05-02T12:17:17.01Z</time></trkpt><trkpt lat="45.2248454" lon="10.4236764"><ele>38.5</ele><time>2026-05-02T12:17:18.009Z</time></trkpt><trkpt lat="45.2247629" lon="10.4235385"><ele>39.0</ele><time>2026-05-02T12:17:19.01Z</time></trkpt><trkpt lat="45.224678" lon="10.4233967"><ele>39.5</ele><time>2026-05-02T12:17:20.01Z</time></trkpt><trkpt lat="45.2245953" lon="10.4232515"><ele>40.0</ele><time>2026-05-02T12:17:21.009Z</time></trkpt><trkpt lat="45.2245107" lon="10.4231013"><ele>40.0</ele><time>2026-05-02T12:17:22.009Z</time></trkpt><trkpt lat="45.2244234" lon="10.4229468"><ele>40.0</ele><time>2026-05-02T12:17:23.01Z</time></trkpt><trkpt lat="45.224336" lon="10.4227925"><ele>40.0</ele><time>2026-05-02T12:17:24.01Z</time></trkpt><trkpt lat="45.2242494" lon="10.4226386"><ele>40.0</ele><time>2026-05-02T12:17:25.01Z</time></trkpt><trkpt lat="45.2241638" lon="10.4224898"><ele>40.0</ele><time>2026-05-02T12:17:26.009Z</time></trkpt><trkpt lat="45.2240793" lon="10.4223468"><ele>40.0</ele><time>2026-05-02T12:17:27.009Z</time></trkpt><trkpt lat="45.2239965" lon="10.4222176"><ele>40.0</ele><time>2026-05-02T12:17:28.009Z</time></trkpt><trkpt lat="45.2239154" lon="10.4220972"><ele>40.0</ele><time>2026-05-02T12:17:29.009Z</time></trkpt><trkpt lat="45.2238292" lon="10.4219793"><ele>39.75</ele><time>2026-05-02T12:17:30.01Z</time></trkpt><trkpt lat="45.2237428" lon="10.4218671"><ele>39.5</ele><time>2026-05-02T12:17:31.009Z</time></trkpt><trkpt lat="45.2236481" lon="10.4217516"><ele>39.25</ele><time>2026-05-02T12:17:32.009Z</time></trkpt><trkpt lat="45.2235511" lon="10.4216363"><ele>39.0</ele><time>2026-05-02T12:17:33.009Z</time></trkpt><trkpt lat="45.2234489" lon="10.4215206"><ele>39.0</ele><time>2026-05-02T12:17:34.009Z</time></trkpt><trkpt lat="45.2233433" lon="10.4213988"><ele>39.0</ele><time>2026-05-02T12:17:35.01Z</time></trkpt><trkpt lat="45.2232417" lon="10.4212717"><ele>39.0</ele><time>2026-05-02T12:17:36.009Z</time></trkpt><trkpt lat="45.2231377" lon="10.4211446"><ele>39.0</ele><time>2026-05-02T12:17:37.009Z</time></trkpt><trkpt lat="45.2230329" lon="10.4210195"><ele>39.25</ele><time>2026-05-02T12:17:38.009Z</time></trkpt><trkpt lat="45.2229345" lon="10.4208987"><ele>39.5</ele><time>2026-05-02T12:17:39.009Z</time></trkpt><trkpt lat="45.2228383" lon="10.420787"><ele>39.75</ele><time>2026-05-02T12:17:40.009Z</time></trkpt><trkpt lat="45.2227495" lon="10.420683"><ele>40.0</ele><time>2026-05-02T12:17:41.009Z</time></trkpt><trkpt lat="45.2226653" lon="10.4205855"><ele>40.0</ele><time>2026-05-02T12:17:42.01Z</time></trkpt><trkpt lat="45.2225816" lon="10.4205029"><ele>40.0</ele><time>2026-05-02T12:17:43.009Z</time></trkpt><trkpt lat="45.2225012" lon="10.4204421"><ele>40.0</ele><time>2026-05-02T12:17:44.009Z</time></trkpt><trkpt lat="45.2224206" lon="10.4203878"><ele>40.0</ele><time>2026-05-02T12:17:45.01Z</time></trkpt><trkpt lat="45.2223424" lon="10.4203251"><ele>40.0</ele><time>2026-05-02T12:17:46.009Z</time></trkpt><trkpt lat="45.2222695" lon="10.4202463"><ele>39.6</ele><time>2026-05-02T12:17:47.01Z</time></trkpt><trkpt lat="45.2222108" lon="10.4201513"><ele>39.2</ele><time>2026-05-02T12:17:48.009Z</time></trkpt><trkpt lat="45.2221726" lon="10.4200376"><ele>38.8</ele><time>2026-05-02T12:17:49.009Z</time></trkpt><trkpt lat="45.2221646" lon="10.4199125"><ele>38.4</ele><time>2026-05-02T12:17:50.009Z</time></trkpt><trkpt lat="45.2221743" lon="10.4197827"><ele>38.0</ele><time>2026-05-02T12:17:51.009Z</time></trkpt><trkpt lat="45.2221888" lon="10.4196524"><ele>37.6</ele><time>2026-05-02T12:17:52.009Z</time></trkpt><trkpt lat="45.2222059" lon="10.419513"><ele>37.199999999999996</ele><time>2026-05-02T12:17:53.009Z</time></trkpt><trkpt lat="45.2222279" lon="10.4193682"><ele>36.8</ele><time>2026-05-02T12:17:54.01Z</time></trkpt><trkpt lat="45.2222409" lon="10.4192201"><ele>36.4</ele><time>2026-05-02T12:17:55.009Z</time></trkpt><trkpt lat="45.2222564" lon="10.4190729"><ele>36.0</ele><time>2026-05-02T12:17:56.011Z</time></trkpt><trkpt lat="45.2222708" lon="10.4189408"><ele>36.0</ele><time>2026-05-02T12:17:57.009Z</time></trkpt><trkpt lat="45.2222835" lon="10.4188264"><ele>36.0</ele><time>2026-05-02T12:17:58.01Z</time></trkpt><trkpt lat="45.2222977" lon="10.4187146"><ele>36.0</ele><time>2026-05-02T12:17:59.009Z</time></trkpt><trkpt lat="45.222312" lon="10.4185948"><ele>36.0</ele><time>2026-05-02T12:18:00.009Z</time></trkpt><trkpt lat="45.222325" lon="10.4184643"><ele>36.0</ele><time>2026-05-02T12:18:01.009Z</time></trkpt><trkpt lat="45.2223351" lon="10.4183303"><ele>36.0</ele><time>2026-05-02T12:18:02.01Z</time></trkpt><trkpt lat="45.2223471" lon="10.4181915"><ele>36.2</ele><time>2026-05-02T12:18:03.009Z</time></trkpt><trkpt lat="45.2223643" lon="10.4180509"><ele>36.400000000000006</ele><time>2026-05-02T12:18:04.009Z</time></trkpt><trkpt lat="45.2223815" lon="10.4179124"><ele>36.6</ele><time>2026-05-02T12:18:05.01Z</time></trkpt><trkpt lat="45.2223968" lon="10.417774"><ele>36.800000000000004</ele><time>2026-05-02T12:18:06.009Z</time></trkpt><trkpt lat="45.2224109" lon="10.417642"><ele>37.0</ele><time>2026-05-02T12:18:07.009Z</time></trkpt><trkpt lat="45.2224242" lon="10.4175166"><ele>37.333333333333336</ele><time>2026-05-02T12:18:08.01Z</time></trkpt><trkpt lat="45.2224354" lon="10.4173968"><ele>37.66666666666667</ele><time>2026-05-02T12:18:09.009Z</time></trkpt><trkpt lat="45.2224472" lon="10.4172757"><ele>38.0</ele><time>2026-05-02T12:18:10.011Z</time></trkpt><trkpt lat="45.2224608" lon="10.4171502"><ele>38.333333333333336</ele><time>2026-05-02T12:18:11.011Z</time></trkpt><trkpt lat="45.2224756" lon="10.4170273"><ele>38.666666666666664</ele><time>2026-05-02T12:18:12.011Z</time></trkpt><trkpt lat="45.2224911" lon="10.4169079"><ele>39.0</ele><time>2026-05-02T12:18:13.011Z</time></trkpt><trkpt lat="45.2225056" lon="10.4168019"><ele>39.5</ele><time>2026-05-02T12:18:14.011Z</time></trkpt><trkpt lat="45.2225227" lon="10.4166512"><ele>40.0</ele><time>2026-05-02T12:18:16.01Z</time></trkpt><trkpt lat="45.2225374" lon="10.4165366"><ele>40.5</ele><time>2026-05-02T12:18:18.009Z</time></trkpt><trkpt lat="45.2225585" lon="10.4164497"><ele>41.0</ele><time>2026-05-02T12:18:20.009Z</time></trkpt><trkpt lat="45.2226195" lon="10.4164085"><ele>41.5</ele><time>2026-05-02T12:18:22.01Z</time></trkpt><trkpt lat="45.2227212" lon="10.4164408"><ele>42.0</ele><time>2026-05-02T12:18:24.009Z</time></trkpt><trkpt lat="45.222788" lon="10.4164611"><ele>42.0</ele><time>2026-05-02T12:18:25.009Z</time></trkpt><trkpt lat="45.2229051" lon="10.4164917"><ele>42.0</ele><time>2026-05-02T12:18:27.009Z</time></trkpt><trkpt lat="45.2229698" lon="10.4165029"><ele>42.0</ele><time>2026-05-02T12:18:28.009Z</time></trkpt><trkpt lat="45.2230381" lon="10.416518"><ele>42.0</ele><time>2026-05-02T12:18:29.009Z</time></trkpt><trkpt lat="45.2231061" lon="10.4165363"><ele>42.0</ele><time>2026-05-02T12:18:30.009Z</time></trkpt><trkpt lat="45.223177" lon="10.4165513"><ele>42.0</ele><time>2026-05-02T12:18:31.01Z</time></trkpt><trkpt lat="45.2232524" lon="10.416567"><ele>41.666666666666664</ele><time>2026-05-02T12:18:32.009Z</time></trkpt><trkpt lat="45.2233207" lon="10.4165802"><ele>41.333333333333336</ele><time>2026-05-02T12:18:33.009Z</time></trkpt><trkpt lat="45.2234329" lon="10.416602"><ele>41.0</ele><time>2026-05-02T12:18:35.01Z</time></trkpt><trkpt lat="45.2235008" lon="10.4166164"><ele>40.66666666666667</ele><time>2026-05-02T12:18:37.009Z</time></trkpt><trkpt lat="45.2235698" lon="10.4166247"><ele>40.333333333333336</ele><time>2026-05-02T12:18:40.009Z</time></trkpt><trkpt lat="45.2236476" lon="10.4165465"><ele>40.0</ele><time>2026-05-02T12:18:46.011Z</time></trkpt><trkpt lat="45.2236798" lon="10.4163751"><ele>40.16666666666667</ele><time>2026-05-02T12:18:48.01Z</time></trkpt><trkpt lat="45.2236833" lon="10.4162727"><ele>40.333333333333336</ele><time>2026-05-02T12:18:49.011Z</time></trkpt><trkpt lat="45.2236908" lon="10.4161734"><ele>40.5</ele><time>2026-05-02T12:18:50.011Z</time></trkpt><trkpt lat="45.2236974" lon="10.4160655"><ele>40.666666666666664</ele><time>2026-05-02T12:18:51.009Z</time></trkpt><trkpt lat="45.2237059" lon="10.4159518"><ele>40.83333333333333</ele><time>2026-05-02T12:18:52.01Z</time></trkpt><trkpt lat="45.2237168" lon="10.4158264"><ele>41.0</ele><time>2026-05-02T12:18:53.009Z</time></trkpt><trkpt lat="45.223728" lon="10.4156959"><ele>41.0</ele><time>2026-05-02T12:18:54.009Z</time></trkpt><trkpt lat="45.2237405" lon="10.4155642"><ele>41.0</ele><time>2026-05-02T12:18:55.01Z</time></trkpt><trkpt lat="45.223751" lon="10.4154383"><ele>41.0</ele><time>2026-05-02T12:18:56.01Z</time></trkpt><trkpt lat="45.2237604" lon="10.4153172"><ele>41.0</ele><time>2026-05-02T12:18:57.01Z</time></trkpt><trkpt lat="45.2237688" lon="10.4152081"><ele>41.0</ele><time>2026-05-02T12:18:58.009Z</time></trkpt><trkpt lat="45.223779" lon="10.4151088"><ele>41.0</ele><time>2026-05-02T12:18:59.01Z</time></trkpt><trkpt lat="45.223789" lon="10.4150157"><ele>41.166666666666664</ele><time>2026-05-02T12:19:00.009Z</time></trkpt><trkpt lat="45.2237968" lon="10.4149193"><ele>41.33333333333333</ele><time>2026-05-02T12:19:01.009Z</time></trkpt><trkpt lat="45.2238036" lon="10.4148243"><ele>41.5</ele><time>2026-05-02T12:19:02.01Z</time></trkpt><trkpt lat="45.2238135" lon="10.4147237"><ele>41.666666666666664</ele><time>2026-05-02T12:19:03.01Z</time></trkpt><trkpt lat="45.2238256" lon="10.4146267"><ele>41.833333333333336</ele><time>2026-05-02T12:19:04.009Z</time></trkpt><trkpt lat="45.2238386" lon="10.4144722"><ele>42.0</ele><time>2026-05-02T12:19:06.011Z</time></trkpt><trkpt lat="45.2238516" lon="10.414337"><ele>42.0</ele><time>2026-05-02T12:19:08.01Z</time></trkpt><trkpt lat="45.2238666" lon="10.4141441"><ele>42.0</ele><time>2026-05-02T12:19:10.009Z</time></trkpt><trkpt lat="45.2238767" lon="10.4140317"><ele>42.0</ele><time>2026-05-02T12:19:11.011Z</time></trkpt><trkpt lat="45.2238859" lon="10.4139054"><ele>42.0</ele><time>2026-05-02T12:19:12.009Z</time></trkpt><trkpt lat="45.2238974" lon="10.4137686"><ele>42.0</ele><time>2026-05-02T12:19:13.009Z</time></trkpt><trkpt lat="45.2239109" lon="10.4136347"><ele>42.0</ele><time>2026-05-02T12:19:14.009Z</time></trkpt><trkpt lat="45.2239235" lon="10.4134981"><ele>42.0</ele><time>2026-05-02T12:19:15.009Z</time></trkpt><trkpt lat="45.2239359" lon="10.413354"><ele>42.0</ele><time>2026-05-02T12:19:16.009Z</time></trkpt><trkpt lat="45.2239492" lon="10.4132055"><ele>42.0</ele><time>2026-05-02T12:19:17.009Z</time></trkpt><trkpt lat="45.2239646" lon="10.4130571"><ele>42.0</ele><time>2026-05-02T12:19:18.01Z</time></trkpt><trkpt lat="45.2239792" lon="10.4129076"><ele>42.0</ele><time>2026-05-02T12:19:19.01Z</time></trkpt><trkpt lat="45.2239965" lon="10.4127549"><ele>42.0</ele><time>2026-05-02T12:19:20.009Z</time></trkpt><trkpt lat="45.2240161" lon="10.4126055"><ele>42.0</ele><time>2026-05-02T12:19:21.009Z</time></trkpt><trkpt lat="45.224034" lon="10.4124542"><ele>42.0</ele><time>2026-05-02T12:19:22.01Z</time></trkpt><trkpt lat="45.2240492" lon="10.4122998"><ele>42.0</ele><time>2026-05-02T12:19:23.01Z</time></trkpt><trkpt lat="45.2240684" lon="10.4121408"><ele>41.25</ele><time>2026-05-02T12:19:24.01Z</time></trkpt><trkpt lat="45.224085" lon="10.4119764"><ele>40.5</ele><time>2026-05-02T12:19:25.009Z</time></trkpt><trkpt lat="45.2240973" lon="10.4118095"><ele>39.75</ele><time>2026-05-02T12:19:26.009Z</time></trkpt><trkpt lat="45.2241083" lon="10.4116552"><ele>39.0</ele><time>2026-05-02T12:19:27.01Z</time></trkpt><trkpt lat="45.2241148" lon="10.4114982"><ele>39.0</ele><time>2026-05-02T12:19:28.01Z</time></trkpt><trkpt lat="45.2241152" lon="10.411341"><ele>39.0</ele><time>2026-05-02T12:19:29.009Z</time></trkpt><trkpt lat="45.2241041" lon="10.4111883"><ele>39.0</ele><time>2026-05-02T12:19:30.009Z</time></trkpt><trkpt lat="45.2240774" lon="10.4110362"><ele>39.0</ele><time>2026-05-02T12:19:31.009Z</time></trkpt><trkpt lat="45.2240369" lon="10.4108869"><ele>39.0</ele><time>2026-05-02T12:19:32.009Z</time></trkpt><trkpt lat="45.2239881" lon="10.4107407"><ele>39.25</ele><time>2026-05-02T12:19:33.009Z</time></trkpt><trkpt lat="45.2239282" lon="10.4106017"><ele>39.5</ele><time>2026-05-02T12:19:34.009Z</time></trkpt><trkpt lat="45.2238551" lon="10.4104759"><ele>39.75</ele><time>2026-05-02T12:19:35.01Z</time></trkpt><trkpt lat="45.2237702" lon="10.4103688"><ele>40.0</ele><time>2026-05-02T12:19:36.009Z</time></trkpt><trkpt lat="45.2236721" lon="10.4102768"><ele>39.5</ele><time>2026-05-02T12:19:37.009Z</time></trkpt><trkpt lat="45.2235654" lon="10.4101982"><ele>39.0</ele><time>2026-05-02T12:19:38.009Z</time></trkpt><trkpt lat="45.2234596" lon="10.4101258"><ele>38.5</ele><time>2026-05-02T12:19:39.009Z</time></trkpt><trkpt lat="45.2233552" lon="10.4100657"><ele>38.0</ele><time>2026-05-02T12:19:40.009Z</time></trkpt><trkpt lat="45.2232532" lon="10.4100111"><ele>38.0</ele><time>2026-05-02T12:19:41.009Z</time></trkpt><trkpt lat="45.2231648" lon="10.4099639"><ele>38.0</ele><time>2026-05-02T12:19:42.009Z</time></trkpt><trkpt lat="45.2230795" lon="10.4099182"><ele>38.0</ele><time>2026-05-02T12:19:43.009Z</time></trkpt><trkpt lat="45.2229878" lon="10.4098727"><ele>38.0</ele><time>2026-05-02T12:19:44.009Z</time></trkpt><trkpt lat="45.22289" lon="10.4098209"><ele>38.0</ele><time>2026-05-02T12:19:45.01Z</time></trkpt><trkpt lat="45.2227848" lon="10.4097629"><ele>38.0</ele><time>2026-05-02T12:19:46.009Z</time></trkpt><trkpt lat="45.2226741" lon="10.4097"><ele>38.0</ele><time>2026-05-02T12:19:47.009Z</time></trkpt><trkpt lat="45.2225559" lon="10.4096302"><ele>38.0</ele><time>2026-05-02T12:19:48.009Z</time></trkpt><trkpt lat="45.2224331" lon="10.4095635"><ele>38.0</ele><time>2026-05-02T12:19:49.009Z</time></trkpt><trkpt lat="45.2223036" lon="10.4095057"><ele>37.75</ele><time>2026-05-02T12:19:50.01Z</time></trkpt><trkpt lat="45.2221718" lon="10.4094598"><ele>37.5</ele><time>2026-05-02T12:19:51.01Z</time></trkpt><trkpt lat="45.2220431" lon="10.4094238"><ele>37.25</ele><time>2026-05-02T12:19:52.009Z</time></trkpt><trkpt lat="45.2219164" lon="10.4093932"><ele>37.0</ele><time>2026-05-02T12:19:53.01Z</time></trkpt><trkpt lat="45.2217903" lon="10.409358"><ele>37.0</ele><time>2026-05-02T12:19:54.009Z</time></trkpt><trkpt lat="45.2216628" lon="10.4093197"><ele>37.0</ele><time>2026-05-02T12:19:55.009Z</time></trkpt><trkpt lat="45.2215337" lon="10.4092795"><ele>37.0</ele><time>2026-05-02T12:19:56.009Z</time></trkpt><trkpt lat="45.2214057" lon="10.4092442"><ele>37.0</ele><time>2026-05-02T12:19:57.01Z</time></trkpt><trkpt lat="45.2212821" lon="10.4092089"><ele>37.0</ele><time>2026-05-02T12:19:58.01Z</time></trkpt><trkpt lat="45.2211696" lon="10.409176"><ele>37.0</ele><time>2026-05-02T12:19:59.01Z</time></trkpt><trkpt lat="45.2210653" lon="10.4091453"><ele>37.0</ele><time>2026-05-02T12:20:00.01Z</time></trkpt><trkpt lat="45.2209783" lon="10.4091207"><ele>37.0</ele><time>2026-05-02T12:20:01.009Z</time></trkpt><trkpt lat="45.2209017" lon="10.4090983"><ele>37.0</ele><time>2026-05-02T12:20:02.009Z</time></trkpt><trkpt lat="45.2208354" lon="10.4090743"><ele>37.0</ele><time>2026-05-02T12:20:03.009Z</time></trkpt><trkpt lat="45.2207467" lon="10.4090184"><ele>37.0</ele><time>2026-05-02T12:20:05.009Z</time></trkpt><trkpt lat="45.2206635" lon="10.4089418"><ele>37.0</ele><time>2026-05-02T12:20:08.01Z</time></trkpt><trkpt lat="45.2206072" lon="10.4089912"><ele>37.0</ele><time>2026-05-02T12:20:11.009Z</time></trkpt><trkpt lat="45.2206241" lon="10.4091187"><ele>37.0</ele><time>2026-05-02T12:20:13.009Z</time></trkpt><trkpt lat="45.2206274" lon="10.4092194"><ele>37.0</ele><time>2026-05-02T12:20:14.009Z</time></trkpt><trkpt lat="45.2206291" lon="10.4093215"><ele>37.0</ele><time>2026-05-02T12:20:15.01Z</time></trkpt><trkpt lat="45.2206311" lon="10.4094115"><ele>37.0</ele><time>2026-05-02T12:20:16.009Z</time></trkpt><trkpt lat="45.2206322" lon="10.4095849"><ele>37.0</ele><time>2026-05-02T12:20:18.01Z</time></trkpt><trkpt lat="45.2206331" lon="10.4097627"><ele>37.0</ele><time>2026-05-02T12:20:20.009Z</time></trkpt><trkpt lat="45.2206374" lon="10.4098543"><ele>37.0</ele><time>2026-05-02T12:20:21.009Z</time></trkpt><trkpt lat="45.2206438" lon="10.4099499"><ele>37.0</ele><time>2026-05-02T12:20:22.009Z</time></trkpt><trkpt lat="45.2206477" lon="10.4100503"><ele>37.0</ele><time>2026-05-02T12:20:23.009Z</time></trkpt><trkpt lat="45.2206494" lon="10.4101521"><ele>37.0</ele><time>2026-05-02T12:20:24.009Z</time></trkpt><trkpt lat="45.2206579" lon="10.4103237"><ele>37.0</ele><time>2026-05-02T12:20:26.009Z</time></trkpt><trkpt lat="45.2206601" lon="10.4104817"><ele>37.0</ele><time>2026-05-02T12:20:28.009Z</time></trkpt><trkpt lat="45.2206591" lon="10.4106606"><ele>37.0</ele><time>2026-05-02T12:20:30.009Z</time></trkpt><trkpt lat="45.220657" lon="10.4107539"><ele>37.57142857142857</ele><time>2026-05-02T12:20:31.01Z</time></trkpt><trkpt lat="45.2206581" lon="10.4108495"><ele>38.14285714285714</ele><time>2026-05-02T12:20:32.009Z</time></trkpt><trkpt lat="45.2206577" lon="10.4109466"><ele>38.71428571428571</ele><time>2026-05-02T12:20:33.009Z</time></trkpt><trkpt lat="45.2206556" lon="10.4110409"><ele>39.285714285714285</ele><time>2026-05-02T12:20:34.01Z</time></trkpt><trkpt lat="45.2206537" lon="10.4111404"><ele>39.857142857142854</ele><time>2026-05-02T12:20:35.01Z</time></trkpt><trkpt lat="45.2206526" lon="10.411239"><ele>40.42857142857142</ele><time>2026-05-02T12:20:36.011Z</time></trkpt><trkpt lat="45.2206537" lon="10.4113371"><ele>41.0</ele><time>2026-05-02T12:20:37.009Z</time></trkpt><trkpt lat="45.2206575" lon="10.4114298"><ele>41.199999999999996</ele><time>2026-05-02T12:20:38.009Z</time></trkpt><trkpt lat="45.2206729" lon="10.4115844"><ele>41.4</ele><time>2026-05-02T12:20:40.009Z</time></trkpt><trkpt lat="45.2206864" lon="10.4117273"><ele>41.6</ele><time>2026-05-02T12:20:42.009Z</time></trkpt><trkpt lat="45.2207014" lon="10.4118858"><ele>41.8</ele><time>2026-05-02T12:20:44.009Z</time></trkpt><trkpt lat="45.2207169" lon="10.41205"><ele>42.0</ele><time>2026-05-02T12:20:46.01Z</time></trkpt><trkpt lat="45.2207325" lon="10.4122287"><ele>42.0</ele><time>2026-05-02T12:20:48.01Z</time></trkpt><trkpt lat="45.2207413" lon="10.4123276"><ele>42.0</ele><time>2026-05-02T12:20:49.01Z</time></trkpt><trkpt lat="45.2207539" lon="10.4124182"><ele>42.0</ele><time>2026-05-02T12:20:50.01Z</time></trkpt><trkpt lat="45.2207774" lon="10.4125576"><ele>42.0</ele><time>2026-05-02T12:20:52.01Z</time></trkpt><trkpt lat="45.220785" lon="10.4126524"><ele>42.0</ele><time>2026-05-02T12:20:54.01Z</time></trkpt><trkpt lat="45.2207028" lon="10.4127105"><ele>42.0</ele><time>2026-05-02T12:20:57.009Z</time></trkpt><trkpt lat="45.2205983" lon="10.4126891"><ele>40.75</ele><time>2026-05-02T12:20:59.009Z</time></trkpt><trkpt lat="45.2204717" lon="10.4126771"><ele>39.5</ele><time>2026-05-02T12:21:01.01Z</time></trkpt><trkpt lat="45.2203481" lon="10.4126819"><ele>38.25</ele><time>2026-05-02T12:21:03.009Z</time></trkpt><trkpt lat="45.2202274" lon="10.4126698"><ele>37.0</ele><time>2026-05-02T12:21:05.009Z</time></trkpt><trkpt lat="45.2201143" lon="10.4126554"><ele>37.0</ele><time>2026-05-02T12:21:07.009Z</time></trkpt><trkpt lat="45.2199842" lon="10.4126427"><ele>37.0</ele><time>2026-05-02T12:21:09.009Z</time></trkpt><trkpt lat="45.2199146" lon="10.4126389"><ele>37.0</ele><time>2026-05-02T12:21:10.009Z</time></trkpt><trkpt lat="45.2198474" lon="10.4126341"><ele>37.0</ele><time>2026-05-02T12:21:11.01Z</time></trkpt><trkpt lat="45.2197809" lon="10.412628"><ele>37.0</ele><time>2026-05-02T12:21:12.009Z</time></trkpt><trkpt lat="45.2197154" lon="10.4126245"><ele>37.0</ele><time>2026-05-02T12:21:13.01Z</time></trkpt><trkpt lat="45.2195954" lon="10.4126085"><ele>36.833333333333336</ele><time>2026-05-02T12:21:15.009Z</time></trkpt><trkpt lat="45.2194829" lon="10.4125966"><ele>36.66666666666667</ele><time>2026-05-02T12:21:17.009Z</time></trkpt><trkpt lat="45.2194175" lon="10.412589"><ele>36.5</ele><time>2026-05-02T12:21:18.009Z</time></trkpt><trkpt lat="45.2193524" lon="10.4125819"><ele>36.333333333333336</ele><time>2026-05-02T12:21:19.009Z</time></trkpt><trkpt lat="45.2192853" lon="10.4125711"><ele>36.166666666666664</ele><time>2026-05-02T12:21:20.01Z</time></trkpt><trkpt lat="45.219177" lon="10.4125522"><ele>36.0</ele><time>2026-05-02T12:21:22.009Z</time></trkpt><trkpt lat="45.2191063" lon="10.4124943"><ele>36.00000000000001</ele><time>2026-05-02T12:21:24.01Z</time></trkpt><trkpt lat="45.2190977" lon="10.412363"><ele>36.0</ele><time>2026-05-02T12:21:26.01Z</time></trkpt><trkpt lat="45.2191117" lon="10.4122746"><ele>36.0</ele><time>2026-05-02T12:21:27.009Z</time></trkpt><trkpt lat="45.2191229" lon="10.412186"><ele>36.0</ele><time>2026-05-02T12:21:28.009Z</time></trkpt><trkpt lat="45.2191331" lon="10.4120948"><ele>36.0</ele><time>2026-05-02T12:21:29.009Z</time></trkpt><trkpt lat="45.2191415" lon="10.4119975"><ele>36.00000000000001</ele><time>2026-05-02T12:21:30.009Z</time></trkpt><trkpt lat="45.2191508" lon="10.4119005"><ele>36.0</ele><time>2026-05-02T12:21:31.009Z</time></trkpt><trkpt lat="45.2191627" lon="10.4118105"><ele>36.0</ele><time>2026-05-02T12:21:32.01Z</time></trkpt><trkpt lat="45.2191738" lon="10.4117168"><ele>36.0</ele><time>2026-05-02T12:21:33.009Z</time></trkpt><trkpt lat="45.2191896" lon="10.4116196"><ele>36.0</ele><time>2026-05-02T12:21:34.009Z</time></trkpt><trkpt lat="45.2192045" lon="10.4115156"><ele>36.0</ele><time>2026-05-02T12:21:35.01Z</time></trkpt><trkpt lat="45.2192205" lon="10.4114082"><ele>36.0</ele><time>2026-05-02T12:21:36.009Z</time></trkpt><trkpt lat="45.2192351" lon="10.4112936"><ele>36.0</ele><time>2026-05-02T12:21:37.009Z</time></trkpt><trkpt lat="45.2192488" lon="10.4111759"><ele>35.666666666666664</ele><time>2026-05-02T12:21:38.009Z</time></trkpt><trkpt lat="45.2192613" lon="10.4110524"><ele>35.333333333333336</ele><time>2026-05-02T12:21:39.01Z</time></trkpt><trkpt lat="45.2192771" lon="10.4109261"><ele>35.0</ele><time>2026-05-02T12:21:40.009Z</time></trkpt><trkpt lat="45.2192911" lon="10.4108131"><ele>34.66666666666667</ele><time>2026-05-02T12:21:41.01Z</time></trkpt><trkpt lat="45.2193016" lon="10.410703"><ele>34.333333333333336</ele><time>2026-05-02T12:21:42.01Z</time></trkpt><trkpt lat="45.2193155" lon="10.4106002"><ele>34.0</ele><time>2026-05-02T12:21:43.009Z</time></trkpt><trkpt lat="45.2193258" lon="10.4104965"><ele>34.16666666666667</ele><time>2026-05-02T12:21:44.009Z</time></trkpt><trkpt lat="45.2193389" lon="10.4103898"><ele>34.333333333333336</ele><time>2026-05-02T12:21:45.01Z</time></trkpt><trkpt lat="45.2193539" lon="10.4102833"><ele>34.5</ele><time>2026-05-02T12:21:46.01Z</time></trkpt><trkpt lat="45.2193664" lon="10.4101737"><ele>34.666666666666664</ele><time>2026-05-02T12:21:47.009Z</time></trkpt><trkpt lat="45.2193788" lon="10.4100694"><ele>34.83333333333333</ele><time>2026-05-02T12:21:48.009Z</time></trkpt><trkpt lat="45.2193876" lon="10.4099606"><ele>35.0</ele><time>2026-05-02T12:21:49.009Z</time></trkpt><trkpt lat="45.2194002" lon="10.4098582"><ele>35.0</ele><time>2026-05-02T12:21:50.01Z</time></trkpt><trkpt lat="45.2194125" lon="10.409767"><ele>35.0</ele><time>2026-05-02T12:21:51.01Z</time></trkpt><trkpt lat="45.2194345" lon="10.4096125"><ele>35.0</ele><time>2026-05-02T12:21:53.009Z</time></trkpt><trkpt lat="45.2194742" lon="10.4094713"><ele>35.0</ele><time>2026-05-02T12:21:55.009Z</time></trkpt><trkpt lat="45.2195599" lon="10.4093788"><ele>35.0</ele><time>2026-05-02T12:21:57.009Z</time></trkpt><trkpt lat="45.2196522" lon="10.4093096"><ele>35.0</ele><time>2026-05-02T12:21:59.01Z</time></trkpt><trkpt lat="45.219735" lon="10.4092826"><ele>35.0</ele><time>2026-05-02T12:22:01.01Z</time></trkpt><trkpt lat="45.2198431" lon="10.4093213"><ele>35.0</ele><time>2026-05-02T12:22:03.009Z</time></trkpt><trkpt lat="45.2199047" lon="10.4093535"><ele>35.0</ele><time>2026-05-02T12:22:04.01Z</time></trkpt><trkpt lat="45.2199731" lon="10.4093991"><ele>35.0</ele><time>2026-05-02T12:22:05.009Z</time></trkpt><trkpt lat="45.2200464" lon="10.409449"><ele>35.0</ele><time>2026-05-02T12:22:06.01Z</time></trkpt><trkpt lat="45.2201228" lon="10.4095107"><ele>35.166666666666664</ele><time>2026-05-02T12:22:07.009Z</time></trkpt><trkpt lat="45.2202004" lon="10.4095726"><ele>35.33333333333333</ele><time>2026-05-02T12:22:08.01Z</time></trkpt><trkpt lat="45.2202792" lon="10.4096314"><ele>35.5</ele><time>2026-05-02T12:22:09.009Z</time></trkpt><trkpt lat="45.2203518" lon="10.4096811"><ele>35.666666666666664</ele><time>2026-05-02T12:22:10.009Z</time></trkpt><trkpt lat="45.2204143" lon="10.4097261"><ele>35.833333333333336</ele><time>2026-05-02T12:22:11.009Z</time></trkpt><trkpt lat="45.2204743" lon="10.4097679"><ele>36.0</ele><time>2026-05-02T12:22:12.01Z</time></trkpt><trkpt lat="45.2205689" lon="10.4098285"><ele>36.166666666666664</ele><time>2026-05-02T12:22:14.009Z</time></trkpt><trkpt lat="45.2206386" lon="10.4098446"><ele>36.333333333333336</ele><time>2026-05-02T12:22:17.01Z</time></trkpt><trkpt lat="45.2206771" lon="10.4097288"><ele>36.5</ele><time>2026-05-02T12:22:20.01Z</time></trkpt><trkpt lat="45.2206757" lon="10.4095779"><ele>36.66666666666667</ele><time>2026-05-02T12:22:22.009Z</time></trkpt><trkpt lat="45.2206794" lon="10.4094813"><ele>36.833333333333336</ele><time>2026-05-02T12:22:23.009Z</time></trkpt><trkpt lat="45.2206814" lon="10.4093862"><ele>37.0</ele><time>2026-05-02T12:22:24.009Z</time></trkpt><trkpt lat="45.220682" lon="10.40929"><ele>37.0</ele><time>2026-05-02T12:22:25.011Z</time></trkpt><trkpt lat="45.2206836" lon="10.4092"><ele>37.0</ele><time>2026-05-02T12:22:26.009Z</time></trkpt><trkpt lat="45.2206762" lon="10.4090891"><ele>37.0</ele><time>2026-05-02T12:22:33.009Z</time></trkpt><trkpt lat="45.2206636" lon="10.4089226"><ele>37.0</ele><time>2026-05-02T12:22:35.01Z</time></trkpt><trkpt lat="45.2206585" lon="10.4087965"><ele>37.0</ele><time>2026-05-02T12:22:36.01Z</time></trkpt><trkpt lat="45.2206527" lon="10.4086702"><ele>37.0</ele><time>2026-05-02T12:22:37.009Z</time></trkpt><trkpt lat="45.2206525" lon="10.4085301"><ele>37.0</ele><time>2026-05-02T12:22:38.009Z</time></trkpt><trkpt lat="45.2206506" lon="10.4083842"><ele>37.0</ele><time>2026-05-02T12:22:39.01Z</time></trkpt><trkpt lat="45.2206436" lon="10.4082315"><ele>37.0</ele><time>2026-05-02T12:22:40.01Z</time></trkpt><trkpt lat="45.2206374" lon="10.4080745"><ele>37.0</ele><time>2026-05-02T12:22:41.01Z</time></trkpt><trkpt lat="45.2206329" lon="10.4079167"><ele>37.0</ele><time>2026-05-02T12:22:42.01Z</time></trkpt><trkpt lat="45.2206282" lon="10.4077636"><ele>37.0</ele><time>2026-05-02T12:22:43.009Z</time></trkpt><trkpt lat="45.2206209" lon="10.4076087"><ele>37.0</ele><time>2026-05-02T12:22:44.01Z</time></trkpt><trkpt lat="45.220617" lon="10.4074494"><ele>37.0</ele><time>2026-05-02T12:22:45.009Z</time></trkpt><trkpt lat="45.220615" lon="10.4072932"><ele>37.0</ele><time>2026-05-02T12:22:46.009Z</time></trkpt><trkpt lat="45.2206101" lon="10.4071434"><ele>37.0</ele><time>2026-05-02T12:22:47.01Z</time></trkpt><trkpt lat="45.2206091" lon="10.4069898"><ele>37.0</ele><time>2026-05-02T12:22:48.009Z</time></trkpt><trkpt lat="45.220607" lon="10.4068289"><ele>37.0</ele><time>2026-05-02T12:22:49.01Z</time></trkpt><trkpt lat="45.2206012" lon="10.406665"><ele>37.0</ele><time>2026-05-02T12:22:50.01Z</time></trkpt><trkpt lat="45.2205983" lon="10.4065038"><ele>37.0</ele><time>2026-05-02T12:22:51.01Z</time></trkpt><trkpt lat="45.2205962" lon="10.4063431"><ele>36.75</ele><time>2026-05-02T12:22:52.009Z</time></trkpt><trkpt lat="45.2205923" lon="10.4061771"><ele>36.5</ele><time>2026-05-02T12:22:53.009Z</time></trkpt><trkpt lat="45.2205827" lon="10.4060145"><ele>36.25</ele><time>2026-05-02T12:22:54.009Z</time></trkpt><trkpt lat="45.2205612" lon="10.4058556"><ele>36.0</ele><time>2026-05-02T12:22:55.01Z</time></trkpt><trkpt lat="45.2205161" lon="10.4057082"><ele>36.0</ele><time>2026-05-02T12:22:56.009Z</time></trkpt><trkpt lat="45.2204493" lon="10.4055696"><ele>36.0</ele><time>2026-05-02T12:22:57.009Z</time></trkpt><trkpt lat="45.2203738" lon="10.4054369"><ele>36.0</ele><time>2026-05-02T12:22:58.01Z</time></trkpt><trkpt lat="45.2202841" lon="10.4053131"><ele>36.0</ele><time>2026-05-02T12:22:59.01Z</time></trkpt><trkpt lat="45.2201845" lon="10.4052022"><ele>36.25</ele><time>2026-05-02T12:23:00.009Z</time></trkpt><trkpt lat="45.2200723" lon="10.4051026"><ele>36.5</ele><time>2026-05-02T12:23:01.01Z</time></trkpt><trkpt lat="45.2199555" lon="10.4050101"><ele>36.75</ele><time>2026-05-02T12:23:02.009Z</time></trkpt><trkpt lat="45.2198419" lon="10.4049164"><ele>37.0</ele><time>2026-05-02T12:23:03.01Z</time></trkpt><trkpt lat="45.2197322" lon="10.4048236"><ele>36.5</ele><time>2026-05-02T12:23:04.011Z</time></trkpt><trkpt lat="45.2196228" lon="10.4047368"><ele>36.0</ele><time>2026-05-02T12:23:05.01Z</time></trkpt><trkpt lat="45.2195162" lon="10.4046525"><ele>35.5</ele><time>2026-05-02T12:23:06.009Z</time></trkpt><trkpt lat="45.2194109" lon="10.4045645"><ele>35.0</ele><time>2026-05-02T12:23:07.01Z</time></trkpt><trkpt lat="45.2193037" lon="10.4044733"><ele>34.75</ele><time>2026-05-02T12:23:08.009Z</time></trkpt><trkpt lat="45.2192" lon="10.4043862"><ele>34.5</ele><time>2026-05-02T12:23:09.009Z</time></trkpt><trkpt lat="45.2190991" lon="10.4043057"><ele>34.25</ele><time>2026-05-02T12:23:10.01Z</time></trkpt><trkpt lat="45.2189992" lon="10.4042255"><ele>34.0</ele><time>2026-05-02T12:23:11.01Z</time></trkpt><trkpt lat="45.2189004" lon="10.4041368"><ele>34.0</ele><time>2026-05-02T12:23:12.01Z</time></trkpt><trkpt lat="45.2188016" lon="10.4040434"><ele>34.0</ele><time>2026-05-02T12:23:13.009Z</time></trkpt><trkpt lat="45.2187028" lon="10.4039443"><ele>34.0</ele><time>2026-05-02T12:23:14.009Z</time></trkpt><trkpt lat="45.2186084" lon="10.4038364"><ele>34.0</ele><time>2026-05-02T12:23:15.009Z</time></trkpt><trkpt lat="45.2185232" lon="10.4037301"><ele>33.833333333333336</ele><time>2026-05-02T12:23:16.01Z</time></trkpt><trkpt lat="45.2184544" lon="10.4036438"><ele>33.66666666666667</ele><time>2026-05-02T12:23:17.009Z</time></trkpt><trkpt lat="45.2184003" lon="10.4035707"><ele>33.5</ele><time>2026-05-02T12:23:18.009Z</time></trkpt><trkpt lat="45.2183474" lon="10.4035022"><ele>33.333333333333336</ele><time>2026-05-02T12:23:19.01Z</time></trkpt><trkpt lat="45.2182883" lon="10.4034302"><ele>33.166666666666664</ele><time>2026-05-02T12:23:20.01Z</time></trkpt><trkpt lat="45.2182295" lon="10.4033559"><ele>33.0</ele><time>2026-05-02T12:23:21.009Z</time></trkpt><trkpt lat="45.2181688" lon="10.403278"><ele>33.0</ele><time>2026-05-02T12:23:22.01Z</time></trkpt><trkpt lat="45.2181059" lon="10.4031888"><ele>33.0</ele><time>2026-05-02T12:23:23.01Z</time></trkpt><trkpt lat="45.2180365" lon="10.403092"><ele>33.0</ele><time>2026-05-02T12:23:24.009Z</time></trkpt><trkpt lat="45.2179653" lon="10.4029893"><ele>33.0</ele><time>2026-05-02T12:23:25.009Z</time></trkpt><trkpt lat="45.2178906" lon="10.4028881"><ele>33.0</ele><time>2026-05-02T12:23:26.009Z</time></trkpt><trkpt lat="45.2178135" lon="10.4027875"><ele>33.0</ele><time>2026-05-02T12:23:27.01Z</time></trkpt><trkpt lat="45.2177389" lon="10.4026882"><ele>33.0</ele><time>2026-05-02T12:23:28.009Z</time></trkpt><trkpt lat="45.217667" lon="10.4025942"><ele>33.0</ele><time>2026-05-02T12:23:29.011Z</time></trkpt><trkpt lat="45.2175945" lon="10.4024959"><ele>33.0</ele><time>2026-05-02T12:23:30.01Z</time></trkpt><trkpt lat="45.2175251" lon="10.4023895"><ele>33.0</ele><time>2026-05-02T12:23:31.01Z</time></trkpt><trkpt lat="45.2174538" lon="10.4022887"><ele>33.0</ele><time>2026-05-02T12:23:32.009Z</time></trkpt><trkpt lat="45.21738" lon="10.4021844"><ele>33.0</ele><time>2026-05-02T12:23:33.009Z</time></trkpt><trkpt lat="45.2173052" lon="10.4020834"><ele>33.0</ele><time>2026-05-02T12:23:34.009Z</time></trkpt><trkpt lat="45.2172285" lon="10.4019787"><ele>33.0</ele><time>2026-05-02T12:23:35.01Z</time></trkpt><trkpt lat="45.217152" lon="10.4018688"><ele>33.0</ele><time>2026-05-02T12:23:36.009Z</time></trkpt><trkpt lat="45.2170727" lon="10.401757"><ele>33.0</ele><time>2026-05-02T12:23:37.01Z</time></trkpt><trkpt lat="45.2169903" lon="10.4016446"><ele>33.0</ele><time>2026-05-02T12:23:38.009Z</time></trkpt><trkpt lat="45.2169074" lon="10.4015292"><ele>33.0</ele><time>2026-05-02T12:23:39.009Z</time></trkpt><trkpt lat="45.2168263" lon="10.4014149"><ele>33.0</ele><time>2026-05-02T12:23:40.01Z</time></trkpt><trkpt lat="45.216744" lon="10.4013038"><ele>33.0</ele><time>2026-05-02T12:23:41.009Z</time></trkpt><trkpt lat="45.2166603" lon="10.4011917"><ele>33.0</ele><time>2026-05-02T12:23:42.009Z</time></trkpt><trkpt lat="45.216577" lon="10.4010787"><ele>33.0</ele><time>2026-05-02T12:23:43.009Z</time></trkpt><trkpt lat="45.2164938" lon="10.4009632"><ele>33.0</ele><time>2026-05-02T12:23:44.009Z</time></trkpt><trkpt lat="45.2164086" lon="10.4008482"><ele>33.4</ele><time>2026-05-02T12:23:45.009Z</time></trkpt><trkpt lat="45.2163238" lon="10.4007311"><ele>33.8</ele><time>2026-05-02T12:23:46.01Z</time></trkpt><trkpt lat="45.2162406" lon="10.4006195"><ele>34.2</ele><time>2026-05-02T12:23:47.01Z</time></trkpt><trkpt lat="45.2161649" lon="10.4005166"><ele>34.6</ele><time>2026-05-02T12:23:48.011Z</time></trkpt><trkpt lat="45.2160958" lon="10.4004185"><ele>35.0</ele><time>2026-05-02T12:23:49.009Z</time></trkpt><trkpt lat="45.2160306" lon="10.4003276"><ele>35.0</ele><time>2026-05-02T12:23:50.01Z</time></trkpt><trkpt lat="45.2159691" lon="10.4002414"><ele>35.0</ele><time>2026-05-02T12:23:51.01Z</time></trkpt><trkpt lat="45.2159101" lon="10.4001587"><ele>35.0</ele><time>2026-05-02T12:23:52.01Z</time></trkpt><trkpt lat="45.2158506" lon="10.4000794"><ele>35.0</ele><time>2026-05-02T12:23:53.01Z</time></trkpt><trkpt lat="45.2157894" lon="10.3999996"><ele>35.0</ele><time>2026-05-02T12:23:54.009Z</time></trkpt><trkpt lat="45.2157281" lon="10.3999153"><ele>35.0</ele><time>2026-05-02T12:23:55.009Z</time></trkpt><trkpt lat="45.2156679" lon="10.3998321"><ele>35.166666666666664</ele><time>2026-05-02T12:23:56.009Z</time></trkpt><trkpt lat="45.215621" lon="10.3997627"><ele>35.33333333333333</ele><time>2026-05-02T12:23:57.009Z</time></trkpt><trkpt lat="45.2155601" lon="10.3996496"><ele>35.5</ele><time>2026-05-02T12:23:59.011Z</time></trkpt><trkpt lat="45.2155127" lon="10.3995414"><ele>35.666666666666664</ele><time>2026-05-02T12:24:01.009Z</time></trkpt><trkpt lat="45.2154576" lon="10.3994629"><ele>35.833333333333336</ele><time>2026-05-02T12:24:03.009Z</time></trkpt><trkpt lat="45.215404" lon="10.3993984"><ele>36.0</ele><time>2026-05-02T12:24:05.009Z</time></trkpt><trkpt lat="45.2153439" lon="10.3993096"><ele>36.0</ele><time>2026-05-02T12:24:08.01Z</time></trkpt><trkpt lat="45.2152845" lon="10.3992292"><ele>36.0</ele><time>2026-05-02T12:24:17.009Z</time></trkpt><trkpt lat="45.2152212" lon="10.399157"><ele>36.0</ele><time>2026-05-02T12:24:20.01Z</time></trkpt><trkpt lat="45.215165" lon="10.3990812"><ele>36.0</ele><time>2026-05-02T12:24:23.009Z</time></trkpt><trkpt lat="45.2150798" lon="10.399045"><ele>36.0</ele><time>2026-05-02T12:36:36.01Z</time></trkpt><trkpt lat="45.2150163" lon="10.3989546"><ele>36.0</ele><time>2026-05-02T12:36:38.009Z</time></trkpt><trkpt lat="45.2149264" lon="10.3988233"><ele>35.833333333333336</ele><time>2026-05-02T12:36:40.009Z</time></trkpt><trkpt lat="45.2148766" lon="10.3987524"><ele>35.666666666666664</ele><time>2026-05-02T12:36:41.01Z</time></trkpt><trkpt lat="45.2148302" lon="10.3986872"><ele>35.5</ele><time>2026-05-02T12:36:42.01Z</time></trkpt><trkpt lat="45.2147772" lon="10.3986137"><ele>35.33333333333333</ele><time>2026-05-02T12:36:43.009Z</time></trkpt><trkpt lat="45.2147209" lon="10.3985311"><ele>35.166666666666664</ele><time>2026-05-02T12:36:44.009Z</time></trkpt><trkpt lat="45.2146586" lon="10.3984393"><ele>35.0</ele><time>2026-05-02T12:36:45.01Z</time></trkpt><trkpt lat="45.2145919" lon="10.3983391"><ele>35.0</ele><time>2026-05-02T12:36:46.009Z</time></trkpt><trkpt lat="45.2145241" lon="10.3982326"><ele>35.0</ele><time>2026-05-02T12:36:47.01Z</time></trkpt><trkpt lat="45.2144542" lon="10.3981214"><ele>35.0</ele><time>2026-05-02T12:36:48.01Z</time></trkpt><trkpt lat="45.2143835" lon="10.397999"><ele>35.0</ele><time>2026-05-02T12:36:49.01Z</time></trkpt><trkpt lat="45.2143116" lon="10.3978716"><ele>35.0</ele><time>2026-05-02T12:36:50.01Z</time></trkpt><trkpt lat="45.2142364" lon="10.3977365"><ele>35.0</ele><time>2026-05-02T12:36:51.01Z</time></trkpt><trkpt lat="45.2141602" lon="10.3975977"><ele>35.0</ele><time>2026-05-02T12:36:52.009Z</time></trkpt><trkpt lat="45.2140854" lon="10.3974592"><ele>35.0</ele><time>2026-05-02T12:36:53.009Z</time></trkpt><trkpt lat="45.2140119" lon="10.3973237"><ele>35.0</ele><time>2026-05-02T12:36:54.009Z</time></trkpt><trkpt lat="45.2139405" lon="10.3971846"><ele>34.25</ele><time>2026-05-02T12:36:55.01Z</time></trkpt><trkpt lat="45.2138684" lon="10.3970489"><ele>33.5</ele><time>2026-05-02T12:36:56.009Z</time></trkpt><trkpt lat="45.2137952" lon="10.3969147"><ele>32.75</ele><time>2026-05-02T12:36:57.01Z</time></trkpt><trkpt lat="45.2137216" lon="10.3967805"><ele>32.0</ele><time>2026-05-02T12:36:58.009Z</time></trkpt><trkpt lat="45.2136458" lon="10.3966452"><ele>32.0</ele><time>2026-05-02T12:36:59.01Z</time></trkpt><trkpt lat="45.2135671" lon="10.3965042"><ele>32.0</ele><time>2026-05-02T12:37:00.01Z</time></trkpt><trkpt lat="45.2134867" lon="10.3963606"><ele>32.0</ele><time>2026-05-02T12:37:01.009Z</time></trkpt><trkpt lat="45.2134101" lon="10.3962143"><ele>32.0</ele><time>2026-05-02T12:37:02.009Z</time></trkpt><trkpt lat="45.213335" lon="10.3960748"><ele>32.0</ele><time>2026-05-02T12:37:03.01Z</time></trkpt><trkpt lat="45.2132658" lon="10.395944"><ele>32.0</ele><time>2026-05-02T12:37:04.009Z</time></trkpt><trkpt lat="45.2132063" lon="10.3958199"><ele>32.0</ele><time>2026-05-02T12:37:05.01Z</time></trkpt><trkpt lat="45.21316" lon="10.3956948"><ele>32.0</ele><time>2026-05-02T12:37:06.01Z</time></trkpt><trkpt lat="45.2131258" lon="10.3955734"><ele>32.0</ele><time>2026-05-02T12:37:07.009Z</time></trkpt><trkpt lat="45.2131077" lon="10.3954633"><ele>32.33333333333333</ele><time>2026-05-02T12:37:08.01Z</time></trkpt><trkpt lat="45.2130996" lon="10.3953632"><ele>32.666666666666664</ele><time>2026-05-02T12:37:09.009Z</time></trkpt><trkpt lat="45.2130974" lon="10.3952276"><ele>33.0</ele><time>2026-05-02T12:37:11.009Z</time></trkpt><trkpt lat="45.2130814" lon="10.3951263"><ele>33.333333333333336</ele><time>2026-05-02T12:37:13.009Z</time></trkpt><trkpt lat="45.213001" lon="10.3950104"><ele>33.66666666666667</ele><time>2026-05-02T12:37:15.009Z</time></trkpt><trkpt lat="45.2129391" lon="10.3949502"><ele>34.0</ele><time>2026-05-02T12:37:16.009Z</time></trkpt><trkpt lat="45.2128708" lon="10.3948784"><ele>34.0</ele><time>2026-05-02T12:37:17.009Z</time></trkpt><trkpt lat="45.2128035" lon="10.3948074"><ele>34.0</ele><time>2026-05-02T12:37:18.009Z</time></trkpt><trkpt lat="45.2127318" lon="10.3947335"><ele>34.0</ele><time>2026-05-02T12:37:19.01Z</time></trkpt><trkpt lat="45.2126546" lon="10.3946554"><ele>34.0</ele><time>2026-05-02T12:37:20.009Z</time></trkpt><trkpt lat="45.2125732" lon="10.3945658"><ele>34.0</ele><time>2026-05-02T12:37:21.009Z</time></trkpt><trkpt lat="45.2124889" lon="10.3944676"><ele>34.0</ele><time>2026-05-02T12:37:22.009Z</time></trkpt><trkpt lat="45.2124024" lon="10.3943544"><ele>34.0</ele><time>2026-05-02T12:37:23.009Z</time></trkpt><trkpt lat="45.2123121" lon="10.3942314"><ele>34.0</ele><time>2026-05-02T12:37:24.01Z</time></trkpt><trkpt lat="45.2122247" lon="10.3941068"><ele>34.0</ele><time>2026-05-02T12:37:25.009Z</time></trkpt><trkpt lat="45.2121392" lon="10.3939771"><ele>34.0</ele><time>2026-05-02T12:37:26.009Z</time></trkpt><trkpt lat="45.212054" lon="10.3938399"><ele>34.0</ele><time>2026-05-02T12:37:27.009Z</time></trkpt><trkpt lat="45.2119679" lon="10.3936954"><ele>34.0</ele><time>2026-05-02T12:37:28.009Z</time></trkpt><trkpt lat="45.2118786" lon="10.3935431"><ele>34.0</ele><time>2026-05-02T12:37:29.009Z</time></trkpt><trkpt lat="45.2117849" lon="10.393387"><ele>34.333333333333336</ele><time>2026-05-02T12:37:30.009Z</time></trkpt><trkpt lat="45.2116867" lon="10.3932237"><ele>34.666666666666664</ele><time>2026-05-02T12:37:31.009Z</time></trkpt><trkpt lat="45.2115862" lon="10.3930528"><ele>35.0</ele><time>2026-05-02T12:37:32.01Z</time></trkpt><trkpt lat="45.2114872" lon="10.3928867"><ele>35.0</ele><time>2026-05-02T12:37:33.01Z</time></trkpt><trkpt lat="45.2113895" lon="10.3927267"><ele>35.0</ele><time>2026-05-02T12:37:34.011Z</time></trkpt><trkpt lat="45.2112894" lon="10.3925613"><ele>35.0</ele><time>2026-05-02T12:37:35.01Z</time></trkpt><trkpt lat="45.2111923" lon="10.3923929"><ele>35.0</ele><time>2026-05-02T12:37:36.01Z</time></trkpt><trkpt lat="45.2110891" lon="10.3922242"><ele>35.0</ele><time>2026-05-02T12:37:37.01Z</time></trkpt><trkpt lat="45.2109848" lon="10.3920531"><ele>35.0</ele><time>2026-05-02T12:37:38.009Z</time></trkpt><trkpt lat="45.2108793" lon="10.3918781"><ele>35.0</ele><time>2026-05-02T12:37:39.009Z</time></trkpt><trkpt lat="45.2107726" lon="10.3916985"><ele>35.0</ele><time>2026-05-02T12:37:40.01Z</time></trkpt><trkpt lat="45.2106647" lon="10.3915122"><ele>35.0</ele><time>2026-05-02T12:37:41.01Z</time></trkpt><trkpt lat="45.210554" lon="10.3913215"><ele>35.666666666666664</ele><time>2026-05-02T12:37:42.01Z</time></trkpt><trkpt lat="45.2104412" lon="10.3911261"><ele>36.333333333333336</ele><time>2026-05-02T12:37:43.01Z</time></trkpt><trkpt lat="45.2103287" lon="10.3909278"><ele>37.0</ele><time>2026-05-02T12:37:44.009Z</time></trkpt><trkpt lat="45.2102108" lon="10.3907253"><ele>37.0</ele><time>2026-05-02T12:37:45.009Z</time></trkpt><trkpt lat="45.2100959" lon="10.3905219"><ele>37.0</ele><time>2026-05-02T12:37:46.009Z</time></trkpt><trkpt lat="45.2099837" lon="10.3903214"><ele>37.0</ele><time>2026-05-02T12:37:47.009Z</time></trkpt><trkpt lat="45.2098748" lon="10.3901172"><ele>36.66666666666667</ele><time>2026-05-02T12:37:48.01Z</time></trkpt><trkpt lat="45.209767" lon="10.3899116"><ele>36.333333333333336</ele><time>2026-05-02T12:37:49.01Z</time></trkpt><trkpt lat="45.2096591" lon="10.3897035"><ele>36.0</ele><time>2026-05-02T12:37:50.009Z</time></trkpt><trkpt lat="45.2095508" lon="10.3894945"><ele>36.0</ele><time>2026-05-02T12:37:51.009Z</time></trkpt><trkpt lat="45.2094414" lon="10.3892841"><ele>36.0</ele><time>2026-05-02T12:37:52.01Z</time></trkpt><trkpt lat="45.2093339" lon="10.3890752"><ele>36.0</ele><time>2026-05-02T12:37:53.009Z</time></trkpt><trkpt lat="45.209224" lon="10.3888658"><ele>36.666666666666664</ele><time>2026-05-02T12:37:54.01Z</time></trkpt><trkpt lat="45.2091193" lon="10.3886577"><ele>37.33333333333333</ele><time>2026-05-02T12:37:55.009Z</time></trkpt><trkpt lat="45.209012" lon="10.3884448"><ele>38.0</ele><time>2026-05-02T12:37:56.009Z</time></trkpt><trkpt lat="45.2089024" lon="10.3882313"><ele>37.666666666666664</ele><time>2026-05-02T12:37:57.01Z</time></trkpt><trkpt lat="45.208793" lon="10.3880188"><ele>37.333333333333336</ele><time>2026-05-02T12:37:58.009Z</time></trkpt><trkpt lat="45.2086845" lon="10.3878045"><ele>37.0</ele><time>2026-05-02T12:37:59.01Z</time></trkpt><trkpt lat="45.2085783" lon="10.3875913"><ele>37.0</ele><time>2026-05-02T12:38:00.009Z</time></trkpt><trkpt lat="45.2084668" lon="10.387375"><ele>37.0</ele><time>2026-05-02T12:38:01.009Z</time></trkpt><trkpt lat="45.2083561" lon="10.3871571"><ele>37.0</ele><time>2026-05-02T12:38:02.009Z</time></trkpt><trkpt lat="45.2082433" lon="10.3869363"><ele>36.66666666666667</ele><time>2026-05-02T12:38:03.009Z</time></trkpt><trkpt lat="45.2081307" lon="10.3867161"><ele>36.333333333333336</ele><time>2026-05-02T12:38:04.009Z</time></trkpt><trkpt lat="45.2080205" lon="10.3864985"><ele>36.0</ele><time>2026-05-02T12:38:05.01Z</time></trkpt><trkpt lat="45.2079125" lon="10.3862831"><ele>36.0</ele><time>2026-05-02T12:38:06.009Z</time></trkpt><trkpt lat="45.2078016" lon="10.3860672"><ele>36.0</ele><time>2026-05-02T12:38:07.009Z</time></trkpt><trkpt lat="45.2076902" lon="10.3858548"><ele>36.0</ele><time>2026-05-02T12:38:08.009Z</time></trkpt><trkpt lat="45.2075781" lon="10.38564"><ele>36.0</ele><time>2026-05-02T12:38:09.01Z</time></trkpt><trkpt lat="45.2074686" lon="10.3854262"><ele>36.0</ele><time>2026-05-02T12:38:10.009Z</time></trkpt><trkpt lat="45.2073607" lon="10.3852119"><ele>36.0</ele><time>2026-05-02T12:38:11.009Z</time></trkpt><trkpt lat="45.2072501" lon="10.3849937"><ele>36.0</ele><time>2026-05-02T12:38:12.009Z</time></trkpt><trkpt lat="45.2071415" lon="10.3847753"><ele>36.0</ele><time>2026-05-02T12:38:13.01Z</time></trkpt><trkpt lat="45.2070315" lon="10.3845597"><ele>36.0</ele><time>2026-05-02T12:38:14.01Z</time></trkpt><trkpt lat="45.2069222" lon="10.3843441"><ele>36.0</ele><time>2026-05-02T12:38:15.01Z</time></trkpt><trkpt lat="45.2068105" lon="10.3841298"><ele>36.0</ele><time>2026-05-02T12:38:16.01Z</time></trkpt><trkpt lat="45.2067003" lon="10.3839171"><ele>36.0</ele><time>2026-05-02T12:38:17.01Z</time></trkpt><trkpt lat="45.2065914" lon="10.3836984"><ele>36.0</ele><time>2026-05-02T12:38:18.009Z</time></trkpt><trkpt lat="45.2064796" lon="10.3834779"><ele>36.0</ele><time>2026-05-02T12:38:19.01Z</time></trkpt><trkpt lat="45.206368" lon="10.3832616"><ele>36.0</ele><time>2026-05-02T12:38:20.009Z</time></trkpt><trkpt lat="45.2062566" lon="10.3830435"><ele>36.0</ele><time>2026-05-02T12:38:21.009Z</time></trkpt><trkpt lat="45.2061433" lon="10.3828216"><ele>36.0</ele><time>2026-05-02T12:38:22.009Z</time></trkpt><trkpt lat="45.2060291" lon="10.3825994"><ele>36.0</ele><time>2026-05-02T12:38:23.01Z</time></trkpt><trkpt lat="45.2059163" lon="10.3823756"><ele>36.333333333333336</ele><time>2026-05-02T12:38:24.009Z</time></trkpt><trkpt lat="45.2058025" lon="10.3821511"><ele>36.66666666666667</ele><time>2026-05-02T12:38:25.009Z</time></trkpt><trkpt lat="45.2056875" lon="10.3819263"><ele>37.0</ele><time>2026-05-02T12:38:26.009Z</time></trkpt><trkpt lat="45.20557" lon="10.3816982"><ele>37.0</ele><time>2026-05-02T12:38:27.009Z</time></trkpt><trkpt lat="45.2054523" lon="10.3814708"><ele>37.0</ele><time>2026-05-02T12:38:28.01Z</time></trkpt><trkpt lat="45.2053358" lon="10.3812397"><ele>37.0</ele><time>2026-05-02T12:38:29.01Z</time></trkpt><trkpt lat="45.2052199" lon="10.3810043"><ele>37.0</ele><time>2026-05-02T12:38:30.01Z</time></trkpt><trkpt lat="45.2051035" lon="10.3807688"><ele>37.0</ele><time>2026-05-02T12:38:31.009Z</time></trkpt><trkpt lat="45.2049841" lon="10.3805332"><ele>37.0</ele><time>2026-05-02T12:38:32.009Z</time></trkpt><trkpt lat="45.2048624" lon="10.3802972"><ele>36.66666666666667</ele><time>2026-05-02T12:38:33.01Z</time></trkpt><trkpt lat="45.2047406" lon="10.3800589"><ele>36.333333333333336</ele><time>2026-05-02T12:38:34.009Z</time></trkpt><trkpt lat="45.204622" lon="10.3798229"><ele>36.0</ele><time>2026-05-02T12:38:35.01Z</time></trkpt><trkpt lat="45.2045028" lon="10.3795839"><ele>36.0</ele><time>2026-05-02T12:38:36.009Z</time></trkpt><trkpt lat="45.2043843" lon="10.3793458"><ele>36.0</ele><time>2026-05-02T12:38:37.011Z</time></trkpt><trkpt lat="45.2042651" lon="10.379109"><ele>36.0</ele><time>2026-05-02T12:38:38.009Z</time></trkpt><trkpt lat="45.2041455" lon="10.3788706"><ele>36.0</ele><time>2026-05-02T12:38:39.01Z</time></trkpt><trkpt lat="45.2040262" lon="10.3786347"><ele>36.0</ele><time>2026-05-02T12:38:40.01Z</time></trkpt><trkpt lat="45.2039077" lon="10.3783982"><ele>36.0</ele><time>2026-05-02T12:38:41.009Z</time></trkpt><trkpt lat="45.2037886" lon="10.3781653"><ele>37.0</ele><time>2026-05-02T12:38:42.01Z</time></trkpt><trkpt lat="45.2036698" lon="10.3779298"><ele>38.0</ele><time>2026-05-02T12:38:43.009Z</time></trkpt><trkpt lat="45.2035516" lon="10.3776944"><ele>39.0</ele><time>2026-05-02T12:38:44.01Z</time></trkpt><trkpt lat="45.2034354" lon="10.3774617"><ele>39.0</ele><time>2026-05-02T12:38:45.01Z</time></trkpt><trkpt lat="45.2033169" lon="10.3772286"><ele>39.0</ele><time>2026-05-02T12:38:46.01Z</time></trkpt><trkpt lat="45.2031992" lon="10.376994"><ele>39.0</ele><time>2026-05-02T12:38:47.009Z</time></trkpt><trkpt lat="45.2030842" lon="10.3767601"><ele>38.666666666666664</ele><time>2026-05-02T12:38:48.009Z</time></trkpt><trkpt lat="45.2029683" lon="10.3765224"><ele>38.33333333333333</ele><time>2026-05-02T12:38:49.009Z</time></trkpt><trkpt lat="45.2028535" lon="10.3762892"><ele>38.0</ele><time>2026-05-02T12:38:50.009Z</time></trkpt><trkpt lat="45.2027368" lon="10.3760556"><ele>37.33333333333333</ele><time>2026-05-02T12:38:51.009Z</time></trkpt><trkpt lat="45.2026159" lon="10.375824"><ele>36.666666666666664</ele><time>2026-05-02T12:38:52.01Z</time></trkpt><trkpt lat="45.2024959" lon="10.3755955"><ele>36.0</ele><time>2026-05-02T12:38:53.01Z</time></trkpt><trkpt lat="45.2023745" lon="10.3753618"><ele>36.333333333333336</ele><time>2026-05-02T12:38:54.009Z</time></trkpt><trkpt lat="45.2022513" lon="10.3751297"><ele>36.66666666666667</ele><time>2026-05-02T12:38:55.009Z</time></trkpt><trkpt lat="45.2021296" lon="10.3748961"><ele>37.0</ele><time>2026-05-02T12:38:56.01Z</time></trkpt><trkpt lat="45.2020024" lon="10.3746622"><ele>37.0</ele><time>2026-05-02T12:38:57.01Z</time></trkpt><trkpt lat="45.2018749" lon="10.374434"><ele>37.0</ele><time>2026-05-02T12:38:58.009Z</time></trkpt><trkpt lat="45.20175" lon="10.3742047"><ele>37.0</ele><time>2026-05-02T12:38:59.011Z</time></trkpt><trkpt lat="45.2016284" lon="10.3739758"><ele>37.0</ele><time>2026-05-02T12:39:00.009Z</time></trkpt><trkpt lat="45.2015019" lon="10.3737468"><ele>37.0</ele><time>2026-05-02T12:39:01.009Z</time></trkpt><trkpt lat="45.2013743" lon="10.3735217"><ele>37.0</ele><time>2026-05-02T12:39:02.009Z</time></trkpt><trkpt lat="45.2012478" lon="10.3732967"><ele>37.0</ele><time>2026-05-02T12:39:03.009Z</time></trkpt><trkpt lat="45.2011205" lon="10.3730703"><ele>37.0</ele><time>2026-05-02T12:39:04.01Z</time></trkpt><trkpt lat="45.2009945" lon="10.3728476"><ele>37.0</ele><time>2026-05-02T12:39:05.01Z</time></trkpt><trkpt lat="45.2008699" lon="10.3726258"><ele>36.66666666666667</ele><time>2026-05-02T12:39:06.011Z</time></trkpt><trkpt lat="45.2007461" lon="10.3724012"><ele>36.333333333333336</ele><time>2026-05-02T12:39:07.009Z</time></trkpt><trkpt lat="45.2006239" lon="10.372181"><ele>36.0</ele><time>2026-05-02T12:39:08.01Z</time></trkpt><trkpt lat="45.200505" lon="10.3719629"><ele>36.0</ele><time>2026-05-02T12:39:09.009Z</time></trkpt><trkpt lat="45.2003966" lon="10.3717495"><ele>36.0</ele><time>2026-05-02T12:39:10.011Z</time></trkpt><trkpt lat="45.2002948" lon="10.3715426"><ele>36.0</ele><time>2026-05-02T12:39:11.009Z</time></trkpt><trkpt lat="45.2002021" lon="10.3713418"><ele>36.333333333333336</ele><time>2026-05-02T12:39:12.009Z</time></trkpt><trkpt lat="45.2001157" lon="10.3711435"><ele>36.66666666666667</ele><time>2026-05-02T12:39:13.009Z</time></trkpt><trkpt lat="45.2000264" lon="10.370944"><ele>37.0</ele><time>2026-05-02T12:39:14.009Z</time></trkpt><trkpt lat="45.1999373" lon="10.3707453"><ele>37.0</ele><time>2026-05-02T12:39:15.01Z</time></trkpt><trkpt lat="45.1998502" lon="10.3705455"><ele>37.0</ele><time>2026-05-02T12:39:16.011Z</time></trkpt><trkpt lat="45.1997634" lon="10.3703494"><ele>37.0</ele><time>2026-05-02T12:39:17.01Z</time></trkpt><trkpt lat="45.1996771" lon="10.370156"><ele>37.333333333333336</ele><time>2026-05-02T12:39:18.011Z</time></trkpt><trkpt lat="45.1995907" lon="10.3699643"><ele>37.666666666666664</ele><time>2026-05-02T12:39:19.01Z</time></trkpt><trkpt lat="45.1995055" lon="10.3697747"><ele>38.0</ele><time>2026-05-02T12:39:20.009Z</time></trkpt><trkpt lat="45.1994205" lon="10.369588"><ele>38.0</ele><time>2026-05-02T12:39:21.009Z</time></trkpt><trkpt lat="45.1993376" lon="10.3694096"><ele>38.0</ele><time>2026-05-02T12:39:22.01Z</time></trkpt><trkpt lat="45.1992553" lon="10.3692429"><ele>38.0</ele><time>2026-05-02T12:39:23.009Z</time></trkpt><trkpt lat="45.1991759" lon="10.3690821"><ele>38.0</ele><time>2026-05-02T12:39:24.009Z</time></trkpt><trkpt lat="45.1991002" lon="10.368929"><ele>38.25</ele><time>2026-05-02T12:39:25.01Z</time></trkpt><trkpt lat="45.1990246" lon="10.368786"><ele>38.5</ele><time>2026-05-02T12:39:26.01Z</time></trkpt><trkpt lat="45.1989519" lon="10.3686465"><ele>38.75</ele><time>2026-05-02T12:39:27.009Z</time></trkpt><trkpt lat="45.1988841" lon="10.3685127"><ele>39.0</ele><time>2026-05-02T12:39:28.01Z</time></trkpt><trkpt lat="45.1988193" lon="10.3683865"><ele>38.8</ele><time>2026-05-02T12:39:29.01Z</time></trkpt><trkpt lat="45.1987615" lon="10.3682648"><ele>38.599999999999994</ele><time>2026-05-02T12:39:30.009Z</time></trkpt><trkpt lat="45.1987114" lon="10.3681552"><ele>38.4</ele><time>2026-05-02T12:39:31.01Z</time></trkpt><trkpt lat="45.1986691" lon="10.3680567"><ele>38.199999999999996</ele><time>2026-05-02T12:39:32.011Z</time></trkpt><trkpt lat="45.1986334" lon="10.3678954"><ele>38.0</ele><time>2026-05-02T12:39:34.009Z</time></trkpt><trkpt lat="45.1986237" lon="10.3677835"><ele>38.0</ele><time>2026-05-02T12:39:36.01Z</time></trkpt><trkpt lat="45.1985988" lon="10.3676989"><ele>38.0</ele><time>2026-05-02T12:39:39.01Z</time></trkpt><trkpt lat="45.1985471" lon="10.3676141"><ele>38.0</ele><time>2026-05-02T12:40:26.009Z</time></trkpt><trkpt lat="45.1984048" lon="10.3676091"><ele>38.0</ele><time>2026-05-02T12:40:28.01Z</time></trkpt><trkpt lat="45.1983174" lon="10.3676306"><ele>38.0</ele><time>2026-05-02T12:40:29.009Z</time></trkpt><trkpt lat="45.1982138" lon="10.3676646"><ele>38.0</ele><time>2026-05-02T12:40:30.01Z</time></trkpt><trkpt lat="45.1980975" lon="10.3677012"><ele>38.0</ele><time>2026-05-02T12:40:31.01Z</time></trkpt><trkpt lat="45.1979708" lon="10.3677461"><ele>38.0</ele><time>2026-05-02T12:40:32.01Z</time></trkpt><trkpt lat="45.1978396" lon="10.3677919"><ele>38.0</ele><time>2026-05-02T12:40:33.009Z</time></trkpt><trkpt lat="45.1977089" lon="10.3678394"><ele>38.0</ele><time>2026-05-02T12:40:34.01Z</time></trkpt><trkpt lat="45.1975731" lon="10.3678875"><ele>38.0</ele><time>2026-05-02T12:40:35.01Z</time></trkpt><trkpt lat="45.1974325" lon="10.3679393"><ele>38.0</ele><time>2026-05-02T12:40:36.01Z</time></trkpt><trkpt lat="45.1972874" lon="10.3679917"><ele>38.0</ele><time>2026-05-02T12:40:37.011Z</time></trkpt><trkpt lat="45.1971372" lon="10.3680438"><ele>37.666666666666664</ele><time>2026-05-02T12:40:38.009Z</time></trkpt><trkpt lat="45.1969832" lon="10.368099"><ele>37.333333333333336</ele><time>2026-05-02T12:40:39.009Z</time></trkpt><trkpt lat="45.1968253" lon="10.3681571"><ele>37.0</ele><time>2026-05-02T12:40:40.01Z</time></trkpt><trkpt lat="45.1966648" lon="10.3682152"><ele>37.0</ele><time>2026-05-02T12:40:41.009Z</time></trkpt><trkpt lat="45.1965042" lon="10.3682662"><ele>37.0</ele><time>2026-05-02T12:40:42.01Z</time></trkpt><trkpt lat="45.1963477" lon="10.3683202"><ele>37.0</ele><time>2026-05-02T12:40:43.011Z</time></trkpt><trkpt lat="45.1961894" lon="10.3683792"><ele>36.66666666666667</ele><time>2026-05-02T12:40:44.009Z</time></trkpt><trkpt lat="45.1960274" lon="10.3684371"><ele>36.333333333333336</ele><time>2026-05-02T12:40:45.01Z</time></trkpt><trkpt lat="45.1958606" lon="10.3684901"><ele>36.0</ele><time>2026-05-02T12:40:46.009Z</time></trkpt><trkpt lat="45.195696" lon="10.3685514"><ele>35.666666666666664</ele><time>2026-05-02T12:40:47.01Z</time></trkpt><trkpt lat="45.1955255" lon="10.3686102"><ele>35.33333333333333</ele><time>2026-05-02T12:40:48.009Z</time></trkpt><trkpt lat="45.1953541" lon="10.3686729"><ele>35.0</ele><time>2026-05-02T12:40:49.009Z</time></trkpt><trkpt lat="45.1951781" lon="10.3687344"><ele>35.0</ele><time>2026-05-02T12:40:50.009Z</time></trkpt><trkpt lat="45.1949994" lon="10.3687957"><ele>35.0</ele><time>2026-05-02T12:40:51.01Z</time></trkpt><trkpt lat="45.1948236" lon="10.3688582"><ele>35.0</ele><time>2026-05-02T12:40:52.01Z</time></trkpt><trkpt lat="45.1946447" lon="10.3689217"><ele>34.666666666666664</ele><time>2026-05-02T12:40:53.011Z</time></trkpt><trkpt lat="45.1944692" lon="10.3689838"><ele>34.333333333333336</ele><time>2026-05-02T12:40:54.01Z</time></trkpt><trkpt lat="45.1943023" lon="10.3690461"><ele>34.0</ele><time>2026-05-02T12:40:55.009Z</time></trkpt><trkpt lat="45.1941308" lon="10.3691082"><ele>33.333333333333336</ele><time>2026-05-02T12:40:56.009Z</time></trkpt><trkpt lat="45.1939598" lon="10.3691713"><ele>32.666666666666664</ele><time>2026-05-02T12:40:57.01Z</time></trkpt><trkpt lat="45.1937882" lon="10.3692378"><ele>32.0</ele><time>2026-05-02T12:40:58.009Z</time></trkpt><trkpt lat="45.1936153" lon="10.3693052"><ele>32.0</ele><time>2026-05-02T12:40:59.009Z</time></trkpt><trkpt lat="45.1934418" lon="10.3693763"><ele>32.0</ele><time>2026-05-02T12:41:00.009Z</time></trkpt><trkpt lat="45.1932697" lon="10.3694545"><ele>32.0</ele><time>2026-05-02T12:41:01.01Z</time></trkpt><trkpt lat="45.193097" lon="10.3695373"><ele>33.666666666666664</ele><time>2026-05-02T12:41:02.009Z</time></trkpt><trkpt lat="45.1929234" lon="10.3696194"><ele>35.333333333333336</ele><time>2026-05-02T12:41:03.01Z</time></trkpt><trkpt lat="45.1927489" lon="10.3696985"><ele>37.0</ele><time>2026-05-02T12:41:04.01Z</time></trkpt><trkpt lat="45.1925718" lon="10.3697747"><ele>37.333333333333336</ele><time>2026-05-02T12:41:05.009Z</time></trkpt><trkpt lat="45.1923938" lon="10.3698522"><ele>37.666666666666664</ele><time>2026-05-02T12:41:06.01Z</time></trkpt><trkpt lat="45.1922159" lon="10.3699345"><ele>38.0</ele><time>2026-05-02T12:41:07.01Z</time></trkpt><trkpt lat="45.1920369" lon="10.3700177"><ele>38.0</ele><time>2026-05-02T12:41:08.01Z</time></trkpt><trkpt lat="45.1918566" lon="10.3700991"><ele>38.0</ele><time>2026-05-02T12:41:09.009Z</time></trkpt><trkpt lat="45.1916762" lon="10.3701827"><ele>38.0</ele><time>2026-05-02T12:41:10.009Z</time></trkpt><trkpt lat="45.1914964" lon="10.3702686"><ele>37.666666666666664</ele><time>2026-05-02T12:41:11.01Z</time></trkpt><trkpt lat="45.1913152" lon="10.370354"><ele>37.333333333333336</ele><time>2026-05-02T12:41:12.009Z</time></trkpt><trkpt lat="45.1911329" lon="10.3704406"><ele>37.0</ele><time>2026-05-02T12:41:13.009Z</time></trkpt><trkpt lat="45.1909483" lon="10.3705233"><ele>36.66666666666667</ele><time>2026-05-02T12:41:14.009Z</time></trkpt><trkpt lat="45.190761" lon="10.3705976"><ele>36.333333333333336</ele><time>2026-05-02T12:41:15.009Z</time></trkpt><trkpt lat="45.1905731" lon="10.3706693"><ele>36.0</ele><time>2026-05-02T12:41:16.01Z</time></trkpt><trkpt lat="45.1903856" lon="10.3707387"><ele>36.0</ele><time>2026-05-02T12:41:17.01Z</time></trkpt><trkpt lat="45.1902007" lon="10.3708034"><ele>36.0</ele><time>2026-05-02T12:41:18.009Z</time></trkpt><trkpt lat="45.1900155" lon="10.3708575"><ele>36.0</ele><time>2026-05-02T12:41:19.009Z</time></trkpt><trkpt lat="45.1898271" lon="10.3709017"><ele>35.666666666666664</ele><time>2026-05-02T12:41:20.01Z</time></trkpt><trkpt lat="45.1896376" lon="10.3709403"><ele>35.33333333333333</ele><time>2026-05-02T12:41:21.01Z</time></trkpt><trkpt lat="45.1894475" lon="10.3709777"><ele>35.0</ele><time>2026-05-02T12:41:22.009Z</time></trkpt><trkpt lat="45.1892576" lon="10.3710094"><ele>35.0</ele><time>2026-05-02T12:41:23.009Z</time></trkpt><trkpt lat="45.1890702" lon="10.3710414"><ele>35.0</ele><time>2026-05-02T12:41:24.009Z</time></trkpt><trkpt lat="45.1888838" lon="10.3710756"><ele>35.0</ele><time>2026-05-02T12:41:25.011Z</time></trkpt><trkpt lat="45.188697" lon="10.3711062"><ele>35.33333333333333</ele><time>2026-05-02T12:41:26.009Z</time></trkpt><trkpt lat="45.1885093" lon="10.3711316"><ele>35.666666666666664</ele><time>2026-05-02T12:41:27.01Z</time></trkpt><trkpt lat="45.1883224" lon="10.3711614"><ele>36.0</ele><time>2026-05-02T12:41:28.009Z</time></trkpt><trkpt lat="45.1881358" lon="10.3711943"><ele>36.0</ele><time>2026-05-02T12:41:29.009Z</time></trkpt><trkpt lat="45.1879484" lon="10.3712221"><ele>36.0</ele><time>2026-05-02T12:41:30.009Z</time></trkpt><trkpt lat="45.187761" lon="10.3712493"><ele>36.0</ele><time>2026-05-02T12:41:31.01Z</time></trkpt><trkpt lat="45.1875721" lon="10.3712796"><ele>36.0</ele><time>2026-05-02T12:41:32.009Z</time></trkpt><trkpt lat="45.1873823" lon="10.3713088"><ele>36.0</ele><time>2026-05-02T12:41:33.01Z</time></trkpt><trkpt lat="45.1871918" lon="10.3713374"><ele>36.0</ele><time>2026-05-02T12:41:34.01Z</time></trkpt><trkpt lat="45.1870008" lon="10.3713639"><ele>36.0</ele><time>2026-05-02T12:41:35.009Z</time></trkpt><trkpt lat="45.1868089" lon="10.3713929"><ele>36.0</ele><time>2026-05-02T12:41:36.01Z</time></trkpt><trkpt lat="45.1866169" lon="10.3714257"><ele>36.0</ele><time>2026-05-02T12:41:37.009Z</time></trkpt><trkpt lat="45.1864246" lon="10.3714555"><ele>36.0</ele><time>2026-05-02T12:41:38.009Z</time></trkpt><trkpt lat="45.1862323" lon="10.371485"><ele>36.0</ele><time>2026-05-02T12:41:39.01Z</time></trkpt><trkpt lat="45.1860395" lon="10.3715169"><ele>36.0</ele><time>2026-05-02T12:41:40.01Z</time></trkpt><trkpt lat="45.1858454" lon="10.3715465"><ele>35.333333333333336</ele><time>2026-05-02T12:41:41.01Z</time></trkpt><trkpt lat="45.1856502" lon="10.3715751"><ele>34.66666666666667</ele><time>2026-05-02T12:41:42.009Z</time></trkpt><trkpt lat="45.1854553" lon="10.3716052"><ele>34.0</ele><time>2026-05-02T12:41:43.009Z</time></trkpt><trkpt lat="45.1852635" lon="10.3716339"><ele>34.0</ele><time>2026-05-02T12:41:44.01Z</time></trkpt><trkpt lat="45.1850765" lon="10.3716646"><ele>34.0</ele><time>2026-05-02T12:41:45.01Z</time></trkpt><trkpt lat="45.1848933" lon="10.371693"><ele>34.0</ele><time>2026-05-02T12:41:46.009Z</time></trkpt><trkpt lat="45.1847145" lon="10.3717171"><ele>33.66666666666667</ele><time>2026-05-02T12:41:47.009Z</time></trkpt><trkpt lat="45.1845397" lon="10.3717301"><ele>33.333333333333336</ele><time>2026-05-02T12:41:48.01Z</time></trkpt><trkpt lat="45.1843675" lon="10.3717398"><ele>33.0</ele><time>2026-05-02T12:41:49.01Z</time></trkpt><trkpt lat="45.1842018" lon="10.3717517"><ele>33.0</ele><time>2026-05-02T12:41:50.01Z</time></trkpt><trkpt lat="45.1840464" lon="10.3717641"><ele>33.0</ele><time>2026-05-02T12:41:51.009Z</time></trkpt><trkpt lat="45.1839017" lon="10.3717711"><ele>33.0</ele><time>2026-05-02T12:41:52.009Z</time></trkpt><trkpt lat="45.1837719" lon="10.371776"><ele>33.0</ele><time>2026-05-02T12:41:53.009Z</time></trkpt><trkpt lat="45.1836583" lon="10.3717786"><ele>32.8</ele><time>2026-05-02T12:41:54.009Z</time></trkpt><trkpt lat="45.1835547" lon="10.3717718"><ele>32.599999999999994</ele><time>2026-05-02T12:41:55.011Z</time></trkpt><trkpt lat="45.1834569" lon="10.3717416"><ele>32.400000000000006</ele><time>2026-05-02T12:41:56.01Z</time></trkpt><trkpt lat="45.1833686" lon="10.3716799"><ele>32.2</ele><time>2026-05-02T12:41:57.009Z</time></trkpt><trkpt lat="45.1832904" lon="10.3715949"><ele>32.0</ele><time>2026-05-02T12:41:58.01Z</time></trkpt><trkpt lat="45.1832111" lon="10.3715243"><ele>32.166666666666664</ele><time>2026-05-02T12:41:59.01Z</time></trkpt><trkpt lat="45.1831273" lon="10.3715102"><ele>32.33333333333333</ele><time>2026-05-02T12:42:00.009Z</time></trkpt><trkpt lat="45.1830483" lon="10.3715397"><ele>32.5</ele><time>2026-05-02T12:42:01.009Z</time></trkpt><trkpt lat="45.1829805" lon="10.3716026"><ele>32.666666666666664</ele><time>2026-05-02T12:42:02.009Z</time></trkpt><trkpt lat="45.1829189" lon="10.3716902"><ele>32.833333333333336</ele><time>2026-05-02T12:42:03.01Z</time></trkpt><trkpt lat="45.182852" lon="10.3717898"><ele>33.0</ele><time>2026-05-02T12:42:04.009Z</time></trkpt><trkpt lat="45.1827639" lon="10.37188"><ele>33.0</ele><time>2026-05-02T12:42:05.009Z</time></trkpt><trkpt lat="45.1826537" lon="10.3719484"><ele>33.0</ele><time>2026-05-02T12:42:06.009Z</time></trkpt><trkpt lat="45.1825274" lon="10.371999"><ele>33.0</ele><time>2026-05-02T12:42:07.009Z</time></trkpt><trkpt lat="45.1823904" lon="10.372043"><ele>33.0</ele><time>2026-05-02T12:42:08.009Z</time></trkpt><trkpt lat="45.1822453" lon="10.3720892"><ele>32.666666666666664</ele><time>2026-05-02T12:42:09.009Z</time></trkpt><trkpt lat="45.1820919" lon="10.37213"><ele>32.33333333333333</ele><time>2026-05-02T12:42:10.01Z</time></trkpt><trkpt lat="45.1819309" lon="10.3721605"><ele>32.0</ele><time>2026-05-02T12:42:11.01Z</time></trkpt><trkpt lat="45.181764" lon="10.3721886"><ele>32.33333333333333</ele><time>2026-05-02T12:42:12.01Z</time></trkpt><trkpt lat="45.1815918" lon="10.37222"><ele>32.666666666666664</ele><time>2026-05-02T12:42:13.009Z</time></trkpt><trkpt lat="45.1814134" lon="10.3722512"><ele>33.0</ele><time>2026-05-02T12:42:14.011Z</time></trkpt><trkpt lat="45.1812302" lon="10.3722793"><ele>33.0</ele><time>2026-05-02T12:42:15.009Z</time></trkpt><trkpt lat="45.1810435" lon="10.3723106"><ele>33.0</ele><time>2026-05-02T12:42:16.01Z</time></trkpt><trkpt lat="45.1808531" lon="10.3723399"><ele>33.0</ele><time>2026-05-02T12:42:17.009Z</time></trkpt><trkpt lat="45.1806597" lon="10.3723664"><ele>33.333333333333336</ele><time>2026-05-02T12:42:18.009Z</time></trkpt><trkpt lat="45.1804665" lon="10.3723963"><ele>33.66666666666667</ele><time>2026-05-02T12:42:19.009Z</time></trkpt><trkpt lat="45.1802768" lon="10.3724283"><ele>34.0</ele><time>2026-05-02T12:42:20.009Z</time></trkpt><trkpt lat="45.1800871" lon="10.3724587"><ele>34.0</ele><time>2026-05-02T12:42:21.009Z</time></trkpt><trkpt lat="45.1798963" lon="10.3724857"><ele>34.0</ele><time>2026-05-02T12:42:22.01Z</time></trkpt><trkpt lat="45.179704" lon="10.3725138"><ele>34.0</ele><time>2026-05-02T12:42:23.009Z</time></trkpt><trkpt lat="45.1795099" lon="10.3725423"><ele>33.66666666666667</ele><time>2026-05-02T12:42:24.01Z</time></trkpt><trkpt lat="45.1793151" lon="10.3725729"><ele>33.333333333333336</ele><time>2026-05-02T12:42:25.009Z</time></trkpt><trkpt lat="45.1791198" lon="10.3726057"><ele>33.0</ele><time>2026-05-02T12:42:26.011Z</time></trkpt><trkpt lat="45.178925" lon="10.3726363"><ele>32.333333333333336</ele><time>2026-05-02T12:42:27.01Z</time></trkpt><trkpt lat="45.1787294" lon="10.3726623"><ele>31.666666666666668</ele><time>2026-05-02T12:42:28.01Z</time></trkpt><trkpt lat="45.1785339" lon="10.3726913"><ele>31.0</ele><time>2026-05-02T12:42:29.009Z</time></trkpt><trkpt lat="45.1783393" lon="10.3727223"><ele>31.0</ele><time>2026-05-02T12:42:30.01Z</time></trkpt><trkpt lat="45.1781447" lon="10.3727525"><ele>31.0</ele><time>2026-05-02T12:42:31.009Z</time></trkpt><trkpt lat="45.177953" lon="10.3727829"><ele>31.0</ele><time>2026-05-02T12:42:32.009Z</time></trkpt><trkpt lat="45.1777614" lon="10.3728144"><ele>31.0</ele><time>2026-05-02T12:42:33.009Z</time></trkpt><trkpt lat="45.1775707" lon="10.3728477"><ele>31.0</ele><time>2026-05-02T12:42:34.009Z</time></trkpt><trkpt lat="45.1773794" lon="10.3728825"><ele>31.0</ele><time>2026-05-02T12:42:35.009Z</time></trkpt><trkpt lat="45.1771881" lon="10.3729206"><ele>31.666666666666668</ele><time>2026-05-02T12:42:36.009Z</time></trkpt><trkpt lat="45.1769975" lon="10.3729553"><ele>32.333333333333336</ele><time>2026-05-02T12:42:37.009Z</time></trkpt><trkpt lat="45.1768059" lon="10.3729884"><ele>33.0</ele><time>2026-05-02T12:42:38.009Z</time></trkpt><trkpt lat="45.1766126" lon="10.3730203"><ele>32.0</ele><time>2026-05-02T12:42:39.009Z</time></trkpt><trkpt lat="45.1764194" lon="10.3730501"><ele>31.0</ele><time>2026-05-02T12:42:40.01Z</time></trkpt><trkpt lat="45.1762245" lon="10.3730728"><ele>30.0</ele><time>2026-05-02T12:42:41.01Z</time></trkpt><trkpt lat="45.1760288" lon="10.3730923"><ele>30.0</ele><time>2026-05-02T12:42:42.01Z</time></trkpt><trkpt lat="45.1758329" lon="10.3731175"><ele>30.0</ele><time>2026-05-02T12:42:43.01Z</time></trkpt><trkpt lat="45.1756361" lon="10.3731487"><ele>30.0</ele><time>2026-05-02T12:42:44.009Z</time></trkpt><trkpt lat="45.1754395" lon="10.3731779"><ele>30.666666666666664</ele><time>2026-05-02T12:42:45.009Z</time></trkpt><trkpt lat="45.1752434" lon="10.3732029"><ele>31.333333333333332</ele><time>2026-05-02T12:42:46.009Z</time></trkpt><trkpt lat="45.1750448" lon="10.3732269"><ele>32.0</ele><time>2026-05-02T12:42:47.01Z</time></trkpt><trkpt lat="45.1748458" lon="10.3732503"><ele>32.0</ele><time>2026-05-02T12:42:48.009Z</time></trkpt><trkpt lat="45.1746445" lon="10.3732746"><ele>32.0</ele><time>2026-05-02T12:42:49.009Z</time></trkpt><trkpt lat="45.1744408" lon="10.3732998"><ele>32.0</ele><time>2026-05-02T12:42:50.009Z</time></trkpt><trkpt lat="45.1742364" lon="10.373323"><ele>32.0</ele><time>2026-05-02T12:42:51.01Z</time></trkpt><trkpt lat="45.1740284" lon="10.3733455"><ele>32.0</ele><time>2026-05-02T12:42:52.011Z</time></trkpt><trkpt lat="45.1738177" lon="10.3733667"><ele>32.0</ele><time>2026-05-02T12:42:53.009Z</time></trkpt><trkpt lat="45.1736055" lon="10.3733879"><ele>32.33333333333333</ele><time>2026-05-02T12:42:54.009Z</time></trkpt><trkpt lat="45.1733919" lon="10.3734106"><ele>32.666666666666664</ele><time>2026-05-02T12:42:55.009Z</time></trkpt><trkpt lat="45.173176" lon="10.3734339"><ele>33.0</ele><time>2026-05-02T12:42:56.009Z</time></trkpt><trkpt lat="45.1729618" lon="10.3734582"><ele>33.0</ele><time>2026-05-02T12:42:57.01Z</time></trkpt><trkpt lat="45.1727458" lon="10.3734815"><ele>33.0</ele><time>2026-05-02T12:42:58.01Z</time></trkpt><trkpt lat="45.1725315" lon="10.3735047"><ele>33.0</ele><time>2026-05-02T12:42:59.009Z</time></trkpt><trkpt lat="45.1723156" lon="10.3735286"><ele>32.333333333333336</ele><time>2026-05-02T12:43:00.01Z</time></trkpt><trkpt lat="45.1721003" lon="10.3735519"><ele>31.666666666666668</ele><time>2026-05-02T12:43:01.009Z</time></trkpt><trkpt lat="45.1718861" lon="10.3735775"><ele>31.0</ele><time>2026-05-02T12:43:02.01Z</time></trkpt><trkpt lat="45.1716718" lon="10.3736022"><ele>31.0</ele><time>2026-05-02T12:43:03.01Z</time></trkpt><trkpt lat="45.171456" lon="10.3736255"><ele>31.0</ele><time>2026-05-02T12:43:04.01Z</time></trkpt><trkpt lat="45.1712406" lon="10.3736486"><ele>31.0</ele><time>2026-05-02T12:43:05.009Z</time></trkpt><trkpt lat="45.1710258" lon="10.3736748"><ele>31.0</ele><time>2026-05-02T12:43:06.009Z</time></trkpt><trkpt lat="45.1708113" lon="10.3736986"><ele>31.0</ele><time>2026-05-02T12:43:07.009Z</time></trkpt><trkpt lat="45.1705993" lon="10.3737191"><ele>31.0</ele><time>2026-05-02T12:43:08.01Z</time></trkpt><trkpt lat="45.1703872" lon="10.3737395"><ele>31.666666666666668</ele><time>2026-05-02T12:43:09.01Z</time></trkpt><trkpt lat="45.1701739" lon="10.3737642"><ele>32.333333333333336</ele><time>2026-05-02T12:43:10.01Z</time></trkpt><trkpt lat="45.1699607" lon="10.3737878"><ele>33.0</ele><time>2026-05-02T12:43:11.01Z</time></trkpt><trkpt lat="45.1697458" lon="10.3738074"><ele>33.0</ele><time>2026-05-02T12:43:12.009Z</time></trkpt><trkpt lat="45.1695329" lon="10.3738287"><ele>33.0</ele><time>2026-05-02T12:43:13.009Z</time></trkpt><trkpt lat="45.1693199" lon="10.3738545"><ele>33.0</ele><time>2026-05-02T12:43:14.009Z</time></trkpt><trkpt lat="45.1691094" lon="10.3738803"><ele>32.333333333333336</ele><time>2026-05-02T12:43:15.01Z</time></trkpt><trkpt lat="45.1689014" lon="10.3739073"><ele>31.666666666666668</ele><time>2026-05-02T12:43:16.009Z</time></trkpt><trkpt lat="45.1686975" lon="10.3739418"><ele>31.0</ele><time>2026-05-02T12:43:17.01Z</time></trkpt><trkpt lat="45.1684991" lon="10.3739915"><ele>31.0</ele><time>2026-05-02T12:43:18.01Z</time></trkpt><trkpt lat="45.1683037" lon="10.3740549"><ele>31.0</ele><time>2026-05-02T12:43:19.009Z</time></trkpt><trkpt lat="45.1681102" lon="10.3741225"><ele>31.0</ele><time>2026-05-02T12:43:20.009Z</time></trkpt><trkpt lat="45.1679176" lon="10.3741886"><ele>31.666666666666668</ele><time>2026-05-02T12:43:21.01Z</time></trkpt><trkpt lat="45.1677238" lon="10.3742562"><ele>32.333333333333336</ele><time>2026-05-02T12:43:22.011Z</time></trkpt><trkpt lat="45.1675301" lon="10.3743244"><ele>33.0</ele><time>2026-05-02T12:43:23.011Z</time></trkpt><trkpt lat="45.1673345" lon="10.3743885"><ele>33.0</ele><time>2026-05-02T12:43:24.009Z</time></trkpt><trkpt lat="45.1671377" lon="10.3744487"><ele>33.0</ele><time>2026-05-02T12:43:25.011Z</time></trkpt><trkpt lat="45.1669388" lon="10.3745024"><ele>33.0</ele><time>2026-05-02T12:43:26.009Z</time></trkpt><trkpt lat="45.1667392" lon="10.3745504"><ele>33.0</ele><time>2026-05-02T12:43:27.01Z</time></trkpt><trkpt lat="45.1665379" lon="10.3745898"><ele>33.0</ele><time>2026-05-02T12:43:28.009Z</time></trkpt><trkpt lat="45.1663367" lon="10.3746259"><ele>33.0</ele><time>2026-05-02T12:43:29.01Z</time></trkpt><trkpt lat="45.1661356" lon="10.3746655"><ele>33.0</ele><time>2026-05-02T12:43:30.01Z</time></trkpt><trkpt lat="45.1659342" lon="10.374708"><ele>33.0</ele><time>2026-05-02T12:43:31.01Z</time></trkpt><trkpt lat="45.1657323" lon="10.374747"><ele>33.0</ele><time>2026-05-02T12:43:32.009Z</time></trkpt><trkpt lat="45.1655303" lon="10.3747888"><ele>33.0</ele><time>2026-05-02T12:43:33.009Z</time></trkpt><trkpt lat="45.1653275" lon="10.3748281"><ele>33.0</ele><time>2026-05-02T12:43:34.009Z</time></trkpt><trkpt lat="45.1651232" lon="10.3748672"><ele>33.0</ele><time>2026-05-02T12:43:35.009Z</time></trkpt><trkpt lat="45.1649174" lon="10.3749034"><ele>33.333333333333336</ele><time>2026-05-02T12:43:36.01Z</time></trkpt><trkpt lat="45.1647118" lon="10.3749339"><ele>33.66666666666667</ele><time>2026-05-02T12:43:37.009Z</time></trkpt><trkpt lat="45.164506" lon="10.3749587"><ele>34.0</ele><time>2026-05-02T12:43:38.01Z</time></trkpt><trkpt lat="45.1643" lon="10.3749732"><ele>34.0</ele><time>2026-05-02T12:43:39.01Z</time></trkpt><trkpt lat="45.164094" lon="10.3749812"><ele>34.0</ele><time>2026-05-02T12:43:40.009Z</time></trkpt><trkpt lat="45.163887" lon="10.3749862"><ele>34.0</ele><time>2026-05-02T12:43:41.01Z</time></trkpt><trkpt lat="45.1636789" lon="10.374989"><ele>33.66666666666667</ele><time>2026-05-02T12:43:42.01Z</time></trkpt><trkpt lat="45.1634694" lon="10.3749947"><ele>33.333333333333336</ele><time>2026-05-02T12:43:43.01Z</time></trkpt><trkpt lat="45.1632605" lon="10.3750024"><ele>33.0</ele><time>2026-05-02T12:43:44.009Z</time></trkpt><trkpt lat="45.1630514" lon="10.3750084"><ele>31.666666666666664</ele><time>2026-05-02T12:43:45.01Z</time></trkpt><trkpt lat="45.1628412" lon="10.3750099"><ele>30.333333333333332</ele><time>2026-05-02T12:43:46.009Z</time></trkpt><trkpt lat="45.1626307" lon="10.3750126"><ele>29.0</ele><time>2026-05-02T12:43:47.01Z</time></trkpt><trkpt lat="45.1624216" lon="10.3750164"><ele>30.0</ele><time>2026-05-02T12:43:48.01Z</time></trkpt><trkpt lat="45.1622113" lon="10.375018"><ele>31.0</ele><time>2026-05-02T12:43:49.009Z</time></trkpt><trkpt lat="45.1620023" lon="10.3750215"><ele>32.0</ele><time>2026-05-02T12:43:50.01Z</time></trkpt><trkpt lat="45.161795" lon="10.3750258"><ele>32.0</ele><time>2026-05-02T12:43:51.01Z</time></trkpt><trkpt lat="45.1615882" lon="10.37503"><ele>32.0</ele><time>2026-05-02T12:43:52.009Z</time></trkpt><trkpt lat="45.1613823" lon="10.3750344"><ele>32.0</ele><time>2026-05-02T12:43:53.009Z</time></trkpt><trkpt lat="45.1611796" lon="10.3750403"><ele>32.0</ele><time>2026-05-02T12:43:54.009Z</time></trkpt><trkpt lat="45.1609786" lon="10.3750458"><ele>32.0</ele><time>2026-05-02T12:43:55.009Z</time></trkpt><trkpt lat="45.1607798" lon="10.3750464"><ele>32.0</ele><time>2026-05-02T12:43:56.009Z</time></trkpt><trkpt lat="45.1605831" lon="10.3750473"><ele>32.0</ele><time>2026-05-02T12:43:57.01Z</time></trkpt><trkpt lat="45.1603897" lon="10.3750494"><ele>32.0</ele><time>2026-05-02T12:43:58.009Z</time></trkpt><trkpt lat="45.160197" lon="10.3750518"><ele>32.0</ele><time>2026-05-02T12:43:59.01Z</time></trkpt><trkpt lat="45.1600055" lon="10.3750525"><ele>31.333333333333332</ele><time>2026-05-02T12:44:00.009Z</time></trkpt><trkpt lat="45.1598152" lon="10.3750593"><ele>30.666666666666664</ele><time>2026-05-02T12:44:01.009Z</time></trkpt><trkpt lat="45.1596257" lon="10.3750782"><ele>30.0</ele><time>2026-05-02T12:44:02.01Z</time></trkpt><trkpt lat="45.1594382" lon="10.3751086"><ele>30.0</ele><time>2026-05-02T12:44:03.01Z</time></trkpt><trkpt lat="45.1592616" lon="10.3751518"><ele>30.0</ele><time>2026-05-02T12:44:04.009Z</time></trkpt><trkpt lat="45.1590961" lon="10.3752022"><ele>30.0</ele><time>2026-05-02T12:44:05.009Z</time></trkpt><trkpt lat="45.1589405" lon="10.3752536"><ele>30.25</ele><time>2026-05-02T12:44:06.01Z</time></trkpt><trkpt lat="45.1587938" lon="10.3753069"><ele>30.5</ele><time>2026-05-02T12:44:07.009Z</time></trkpt><trkpt lat="45.158654" lon="10.375359"><ele>30.75</ele><time>2026-05-02T12:44:08.009Z</time></trkpt><trkpt lat="45.1585157" lon="10.3754072"><ele>31.0</ele><time>2026-05-02T12:44:09.011Z</time></trkpt><trkpt lat="45.1583767" lon="10.3754536"><ele>31.0</ele><time>2026-05-02T12:44:10.01Z</time></trkpt><trkpt lat="45.1582423" lon="10.3754994"><ele>31.0</ele><time>2026-05-02T12:44:11.009Z</time></trkpt><trkpt lat="45.1581136" lon="10.3755415"><ele>31.0</ele><time>2026-05-02T12:44:12.009Z</time></trkpt><trkpt lat="45.1579919" lon="10.375585"><ele>31.0</ele><time>2026-05-02T12:44:13.009Z</time></trkpt><trkpt lat="45.1578762" lon="10.3756256"><ele>30.8</ele><time>2026-05-02T12:44:14.009Z</time></trkpt><trkpt lat="45.1577679" lon="10.3756664"><ele>30.6</ele><time>2026-05-02T12:44:15.009Z</time></trkpt><trkpt lat="45.1576654" lon="10.3757058"><ele>30.4</ele><time>2026-05-02T12:44:16.01Z</time></trkpt><trkpt lat="45.1575663" lon="10.3757413"><ele>30.2</ele><time>2026-05-02T12:44:17.009Z</time></trkpt><trkpt lat="45.157471" lon="10.3757723"><ele>30.0</ele><time>2026-05-02T12:44:18.009Z</time></trkpt><trkpt lat="45.1573737" lon="10.3758023"><ele>30.4</ele><time>2026-05-02T12:44:19.009Z</time></trkpt><trkpt lat="45.1572741" lon="10.3758363"><ele>30.8</ele><time>2026-05-02T12:44:20.009Z</time></trkpt><trkpt lat="45.1571705" lon="10.3758703"><ele>31.200000000000003</ele><time>2026-05-02T12:44:21.011Z</time></trkpt><trkpt lat="45.1570587" lon="10.3759065"><ele>31.6</ele><time>2026-05-02T12:44:22.01Z</time></trkpt><trkpt lat="45.156953" lon="10.3759448"><ele>32.0</ele><time>2026-05-02T12:44:23.009Z</time></trkpt><trkpt lat="45.1568447" lon="10.3759842"><ele>32.0</ele><time>2026-05-02T12:44:24.01Z</time></trkpt><trkpt lat="45.1567334" lon="10.3760248"><ele>32.0</ele><time>2026-05-02T12:44:25.011Z</time></trkpt><trkpt lat="45.1566194" lon="10.3760652"><ele>32.0</ele><time>2026-05-02T12:44:26.009Z</time></trkpt><trkpt lat="45.1565044" lon="10.376107"><ele>32.0</ele><time>2026-05-02T12:44:27.009Z</time></trkpt><trkpt lat="45.1563892" lon="10.376143"><ele>32.0</ele><time>2026-05-02T12:44:28.01Z</time></trkpt><trkpt lat="45.1562755" lon="10.3761792"><ele>32.0</ele><time>2026-05-02T12:44:29.009Z</time></trkpt><trkpt lat="45.1561663" lon="10.3762123"><ele>32.0</ele><time>2026-05-02T12:44:30.009Z</time></trkpt><trkpt lat="45.1560635" lon="10.3762427"><ele>32.0</ele><time>2026-05-02T12:44:31.011Z</time></trkpt><trkpt lat="45.1559729" lon="10.3762776"><ele>32.0</ele><time>2026-05-02T12:44:32.01Z</time></trkpt><trkpt lat="45.1558927" lon="10.3763068"><ele>32.0</ele><time>2026-05-02T12:44:33.01Z</time></trkpt><trkpt lat="45.1558172" lon="10.376332"><ele>31.999999999999996</ele><time>2026-05-02T12:44:34.011Z</time></trkpt><trkpt lat="45.1557453" lon="10.3763517"><ele>32.0</ele><time>2026-05-02T12:44:35.01Z</time></trkpt><trkpt lat="45.1556803" lon="10.3763653"><ele>32.0</ele><time>2026-05-02T12:44:36.009Z</time></trkpt><trkpt lat="45.1556148" lon="10.3763624"><ele>31.999999999999996</ele><time>2026-05-02T12:44:37.009Z</time></trkpt><trkpt lat="45.1555446" lon="10.376335"><ele>32.0</ele><time>2026-05-02T12:44:38.009Z</time></trkpt><trkpt lat="45.1554733" lon="10.3762925"><ele>32.0</ele><time>2026-05-02T12:44:39.01Z</time></trkpt><trkpt lat="45.155396" lon="10.3762558"><ele>31.71428571428571</ele><time>2026-05-02T12:44:40.01Z</time></trkpt><trkpt lat="45.1553206" lon="10.37625"><ele>31.428571428571423</ele><time>2026-05-02T12:44:41.01Z</time></trkpt><trkpt lat="45.1552528" lon="10.376286"><ele>31.142857142857142</ele><time>2026-05-02T12:44:42.009Z</time></trkpt><trkpt lat="45.1551967" lon="10.3763535"><ele>30.857142857142854</ele><time>2026-05-02T12:44:43.009Z</time></trkpt><trkpt lat="45.1551716" lon="10.376442"><ele>30.57142857142857</ele><time>2026-05-02T12:44:44.01Z</time></trkpt><trkpt lat="45.1551804" lon="10.3765309"><ele>30.285714285714285</ele><time>2026-05-02T12:44:45.01Z</time></trkpt><trkpt lat="45.1552222" lon="10.3766156"><ele>30.0</ele><time>2026-05-02T12:44:46.01Z</time></trkpt><trkpt lat="45.1552815" lon="10.3766988"><ele>30.0</ele><time>2026-05-02T12:44:47.01Z</time></trkpt><trkpt lat="45.155348" lon="10.3767907"><ele>30.0</ele><time>2026-05-02T12:44:48.011Z</time></trkpt><trkpt lat="45.1554007" lon="10.3769046"><ele>30.0</ele><time>2026-05-02T12:44:49.011Z</time></trkpt><trkpt lat="45.1554425" lon="10.3770271"><ele>30.0</ele><time>2026-05-02T12:44:50.009Z</time></trkpt><trkpt lat="45.1554754" lon="10.3771482"><ele>30.0</ele><time>2026-05-02T12:44:51.011Z</time></trkpt><trkpt lat="45.1554885" lon="10.3772742"><ele>30.333333333333332</ele><time>2026-05-02T12:44:52.009Z</time></trkpt><trkpt lat="45.1554837" lon="10.3773995"><ele>30.666666666666664</ele><time>2026-05-02T12:44:53.009Z</time></trkpt><trkpt lat="45.155471" lon="10.3775214"><ele>31.0</ele><time>2026-05-02T12:44:54.009Z</time></trkpt><trkpt lat="45.1554579" lon="10.3776177"><ele>31.333333333333332</ele><time>2026-05-02T12:44:55.009Z</time></trkpt><trkpt lat="45.1554176" lon="10.3777472"><ele>31.666666666666664</ele><time>2026-05-02T12:44:57.01Z</time></trkpt><trkpt lat="45.1553562" lon="10.3777834"><ele>32.0</ele><time>2026-05-02T12:44:59.009Z</time></trkpt><trkpt lat="45.1552605" lon="10.3777839"><ele>31.999999999999996</ele><time>2026-05-02T12:45:01.009Z</time></trkpt><trkpt lat="45.1551875" lon="10.3777709"><ele>32.0</ele><time>2026-05-02T12:45:02.009Z</time></trkpt><trkpt lat="45.155106" lon="10.3777642"><ele>32.0</ele><time>2026-05-02T12:45:03.009Z</time></trkpt><trkpt lat="45.1550269" lon="10.3777519"><ele>32.0</ele><time>2026-05-02T12:45:04.01Z</time></trkpt><trkpt lat="45.1549394" lon="10.3777391"><ele>31.999999999999996</ele><time>2026-05-02T12:45:05.009Z</time></trkpt><trkpt lat="45.1548495" lon="10.3777325"><ele>32.0</ele><time>2026-05-02T12:45:06.009Z</time></trkpt><trkpt lat="45.1547623" lon="10.3777245"><ele>31.833333333333332</ele><time>2026-05-02T12:45:07.01Z</time></trkpt><trkpt lat="45.1546748" lon="10.3777182"><ele>31.666666666666664</ele><time>2026-05-02T12:45:08.009Z</time></trkpt><trkpt lat="45.1545954" lon="10.377723"><ele>31.5</ele><time>2026-05-02T12:45:09.009Z</time></trkpt><trkpt lat="45.1545238" lon="10.3777305"><ele>31.333333333333336</ele><time>2026-05-02T12:45:10.009Z</time></trkpt><trkpt lat="45.1544544" lon="10.3777517"><ele>31.166666666666668</ele><time>2026-05-02T12:45:11.01Z</time></trkpt><trkpt lat="45.1543866" lon="10.3777915"><ele>31.0</ele><time>2026-05-02T12:45:12.009Z</time></trkpt><trkpt lat="45.1543166" lon="10.3778493"><ele>31.0</ele><time>2026-05-02T12:45:13.009Z</time></trkpt><trkpt lat="45.1542453" lon="10.3779219"><ele>31.0</ele><time>2026-05-02T12:45:14.01Z</time></trkpt><trkpt lat="45.1541706" lon="10.3779999"><ele>31.0</ele><time>2026-05-02T12:45:15.011Z</time></trkpt><trkpt lat="45.1540958" lon="10.3780845"><ele>31.0</ele><time>2026-05-02T12:45:16.01Z</time></trkpt><trkpt lat="45.1540167" lon="10.3781734"><ele>31.0</ele><time>2026-05-02T12:45:17.009Z</time></trkpt><trkpt lat="45.153935" lon="10.3782666"><ele>30.6</ele><time>2026-05-02T12:45:18.011Z</time></trkpt><trkpt lat="45.1538502" lon="10.3783607"><ele>30.200000000000003</ele><time>2026-05-02T12:45:19.009Z</time></trkpt><trkpt lat="45.1537644" lon="10.3784589"><ele>29.799999999999997</ele><time>2026-05-02T12:45:20.009Z</time></trkpt><trkpt lat="45.1536795" lon="10.3785498"><ele>29.4</ele><time>2026-05-02T12:45:21.009Z</time></trkpt><trkpt lat="45.1535993" lon="10.3786206"><ele>29.0</ele><time>2026-05-02T12:45:22.009Z</time></trkpt><trkpt lat="45.15352" lon="10.3786734"><ele>28.999999999999996</ele><time>2026-05-02T12:45:23.009Z</time></trkpt><trkpt lat="45.1534437" lon="10.3787049"><ele>29.0</ele><time>2026-05-02T12:45:24.009Z</time></trkpt><trkpt lat="45.1533646" lon="10.3787208"><ele>29.0</ele><time>2026-05-02T12:45:25.009Z</time></trkpt><trkpt lat="45.1532852" lon="10.3787266"><ele>29.0</ele><time>2026-05-02T12:45:26.011Z</time></trkpt><trkpt lat="45.1532092" lon="10.3787264"><ele>28.999999999999996</ele><time>2026-05-02T12:45:27.009Z</time></trkpt><trkpt lat="45.1531338" lon="10.378725"><ele>29.0</ele><time>2026-05-02T12:45:28.009Z</time></trkpt><trkpt lat="45.1530631" lon="10.3787151"><ele>29.42857142857143</ele><time>2026-05-02T12:45:29.01Z</time></trkpt><trkpt lat="45.1529913" lon="10.3787102"><ele>29.857142857142858</ele><time>2026-05-02T12:45:30.009Z</time></trkpt><trkpt lat="45.1529246" lon="10.3786965"><ele>30.285714285714285</ele><time>2026-05-02T12:45:31.009Z</time></trkpt><trkpt lat="45.1528568" lon="10.3786856"><ele>30.714285714285715</ele><time>2026-05-02T12:45:32.009Z</time></trkpt><trkpt lat="45.1527851" lon="10.3786739"><ele>31.14285714285714</ele><time>2026-05-02T12:45:33.01Z</time></trkpt><trkpt lat="45.1527088" lon="10.3786675"><ele>31.57142857142857</ele><time>2026-05-02T12:45:34.009Z</time></trkpt><trkpt lat="45.1526333" lon="10.3786656"><ele>32.0</ele><time>2026-05-02T12:45:35.01Z</time></trkpt><trkpt lat="45.1525584" lon="10.3786596"><ele>32.0</ele><time>2026-05-02T12:45:36.01Z</time></trkpt><trkpt lat="45.152484" lon="10.3786608"><ele>31.999999999999996</ele><time>2026-05-02T12:45:37.009Z</time></trkpt><trkpt lat="45.1524058" lon="10.3786618"><ele>32.0</ele><time>2026-05-02T12:45:38.009Z</time></trkpt><trkpt lat="45.1523406" lon="10.3786713"><ele>32.0</ele><time>2026-05-02T12:45:39.01Z</time></trkpt><trkpt lat="45.1522762" lon="10.3786752"><ele>31.999999999999996</ele><time>2026-05-02T12:45:40.01Z</time></trkpt><trkpt lat="45.1522097" lon="10.3786841"><ele>32.0</ele><time>2026-05-02T12:45:41.009Z</time></trkpt><trkpt lat="45.1521152" lon="10.3786761"><ele>32.0</ele><time>2026-05-02T12:45:43.009Z</time></trkpt><trkpt lat="45.152055" lon="10.3786276"><ele>32.166666666666664</ele><time>2026-05-02T12:45:45.009Z</time></trkpt><trkpt lat="45.1520608" lon="10.3785008"><ele>32.33333333333333</ele><time>2026-05-02T12:45:48.01Z</time></trkpt><trkpt lat="45.1520742" lon="10.3783995"><ele>32.5</ele><time>2026-05-02T12:45:50.01Z</time></trkpt><trkpt lat="45.1520927" lon="10.3782639"><ele>32.666666666666664</ele><time>2026-05-02T12:45:52.009Z</time></trkpt><trkpt lat="45.1521102" lon="10.3781298"><ele>32.833333333333336</ele><time>2026-05-02T12:45:54.01Z</time></trkpt><trkpt lat="45.1521492" lon="10.3780525"><ele>33.0</ele><time>2026-05-02T12:45:56.01Z</time></trkpt><trkpt lat="45.1521135" lon="10.3779735"><ele>33.0</ele><time>2026-05-02T12:46:01.01Z</time></trkpt><trkpt lat="45.1520849" lon="10.3781035"><ele>33.0</ele><time>2026-05-02T12:46:04.009Z</time></trkpt><trkpt lat="45.1520693" lon="10.3782542"><ele>33.0</ele><time>2026-05-02T12:46:06.009Z</time></trkpt><trkpt lat="45.1520621" lon="10.3783459"><ele>33.0</ele><time>2026-05-02T12:46:07.011Z</time></trkpt><trkpt lat="45.1520522" lon="10.3784373"><ele>33.0</ele><time>2026-05-02T12:46:08.01Z</time></trkpt><trkpt lat="45.1520385" lon="10.3785697"><ele>33.0</ele><time>2026-05-02T12:46:10.009Z</time></trkpt><trkpt lat="45.152035" lon="10.3786788"><ele>33.0</ele><time>2026-05-02T12:46:13.009Z</time></trkpt><trkpt lat="45.152117" lon="10.3787399"><ele>33.0</ele><time>2026-05-02T12:46:16.009Z</time></trkpt><trkpt lat="45.1522239" lon="10.3787337"><ele>33.0</ele><time>2026-05-02T12:46:18.01Z</time></trkpt><trkpt lat="45.1523322" lon="10.3786644"><ele>33.0</ele><time>2026-05-02T12:46:20.01Z</time></trkpt><trkpt lat="45.1524511" lon="10.3786269"><ele>33.0</ele><time>2026-05-02T12:46:22.01Z</time></trkpt><trkpt lat="45.1525826" lon="10.3786216"><ele>32.8</ele><time>2026-05-02T12:46:24.009Z</time></trkpt><trkpt lat="45.1526955" lon="10.3786353"><ele>32.599999999999994</ele><time>2026-05-02T12:46:26.01Z</time></trkpt><trkpt lat="45.1527908" lon="10.3786772"><ele>32.400000000000006</ele><time>2026-05-02T12:46:28.009Z</time></trkpt><trkpt lat="45.1528713" lon="10.3786947"><ele>32.2</ele><time>2026-05-02T12:46:30.009Z</time></trkpt><trkpt lat="45.152973" lon="10.3787092"><ele>32.0</ele><time>2026-05-02T12:46:32.009Z</time></trkpt><trkpt lat="45.1531068" lon="10.3787223"><ele>32.0</ele><time>2026-05-02T12:46:34.009Z</time></trkpt><trkpt lat="45.1531727" lon="10.3787364"><ele>31.999999999999996</ele><time>2026-05-02T12:46:35.01Z</time></trkpt><trkpt lat="45.1532398" lon="10.3787539"><ele>32.0</ele><time>2026-05-02T12:46:36.01Z</time></trkpt><trkpt lat="45.153303" lon="10.3787546"><ele>32.0</ele><time>2026-05-02T12:46:37.01Z</time></trkpt><trkpt lat="45.1533733" lon="10.3787505"><ele>31.999999999999996</ele><time>2026-05-02T12:46:38.01Z</time></trkpt><trkpt lat="45.1534446" lon="10.3787333"><ele>32.0</ele><time>2026-05-02T12:46:39.01Z</time></trkpt><trkpt lat="45.1535191" lon="10.3786992"><ele>32.0</ele><time>2026-05-02T12:46:40.01Z</time></trkpt><trkpt lat="45.1535934" lon="10.3786471"><ele>31.400000000000002</ele><time>2026-05-02T12:46:41.01Z</time></trkpt><trkpt lat="45.1536679" lon="10.3785774"><ele>30.800000000000004</ele><time>2026-05-02T12:46:42.01Z</time></trkpt><trkpt lat="45.1537444" lon="10.3785017"><ele>30.2</ele><time>2026-05-02T12:46:43.009Z</time></trkpt><trkpt lat="45.1538222" lon="10.37842"><ele>29.6</ele><time>2026-05-02T12:46:44.01Z</time></trkpt><trkpt lat="45.1539013" lon="10.3783353"><ele>29.0</ele><time>2026-05-02T12:46:45.009Z</time></trkpt><trkpt lat="45.1539806" lon="10.3782461"><ele>29.2</ele><time>2026-05-02T12:46:46.01Z</time></trkpt><trkpt lat="45.1540594" lon="10.3781516"><ele>29.4</ele><time>2026-05-02T12:46:47.009Z</time></trkpt><trkpt lat="45.1541377" lon="10.3780542"><ele>29.6</ele><time>2026-05-02T12:46:48.009Z</time></trkpt><trkpt lat="45.1542171" lon="10.3779582"><ele>29.8</ele><time>2026-05-02T12:46:49.01Z</time></trkpt><trkpt lat="45.1542915" lon="10.3778766"><ele>30.0</ele><time>2026-05-02T12:46:50.01Z</time></trkpt><trkpt lat="45.1543643" lon="10.377811"><ele>30.166666666666668</ele><time>2026-05-02T12:46:51.011Z</time></trkpt><trkpt lat="45.1544395" lon="10.3777753"><ele>30.333333333333336</ele><time>2026-05-02T12:46:52.01Z</time></trkpt><trkpt lat="45.1545158" lon="10.377759"><ele>30.5</ele><time>2026-05-02T12:46:53.009Z</time></trkpt><trkpt lat="45.1545898" lon="10.3777508"><ele>30.666666666666668</ele><time>2026-05-02T12:46:54.009Z</time></trkpt><trkpt lat="45.1546642" lon="10.3777518"><ele>30.833333333333336</ele><time>2026-05-02T12:46:55.009Z</time></trkpt><trkpt lat="45.1547461" lon="10.3777548"><ele>31.0</ele><time>2026-05-02T12:46:56.009Z</time></trkpt><trkpt lat="45.1548329" lon="10.3777556"><ele>31.166666666666668</ele><time>2026-05-02T12:46:57.01Z</time></trkpt><trkpt lat="45.1549236" lon="10.3777596"><ele>31.333333333333336</ele><time>2026-05-02T12:46:58.011Z</time></trkpt><trkpt lat="45.1550148" lon="10.377768"><ele>31.5</ele><time>2026-05-02T12:46:59.009Z</time></trkpt><trkpt lat="45.1551058" lon="10.3777819"><ele>31.666666666666664</ele><time>2026-05-02T12:47:00.009Z</time></trkpt><trkpt lat="45.1551939" lon="10.377798"><ele>31.833333333333332</ele><time>2026-05-02T12:47:01.009Z</time></trkpt><trkpt lat="45.1552655" lon="10.3778085"><ele>32.0</ele><time>2026-05-02T12:47:02.009Z</time></trkpt><trkpt lat="45.1553791" lon="10.3778244"><ele>32.0</ele><time>2026-05-02T12:47:04.009Z</time></trkpt><trkpt lat="45.1554287" lon="10.3779078"><ele>32.0</ele><time>2026-05-02T12:47:06.01Z</time></trkpt><trkpt lat="45.1554251" lon="10.3780353"><ele>32.0</ele><time>2026-05-02T12:47:08.011Z</time></trkpt><trkpt lat="45.1554114" lon="10.3782006"><ele>32.0</ele><time>2026-05-02T12:47:10.01Z</time></trkpt><trkpt lat="45.1554005" lon="10.3783639"><ele>32.0</ele><time>2026-05-02T12:47:12.009Z</time></trkpt><trkpt lat="45.1553673" lon="10.3784841"><ele>32.6</ele><time>2026-05-02T12:47:14.009Z</time></trkpt><trkpt lat="45.1553845" lon="10.378583"><ele>33.2</ele><time>2026-05-02T12:47:17.009Z</time></trkpt><trkpt lat="45.1554659" lon="10.378529"><ele>33.8</ele><time>2026-05-02T12:47:26.01Z</time></trkpt><trkpt lat="45.1554911" lon="10.3783189"><ele>34.4</ele><time>2026-05-02T12:47:28.01Z</time></trkpt><trkpt lat="45.1555007" lon="10.3781885"><ele>35.0</ele><time>2026-05-02T12:47:29.01Z</time></trkpt><trkpt lat="45.1555091" lon="10.3780484"><ele>34.4</ele><time>2026-05-02T12:47:30.009Z</time></trkpt><trkpt lat="45.1555182" lon="10.3779"><ele>33.8</ele><time>2026-05-02T12:47:31.011Z</time></trkpt><trkpt lat="45.1555268" lon="10.3777468"><ele>33.2</ele><time>2026-05-02T12:47:32.009Z</time></trkpt><trkpt lat="45.1555368" lon="10.3775906"><ele>32.6</ele><time>2026-05-02T12:47:33.01Z</time></trkpt><trkpt lat="45.1555482" lon="10.3774351"><ele>32.0</ele><time>2026-05-02T12:47:34.009Z</time></trkpt><trkpt lat="45.1555612" lon="10.3772821"><ele>31.666666666666664</ele><time>2026-05-02T12:47:35.01Z</time></trkpt><trkpt lat="45.1555712" lon="10.3771369"><ele>31.333333333333332</ele><time>2026-05-02T12:47:36.009Z</time></trkpt><trkpt lat="45.1555795" lon="10.3770166"><ele>31.0</ele><time>2026-05-02T12:47:37.009Z</time></trkpt><trkpt lat="45.1555955" lon="10.3768807"><ele>30.666666666666664</ele><time>2026-05-02T12:47:39.01Z</time></trkpt><trkpt lat="45.1556056" lon="10.3767888"><ele>30.333333333333332</ele><time>2026-05-02T12:47:42.009Z</time></trkpt><trkpt lat="45.155645" lon="10.3766632"><ele>30.0</ele><time>2026-05-02T12:47:44.009Z</time></trkpt><trkpt lat="45.1556911" lon="10.3765823"><ele>30.333333333333332</ele><time>2026-05-02T12:47:45.01Z</time></trkpt><trkpt lat="45.1557484" lon="10.3765003"><ele>30.666666666666664</ele><time>2026-05-02T12:47:46.009Z</time></trkpt><trkpt lat="45.1558157" lon="10.3764273"><ele>31.0</ele><time>2026-05-02T12:47:47.009Z</time></trkpt><trkpt lat="45.1558841" lon="10.3763754"><ele>31.333333333333332</ele><time>2026-05-02T12:47:48.009Z</time></trkpt><trkpt lat="45.1559634" lon="10.3763301"><ele>31.666666666666664</ele><time>2026-05-02T12:47:49.01Z</time></trkpt><trkpt lat="45.1560457" lon="10.3762972"><ele>32.0</ele><time>2026-05-02T12:47:50.009Z</time></trkpt><trkpt lat="45.1561329" lon="10.3762706"><ele>31.999999999999996</ele><time>2026-05-02T12:47:51.009Z</time></trkpt><trkpt lat="45.1562181" lon="10.3762447"><ele>32.0</ele><time>2026-05-02T12:47:52.01Z</time></trkpt><trkpt lat="45.1563049" lon="10.3762221"><ele>32.0</ele><time>2026-05-02T12:47:53.009Z</time></trkpt><trkpt lat="45.1563823" lon="10.3761945"><ele>32.0</ele><time>2026-05-02T12:47:54.009Z</time></trkpt><trkpt lat="45.1564548" lon="10.3761697"><ele>31.999999999999996</ele><time>2026-05-02T12:47:55.009Z</time></trkpt><trkpt lat="45.1565285" lon="10.3761473"><ele>32.0</ele><time>2026-05-02T12:47:56.011Z</time></trkpt><trkpt lat="45.1566027" lon="10.3761242"><ele>31.999999999999996</ele><time>2026-05-02T12:47:57.009Z</time></trkpt><trkpt lat="45.1566775" lon="10.3760968"><ele>32.0</ele><time>2026-05-02T12:47:58.009Z</time></trkpt><trkpt lat="45.1567496" lon="10.3760668"><ele>32.0</ele><time>2026-05-02T12:47:59.01Z</time></trkpt><trkpt lat="45.1568235" lon="10.3760375"><ele>32.0</ele><time>2026-05-02T12:48:00.009Z</time></trkpt><trkpt lat="45.1568985" lon="10.3760066"><ele>31.999999999999996</ele><time>2026-05-02T12:48:01.011Z</time></trkpt><trkpt lat="45.1569738" lon="10.3759725"><ele>32.0</ele><time>2026-05-02T12:48:02.009Z</time></trkpt><trkpt lat="45.1570472" lon="10.3759428"><ele>31.999999999999996</ele><time>2026-05-02T12:48:03.009Z</time></trkpt><trkpt lat="45.1571214" lon="10.3759145"><ele>32.0</ele><time>2026-05-02T12:48:04.01Z</time></trkpt><trkpt lat="45.1571949" lon="10.3758866"><ele>32.0</ele><time>2026-05-02T12:48:05.009Z</time></trkpt><trkpt lat="45.1572668" lon="10.3758578"><ele>32.0</ele><time>2026-05-02T12:48:06.01Z</time></trkpt><trkpt lat="45.157342" lon="10.3758346"><ele>31.999999999999996</ele><time>2026-05-02T12:48:07.009Z</time></trkpt><trkpt lat="45.1574165" lon="10.3758108"><ele>32.0</ele><time>2026-05-02T12:48:08.009Z</time></trkpt><trkpt lat="45.1574912" lon="10.3757876"><ele>31.666666666666664</ele><time>2026-05-02T12:48:09.011Z</time></trkpt><trkpt lat="45.1575608" lon="10.3757708"><ele>31.333333333333332</ele><time>2026-05-02T12:48:10.011Z</time></trkpt><trkpt lat="45.1576745" lon="10.3757409"><ele>31.0</ele><time>2026-05-02T12:48:12.01Z</time></trkpt><trkpt lat="45.1577551" lon="10.3757099"><ele>30.666666666666664</ele><time>2026-05-02T12:48:14.01Z</time></trkpt><trkpt lat="45.157824" lon="10.3756801"><ele>30.333333333333332</ele><time>2026-05-02T12:48:16.009Z</time></trkpt><trkpt lat="45.1578861" lon="10.3756544"><ele>30.0</ele><time>2026-05-02T12:48:18.009Z</time></trkpt><trkpt lat="45.1579564" lon="10.3756412"><ele>30.0</ele><time>2026-05-02T12:48:21.01Z</time></trkpt><trkpt lat="45.1580299" lon="10.3756004"><ele>30.0</ele><time>2026-05-02T12:50:03.008Z</time></trkpt><trkpt lat="45.1581797" lon="10.3755543"><ele>30.0</ele><time>2026-05-02T12:50:05.009Z</time></trkpt><trkpt lat="45.1582697" lon="10.3755276"><ele>30.0</ele><time>2026-05-02T12:50:06.009Z</time></trkpt><trkpt lat="45.158378" lon="10.3754966"><ele>30.0</ele><time>2026-05-02T12:50:07.008Z</time></trkpt><trkpt lat="45.1584997" lon="10.3754581"><ele>30.0</ele><time>2026-05-02T12:50:08.009Z</time></trkpt><trkpt lat="45.1586339" lon="10.3754162"><ele>30.0</ele><time>2026-05-02T12:50:09.009Z</time></trkpt><trkpt lat="45.15877" lon="10.3753729"><ele>30.0</ele><time>2026-05-02T12:50:10.009Z</time></trkpt><trkpt lat="45.1589139" lon="10.3753275"><ele>30.0</ele><time>2026-05-02T12:50:11.008Z</time></trkpt><trkpt lat="45.1590614" lon="10.3752782"><ele>30.0</ele><time>2026-05-02T12:50:12.009Z</time></trkpt><trkpt lat="45.1592174" lon="10.3752287"><ele>30.0</ele><time>2026-05-02T12:50:13.009Z</time></trkpt><trkpt lat="45.1593791" lon="10.3751848"><ele>30.0</ele><time>2026-05-02T12:50:14.008Z</time></trkpt><trkpt lat="45.1595403" lon="10.3751507"><ele>30.0</ele><time>2026-05-02T12:50:15.01Z</time></trkpt><trkpt lat="45.159707" lon="10.3751298"><ele>30.0</ele><time>2026-05-02T12:50:16.009Z</time></trkpt><trkpt lat="45.1598784" lon="10.3751167"><ele>30.0</ele><time>2026-05-02T12:50:17.008Z</time></trkpt><trkpt lat="45.1600537" lon="10.3751071"><ele>30.666666666666664</ele><time>2026-05-02T12:50:18.009Z</time></trkpt><trkpt lat="45.1602319" lon="10.3751036"><ele>31.333333333333332</ele><time>2026-05-02T12:50:19.008Z</time></trkpt><trkpt lat="45.1604147" lon="10.3751032"><ele>32.0</ele><time>2026-05-02T12:50:20.009Z</time></trkpt><trkpt lat="45.1605987" lon="10.3751031"><ele>32.0</ele><time>2026-05-02T12:50:21.008Z</time></trkpt><trkpt lat="45.160781" lon="10.3750988"><ele>32.0</ele><time>2026-05-02T12:50:22.009Z</time></trkpt><trkpt lat="45.1609662" lon="10.3750925"><ele>32.0</ele><time>2026-05-02T12:50:23.008Z</time></trkpt><trkpt lat="45.1611528" lon="10.3750877"><ele>32.0</ele><time>2026-05-02T12:50:24.009Z</time></trkpt><trkpt lat="45.1613361" lon="10.3750807"><ele>32.0</ele><time>2026-05-02T12:50:25.008Z</time></trkpt><trkpt lat="45.1615178" lon="10.375075"><ele>32.0</ele><time>2026-05-02T12:50:26.009Z</time></trkpt><trkpt lat="45.1617025" lon="10.3750704"><ele>32.0</ele><time>2026-05-02T12:50:27.009Z</time></trkpt><trkpt lat="45.1618854" lon="10.3750642"><ele>32.0</ele><time>2026-05-02T12:50:28.008Z</time></trkpt><trkpt lat="45.1620694" lon="10.3750605"><ele>32.0</ele><time>2026-05-02T12:50:29.008Z</time></trkpt><trkpt lat="45.1622529" lon="10.3750585"><ele>31.0</ele><time>2026-05-02T12:50:30.008Z</time></trkpt><trkpt lat="45.1624387" lon="10.3750568"><ele>30.0</ele><time>2026-05-02T12:50:31.009Z</time></trkpt><trkpt lat="45.1626255" lon="10.3750578"><ele>29.0</ele><time>2026-05-02T12:50:32.009Z</time></trkpt><trkpt lat="45.1628152" lon="10.3750554"><ele>29.0</ele><time>2026-05-02T12:50:33.009Z</time></trkpt><trkpt lat="45.1630034" lon="10.3750526"><ele>29.0</ele><time>2026-05-02T12:50:34.009Z</time></trkpt><trkpt lat="45.1631939" lon="10.3750475"><ele>29.0</ele><time>2026-05-02T12:50:35.008Z</time></trkpt><trkpt lat="45.1633838" lon="10.3750439"><ele>30.333333333333332</ele><time>2026-05-02T12:50:36.008Z</time></trkpt><trkpt lat="45.1635764" lon="10.3750444"><ele>31.666666666666664</ele><time>2026-05-02T12:50:37.008Z</time></trkpt><trkpt lat="45.1637716" lon="10.3750424"><ele>33.0</ele><time>2026-05-02T12:50:38.008Z</time></trkpt><trkpt lat="45.1639662" lon="10.3750374"><ele>33.333333333333336</ele><time>2026-05-02T12:50:39.008Z</time></trkpt><trkpt lat="45.164164" lon="10.3750257"><ele>33.66666666666667</ele><time>2026-05-02T12:50:40.008Z</time></trkpt><trkpt lat="45.1643613" lon="10.3750118"><ele>34.0</ele><time>2026-05-02T12:50:41.008Z</time></trkpt><trkpt lat="45.1645593" lon="10.3749927"><ele>34.0</ele><time>2026-05-02T12:50:42.009Z</time></trkpt><trkpt lat="45.1647582" lon="10.3749699"><ele>34.0</ele><time>2026-05-02T12:50:43.009Z</time></trkpt><trkpt lat="45.1649569" lon="10.3749405"><ele>34.0</ele><time>2026-05-02T12:50:44.009Z</time></trkpt><trkpt lat="45.1651538" lon="10.3749075"><ele>33.66666666666667</ele><time>2026-05-02T12:50:45.008Z</time></trkpt><trkpt lat="45.1653521" lon="10.3748701"><ele>33.333333333333336</ele><time>2026-05-02T12:50:46.009Z</time></trkpt><trkpt lat="45.1655538" lon="10.3748297"><ele>33.0</ele><time>2026-05-02T12:50:47.008Z</time></trkpt><trkpt lat="45.1657578" lon="10.3747912"><ele>33.0</ele><time>2026-05-02T12:50:48.009Z</time></trkpt><trkpt lat="45.1659609" lon="10.3747555"><ele>33.0</ele><time>2026-05-02T12:50:49.009Z</time></trkpt><trkpt lat="45.1661657" lon="10.3747181"><ele>33.0</ele><time>2026-05-02T12:50:50.008Z</time></trkpt><trkpt lat="45.1663694" lon="10.3746778"><ele>33.0</ele><time>2026-05-02T12:50:51.008Z</time></trkpt><trkpt lat="45.1665767" lon="10.374637"><ele>33.0</ele><time>2026-05-02T12:50:52.008Z</time></trkpt><trkpt lat="45.1667827" lon="10.3745933"><ele>33.0</ele><time>2026-05-02T12:50:53.009Z</time></trkpt><trkpt lat="45.1669894" lon="10.374544"><ele>33.0</ele><time>2026-05-02T12:50:54.008Z</time></trkpt><trkpt lat="45.1671961" lon="10.3744781"><ele>33.0</ele><time>2026-05-02T12:50:55.008Z</time></trkpt><trkpt lat="45.167402" lon="10.3744044"><ele>33.0</ele><time>2026-05-02T12:50:56.008Z</time></trkpt><trkpt lat="45.1676067" lon="10.3743314"><ele>33.0</ele><time>2026-05-02T12:50:57.009Z</time></trkpt><trkpt lat="45.167813" lon="10.3742622"><ele>33.0</ele><time>2026-05-02T12:50:58.009Z</time></trkpt><trkpt lat="45.1680174" lon="10.3741924"><ele>33.0</ele><time>2026-05-02T12:50:59.009Z</time></trkpt><trkpt lat="45.1682248" lon="10.3741226"><ele>32.333333333333336</ele><time>2026-05-02T12:51:00.009Z</time></trkpt><trkpt lat="45.1684329" lon="10.3740573"><ele>31.666666666666668</ele><time>2026-05-02T12:51:01.009Z</time></trkpt><trkpt lat="45.1686447" lon="10.3739973"><ele>31.0</ele><time>2026-05-02T12:51:02.008Z</time></trkpt><trkpt lat="45.168857" lon="10.3739546"><ele>31.333333333333336</ele><time>2026-05-02T12:51:03.008Z</time></trkpt><trkpt lat="45.1690727" lon="10.3739273"><ele>31.666666666666664</ele><time>2026-05-02T12:51:04.008Z</time></trkpt><trkpt lat="45.1692894" lon="10.3739024"><ele>32.0</ele><time>2026-05-02T12:51:05.008Z</time></trkpt><trkpt lat="45.1695066" lon="10.3738769"><ele>32.33333333333333</ele><time>2026-05-02T12:51:06.008Z</time></trkpt><trkpt lat="45.1697231" lon="10.3738543"><ele>32.666666666666664</ele><time>2026-05-02T12:51:07.009Z</time></trkpt><trkpt lat="45.1699385" lon="10.3738322"><ele>33.0</ele><time>2026-05-02T12:51:08.008Z</time></trkpt><trkpt lat="45.1701543" lon="10.3738072"><ele>33.0</ele><time>2026-05-02T12:51:09.009Z</time></trkpt><trkpt lat="45.1703692" lon="10.3737864"><ele>33.0</ele><time>2026-05-02T12:51:10.009Z</time></trkpt><trkpt lat="45.1705837" lon="10.3737649"><ele>33.0</ele><time>2026-05-02T12:51:11.008Z</time></trkpt><trkpt lat="45.170799" lon="10.3737393"><ele>32.333333333333336</ele><time>2026-05-02T12:51:12.008Z</time></trkpt><trkpt lat="45.1710139" lon="10.3737128"><ele>31.666666666666668</ele><time>2026-05-02T12:51:13.008Z</time></trkpt><trkpt lat="45.1712295" lon="10.3736914"><ele>31.0</ele><time>2026-05-02T12:51:14.008Z</time></trkpt><trkpt lat="45.1714444" lon="10.3736672"><ele>31.0</ele><time>2026-05-02T12:51:15.008Z</time></trkpt><trkpt lat="45.1716604" lon="10.3736426"><ele>31.0</ele><time>2026-05-02T12:51:16.008Z</time></trkpt><trkpt lat="45.1718781" lon="10.373618"><ele>31.0</ele><time>2026-05-02T12:51:17.008Z</time></trkpt><trkpt lat="45.1720933" lon="10.373595"><ele>31.0</ele><time>2026-05-02T12:51:18.008Z</time></trkpt><trkpt lat="45.1723072" lon="10.3735713"><ele>31.0</ele><time>2026-05-02T12:51:19.008Z</time></trkpt><trkpt lat="45.1725217" lon="10.3735477"><ele>31.0</ele><time>2026-05-02T12:51:20.009Z</time></trkpt><trkpt lat="45.1727373" lon="10.3735225"><ele>31.666666666666668</ele><time>2026-05-02T12:51:21.008Z</time></trkpt><trkpt lat="45.1729533" lon="10.3734993"><ele>32.333333333333336</ele><time>2026-05-02T12:51:22.008Z</time></trkpt><trkpt lat="45.1731715" lon="10.3734766"><ele>33.0</ele><time>2026-05-02T12:51:23.008Z</time></trkpt><trkpt lat="45.1733895" lon="10.3734536"><ele>33.333333333333336</ele><time>2026-05-02T12:51:24.008Z</time></trkpt><trkpt lat="45.1736054" lon="10.3734295"><ele>33.66666666666667</ele><time>2026-05-02T12:51:25.008Z</time></trkpt><trkpt lat="45.1738223" lon="10.3734052"><ele>34.0</ele><time>2026-05-02T12:51:26.01Z</time></trkpt><trkpt lat="45.1740382" lon="10.3733819"><ele>33.333333333333336</ele><time>2026-05-02T12:51:27.008Z</time></trkpt><trkpt lat="45.1742571" lon="10.3733616"><ele>32.666666666666664</ele><time>2026-05-02T12:51:28.009Z</time></trkpt><trkpt lat="45.1744774" lon="10.3733428"><ele>32.0</ele><time>2026-05-02T12:51:29.008Z</time></trkpt><trkpt lat="45.1746981" lon="10.37332"><ele>32.33333333333333</ele><time>2026-05-02T12:51:30.008Z</time></trkpt><trkpt lat="45.1749174" lon="10.3732951"><ele>32.666666666666664</ele><time>2026-05-02T12:51:31.009Z</time></trkpt><trkpt lat="45.1751382" lon="10.3732686"><ele>33.0</ele><time>2026-05-02T12:51:32.008Z</time></trkpt><trkpt lat="45.1753598" lon="10.3732381"><ele>33.0</ele><time>2026-05-02T12:51:33.008Z</time></trkpt><trkpt lat="45.1755823" lon="10.3732076"><ele>33.0</ele><time>2026-05-02T12:51:34.009Z</time></trkpt><trkpt lat="45.1758061" lon="10.3731726"><ele>33.0</ele><time>2026-05-02T12:51:35.008Z</time></trkpt><trkpt lat="45.1760316" lon="10.3731364"><ele>31.5</ele><time>2026-05-02T12:51:36.008Z</time></trkpt><trkpt lat="45.1762579" lon="10.3730993"><ele>30.0</ele><time>2026-05-02T12:51:37.008Z</time></trkpt><trkpt lat="45.1764871" lon="10.3730637"><ele>30.5</ele><time>2026-05-02T12:51:38.009Z</time></trkpt><trkpt lat="45.1767133" lon="10.3730282"><ele>31.0</ele><time>2026-05-02T12:51:39.009Z</time></trkpt><trkpt lat="45.1769423" lon="10.3729927"><ele>31.0</ele><time>2026-05-02T12:51:40.008Z</time></trkpt><trkpt lat="45.177171" lon="10.3729586"><ele>31.0</ele><time>2026-05-02T12:51:41.009Z</time></trkpt><trkpt lat="45.1773995" lon="10.3729226"><ele>31.0</ele><time>2026-05-02T12:51:42.008Z</time></trkpt><trkpt lat="45.1776244" lon="10.3728907"><ele>31.0</ele><time>2026-05-02T12:51:43.008Z</time></trkpt><trkpt lat="45.1778426" lon="10.3728567"><ele>31.0</ele><time>2026-05-02T12:51:44.008Z</time></trkpt><trkpt lat="45.1780569" lon="10.3728211"><ele>31.0</ele><time>2026-05-02T12:51:45.008Z</time></trkpt><trkpt lat="45.1782711" lon="10.372788"><ele>31.0</ele><time>2026-05-02T12:51:46.008Z</time></trkpt><trkpt lat="45.1784845" lon="10.3727543"><ele>31.0</ele><time>2026-05-02T12:51:47.009Z</time></trkpt><trkpt lat="45.1786987" lon="10.3727202"><ele>31.0</ele><time>2026-05-02T12:51:48.008Z</time></trkpt><trkpt lat="45.1789145" lon="10.3726876"><ele>31.0</ele><time>2026-05-02T12:51:49.008Z</time></trkpt><trkpt lat="45.1791317" lon="10.3726559"><ele>31.0</ele><time>2026-05-02T12:51:50.008Z</time></trkpt><trkpt lat="45.1793502" lon="10.3726227"><ele>31.666666666666668</ele><time>2026-05-02T12:51:51.008Z</time></trkpt><trkpt lat="45.1795666" lon="10.3725898"><ele>32.333333333333336</ele><time>2026-05-02T12:51:52.009Z</time></trkpt><trkpt lat="45.1797834" lon="10.3725568"><ele>33.0</ele><time>2026-05-02T12:51:53.008Z</time></trkpt><trkpt lat="45.1800014" lon="10.3725217"><ele>33.333333333333336</ele><time>2026-05-02T12:51:54.008Z</time></trkpt><trkpt lat="45.180219" lon="10.372487"><ele>33.66666666666667</ele><time>2026-05-02T12:51:55.009Z</time></trkpt><trkpt lat="45.1804352" lon="10.3724536"><ele>34.0</ele><time>2026-05-02T12:51:56.008Z</time></trkpt><trkpt lat="45.1806542" lon="10.3724239"><ele>33.66666666666667</ele><time>2026-05-02T12:51:57.009Z</time></trkpt><trkpt lat="45.1808708" lon="10.3723882"><ele>33.333333333333336</ele><time>2026-05-02T12:51:58.008Z</time></trkpt><trkpt lat="45.1810862" lon="10.3723513"><ele>33.0</ele><time>2026-05-02T12:51:59.008Z</time></trkpt><trkpt lat="45.1812924" lon="10.3723153"><ele>33.0</ele><time>2026-05-02T12:52:00.008Z</time></trkpt><trkpt lat="45.1814861" lon="10.3722812"><ele>33.0</ele><time>2026-05-02T12:52:01.008Z</time></trkpt><trkpt lat="45.1816719" lon="10.3722486"><ele>33.0</ele><time>2026-05-02T12:52:02.008Z</time></trkpt><trkpt lat="45.1818481" lon="10.372217"><ele>32.666666666666664</ele><time>2026-05-02T12:52:03.008Z</time></trkpt><trkpt lat="45.1820173" lon="10.3721857"><ele>32.33333333333333</ele><time>2026-05-02T12:52:04.009Z</time></trkpt><trkpt lat="45.1821755" lon="10.3721487"><ele>32.0</ele><time>2026-05-02T12:52:05.008Z</time></trkpt><trkpt lat="45.1823239" lon="10.3721098"><ele>32.25</ele><time>2026-05-02T12:52:06.009Z</time></trkpt><trkpt lat="45.1824612" lon="10.3720715"><ele>32.5</ele><time>2026-05-02T12:52:07.009Z</time></trkpt><trkpt lat="45.1825921" lon="10.3720393"><ele>32.75</ele><time>2026-05-02T12:52:08.008Z</time></trkpt><trkpt lat="45.1827136" lon="10.3720135"><ele>33.0</ele><time>2026-05-02T12:52:09.008Z</time></trkpt><trkpt lat="45.1828283" lon="10.3720097"><ele>33.0</ele><time>2026-05-02T12:52:10.009Z</time></trkpt><trkpt lat="45.1829306" lon="10.37204"><ele>33.0</ele><time>2026-05-02T12:52:11.009Z</time></trkpt><trkpt lat="45.1830201" lon="10.3720972"><ele>33.0</ele><time>2026-05-02T12:52:12.009Z</time></trkpt><trkpt lat="45.183112" lon="10.3721308"><ele>33.0</ele><time>2026-05-02T12:52:13.009Z</time></trkpt><trkpt lat="45.1832035" lon="10.3721096"><ele>33.0</ele><time>2026-05-02T12:52:14.009Z</time></trkpt><trkpt lat="45.1832916" lon="10.3720596"><ele>32.75</ele><time>2026-05-02T12:52:15.008Z</time></trkpt><trkpt lat="45.1833808" lon="10.3719848"><ele>32.5</ele><time>2026-05-02T12:52:16.009Z</time></trkpt><trkpt lat="45.183481" lon="10.3719197"><ele>32.25</ele><time>2026-05-02T12:52:17.009Z</time></trkpt><trkpt lat="45.1835962" lon="10.3718725"><ele>32.0</ele><time>2026-05-02T12:52:18.009Z</time></trkpt><trkpt lat="45.1837234" lon="10.3718491"><ele>32.0</ele><time>2026-05-02T12:52:19.009Z</time></trkpt><trkpt lat="45.1838624" lon="10.3718397"><ele>32.0</ele><time>2026-05-02T12:52:20.008Z</time></trkpt><trkpt lat="45.1840022" lon="10.3718263"><ele>32.0</ele><time>2026-05-02T12:52:21.009Z</time></trkpt><trkpt lat="45.1841402" lon="10.3718126"><ele>32.0</ele><time>2026-05-02T12:52:22.009Z</time></trkpt><trkpt lat="45.1842868" lon="10.3718015"><ele>32.33333333333333</ele><time>2026-05-02T12:52:23.008Z</time></trkpt><trkpt lat="45.1844373" lon="10.3717937"><ele>32.666666666666664</ele><time>2026-05-02T12:52:24.008Z</time></trkpt><trkpt lat="45.1845917" lon="10.3717803"><ele>33.0</ele><time>2026-05-02T12:52:25.008Z</time></trkpt><trkpt lat="45.1847499" lon="10.371762"><ele>33.333333333333336</ele><time>2026-05-02T12:52:26.008Z</time></trkpt><trkpt lat="45.1849127" lon="10.3717392"><ele>33.66666666666667</ele><time>2026-05-02T12:52:27.008Z</time></trkpt><trkpt lat="45.1850797" lon="10.3717137"><ele>34.0</ele><time>2026-05-02T12:52:28.008Z</time></trkpt><trkpt lat="45.185251" lon="10.3716888"><ele>34.0</ele><time>2026-05-02T12:52:29.009Z</time></trkpt><trkpt lat="45.1854263" lon="10.3716615"><ele>34.0</ele><time>2026-05-02T12:52:30.008Z</time></trkpt><trkpt lat="45.185605" lon="10.371634"><ele>34.0</ele><time>2026-05-02T12:52:31.009Z</time></trkpt><trkpt lat="45.1857847" lon="10.3716047"><ele>34.66666666666667</ele><time>2026-05-02T12:52:32.008Z</time></trkpt><trkpt lat="45.1859693" lon="10.3715747"><ele>35.333333333333336</ele><time>2026-05-02T12:52:33.009Z</time></trkpt><trkpt lat="45.1861558" lon="10.3715412"><ele>36.0</ele><time>2026-05-02T12:52:34.008Z</time></trkpt><trkpt lat="45.1863458" lon="10.3715123"><ele>36.0</ele><time>2026-05-02T12:52:35.008Z</time></trkpt><trkpt lat="45.1865385" lon="10.3714832"><ele>36.0</ele><time>2026-05-02T12:52:36.009Z</time></trkpt><trkpt lat="45.1867318" lon="10.371455"><ele>36.0</ele><time>2026-05-02T12:52:37.008Z</time></trkpt><trkpt lat="45.1869195" lon="10.3714256"><ele>36.0</ele><time>2026-05-02T12:52:38.008Z</time></trkpt><trkpt lat="45.1871006" lon="10.3713955"><ele>36.0</ele><time>2026-05-02T12:52:39.009Z</time></trkpt><trkpt lat="45.1872842" lon="10.3713638"><ele>36.0</ele><time>2026-05-02T12:52:40.009Z</time></trkpt><trkpt lat="45.1874673" lon="10.3713304"><ele>36.0</ele><time>2026-05-02T12:52:41.009Z</time></trkpt><trkpt lat="45.1876515" lon="10.3713019"><ele>36.0</ele><time>2026-05-02T12:52:42.008Z</time></trkpt><trkpt lat="45.1878361" lon="10.3712712"><ele>36.0</ele><time>2026-05-02T12:52:43.008Z</time></trkpt><trkpt lat="45.188023" lon="10.3712402"><ele>36.0</ele><time>2026-05-02T12:52:44.008Z</time></trkpt><trkpt lat="45.1882089" lon="10.3712119"><ele>36.0</ele><time>2026-05-02T12:52:45.009Z</time></trkpt><trkpt lat="45.1884001" lon="10.3711823"><ele>36.0</ele><time>2026-05-02T12:52:46.009Z</time></trkpt><trkpt lat="45.1885929" lon="10.3711528"><ele>36.0</ele><time>2026-05-02T12:52:47.008Z</time></trkpt><trkpt lat="45.188788" lon="10.3711239"><ele>36.0</ele><time>2026-05-02T12:52:48.009Z</time></trkpt><trkpt lat="45.1889863" lon="10.3710949"><ele>36.0</ele><time>2026-05-02T12:52:49.008Z</time></trkpt><trkpt lat="45.1891876" lon="10.3710638"><ele>35.666666666666664</ele><time>2026-05-02T12:52:50.008Z</time></trkpt><trkpt lat="45.1893921" lon="10.3710316"><ele>35.33333333333333</ele><time>2026-05-02T12:52:51.008Z</time></trkpt><trkpt lat="45.1895959" lon="10.3710001"><ele>35.0</ele><time>2026-05-02T12:52:52.009Z</time></trkpt><trkpt lat="45.1897998" lon="10.3709613"><ele>35.33333333333333</ele><time>2026-05-02T12:52:53.009Z</time></trkpt><trkpt lat="45.1900023" lon="10.3709119"><ele>35.666666666666664</ele><time>2026-05-02T12:52:54.009Z</time></trkpt><trkpt lat="45.1902056" lon="10.3708511"><ele>36.0</ele><time>2026-05-02T12:52:55.009Z</time></trkpt><trkpt lat="45.1904072" lon="10.3707797"><ele>36.0</ele><time>2026-05-02T12:52:56.008Z</time></trkpt><trkpt lat="45.190611" lon="10.3707016"><ele>36.0</ele><time>2026-05-02T12:52:57.009Z</time></trkpt><trkpt lat="45.1908138" lon="10.3706171"><ele>36.0</ele><time>2026-05-02T12:52:58.008Z</time></trkpt><trkpt lat="45.1910203" lon="10.3705287"><ele>36.333333333333336</ele><time>2026-05-02T12:52:59.008Z</time></trkpt><trkpt lat="45.1912229" lon="10.37044"><ele>36.66666666666667</ele><time>2026-05-02T12:53:00.008Z</time></trkpt><trkpt lat="45.1914204" lon="10.3703565"><ele>37.0</ele><time>2026-05-02T12:53:01.008Z</time></trkpt><trkpt lat="45.1916112" lon="10.370268"><ele>37.333333333333336</ele><time>2026-05-02T12:53:02.008Z</time></trkpt><trkpt lat="45.1917983" lon="10.3701812"><ele>37.666666666666664</ele><time>2026-05-02T12:53:03.008Z</time></trkpt><trkpt lat="45.1919834" lon="10.3700989"><ele>38.0</ele><time>2026-05-02T12:53:04.008Z</time></trkpt><trkpt lat="45.1921674" lon="10.3700133"><ele>38.0</ele><time>2026-05-02T12:53:05.009Z</time></trkpt><trkpt lat="45.1923499" lon="10.369931"><ele>38.0</ele><time>2026-05-02T12:53:06.009Z</time></trkpt><trkpt lat="45.1925307" lon="10.3698492"><ele>38.0</ele><time>2026-05-02T12:53:07.009Z</time></trkpt><trkpt lat="45.1927119" lon="10.3697636"><ele>37.666666666666664</ele><time>2026-05-02T12:53:08.009Z</time></trkpt><trkpt lat="45.1928926" lon="10.3696817"><ele>37.333333333333336</ele><time>2026-05-02T12:53:09.008Z</time></trkpt><trkpt lat="45.1930723" lon="10.3695993"><ele>37.0</ele><time>2026-05-02T12:53:10.008Z</time></trkpt><trkpt lat="45.1932539" lon="10.3695149"><ele>35.333333333333336</ele><time>2026-05-02T12:53:11.009Z</time></trkpt><trkpt lat="45.193443" lon="10.3694321"><ele>33.666666666666664</ele><time>2026-05-02T12:53:12.008Z</time></trkpt><trkpt lat="45.1936369" lon="10.3693471"><ele>32.0</ele><time>2026-05-02T12:53:13.008Z</time></trkpt><trkpt lat="45.1938328" lon="10.3692634"><ele>32.666666666666664</ele><time>2026-05-02T12:53:14.009Z</time></trkpt><trkpt lat="45.1940329" lon="10.3691875"><ele>33.333333333333336</ele><time>2026-05-02T12:53:15.009Z</time></trkpt><trkpt lat="45.1942351" lon="10.3691196"><ele>34.0</ele><time>2026-05-02T12:53:16.009Z</time></trkpt><trkpt lat="45.1944352" lon="10.3690449"><ele>34.0</ele><time>2026-05-02T12:53:17.008Z</time></trkpt><trkpt lat="45.194637" lon="10.3689759"><ele>34.0</ele><time>2026-05-02T12:53:18.009Z</time></trkpt><trkpt lat="45.1948379" lon="10.3689063"><ele>34.0</ele><time>2026-05-02T12:53:19.008Z</time></trkpt><trkpt lat="45.1950334" lon="10.3688379"><ele>34.333333333333336</ele><time>2026-05-02T12:53:20.008Z</time></trkpt><trkpt lat="45.1952215" lon="10.368772"><ele>34.666666666666664</ele><time>2026-05-02T12:53:21.009Z</time></trkpt><trkpt lat="45.1954067" lon="10.3687094"><ele>35.0</ele><time>2026-05-02T12:53:22.009Z</time></trkpt><trkpt lat="45.195595" lon="10.3686426"><ele>35.33333333333333</ele><time>2026-05-02T12:53:23.009Z</time></trkpt><trkpt lat="45.1957815" lon="10.3685766"><ele>35.666666666666664</ele><time>2026-05-02T12:53:24.008Z</time></trkpt><trkpt lat="45.195968" lon="10.368507"><ele>36.0</ele><time>2026-05-02T12:53:25.009Z</time></trkpt><trkpt lat="45.1961569" lon="10.3684384"><ele>36.0</ele><time>2026-05-02T12:53:26.009Z</time></trkpt><trkpt lat="45.1963462" lon="10.3683737"><ele>36.0</ele><time>2026-05-02T12:53:27.009Z</time></trkpt><trkpt lat="45.1965299" lon="10.368306"><ele>36.0</ele><time>2026-05-02T12:53:28.009Z</time></trkpt><trkpt lat="45.1967076" lon="10.3682456"><ele>36.333333333333336</ele><time>2026-05-02T12:53:29.008Z</time></trkpt><trkpt lat="45.1968752" lon="10.3681869"><ele>36.66666666666667</ele><time>2026-05-02T12:53:30.008Z</time></trkpt><trkpt lat="45.1970354" lon="10.368125"><ele>37.0</ele><time>2026-05-02T12:53:31.01Z</time></trkpt><trkpt lat="45.1971889" lon="10.3680701"><ele>37.25</ele><time>2026-05-02T12:53:32.009Z</time></trkpt><trkpt lat="45.1973315" lon="10.3680168"><ele>37.5</ele><time>2026-05-02T12:53:33.008Z</time></trkpt><trkpt lat="45.1974661" lon="10.3679757"><ele>37.75</ele><time>2026-05-02T12:53:34.008Z</time></trkpt><trkpt lat="45.1975921" lon="10.3679375"><ele>38.0</ele><time>2026-05-02T12:53:35.009Z</time></trkpt><trkpt lat="45.1977013" lon="10.3679006"><ele>38.0</ele><time>2026-05-02T12:53:36.008Z</time></trkpt><trkpt lat="45.197802" lon="10.3678634"><ele>38.0</ele><time>2026-05-02T12:53:37.008Z</time></trkpt><trkpt lat="45.1978904" lon="10.3678309"><ele>38.0</ele><time>2026-05-02T12:53:38.009Z</time></trkpt><trkpt lat="45.1979654" lon="10.3678053"><ele>38.0</ele><time>2026-05-02T12:53:39.009Z</time></trkpt><trkpt lat="45.1980354" lon="10.3677822"><ele>38.0</ele><time>2026-05-02T12:53:40.009Z</time></trkpt><trkpt lat="45.198145" lon="10.3677481"><ele>38.0</ele><time>2026-05-02T12:53:42.008Z</time></trkpt><trkpt lat="45.1982056" lon="10.3677206"><ele>38.0</ele><time>2026-05-02T12:53:45.009Z</time></trkpt><trkpt lat="45.1983065" lon="10.3676854"><ele>38.0</ele><time>2026-05-02T12:54:07.009Z</time></trkpt><trkpt lat="45.1984287" lon="10.3677375"><ele>38.0</ele><time>2026-05-02T12:54:09.008Z</time></trkpt><trkpt lat="45.1984879" lon="10.367801"><ele>38.0</ele><time>2026-05-02T12:54:10.009Z</time></trkpt><trkpt lat="45.1985371" lon="10.3678936"><ele>38.0</ele><time>2026-05-02T12:54:11.009Z</time></trkpt><trkpt lat="45.1985827" lon="10.3679897"><ele>38.0</ele><time>2026-05-02T12:54:12.01Z</time></trkpt><trkpt lat="45.1986319" lon="10.3680907"><ele>38.0</ele><time>2026-05-02T12:54:13.008Z</time></trkpt><trkpt lat="45.1986869" lon="10.3682"><ele>38.0</ele><time>2026-05-02T12:54:14.008Z</time></trkpt><trkpt lat="45.1987456" lon="10.3683169"><ele>38.0</ele><time>2026-05-02T12:54:15.01Z</time></trkpt><trkpt lat="45.1988075" lon="10.3684384"><ele>38.0</ele><time>2026-05-02T12:54:16.008Z</time></trkpt><trkpt lat="45.1988768" lon="10.3685683"><ele>38.0</ele><time>2026-05-02T12:54:17.008Z</time></trkpt><trkpt lat="45.1989522" lon="10.3687054"><ele>38.0</ele><time>2026-05-02T12:54:18.008Z</time></trkpt><trkpt lat="45.1990244" lon="10.3688482"><ele>38.0</ele><time>2026-05-02T12:54:19.009Z</time></trkpt><trkpt lat="45.1990953" lon="10.3689943"><ele>38.0</ele><time>2026-05-02T12:54:20.009Z</time></trkpt><trkpt lat="45.1991683" lon="10.369146"><ele>38.0</ele><time>2026-05-02T12:54:21.008Z</time></trkpt><trkpt lat="45.1992426" lon="10.3693092"><ele>38.0</ele><time>2026-05-02T12:54:22.008Z</time></trkpt><trkpt lat="45.1993208" lon="10.3694718"><ele>38.0</ele><time>2026-05-02T12:54:23.009Z</time></trkpt><trkpt lat="45.1994007" lon="10.3696432"><ele>38.33333333333333</ele><time>2026-05-02T12:54:24.009Z</time></trkpt><trkpt lat="45.1994784" lon="10.3698258"><ele>38.666666666666664</ele><time>2026-05-02T12:54:25.009Z</time></trkpt><trkpt lat="45.1995606" lon="10.3700084"><ele>39.0</ele><time>2026-05-02T12:54:26.009Z</time></trkpt><trkpt lat="45.1996464" lon="10.3701963"><ele>39.0</ele><time>2026-05-02T12:54:27.008Z</time></trkpt><trkpt lat="45.1997318" lon="10.3703865"><ele>39.0</ele><time>2026-05-02T12:54:28.008Z</time></trkpt><trkpt lat="45.1998184" lon="10.3705758"><ele>39.0</ele><time>2026-05-02T12:54:29.008Z</time></trkpt><trkpt lat="45.1999052" lon="10.3707692"><ele>38.333333333333336</ele><time>2026-05-02T12:54:30.008Z</time></trkpt><trkpt lat="45.1999912" lon="10.3709681"><ele>37.66666666666667</ele><time>2026-05-02T12:54:31.008Z</time></trkpt><trkpt lat="45.2000824" lon="10.3711698"><ele>37.0</ele><time>2026-05-02T12:54:32.008Z</time></trkpt><trkpt lat="45.200173" lon="10.3713736"><ele>36.66666666666667</ele><time>2026-05-02T12:54:33.008Z</time></trkpt><trkpt lat="45.2002687" lon="10.3715782"><ele>36.333333333333336</ele><time>2026-05-02T12:54:34.009Z</time></trkpt><trkpt lat="45.2003672" lon="10.3717811"><ele>36.0</ele><time>2026-05-02T12:54:35.009Z</time></trkpt><trkpt lat="45.200472" lon="10.3719817"><ele>36.0</ele><time>2026-05-02T12:54:36.008Z</time></trkpt><trkpt lat="45.200581" lon="10.372181"><ele>36.0</ele><time>2026-05-02T12:54:37.008Z</time></trkpt><trkpt lat="45.2006894" lon="10.3723745"><ele>36.0</ele><time>2026-05-02T12:54:38.008Z</time></trkpt><trkpt lat="45.2007987" lon="10.3725666"><ele>36.0</ele><time>2026-05-02T12:54:39.008Z</time></trkpt><trkpt lat="45.2009085" lon="10.3727642"><ele>36.0</ele><time>2026-05-02T12:54:40.008Z</time></trkpt><trkpt lat="45.2010149" lon="10.3729638"><ele>36.0</ele><time>2026-05-02T12:54:41.009Z</time></trkpt><trkpt lat="45.2011256" lon="10.373162"><ele>36.333333333333336</ele><time>2026-05-02T12:54:42.008Z</time></trkpt><trkpt lat="45.2012377" lon="10.3733642"><ele>36.66666666666667</ele><time>2026-05-02T12:54:43.008Z</time></trkpt><trkpt lat="45.201352" lon="10.3735684"><ele>37.0</ele><time>2026-05-02T12:54:44.008Z</time></trkpt><trkpt lat="45.2014674" lon="10.3737785"><ele>37.0</ele><time>2026-05-02T12:54:45.009Z</time></trkpt><trkpt lat="45.2015808" lon="10.3739861"><ele>37.0</ele><time>2026-05-02T12:54:46.009Z</time></trkpt><trkpt lat="45.2016939" lon="10.374194"><ele>37.0</ele><time>2026-05-02T12:54:47.008Z</time></trkpt><trkpt lat="45.201808" lon="10.3744042"><ele>37.0</ele><time>2026-05-02T12:54:48.008Z</time></trkpt><trkpt lat="45.2019237" lon="10.3746153"><ele>37.0</ele><time>2026-05-02T12:54:49.008Z</time></trkpt><trkpt lat="45.2020399" lon="10.3748263"><ele>37.0</ele><time>2026-05-02T12:54:50.008Z</time></trkpt><trkpt lat="45.2021569" lon="10.375041"><ele>37.0</ele><time>2026-05-02T12:54:51.008Z</time></trkpt><trkpt lat="45.2022737" lon="10.3752579"><ele>37.0</ele><time>2026-05-02T12:54:52.009Z</time></trkpt><trkpt lat="45.2023908" lon="10.3754803"><ele>37.0</ele><time>2026-05-02T12:54:53.009Z</time></trkpt><trkpt lat="45.2025044" lon="10.3757031"><ele>36.66666666666667</ele><time>2026-05-02T12:54:54.009Z</time></trkpt><trkpt lat="45.2026187" lon="10.3759273"><ele>36.333333333333336</ele><time>2026-05-02T12:54:55.008Z</time></trkpt><trkpt lat="45.2027342" lon="10.3761554"><ele>36.0</ele><time>2026-05-02T12:54:56.009Z</time></trkpt><trkpt lat="45.2028477" lon="10.376384"><ele>36.0</ele><time>2026-05-02T12:54:57.008Z</time></trkpt><trkpt lat="45.202965" lon="10.376617"><ele>36.0</ele><time>2026-05-02T12:54:58.008Z</time></trkpt><trkpt lat="45.2030828" lon="10.3768496"><ele>36.0</ele><time>2026-05-02T12:54:59.008Z</time></trkpt><trkpt lat="45.2031993" lon="10.377077"><ele>37.0</ele><time>2026-05-02T12:55:00.009Z</time></trkpt><trkpt lat="45.203316" lon="10.3773058"><ele>38.0</ele><time>2026-05-02T12:55:01.008Z</time></trkpt><trkpt lat="45.2034328" lon="10.377538"><ele>39.0</ele><time>2026-05-02T12:55:02.008Z</time></trkpt><trkpt lat="45.2035491" lon="10.3777711"><ele>39.0</ele><time>2026-05-02T12:55:03.007Z</time></trkpt><trkpt lat="45.2036659" lon="10.3780078"><ele>39.0</ele><time>2026-05-02T12:55:04.008Z</time></trkpt><trkpt lat="45.2037845" lon="10.3782427"><ele>39.0</ele><time>2026-05-02T12:55:05.007Z</time></trkpt><trkpt lat="45.2039063" lon="10.3784789"><ele>38.0</ele><time>2026-05-02T12:55:06.008Z</time></trkpt><trkpt lat="45.2040274" lon="10.3787167"><ele>37.0</ele><time>2026-05-02T12:55:07.007Z</time></trkpt><trkpt lat="45.2041478" lon="10.3789536"><ele>36.0</ele><time>2026-05-02T12:55:08.008Z</time></trkpt><trkpt lat="45.2042664" lon="10.3791891"><ele>36.0</ele><time>2026-05-02T12:55:09.008Z</time></trkpt><trkpt lat="45.2043855" lon="10.3794262"><ele>36.0</ele><time>2026-05-02T12:55:10.007Z</time></trkpt><trkpt lat="45.2045036" lon="10.3796634"><ele>36.0</ele><time>2026-05-02T12:55:11.008Z</time></trkpt><trkpt lat="45.2046201" lon="10.3799018"><ele>36.0</ele><time>2026-05-02T12:55:12.008Z</time></trkpt><trkpt lat="45.2047376" lon="10.3801392"><ele>36.0</ele><time>2026-05-02T12:55:13.007Z</time></trkpt><trkpt lat="45.204857" lon="10.3803776"><ele>36.0</ele><time>2026-05-02T12:55:14.008Z</time></trkpt><trkpt lat="45.2049763" lon="10.3806134"><ele>36.333333333333336</ele><time>2026-05-02T12:55:15.007Z</time></trkpt><trkpt lat="45.2050968" lon="10.3808487"><ele>36.66666666666667</ele><time>2026-05-02T12:55:16.007Z</time></trkpt><trkpt lat="45.2052196" lon="10.3810872"><ele>37.0</ele><time>2026-05-02T12:55:17.007Z</time></trkpt><trkpt lat="45.2053388" lon="10.3813283"><ele>37.0</ele><time>2026-05-02T12:55:18.008Z</time></trkpt><trkpt lat="45.2054609" lon="10.3815709"><ele>37.0</ele><time>2026-05-02T12:55:19.008Z</time></trkpt><trkpt lat="45.2055842" lon="10.3818164"><ele>37.0</ele><time>2026-05-02T12:55:20.007Z</time></trkpt><trkpt lat="45.2057093" lon="10.3820623"><ele>36.66666666666667</ele><time>2026-05-02T12:55:21.008Z</time></trkpt><trkpt lat="45.2058341" lon="10.38231"><ele>36.333333333333336</ele><time>2026-05-02T12:55:22.007Z</time></trkpt><trkpt lat="45.2059618" lon="10.3825586"><ele>36.0</ele><time>2026-05-02T12:55:23.007Z</time></trkpt><trkpt lat="45.2060917" lon="10.382806"><ele>36.0</ele><time>2026-05-02T12:55:24.007Z</time></trkpt><trkpt lat="45.2062205" lon="10.3830576"><ele>36.0</ele><time>2026-05-02T12:55:25.008Z</time></trkpt><trkpt lat="45.2063496" lon="10.3833105"><ele>36.0</ele><time>2026-05-02T12:55:26.007Z</time></trkpt><trkpt lat="45.2064777" lon="10.3835647"><ele>36.0</ele><time>2026-05-02T12:55:27.009Z</time></trkpt><trkpt lat="45.2066071" lon="10.383819"><ele>36.0</ele><time>2026-05-02T12:55:28.009Z</time></trkpt><trkpt lat="45.2067365" lon="10.3840728"><ele>36.0</ele><time>2026-05-02T12:55:29.007Z</time></trkpt><trkpt lat="45.206867" lon="10.3843287"><ele>36.0</ele><time>2026-05-02T12:55:30.008Z</time></trkpt><trkpt lat="45.2069988" lon="10.3845855"><ele>36.0</ele><time>2026-05-02T12:55:31.007Z</time></trkpt><trkpt lat="45.2071302" lon="10.3848416"><ele>36.0</ele><time>2026-05-02T12:55:32.007Z</time></trkpt><trkpt lat="45.2072618" lon="10.3850964"><ele>36.0</ele><time>2026-05-02T12:55:33.007Z</time></trkpt><trkpt lat="45.2073927" lon="10.3853537"><ele>36.0</ele><time>2026-05-02T12:55:34.007Z</time></trkpt><trkpt lat="45.2075232" lon="10.385612"><ele>36.0</ele><time>2026-05-02T12:55:35.008Z</time></trkpt><trkpt lat="45.2076557" lon="10.3858656"><ele>36.0</ele><time>2026-05-02T12:55:36.007Z</time></trkpt><trkpt lat="45.2077892" lon="10.3861187"><ele>36.0</ele><time>2026-05-02T12:55:37.008Z</time></trkpt><trkpt lat="45.207919" lon="10.3863741"><ele>36.0</ele><time>2026-05-02T12:55:38.007Z</time></trkpt><trkpt lat="45.208042" lon="10.3866257"><ele>35.666666666666664</ele><time>2026-05-02T12:55:39.007Z</time></trkpt><trkpt lat="45.2081652" lon="10.3868707"><ele>35.33333333333333</ele><time>2026-05-02T12:55:40.008Z</time></trkpt><trkpt lat="45.2082876" lon="10.3871118"><ele>35.0</ele><time>2026-05-02T12:55:41.008Z</time></trkpt><trkpt lat="45.208409" lon="10.3873487"><ele>34.666666666666664</ele><time>2026-05-02T12:55:42.008Z</time></trkpt><trkpt lat="45.2085296" lon="10.387581"><ele>34.333333333333336</ele><time>2026-05-02T12:55:43.009Z</time></trkpt><trkpt lat="45.2086491" lon="10.3878143"><ele>34.0</ele><time>2026-05-02T12:55:44.007Z</time></trkpt><trkpt lat="45.2087683" lon="10.3880466"><ele>34.0</ele><time>2026-05-02T12:55:45.007Z</time></trkpt><trkpt lat="45.2088872" lon="10.3882776"><ele>34.0</ele><time>2026-05-02T12:55:46.008Z</time></trkpt><trkpt lat="45.2090043" lon="10.3885089"><ele>34.0</ele><time>2026-05-02T12:55:47.008Z</time></trkpt><trkpt lat="45.2091231" lon="10.3887395"><ele>34.66666666666667</ele><time>2026-05-02T12:55:48.007Z</time></trkpt><trkpt lat="45.2092417" lon="10.3889722"><ele>35.333333333333336</ele><time>2026-05-02T12:55:49.008Z</time></trkpt><trkpt lat="45.2093596" lon="10.3892048"><ele>36.0</ele><time>2026-05-02T12:55:50.008Z</time></trkpt><trkpt lat="45.209482" lon="10.3894325"><ele>36.0</ele><time>2026-05-02T12:55:51.007Z</time></trkpt><trkpt lat="45.2095993" lon="10.3896643"><ele>36.0</ele><time>2026-05-02T12:55:52.007Z</time></trkpt><trkpt lat="45.2097182" lon="10.3898993"><ele>36.0</ele><time>2026-05-02T12:55:53.007Z</time></trkpt><trkpt lat="45.2098428" lon="10.3901294"><ele>36.333333333333336</ele><time>2026-05-02T12:55:54.008Z</time></trkpt><trkpt lat="45.2099664" lon="10.3903622"><ele>36.66666666666667</ele><time>2026-05-02T12:55:55.008Z</time></trkpt><trkpt lat="45.2100884" lon="10.3905948"><ele>37.0</ele><time>2026-05-02T12:55:56.007Z</time></trkpt><trkpt lat="45.2102123" lon="10.390823"><ele>37.0</ele><time>2026-05-02T12:55:57.007Z</time></trkpt><trkpt lat="45.2103389" lon="10.3910478"><ele>37.0</ele><time>2026-05-02T12:55:58.007Z</time></trkpt><trkpt lat="45.2104648" lon="10.3912592"><ele>37.0</ele><time>2026-05-02T12:55:59.007Z</time></trkpt><trkpt lat="45.2105853" lon="10.3914644"><ele>36.333333333333336</ele><time>2026-05-02T12:56:00.009Z</time></trkpt><trkpt lat="45.2107008" lon="10.3916599"><ele>35.666666666666664</ele><time>2026-05-02T12:56:01.008Z</time></trkpt><trkpt lat="45.2108106" lon="10.3918461"><ele>35.0</ele><time>2026-05-02T12:56:02.008Z</time></trkpt><trkpt lat="45.2109165" lon="10.3920233"><ele>35.0</ele><time>2026-05-02T12:56:03.007Z</time></trkpt><trkpt lat="45.2110217" lon="10.3921963"><ele>35.0</ele><time>2026-05-02T12:56:04.007Z</time></trkpt><trkpt lat="45.2111293" lon="10.3923745"><ele>35.0</ele><time>2026-05-02T12:56:05.008Z</time></trkpt><trkpt lat="45.2112361" lon="10.3925581"><ele>35.0</ele><time>2026-05-02T12:56:06.007Z</time></trkpt><trkpt lat="45.2113402" lon="10.3927375"><ele>35.0</ele><time>2026-05-02T12:56:07.007Z</time></trkpt><trkpt lat="45.2114405" lon="10.3929085"><ele>35.0</ele><time>2026-05-02T12:56:08.007Z</time></trkpt><trkpt lat="45.2115396" lon="10.3930753"><ele>35.0</ele><time>2026-05-02T12:56:09.007Z</time></trkpt><trkpt lat="45.2116382" lon="10.3932394"><ele>35.0</ele><time>2026-05-02T12:56:10.007Z</time></trkpt><trkpt lat="45.211739" lon="10.3934028"><ele>35.0</ele><time>2026-05-02T12:56:11.009Z</time></trkpt><trkpt lat="45.2118394" lon="10.3935716"><ele>35.0</ele><time>2026-05-02T12:56:12.008Z</time></trkpt><trkpt lat="45.2119398" lon="10.3937415"><ele>35.0</ele><time>2026-05-02T12:56:13.009Z</time></trkpt><trkpt lat="45.2120379" lon="10.3939034"><ele>35.0</ele><time>2026-05-02T12:56:14.007Z</time></trkpt><trkpt lat="45.2121288" lon="10.3940595"><ele>35.0</ele><time>2026-05-02T12:56:15.007Z</time></trkpt><trkpt lat="45.2122156" lon="10.3942047"><ele>34.75</ele><time>2026-05-02T12:56:16.007Z</time></trkpt><trkpt lat="45.2122986" lon="10.3943298"><ele>34.5</ele><time>2026-05-02T12:56:17.007Z</time></trkpt><trkpt lat="45.2123843" lon="10.3944465"><ele>34.25</ele><time>2026-05-02T12:56:18.007Z</time></trkpt><trkpt lat="45.2124759" lon="10.3945628"><ele>34.0</ele><time>2026-05-02T12:56:19.007Z</time></trkpt><trkpt lat="45.2125732" lon="10.3946775"><ele>34.0</ele><time>2026-05-02T12:56:20.007Z</time></trkpt><trkpt lat="45.2126749" lon="10.3947852"><ele>34.0</ele><time>2026-05-02T12:56:21.008Z</time></trkpt><trkpt lat="45.2127853" lon="10.3948919"><ele>34.0</ele><time>2026-05-02T12:56:22.008Z</time></trkpt><trkpt lat="45.2129007" lon="10.3949974"><ele>34.0</ele><time>2026-05-02T12:56:23.008Z</time></trkpt><trkpt lat="45.2130272" lon="10.3950919"><ele>33.0</ele><time>2026-05-02T12:56:24.007Z</time></trkpt><trkpt lat="45.2131636" lon="10.3951746"><ele>32.0</ele><time>2026-05-02T12:56:25.008Z</time></trkpt><trkpt lat="45.2133058" lon="10.3952501"><ele>31.0</ele><time>2026-05-02T12:56:26.007Z</time></trkpt><trkpt lat="45.2134561" lon="10.3953154"><ele>31.0</ele><time>2026-05-02T12:56:27.007Z</time></trkpt><trkpt lat="45.2136128" lon="10.3953731"><ele>31.0</ele><time>2026-05-02T12:56:28.007Z</time></trkpt><trkpt lat="45.2137756" lon="10.3954195"><ele>31.0</ele><time>2026-05-02T12:56:29.007Z</time></trkpt><trkpt lat="45.2139435" lon="10.3954542"><ele>31.666666666666668</ele><time>2026-05-02T12:56:30.007Z</time></trkpt><trkpt lat="45.2141186" lon="10.3954672"><ele>32.333333333333336</ele><time>2026-05-02T12:56:31.007Z</time></trkpt><trkpt lat="45.2142991" lon="10.3954708"><ele>33.0</ele><time>2026-05-02T12:56:32.008Z</time></trkpt><trkpt lat="45.2144803" lon="10.3954719"><ele>33.0</ele><time>2026-05-02T12:56:33.007Z</time></trkpt><trkpt lat="45.2146674" lon="10.3954699"><ele>33.0</ele><time>2026-05-02T12:56:34.007Z</time></trkpt><trkpt lat="45.2148528" lon="10.3954679"><ele>33.0</ele><time>2026-05-02T12:56:35.008Z</time></trkpt><trkpt lat="45.2150392" lon="10.3954631"><ele>33.333333333333336</ele><time>2026-05-02T12:56:36.008Z</time></trkpt><trkpt lat="45.2152264" lon="10.3954604"><ele>33.66666666666667</ele><time>2026-05-02T12:56:37.007Z</time></trkpt><trkpt lat="45.2154125" lon="10.3954576"><ele>34.0</ele><time>2026-05-02T12:56:38.008Z</time></trkpt><trkpt lat="45.215597" lon="10.3954576"><ele>33.333333333333336</ele><time>2026-05-02T12:56:39.007Z</time></trkpt><trkpt lat="45.215778" lon="10.395457"><ele>32.666666666666664</ele><time>2026-05-02T12:56:40.008Z</time></trkpt><trkpt lat="45.2159571" lon="10.3954557"><ele>32.0</ele><time>2026-05-02T12:56:41.007Z</time></trkpt><trkpt lat="45.2161295" lon="10.3954516"><ele>32.0</ele><time>2026-05-02T12:56:42.008Z</time></trkpt><trkpt lat="45.2162999" lon="10.3954503"><ele>32.0</ele><time>2026-05-02T12:56:43.007Z</time></trkpt><trkpt lat="45.2164704" lon="10.3954562"><ele>32.0</ele><time>2026-05-02T12:56:44.008Z</time></trkpt><trkpt lat="45.2166413" lon="10.3954673"><ele>32.0</ele><time>2026-05-02T12:56:45.007Z</time></trkpt><trkpt lat="45.2168121" lon="10.3954773"><ele>32.0</ele><time>2026-05-02T12:56:46.007Z</time></trkpt><trkpt lat="45.2169852" lon="10.395485"><ele>32.0</ele><time>2026-05-02T12:56:47.007Z</time></trkpt><trkpt lat="45.2171576" lon="10.3954871"><ele>31.333333333333332</ele><time>2026-05-02T12:56:48.008Z</time></trkpt><trkpt lat="45.2173327" lon="10.395482"><ele>30.666666666666664</ele><time>2026-05-02T12:56:49.008Z</time></trkpt><trkpt lat="45.2175095" lon="10.3954795"><ele>30.0</ele><time>2026-05-02T12:56:50.008Z</time></trkpt><trkpt lat="45.21769" lon="10.3954777"><ele>30.0</ele><time>2026-05-02T12:56:51.007Z</time></trkpt><trkpt lat="45.2178716" lon="10.3954777"><ele>30.0</ele><time>2026-05-02T12:56:52.007Z</time></trkpt><trkpt lat="45.2180561" lon="10.3954815"><ele>30.0</ele><time>2026-05-02T12:56:53.008Z</time></trkpt><trkpt lat="45.2182424" lon="10.3954823"><ele>30.333333333333336</ele><time>2026-05-02T12:56:54.008Z</time></trkpt><trkpt lat="45.2184304" lon="10.3954779"><ele>30.666666666666668</ele><time>2026-05-02T12:56:55.008Z</time></trkpt><trkpt lat="45.21862" lon="10.3954697"><ele>31.0</ele><time>2026-05-02T12:56:56.008Z</time></trkpt><trkpt lat="45.2188109" lon="10.3954607"><ele>30.666666666666668</ele><time>2026-05-02T12:56:57.008Z</time></trkpt><trkpt lat="45.2190024" lon="10.3954526"><ele>30.333333333333336</ele><time>2026-05-02T12:56:58.008Z</time></trkpt><trkpt lat="45.2191977" lon="10.3954473"><ele>30.0</ele><time>2026-05-02T12:56:59.007Z</time></trkpt><trkpt lat="45.2193949" lon="10.3954443"><ele>30.0</ele><time>2026-05-02T12:57:00.008Z</time></trkpt><trkpt lat="45.2195923" lon="10.3954447"><ele>30.0</ele><time>2026-05-02T12:57:01.008Z</time></trkpt><trkpt lat="45.2197907" lon="10.3954462"><ele>30.0</ele><time>2026-05-02T12:57:02.009Z</time></trkpt><trkpt lat="45.2199906" lon="10.3954468"><ele>30.0</ele><time>2026-05-02T12:57:03.008Z</time></trkpt><trkpt lat="45.2201914" lon="10.3954461"><ele>30.0</ele><time>2026-05-02T12:57:04.008Z</time></trkpt><trkpt lat="45.2203923" lon="10.3954415"><ele>30.0</ele><time>2026-05-02T12:57:05.008Z</time></trkpt><trkpt lat="45.2205943" lon="10.3954398"><ele>30.0</ele><time>2026-05-02T12:57:06.008Z</time></trkpt><trkpt lat="45.220799" lon="10.395439"><ele>30.0</ele><time>2026-05-02T12:57:07.008Z</time></trkpt><trkpt lat="45.2210041" lon="10.3954403"><ele>30.0</ele><time>2026-05-02T12:57:08.008Z</time></trkpt><trkpt lat="45.2212108" lon="10.3954375"><ele>30.0</ele><time>2026-05-02T12:57:09.007Z</time></trkpt><trkpt lat="45.2214165" lon="10.395436"><ele>30.0</ele><time>2026-05-02T12:57:10.008Z</time></trkpt><trkpt lat="45.2216194" lon="10.3954374"><ele>30.0</ele><time>2026-05-02T12:57:11.008Z</time></trkpt><trkpt lat="45.221814" lon="10.3954397"><ele>30.0</ele><time>2026-05-02T12:57:12.007Z</time></trkpt><trkpt lat="45.2220006" lon="10.3954479"><ele>30.0</ele><time>2026-05-02T12:57:13.008Z</time></trkpt><trkpt lat="45.2221756" lon="10.3954652"><ele>30.0</ele><time>2026-05-02T12:57:14.007Z</time></trkpt><trkpt lat="45.2223517" lon="10.3954988"><ele>30.0</ele><time>2026-05-02T12:57:15.007Z</time></trkpt><trkpt lat="45.2225239" lon="10.395545"><ele>30.0</ele><time>2026-05-02T12:57:16.008Z</time></trkpt><trkpt lat="45.2226949" lon="10.3955999"><ele>30.0</ele><time>2026-05-02T12:57:17.007Z</time></trkpt><trkpt lat="45.222864" lon="10.3956693"><ele>30.0</ele><time>2026-05-02T12:57:18.007Z</time></trkpt><trkpt lat="45.2230317" lon="10.3957477"><ele>30.0</ele><time>2026-05-02T12:57:19.008Z</time></trkpt><trkpt lat="45.2231901" lon="10.395836"><ele>30.0</ele><time>2026-05-02T12:57:20.009Z</time></trkpt><trkpt lat="45.2233341" lon="10.3959278"><ele>30.5</ele><time>2026-05-02T12:57:21.007Z</time></trkpt><trkpt lat="45.2234606" lon="10.3960176"><ele>31.0</ele><time>2026-05-02T12:57:22.007Z</time></trkpt><trkpt lat="45.2235709" lon="10.3960937"><ele>31.5</ele><time>2026-05-02T12:57:23.007Z</time></trkpt><trkpt lat="45.2236676" lon="10.3961799"><ele>32.0</ele><time>2026-05-02T12:57:24.008Z</time></trkpt><trkpt lat="45.2237429" lon="10.3962922"><ele>32.25</ele><time>2026-05-02T12:57:25.008Z</time></trkpt><trkpt lat="45.2237992" lon="10.3964333"><ele>32.5</ele><time>2026-05-02T12:57:26.007Z</time></trkpt><trkpt lat="45.2238635" lon="10.3965705"><ele>32.75</ele><time>2026-05-02T12:57:27.007Z</time></trkpt><trkpt lat="45.2239559" lon="10.3966782"><ele>33.0</ele><time>2026-05-02T12:57:28.007Z</time></trkpt><trkpt lat="45.2240609" lon="10.3967479"><ele>33.0</ele><time>2026-05-02T12:57:29.007Z</time></trkpt><trkpt lat="45.2241741" lon="10.3967751"><ele>33.0</ele><time>2026-05-02T12:57:30.007Z</time></trkpt><trkpt lat="45.2242985" lon="10.396777"><ele>33.0</ele><time>2026-05-02T12:57:31.007Z</time></trkpt><trkpt lat="45.2244258" lon="10.3967859"><ele>33.0</ele><time>2026-05-02T12:57:32.008Z</time></trkpt><trkpt lat="45.2245571" lon="10.3968219"><ele>33.0</ele><time>2026-05-02T12:57:33.008Z</time></trkpt><trkpt lat="45.2246881" lon="10.3968902"><ele>33.0</ele><time>2026-05-02T12:57:34.007Z</time></trkpt><trkpt lat="45.224821" lon="10.3969789"><ele>33.0</ele><time>2026-05-02T12:57:35.008Z</time></trkpt><trkpt lat="45.2249488" lon="10.3970867"><ele>33.0</ele><time>2026-05-02T12:57:36.008Z</time></trkpt><trkpt lat="45.225068" lon="10.3972129"><ele>32.75</ele><time>2026-05-02T12:57:37.007Z</time></trkpt><trkpt lat="45.2251797" lon="10.3973448"><ele>32.5</ele><time>2026-05-02T12:57:38.008Z</time></trkpt><trkpt lat="45.2252884" lon="10.3974802"><ele>32.25</ele><time>2026-05-02T12:57:39.008Z</time></trkpt><trkpt lat="45.2253916" lon="10.3976306"><ele>32.0</ele><time>2026-05-02T12:57:40.007Z</time></trkpt><trkpt lat="45.2254886" lon="10.3977952"><ele>32.0</ele><time>2026-05-02T12:57:41.007Z</time></trkpt><trkpt lat="45.2255821" lon="10.3979702"><ele>32.0</ele><time>2026-05-02T12:57:42.009Z</time></trkpt><trkpt lat="45.2256697" lon="10.3981555"><ele>32.0</ele><time>2026-05-02T12:57:43.007Z</time></trkpt><trkpt lat="45.2257497" lon="10.3983536"><ele>32.666666666666664</ele><time>2026-05-02T12:57:44.008Z</time></trkpt><trkpt lat="45.2258254" lon="10.3985635"><ele>33.333333333333336</ele><time>2026-05-02T12:57:45.007Z</time></trkpt><trkpt lat="45.2258903" lon="10.3987744"><ele>34.0</ele><time>2026-05-02T12:57:46.007Z</time></trkpt><trkpt lat="45.2259514" lon="10.3989881"><ele>34.0</ele><time>2026-05-02T12:57:47.008Z</time></trkpt><trkpt lat="45.2260034" lon="10.3992025"><ele>34.0</ele><time>2026-05-02T12:57:48.007Z</time></trkpt><trkpt lat="45.2260555" lon="10.3994149"><ele>34.0</ele><time>2026-05-02T12:57:49.007Z</time></trkpt><trkpt lat="45.2261061" lon="10.3996244"><ele>35.0</ele><time>2026-05-02T12:57:50.008Z</time></trkpt><trkpt lat="45.2261596" lon="10.399829"><ele>36.0</ele><time>2026-05-02T12:57:51.007Z</time></trkpt><trkpt lat="45.2262124" lon="10.4000337"><ele>37.0</ele><time>2026-05-02T12:57:52.008Z</time></trkpt><trkpt lat="45.2262622" lon="10.4002358"><ele>37.0</ele><time>2026-05-02T12:57:53.008Z</time></trkpt><trkpt lat="45.2263085" lon="10.400439"><ele>37.0</ele><time>2026-05-02T12:57:54.007Z</time></trkpt><trkpt lat="45.2263572" lon="10.4006423"><ele>37.0</ele><time>2026-05-02T12:57:55.007Z</time></trkpt><trkpt lat="45.2264067" lon="10.4008451"><ele>36.0</ele><time>2026-05-02T12:57:56.007Z</time></trkpt><trkpt lat="45.2264594" lon="10.401048"><ele>35.0</ele><time>2026-05-02T12:57:57.007Z</time></trkpt><trkpt lat="45.2265078" lon="10.4012556"><ele>34.0</ele><time>2026-05-02T12:57:58.007Z</time></trkpt><trkpt lat="45.2265611" lon="10.4014643"><ele>34.0</ele><time>2026-05-02T12:57:59.007Z</time></trkpt><trkpt lat="45.2266109" lon="10.4016806"><ele>34.0</ele><time>2026-05-02T12:58:00.008Z</time></trkpt><trkpt lat="45.2266679" lon="10.4019222"><ele>34.0</ele><time>2026-05-02T12:58:01.007Z</time></trkpt><trkpt lat="45.2267321" lon="10.4021791"><ele>34.66666666666667</ele><time>2026-05-02T12:58:02.008Z</time></trkpt><trkpt lat="45.2268015" lon="10.402452"><ele>35.333333333333336</ele><time>2026-05-02T12:58:03.008Z</time></trkpt><trkpt lat="45.2268726" lon="10.4027367"><ele>36.0</ele><time>2026-05-02T12:58:04.008Z</time></trkpt><trkpt lat="45.2269446" lon="10.4030298"><ele>36.0</ele><time>2026-05-02T12:58:05.007Z</time></trkpt><trkpt lat="45.2270195" lon="10.4033306"><ele>36.0</ele><time>2026-05-02T12:58:06.008Z</time></trkpt><trkpt lat="45.2270981" lon="10.4036396"><ele>35.5</ele><time>2026-05-02T12:58:07.007Z</time></trkpt><trkpt lat="45.2271706" lon="10.4039495"><ele>35.0</ele><time>2026-05-02T12:58:08.008Z</time></trkpt><trkpt lat="45.2272432" lon="10.4042492"><ele>35.33333333333333</ele><time>2026-05-02T12:58:09.007Z</time></trkpt><trkpt lat="45.2273131" lon="10.404535"><ele>35.666666666666664</ele><time>2026-05-02T12:58:10.007Z</time></trkpt><trkpt lat="45.2273828" lon="10.4048197"><ele>36.0</ele><time>2026-05-02T12:58:11.008Z</time></trkpt><trkpt lat="45.2274522" lon="10.4051066"><ele>36.333333333333336</ele><time>2026-05-02T12:58:12.008Z</time></trkpt><trkpt lat="45.2275231" lon="10.4053895"><ele>36.66666666666667</ele><time>2026-05-02T12:58:13.007Z</time></trkpt><trkpt lat="45.2275898" lon="10.4056692"><ele>37.0</ele><time>2026-05-02T12:58:14.007Z</time></trkpt><trkpt lat="45.2276632" lon="10.4059534"><ele>36.333333333333336</ele><time>2026-05-02T12:58:15.007Z</time></trkpt><trkpt lat="45.2277384" lon="10.4062415"><ele>35.666666666666664</ele><time>2026-05-02T12:58:16.008Z</time></trkpt><trkpt lat="45.2278064" lon="10.4065175"><ele>35.0</ele><time>2026-05-02T12:58:17.007Z</time></trkpt><trkpt lat="45.2278725" lon="10.4067859"><ele>35.0</ele><time>2026-05-02T12:58:18.008Z</time></trkpt><trkpt lat="45.2279386" lon="10.4070548"><ele>35.0</ele><time>2026-05-02T12:58:19.007Z</time></trkpt><trkpt lat="45.2280027" lon="10.4073244"><ele>35.0</ele><time>2026-05-02T12:58:20.007Z</time></trkpt><trkpt lat="45.2280637" lon="10.4075912"><ele>35.0</ele><time>2026-05-02T12:58:21.007Z</time></trkpt><trkpt lat="45.2281272" lon="10.4078545"><ele>35.0</ele><time>2026-05-02T12:58:22.007Z</time></trkpt><trkpt lat="45.2281902" lon="10.4081103"><ele>35.0</ele><time>2026-05-02T12:58:23.007Z</time></trkpt><trkpt lat="45.228252" lon="10.4083625"><ele>36.33333333333333</ele><time>2026-05-02T12:58:24.008Z</time></trkpt><trkpt lat="45.2283114" lon="10.4086088"><ele>37.666666666666664</ele><time>2026-05-02T12:58:25.008Z</time></trkpt><trkpt lat="45.2283702" lon="10.4088576"><ele>39.0</ele><time>2026-05-02T12:58:26.008Z</time></trkpt><trkpt lat="45.2284308" lon="10.4091086"><ele>39.0</ele><time>2026-05-02T12:58:27.007Z</time></trkpt><trkpt lat="45.2284943" lon="10.4093637"><ele>39.0</ele><time>2026-05-02T12:58:28.007Z</time></trkpt><trkpt lat="45.2285603" lon="10.4096254"><ele>39.0</ele><time>2026-05-02T12:58:29.008Z</time></trkpt><trkpt lat="45.2286257" lon="10.409892"><ele>38.333333333333336</ele><time>2026-05-02T12:58:30.008Z</time></trkpt><trkpt lat="45.228695" lon="10.4101644"><ele>37.66666666666667</ele><time>2026-05-02T12:58:31.008Z</time></trkpt><trkpt lat="45.2287651" lon="10.4104426"><ele>37.0</ele><time>2026-05-02T12:58:32.008Z</time></trkpt><trkpt lat="45.2288335" lon="10.4107256"><ele>36.66666666666667</ele><time>2026-05-02T12:58:33.008Z</time></trkpt><trkpt lat="45.2289037" lon="10.4110141"><ele>36.333333333333336</ele><time>2026-05-02T12:58:34.007Z</time></trkpt><trkpt lat="45.2289749" lon="10.411305"><ele>36.0</ele><time>2026-05-02T12:58:35.007Z</time></trkpt><trkpt lat="45.2290462" lon="10.411599"><ele>36.333333333333336</ele><time>2026-05-02T12:58:36.007Z</time></trkpt><trkpt lat="45.2291162" lon="10.4118936"><ele>36.66666666666667</ele><time>2026-05-02T12:58:37.007Z</time></trkpt><trkpt lat="45.2291895" lon="10.4121873"><ele>37.0</ele><time>2026-05-02T12:58:38.007Z</time></trkpt><trkpt lat="45.2292634" lon="10.412479"><ele>37.0</ele><time>2026-05-02T12:58:39.008Z</time></trkpt><trkpt lat="45.2293313" lon="10.4127679"><ele>37.0</ele><time>2026-05-02T12:58:40.008Z</time></trkpt><trkpt lat="45.2293966" lon="10.4130446"><ele>37.0</ele><time>2026-05-02T12:58:41.008Z</time></trkpt><trkpt lat="45.2294568" lon="10.4133192"><ele>37.0</ele><time>2026-05-02T12:58:42.008Z</time></trkpt><trkpt lat="45.2295133" lon="10.413593"><ele>37.0</ele><time>2026-05-02T12:58:43.007Z</time></trkpt><trkpt lat="45.229563" lon="10.4138683"><ele>37.0</ele><time>2026-05-02T12:58:44.008Z</time></trkpt><trkpt lat="45.2296049" lon="10.4141417"><ele>37.0</ele><time>2026-05-02T12:58:45.007Z</time></trkpt><trkpt lat="45.2296478" lon="10.4144132"><ele>37.0</ele><time>2026-05-02T12:58:46.008Z</time></trkpt><trkpt lat="45.2296869" lon="10.4146867"><ele>37.0</ele><time>2026-05-02T12:58:47.008Z</time></trkpt><trkpt lat="45.2297253" lon="10.4149616"><ele>37.333333333333336</ele><time>2026-05-02T12:58:48.007Z</time></trkpt><trkpt lat="45.2297612" lon="10.4152346"><ele>37.666666666666664</ele><time>2026-05-02T12:58:49.007Z</time></trkpt><trkpt lat="45.2297923" lon="10.4154953"><ele>38.0</ele><time>2026-05-02T12:58:50.007Z</time></trkpt><trkpt lat="45.2298236" lon="10.4157316"><ele>38.25</ele><time>2026-05-02T12:58:51.008Z</time></trkpt><trkpt lat="45.2298514" lon="10.4159427"><ele>38.5</ele><time>2026-05-02T12:58:52.008Z</time></trkpt><trkpt lat="45.2298761" lon="10.4161406"><ele>38.75</ele><time>2026-05-02T12:58:53.007Z</time></trkpt><trkpt lat="45.2298988" lon="10.4163189"><ele>39.0</ele><time>2026-05-02T12:58:54.008Z</time></trkpt><trkpt lat="45.2299178" lon="10.4164773"><ele>38.8</ele><time>2026-05-02T12:58:55.007Z</time></trkpt><trkpt lat="45.2299231" lon="10.4166209"><ele>38.599999999999994</ele><time>2026-05-02T12:58:56.007Z</time></trkpt><trkpt lat="45.2299001" lon="10.4167608"><ele>38.4</ele><time>2026-05-02T12:58:57.007Z</time></trkpt><trkpt lat="45.2298546" lon="10.4168961"><ele>38.199999999999996</ele><time>2026-05-02T12:58:58.007Z</time></trkpt><trkpt lat="45.2298053" lon="10.4170226"><ele>38.0</ele><time>2026-05-02T12:58:59.008Z</time></trkpt><trkpt lat="45.2297721" lon="10.4171517"><ele>37.8</ele><time>2026-05-02T12:59:00.008Z</time></trkpt><trkpt lat="45.2297714" lon="10.4172825"><ele>37.599999999999994</ele><time>2026-05-02T12:59:01.007Z</time></trkpt><trkpt lat="45.2298018" lon="10.4174057"><ele>37.400000000000006</ele><time>2026-05-02T12:59:02.008Z</time></trkpt><trkpt lat="45.2298614" lon="10.4175035"><ele>37.2</ele><time>2026-05-02T12:59:03.007Z</time></trkpt><trkpt lat="45.2299443" lon="10.4175657"><ele>37.0</ele><time>2026-05-02T12:59:04.008Z</time></trkpt><trkpt lat="45.2300394" lon="10.4175761"><ele>37.0</ele><time>2026-05-02T12:59:05.008Z</time></trkpt><trkpt lat="45.2301403" lon="10.4175362"><ele>37.0</ele><time>2026-05-02T12:59:06.008Z</time></trkpt><trkpt lat="45.2302508" lon="10.4174544"><ele>37.0</ele><time>2026-05-02T12:59:07.008Z</time></trkpt><trkpt lat="45.2303827" lon="10.4173542"><ele>37.0</ele><time>2026-05-02T12:59:08.007Z</time></trkpt><trkpt lat="45.2305343" lon="10.4172569"><ele>38.0</ele><time>2026-05-02T12:59:09.008Z</time></trkpt><trkpt lat="45.2306883" lon="10.4171678"><ele>39.0</ele><time>2026-05-02T12:59:10.007Z</time></trkpt><trkpt lat="45.2308545" lon="10.4170853"><ele>40.0</ele><time>2026-05-02T12:59:11.007Z</time></trkpt><trkpt lat="45.2310301" lon="10.4170149"><ele>40.0</ele><time>2026-05-02T12:59:12.007Z</time></trkpt><trkpt lat="45.2312144" lon="10.4169557"><ele>40.0</ele><time>2026-05-02T12:59:13.007Z</time></trkpt><trkpt lat="45.231409" lon="10.4169134"><ele>40.0</ele><time>2026-05-02T12:59:14.007Z</time></trkpt><trkpt lat="45.2316108" lon="10.4168864"><ele>40.333333333333336</ele><time>2026-05-02T12:59:15.007Z</time></trkpt><trkpt lat="45.2318065" lon="10.416871"><ele>40.666666666666664</ele><time>2026-05-02T12:59:16.007Z</time></trkpt><trkpt lat="45.2320029" lon="10.4168551"><ele>41.0</ele><time>2026-05-02T12:59:17.009Z</time></trkpt><trkpt lat="45.2321989" lon="10.4168345"><ele>40.0</ele><time>2026-05-02T12:59:18.009Z</time></trkpt><trkpt lat="45.2323939" lon="10.4168163"><ele>39.0</ele><time>2026-05-02T12:59:19.007Z</time></trkpt><trkpt lat="45.2325898" lon="10.4167979"><ele>38.0</ele><time>2026-05-02T12:59:20.009Z</time></trkpt><trkpt lat="45.2327891" lon="10.4167844"><ele>38.0</ele><time>2026-05-02T12:59:21.007Z</time></trkpt><trkpt lat="45.2329937" lon="10.4167646"><ele>38.0</ele><time>2026-05-02T12:59:22.007Z</time></trkpt><trkpt lat="45.2332021" lon="10.4167453"><ele>38.0</ele><time>2026-05-02T12:59:23.009Z</time></trkpt><trkpt lat="45.2334128" lon="10.4167271"><ele>38.0</ele><time>2026-05-02T12:59:24.007Z</time></trkpt><trkpt lat="45.2336235" lon="10.4167086"><ele>38.0</ele><time>2026-05-02T12:59:25.008Z</time></trkpt><trkpt lat="45.2338355" lon="10.4166917"><ele>38.0</ele><time>2026-05-02T12:59:26.007Z</time></trkpt><trkpt lat="45.2340448" lon="10.4166737"><ele>38.0</ele><time>2026-05-02T12:59:27.007Z</time></trkpt><trkpt lat="45.2342541" lon="10.4166543"><ele>38.0</ele><time>2026-05-02T12:59:28.007Z</time></trkpt><trkpt lat="45.2344622" lon="10.4166366"><ele>38.0</ele><time>2026-05-02T12:59:29.007Z</time></trkpt><trkpt lat="45.2346702" lon="10.4166176"><ele>38.0</ele><time>2026-05-02T12:59:30.007Z</time></trkpt><trkpt lat="45.2348786" lon="10.4165988"><ele>38.0</ele><time>2026-05-02T12:59:31.007Z</time></trkpt><trkpt lat="45.2350875" lon="10.4165803"><ele>38.0</ele><time>2026-05-02T12:59:32.007Z</time></trkpt><trkpt lat="45.2352957" lon="10.4165641"><ele>38.0</ele><time>2026-05-02T12:59:33.007Z</time></trkpt><trkpt lat="45.2354955" lon="10.4165497"><ele>38.0</ele><time>2026-05-02T12:59:34.008Z</time></trkpt><trkpt lat="45.235693" lon="10.4165299"><ele>38.0</ele><time>2026-05-02T12:59:35.007Z</time></trkpt><trkpt lat="45.235896" lon="10.4165101"><ele>38.33333333333333</ele><time>2026-05-02T12:59:36.007Z</time></trkpt><trkpt lat="45.2361084" lon="10.4164863"><ele>38.666666666666664</ele><time>2026-05-02T12:59:37.008Z</time></trkpt><trkpt lat="45.2363245" lon="10.4164639"><ele>39.0</ele><time>2026-05-02T12:59:38.007Z</time></trkpt><trkpt lat="45.2365442" lon="10.4164412"><ele>39.0</ele><time>2026-05-02T12:59:39.008Z</time></trkpt><trkpt lat="45.2367644" lon="10.4164218"><ele>39.0</ele><time>2026-05-02T12:59:40.007Z</time></trkpt><trkpt lat="45.2369877" lon="10.416401"><ele>39.0</ele><time>2026-05-02T12:59:41.007Z</time></trkpt><trkpt lat="45.237212" lon="10.4163797"><ele>39.0</ele><time>2026-05-02T12:59:42.008Z</time></trkpt><trkpt lat="45.2374331" lon="10.4163577"><ele>39.0</ele><time>2026-05-02T12:59:43.007Z</time></trkpt><trkpt lat="45.2376558" lon="10.4163357"><ele>39.0</ele><time>2026-05-02T12:59:44.007Z</time></trkpt><trkpt lat="45.2378822" lon="10.4163126"><ele>39.0</ele><time>2026-05-02T12:59:45.007Z</time></trkpt><trkpt lat="45.2381083" lon="10.4162922"><ele>39.0</ele><time>2026-05-02T12:59:46.008Z</time></trkpt><trkpt lat="45.2383341" lon="10.4162708"><ele>40.5</ele><time>2026-05-02T12:59:47.008Z</time></trkpt><trkpt lat="45.2385623" lon="10.4162486"><ele>42.0</ele><time>2026-05-02T12:59:48.008Z</time></trkpt><trkpt lat="45.2387868" lon="10.4162254"><ele>41.5</ele><time>2026-05-02T12:59:49.007Z</time></trkpt><trkpt lat="45.2390144" lon="10.4162041"><ele>41.0</ele><time>2026-05-02T12:59:50.008Z</time></trkpt><trkpt lat="45.2392426" lon="10.4161849"><ele>41.0</ele><time>2026-05-02T12:59:51.007Z</time></trkpt><trkpt lat="45.2394707" lon="10.4161658"><ele>41.0</ele><time>2026-05-02T12:59:52.007Z</time></trkpt><trkpt lat="45.2396975" lon="10.4161469"><ele>41.33333333333333</ele><time>2026-05-02T12:59:53.007Z</time></trkpt><trkpt lat="45.2399215" lon="10.4161225"><ele>41.666666666666664</ele><time>2026-05-02T12:59:54.008Z</time></trkpt><trkpt lat="45.2401436" lon="10.4161014"><ele>42.0</ele><time>2026-05-02T12:59:55.008Z</time></trkpt><trkpt lat="45.2403657" lon="10.4160795"><ele>42.0</ele><time>2026-05-02T12:59:56.008Z</time></trkpt><trkpt lat="45.2405939" lon="10.416057"><ele>42.0</ele><time>2026-05-02T12:59:57.007Z</time></trkpt><trkpt lat="45.2408248" lon="10.4160398"><ele>42.0</ele><time>2026-05-02T12:59:58.007Z</time></trkpt><trkpt lat="45.241055" lon="10.4160246"><ele>42.0</ele><time>2026-05-02T12:59:59.007Z</time></trkpt><trkpt lat="45.2412854" lon="10.4160092"><ele>41.5</ele><time>2026-05-02T13:00:00.008Z</time></trkpt><trkpt lat="45.2415156" lon="10.4159925"><ele>41.0</ele><time>2026-05-02T13:00:01.007Z</time></trkpt><trkpt lat="45.2417453" lon="10.4159762"><ele>41.0</ele><time>2026-05-02T13:00:02.007Z</time></trkpt><trkpt lat="45.2419757" lon="10.4159579"><ele>41.0</ele><time>2026-05-02T13:00:03.008Z</time></trkpt><trkpt lat="45.242204" lon="10.4159423"><ele>40.5</ele><time>2026-05-02T13:00:04.007Z</time></trkpt><trkpt lat="45.2424334" lon="10.4159238"><ele>40.0</ele><time>2026-05-02T13:00:05.007Z</time></trkpt><trkpt lat="45.2426624" lon="10.4159068"><ele>40.0</ele><time>2026-05-02T13:00:06.008Z</time></trkpt><trkpt lat="45.2428909" lon="10.4158903"><ele>40.0</ele><time>2026-05-02T13:00:07.007Z</time></trkpt><trkpt lat="45.2431201" lon="10.4158748"><ele>40.0</ele><time>2026-05-02T13:00:08.007Z</time></trkpt><trkpt lat="45.243348" lon="10.4158536"><ele>40.0</ele><time>2026-05-02T13:00:09.008Z</time></trkpt><trkpt lat="45.2435762" lon="10.4158348"><ele>40.0</ele><time>2026-05-02T13:00:10.007Z</time></trkpt><trkpt lat="45.2438048" lon="10.415815"><ele>40.0</ele><time>2026-05-02T13:00:11.008Z</time></trkpt><trkpt lat="45.2440326" lon="10.4157946"><ele>41.0</ele><time>2026-05-02T13:00:12.007Z</time></trkpt><trkpt lat="45.2442623" lon="10.4157751"><ele>42.0</ele><time>2026-05-02T13:00:13.008Z</time></trkpt><trkpt lat="45.2444886" lon="10.4157581"><ele>42.0</ele><time>2026-05-02T13:00:14.007Z</time></trkpt><trkpt lat="45.2447151" lon="10.4157422"><ele>42.0</ele><time>2026-05-02T13:00:15.008Z</time></trkpt><trkpt lat="45.2449438" lon="10.4157248"><ele>42.0</ele><time>2026-05-02T13:00:16.007Z</time></trkpt><trkpt lat="45.2451702" lon="10.4157067"><ele>42.0</ele><time>2026-05-02T13:00:17.007Z</time></trkpt><trkpt lat="45.2453973" lon="10.4156884"><ele>42.0</ele><time>2026-05-02T13:00:18.007Z</time></trkpt><trkpt lat="45.2456279" lon="10.4156724"><ele>42.0</ele><time>2026-05-02T13:00:19.007Z</time></trkpt><trkpt lat="45.2458566" lon="10.4156582"><ele>42.0</ele><time>2026-05-02T13:00:20.007Z</time></trkpt><trkpt lat="45.2460879" lon="10.4156404"><ele>42.0</ele><time>2026-05-02T13:00:21.009Z</time></trkpt><trkpt lat="45.2463187" lon="10.4156216"><ele>42.5</ele><time>2026-05-02T13:00:22.007Z</time></trkpt><trkpt lat="45.2465509" lon="10.4156024"><ele>43.0</ele><time>2026-05-02T13:00:23.007Z</time></trkpt><trkpt lat="45.2467868" lon="10.4155821"><ele>43.0</ele><time>2026-05-02T13:00:24.007Z</time></trkpt><trkpt lat="45.2470246" lon="10.4155643"><ele>43.0</ele><time>2026-05-02T13:00:25.007Z</time></trkpt><trkpt lat="45.2472652" lon="10.4155461"><ele>42.0</ele><time>2026-05-02T13:00:26.008Z</time></trkpt><trkpt lat="45.247506" lon="10.4155295"><ele>41.0</ele><time>2026-05-02T13:00:27.008Z</time></trkpt><trkpt lat="45.2477491" lon="10.4155108"><ele>41.0</ele><time>2026-05-02T13:00:28.007Z</time></trkpt><trkpt lat="45.2479924" lon="10.4154948"><ele>41.0</ele><time>2026-05-02T13:00:29.007Z</time></trkpt><trkpt lat="45.2482387" lon="10.4154763"><ele>42.0</ele><time>2026-05-02T13:00:30.008Z</time></trkpt><trkpt lat="45.2484886" lon="10.4154568"><ele>43.0</ele><time>2026-05-02T13:00:31.009Z</time></trkpt><trkpt lat="45.2487397" lon="10.4154391"><ele>43.0</ele><time>2026-05-02T13:00:32.007Z</time></trkpt><trkpt lat="45.2489919" lon="10.4154194"><ele>43.0</ele><time>2026-05-02T13:00:33.008Z</time></trkpt><trkpt lat="45.2492448" lon="10.4153998"><ele>43.0</ele><time>2026-05-02T13:00:34.008Z</time></trkpt><trkpt lat="45.2494944" lon="10.4153795"><ele>43.0</ele><time>2026-05-02T13:00:35.007Z</time></trkpt><trkpt lat="45.2497432" lon="10.4153685"><ele>42.5</ele><time>2026-05-02T13:00:36.007Z</time></trkpt><trkpt lat="45.2499883" lon="10.4153557"><ele>42.0</ele><time>2026-05-02T13:00:37.008Z</time></trkpt><trkpt lat="45.2502306" lon="10.4153431"><ele>42.0</ele><time>2026-05-02T13:00:38.007Z</time></trkpt><trkpt lat="45.2504676" lon="10.4153283"><ele>42.0</ele><time>2026-05-02T13:00:39.008Z</time></trkpt><trkpt lat="45.2507036" lon="10.4153137"><ele>41.5</ele><time>2026-05-02T13:00:40.007Z</time></trkpt><trkpt lat="45.2509384" lon="10.4153007"><ele>41.0</ele><time>2026-05-02T13:00:41.007Z</time></trkpt><trkpt lat="45.251171" lon="10.4152837"><ele>41.0</ele><time>2026-05-02T13:00:42.008Z</time></trkpt><trkpt lat="45.2514039" lon="10.4152682"><ele>41.0</ele><time>2026-05-02T13:00:43.008Z</time></trkpt><trkpt lat="45.2516388" lon="10.4152524"><ele>41.5</ele><time>2026-05-02T13:00:44.007Z</time></trkpt><trkpt lat="45.2518711" lon="10.415236"><ele>42.0</ele><time>2026-05-02T13:00:45.007Z</time></trkpt><trkpt lat="45.2520976" lon="10.4152216"><ele>41.666666666666664</ele><time>2026-05-02T13:00:46.008Z</time></trkpt><trkpt lat="45.2523235" lon="10.4152091"><ele>41.33333333333333</ele><time>2026-05-02T13:00:47.007Z</time></trkpt><trkpt lat="45.2525459" lon="10.4151932"><ele>41.0</ele><time>2026-05-02T13:00:48.008Z</time></trkpt><trkpt lat="45.2527639" lon="10.4151807"><ele>41.0</ele><time>2026-05-02T13:00:49.007Z</time></trkpt><trkpt lat="45.2529768" lon="10.4151652"><ele>41.0</ele><time>2026-05-02T13:00:50.008Z</time></trkpt><trkpt lat="45.2531877" lon="10.4151498"><ele>41.0</ele><time>2026-05-02T13:00:51.007Z</time></trkpt><trkpt lat="45.253399" lon="10.4151363"><ele>41.666666666666664</ele><time>2026-05-02T13:00:52.008Z</time></trkpt><trkpt lat="45.2536101" lon="10.4151233"><ele>42.333333333333336</ele><time>2026-05-02T13:00:53.007Z</time></trkpt><trkpt lat="45.2538228" lon="10.4151061"><ele>43.0</ele><time>2026-05-02T13:00:54.007Z</time></trkpt><trkpt lat="45.254034" lon="10.4150853"><ele>43.0</ele><time>2026-05-02T13:00:55.009Z</time></trkpt><trkpt lat="45.254245" lon="10.4150725"><ele>43.0</ele><time>2026-05-02T13:00:56.007Z</time></trkpt><trkpt lat="45.2544568" lon="10.4150575"><ele>43.0</ele><time>2026-05-02T13:00:57.007Z</time></trkpt><trkpt lat="45.2546684" lon="10.4150434"><ele>43.0</ele><time>2026-05-02T13:00:58.007Z</time></trkpt><trkpt lat="45.2548815" lon="10.4150292"><ele>43.0</ele><time>2026-05-02T13:00:59.008Z</time></trkpt><trkpt lat="45.2550969" lon="10.4150124"><ele>43.0</ele><time>2026-05-02T13:01:00.008Z</time></trkpt><trkpt lat="45.2553158" lon="10.414997"><ele>43.0</ele><time>2026-05-02T13:01:01.007Z</time></trkpt><trkpt lat="45.2555447" lon="10.414975"><ele>43.0</ele><time>2026-05-02T13:01:02.007Z</time></trkpt><trkpt lat="45.255784" lon="10.4149517"><ele>43.0</ele><time>2026-05-02T13:01:03.009Z</time></trkpt><trkpt lat="45.2560373" lon="10.4149345"><ele>43.0</ele><time>2026-05-02T13:01:04.007Z</time></trkpt><trkpt lat="45.2563018" lon="10.4149215"><ele>43.5</ele><time>2026-05-02T13:01:05.008Z</time></trkpt><trkpt lat="45.25657" lon="10.4149171"><ele>44.0</ele><time>2026-05-02T13:01:06.009Z</time></trkpt><trkpt lat="45.2568354" lon="10.4149126"><ele>44.0</ele><time>2026-05-02T13:01:07.007Z</time></trkpt><trkpt lat="45.2570983" lon="10.4149019"><ele>44.0</ele><time>2026-05-02T13:01:08.007Z</time></trkpt><trkpt lat="45.2573592" lon="10.4148888"><ele>43.5</ele><time>2026-05-02T13:01:09.008Z</time></trkpt><trkpt lat="45.2576167" lon="10.4148745"><ele>43.0</ele><time>2026-05-02T13:01:10.007Z</time></trkpt><trkpt lat="45.2578743" lon="10.4148595"><ele>43.5</ele><time>2026-05-02T13:01:11.007Z</time></trkpt><trkpt lat="45.2581285" lon="10.4148393"><ele>44.0</ele><time>2026-05-02T13:01:12.008Z</time></trkpt><trkpt lat="45.2583775" lon="10.4148259"><ele>44.0</ele><time>2026-05-02T13:01:13.007Z</time></trkpt><trkpt lat="45.2586234" lon="10.4148165"><ele>44.0</ele><time>2026-05-02T13:01:14.007Z</time></trkpt><trkpt lat="45.2588634" lon="10.4148058"><ele>44.33333333333333</ele><time>2026-05-02T13:01:15.008Z</time></trkpt><trkpt lat="45.2590912" lon="10.4147939"><ele>44.666666666666664</ele><time>2026-05-02T13:01:16.007Z</time></trkpt><trkpt lat="45.2593097" lon="10.4147801"><ele>45.0</ele><time>2026-05-02T13:01:17.007Z</time></trkpt><trkpt lat="45.2595223" lon="10.4147692"><ele>45.0</ele><time>2026-05-02T13:01:18.007Z</time></trkpt><trkpt lat="45.2597342" lon="10.4147597"><ele>45.0</ele><time>2026-05-02T13:01:19.008Z</time></trkpt><trkpt lat="45.2599355" lon="10.4147518"><ele>45.0</ele><time>2026-05-02T13:01:20.009Z</time></trkpt><trkpt lat="45.2601278" lon="10.414742"><ele>45.0</ele><time>2026-05-02T13:01:21.007Z</time></trkpt><trkpt lat="45.2602965" lon="10.4147347"><ele>45.0</ele><time>2026-05-02T13:01:22.007Z</time></trkpt><trkpt lat="45.2604485" lon="10.4147293"><ele>45.0</ele><time>2026-05-02T13:01:23.007Z</time></trkpt><trkpt lat="45.2605771" lon="10.4147257"><ele>45.0</ele><time>2026-05-02T13:01:24.008Z</time></trkpt><trkpt lat="45.2606847" lon="10.4147305"><ele>45.0</ele><time>2026-05-02T13:01:25.008Z</time></trkpt><trkpt lat="45.2607659" lon="10.414758"><ele>45.0</ele><time>2026-05-02T13:01:26.007Z</time></trkpt><trkpt lat="45.2608353" lon="10.4148197"><ele>45.0</ele><time>2026-05-02T13:01:27.008Z</time></trkpt><trkpt lat="45.260893" lon="10.4149172"><ele>45.0</ele><time>2026-05-02T13:01:28.007Z</time></trkpt><trkpt lat="45.2609484" lon="10.4150213"><ele>45.0</ele><time>2026-05-02T13:01:29.008Z</time></trkpt><trkpt lat="45.2610226" lon="10.4150761"><ele>45.0</ele><time>2026-05-02T13:01:30.007Z</time></trkpt><trkpt lat="45.2611095" lon="10.4150807"><ele>45.0</ele><time>2026-05-02T13:01:31.007Z</time></trkpt><trkpt lat="45.261189" lon="10.4150296"><ele>45.0</ele><time>2026-05-02T13:01:32.007Z</time></trkpt><trkpt lat="45.2612586" lon="10.4149211"><ele>45.0</ele><time>2026-05-02T13:01:33.007Z</time></trkpt><trkpt lat="45.2613366" lon="10.4147952"><ele>45.0</ele><time>2026-05-02T13:01:34.007Z</time></trkpt><trkpt lat="45.2614453" lon="10.4147078"><ele>45.0</ele><time>2026-05-02T13:01:35.008Z</time></trkpt><trkpt lat="45.2615799" lon="10.4146603"><ele>45.333333333333336</ele><time>2026-05-02T13:01:36.007Z</time></trkpt><trkpt lat="45.2617338" lon="10.4146508"><ele>45.66666666666667</ele><time>2026-05-02T13:01:37.008Z</time></trkpt><trkpt lat="45.2619062" lon="10.4146452"><ele>46.0</ele><time>2026-05-02T13:01:38.007Z</time></trkpt><trkpt lat="45.2620923" lon="10.4146311"><ele>45.66666666666667</ele><time>2026-05-02T13:01:39.007Z</time></trkpt><trkpt lat="45.2622866" lon="10.4146177"><ele>45.333333333333336</ele><time>2026-05-02T13:01:40.008Z</time></trkpt><trkpt lat="45.2625006" lon="10.4146052"><ele>45.0</ele><time>2026-05-02T13:01:41.007Z</time></trkpt><trkpt lat="45.2627253" lon="10.4145955"><ele>45.0</ele><time>2026-05-02T13:01:42.007Z</time></trkpt><trkpt lat="45.2629661" lon="10.4145861"><ele>45.0</ele><time>2026-05-02T13:01:43.007Z</time></trkpt><trkpt lat="45.2632186" lon="10.4145747"><ele>45.0</ele><time>2026-05-02T13:01:44.008Z</time></trkpt><trkpt lat="45.2634799" lon="10.4145602"><ele>45.0</ele><time>2026-05-02T13:01:45.007Z</time></trkpt><trkpt lat="45.2637531" lon="10.414547"><ele>45.5</ele><time>2026-05-02T13:01:46.008Z</time></trkpt><trkpt lat="45.2640373" lon="10.4145314"><ele>46.0</ele><time>2026-05-02T13:01:47.008Z</time></trkpt><trkpt lat="45.2643305" lon="10.4145195"><ele>46.0</ele><time>2026-05-02T13:01:48.008Z</time></trkpt><trkpt lat="45.2646325" lon="10.414506"><ele>46.0</ele><time>2026-05-02T13:01:49.007Z</time></trkpt><trkpt lat="45.2649462" lon="10.4144918"><ele>46.5</ele><time>2026-05-02T13:01:50.007Z</time></trkpt><trkpt lat="45.2652661" lon="10.4144756"><ele>47.0</ele><time>2026-05-02T13:01:51.007Z</time></trkpt><trkpt lat="45.265582" lon="10.4144565"><ele>46.5</ele><time>2026-05-02T13:01:52.008Z</time></trkpt><trkpt lat="45.2658817" lon="10.4144424"><ele>46.0</ele><time>2026-05-02T13:01:53.007Z</time></trkpt><trkpt lat="45.2661641" lon="10.4144281"><ele>46.0</ele><time>2026-05-02T13:01:54.008Z</time></trkpt><trkpt lat="45.2664393" lon="10.4144209"><ele>46.0</ele><time>2026-05-02T13:01:55.008Z</time></trkpt><trkpt lat="45.2667065" lon="10.4144223"><ele>45.5</ele><time>2026-05-02T13:01:56.007Z</time></trkpt><trkpt lat="45.2669789" lon="10.4144208"><ele>45.0</ele><time>2026-05-02T13:01:57.008Z</time></trkpt><trkpt lat="45.267248" lon="10.4144128"><ele>45.0</ele><time>2026-05-02T13:01:58.007Z</time></trkpt><trkpt lat="45.2675101" lon="10.4144026"><ele>45.0</ele><time>2026-05-02T13:01:59.007Z</time></trkpt><trkpt lat="45.2677594" lon="10.4143891"><ele>45.0</ele><time>2026-05-02T13:02:00.007Z</time></trkpt><trkpt lat="45.2679965" lon="10.4143726"><ele>45.0</ele><time>2026-05-02T13:02:01.007Z</time></trkpt><trkpt lat="45.2682303" lon="10.4143569"><ele>46.5</ele><time>2026-05-02T13:02:02.008Z</time></trkpt><trkpt lat="45.2684617" lon="10.4143374"><ele>48.0</ele><time>2026-05-02T13:02:03.007Z</time></trkpt><trkpt lat="45.2686847" lon="10.4143062"><ele>48.0</ele><time>2026-05-02T13:02:04.007Z</time></trkpt><trkpt lat="45.2688969" lon="10.4142802"><ele>48.0</ele><time>2026-05-02T13:02:05.008Z</time></trkpt><trkpt lat="45.2691065" lon="10.4142661"><ele>48.0</ele><time>2026-05-02T13:02:06.008Z</time></trkpt><trkpt lat="45.269322" lon="10.4142511"><ele>48.0</ele><time>2026-05-02T13:02:07.007Z</time></trkpt><trkpt lat="45.2695429" lon="10.4142376"><ele>48.0</ele><time>2026-05-02T13:02:08.007Z</time></trkpt><trkpt lat="45.2697692" lon="10.4142225"><ele>48.0</ele><time>2026-05-02T13:02:09.007Z</time></trkpt><trkpt lat="45.2699977" lon="10.4142077"><ele>48.0</ele><time>2026-05-02T13:02:10.007Z</time></trkpt><trkpt lat="45.270218" lon="10.4141932"><ele>48.0</ele><time>2026-05-02T13:02:11.007Z</time></trkpt><trkpt lat="45.2704397" lon="10.4141797"><ele>48.0</ele><time>2026-05-02T13:02:12.007Z</time></trkpt><trkpt lat="45.2706619" lon="10.4141647"><ele>47.0</ele><time>2026-05-02T13:02:13.007Z</time></trkpt><trkpt lat="45.2708931" lon="10.4141421"><ele>46.0</ele><time>2026-05-02T13:02:14.008Z</time></trkpt><trkpt lat="45.2711422" lon="10.4141176"><ele>46.0</ele><time>2026-05-02T13:02:15.008Z</time></trkpt><trkpt lat="45.2714055" lon="10.414094"><ele>46.0</ele><time>2026-05-02T13:02:16.007Z</time></trkpt><trkpt lat="45.2716846" lon="10.4140814"><ele>45.5</ele><time>2026-05-02T13:02:17.007Z</time></trkpt><trkpt lat="45.2719777" lon="10.4140707"><ele>45.0</ele><time>2026-05-02T13:02:18.008Z</time></trkpt><trkpt lat="45.2722841" lon="10.4140586"><ele>45.0</ele><time>2026-05-02T13:02:19.008Z</time></trkpt><trkpt lat="45.2725974" lon="10.4140497"><ele>45.0</ele><time>2026-05-02T13:02:20.007Z</time></trkpt><trkpt lat="45.2729218" lon="10.414035"><ele>45.0</ele><time>2026-05-02T13:02:21.007Z</time></trkpt><trkpt lat="45.2732548" lon="10.4140216"><ele>45.0</ele><time>2026-05-02T13:02:22.007Z</time></trkpt><trkpt lat="45.2735953" lon="10.4140094"><ele>45.0</ele><time>2026-05-02T13:02:23.007Z</time></trkpt><trkpt lat="45.2739444" lon="10.4140106"><ele>45.0</ele><time>2026-05-02T13:02:24.008Z</time></trkpt><trkpt lat="45.2742991" lon="10.4140161"><ele>45.0</ele><time>2026-05-02T13:02:25.009Z</time></trkpt><trkpt lat="45.2746536" lon="10.4140102"><ele>45.0</ele><time>2026-05-02T13:02:26.008Z</time></trkpt><trkpt lat="45.2750083" lon="10.4140024"><ele>45.5</ele><time>2026-05-02T13:02:27.007Z</time></trkpt><trkpt lat="45.27536" lon="10.4139923"><ele>46.0</ele><time>2026-05-02T13:02:28.007Z</time></trkpt><trkpt lat="45.275709" lon="10.4139801"><ele>46.5</ele><time>2026-05-02T13:02:29.007Z</time></trkpt><trkpt lat="45.2760536" lon="10.4139678"><ele>47.0</ele><time>2026-05-02T13:02:30.007Z</time></trkpt><trkpt lat="45.2763907" lon="10.4139547"><ele>47.5</ele><time>2026-05-02T13:02:31.007Z</time></trkpt><trkpt lat="45.2767219" lon="10.4139395"><ele>48.0</ele><time>2026-05-02T13:02:32.007Z</time></trkpt><trkpt lat="45.277055" lon="10.4139233"><ele>47.5</ele><time>2026-05-02T13:02:33.007Z</time></trkpt><trkpt lat="45.2773914" lon="10.4139072"><ele>47.0</ele><time>2026-05-02T13:02:34.007Z</time></trkpt><trkpt lat="45.2777219" lon="10.4138935"><ele>47.0</ele><time>2026-05-02T13:02:35.008Z</time></trkpt><trkpt lat="45.2780465" lon="10.4138784"><ele>47.0</ele><time>2026-05-02T13:02:36.007Z</time></trkpt><trkpt lat="45.2783683" lon="10.4138607"><ele>47.0</ele><time>2026-05-02T13:02:37.007Z</time></trkpt><trkpt lat="45.2786888" lon="10.4138484"><ele>47.0</ele><time>2026-05-02T13:02:38.008Z</time></trkpt><trkpt lat="45.2790078" lon="10.4138359"><ele>47.0</ele><time>2026-05-02T13:02:39.007Z</time></trkpt><trkpt lat="45.2793261" lon="10.4138234"><ele>47.0</ele><time>2026-05-02T13:02:40.008Z</time></trkpt><trkpt lat="45.2796462" lon="10.4138132"><ele>47.5</ele><time>2026-05-02T13:02:41.007Z</time></trkpt><trkpt lat="45.2799649" lon="10.4138031"><ele>48.0</ele><time>2026-05-02T13:02:42.008Z</time></trkpt><trkpt lat="45.2802828" lon="10.4137954"><ele>48.0</ele><time>2026-05-02T13:02:43.008Z</time></trkpt><trkpt lat="45.2806009" lon="10.4137875"><ele>48.0</ele><time>2026-05-02T13:02:44.008Z</time></trkpt><trkpt lat="45.2809198" lon="10.41378"><ele>48.0</ele><time>2026-05-02T13:02:45.007Z</time></trkpt><trkpt lat="45.2812373" lon="10.413772"><ele>48.0</ele><time>2026-05-02T13:02:46.007Z</time></trkpt><trkpt lat="45.2815544" lon="10.4137636"><ele>47.5</ele><time>2026-05-02T13:02:47.008Z</time></trkpt><trkpt lat="45.2818693" lon="10.4137533"><ele>47.0</ele><time>2026-05-02T13:02:48.007Z</time></trkpt><trkpt lat="45.2821808" lon="10.4137417"><ele>47.5</ele><time>2026-05-02T13:02:49.007Z</time></trkpt><trkpt lat="45.282489" lon="10.4137349"><ele>48.0</ele><time>2026-05-02T13:02:50.008Z</time></trkpt><trkpt lat="45.2827937" lon="10.4137276"><ele>48.0</ele><time>2026-05-02T13:02:51.007Z</time></trkpt><trkpt lat="45.2830956" lon="10.4137186"><ele>48.0</ele><time>2026-05-02T13:02:52.008Z</time></trkpt><trkpt lat="45.283398" lon="10.4137115"><ele>47.5</ele><time>2026-05-02T13:02:53.008Z</time></trkpt><trkpt lat="45.2836984" lon="10.413706"><ele>47.0</ele><time>2026-05-02T13:02:54.007Z</time></trkpt><trkpt lat="45.2839959" lon="10.4137055"><ele>46.5</ele><time>2026-05-02T13:02:55.008Z</time></trkpt><trkpt lat="45.2842886" lon="10.4137082"><ele>46.0</ele><time>2026-05-02T13:02:56.007Z</time></trkpt><trkpt lat="45.2845767" lon="10.4137148"><ele>47.0</ele><time>2026-05-02T13:02:57.007Z</time></trkpt><trkpt lat="45.2848613" lon="10.4137298"><ele>48.0</ele><time>2026-05-02T13:02:58.007Z</time></trkpt><trkpt lat="45.2851411" lon="10.4137521"><ele>48.0</ele><time>2026-05-02T13:02:59.007Z</time></trkpt><trkpt lat="45.2854165" lon="10.4137932"><ele>48.0</ele><time>2026-05-02T13:03:00.007Z</time></trkpt><trkpt lat="45.2856903" lon="10.413845"><ele>48.0</ele><time>2026-05-02T13:03:01.007Z</time></trkpt><trkpt lat="45.2859599" lon="10.4138961"><ele>48.0</ele><time>2026-05-02T13:03:02.008Z</time></trkpt><trkpt lat="45.2862272" lon="10.4139443"><ele>48.0</ele><time>2026-05-02T13:03:03.008Z</time></trkpt><trkpt lat="45.2864911" lon="10.4139913"><ele>48.0</ele><time>2026-05-02T13:03:04.008Z</time></trkpt><trkpt lat="45.2867555" lon="10.4140402"><ele>48.0</ele><time>2026-05-02T13:03:05.008Z</time></trkpt><trkpt lat="45.2870218" lon="10.4140916"><ele>48.0</ele><time>2026-05-02T13:03:06.008Z</time></trkpt><trkpt lat="45.2872885" lon="10.4141412"><ele>48.5</ele><time>2026-05-02T13:03:07.007Z</time></trkpt><trkpt lat="45.2875563" lon="10.4141911"><ele>49.0</ele><time>2026-05-02T13:03:08.007Z</time></trkpt><trkpt lat="45.2878249" lon="10.4142408"><ele>49.5</ele><time>2026-05-02T13:03:09.008Z</time></trkpt><trkpt lat="45.2880933" lon="10.4142942"><ele>50.0</ele><time>2026-05-02T13:03:10.007Z</time></trkpt><trkpt lat="45.2883571" lon="10.4143448"><ele>50.0</ele><time>2026-05-02T13:03:11.007Z</time></trkpt><trkpt lat="45.2886159" lon="10.4143899"><ele>50.0</ele><time>2026-05-02T13:03:12.008Z</time></trkpt><trkpt lat="45.2888696" lon="10.4144325"><ele>49.0</ele><time>2026-05-02T13:03:13.008Z</time></trkpt><trkpt lat="45.2891186" lon="10.4144777"><ele>48.0</ele><time>2026-05-02T13:03:14.007Z</time></trkpt><trkpt lat="45.2893624" lon="10.4145241"><ele>48.0</ele><time>2026-05-02T13:03:15.007Z</time></trkpt><trkpt lat="45.2896019" lon="10.4145679"><ele>48.0</ele><time>2026-05-02T13:03:16.007Z</time></trkpt><trkpt lat="45.2898438" lon="10.414607"><ele>48.5</ele><time>2026-05-02T13:03:17.007Z</time></trkpt><trkpt lat="45.2900821" lon="10.4146445"><ele>49.0</ele><time>2026-05-02T13:03:18.007Z</time></trkpt><trkpt lat="45.2903209" lon="10.4146837"><ele>49.0</ele><time>2026-05-02T13:03:19.008Z</time></trkpt><trkpt lat="45.2905591" lon="10.4147263"><ele>49.0</ele><time>2026-05-02T13:03:20.007Z</time></trkpt><trkpt lat="45.2907952" lon="10.4147652"><ele>49.5</ele><time>2026-05-02T13:03:21.007Z</time></trkpt><trkpt lat="45.2910332" lon="10.4148035"><ele>50.0</ele><time>2026-05-02T13:03:22.007Z</time></trkpt><trkpt lat="45.2912706" lon="10.414844"><ele>50.0</ele><time>2026-05-02T13:03:23.007Z</time></trkpt><trkpt lat="45.2915118" lon="10.414884"><ele>50.0</ele><time>2026-05-02T13:03:24.007Z</time></trkpt><trkpt lat="45.2917539" lon="10.4149279"><ele>50.0</ele><time>2026-05-02T13:03:25.007Z</time></trkpt><trkpt lat="45.2919939" lon="10.4149744"><ele>50.0</ele><time>2026-05-02T13:03:26.007Z</time></trkpt><trkpt lat="45.2922344" lon="10.4150239"><ele>49.5</ele><time>2026-05-02T13:03:27.008Z</time></trkpt><trkpt lat="45.2924778" lon="10.4150719"><ele>49.0</ele><time>2026-05-02T13:03:28.008Z</time></trkpt><trkpt lat="45.2927192" lon="10.4151209"><ele>49.0</ele><time>2026-05-02T13:03:29.007Z</time></trkpt><trkpt lat="45.2929594" lon="10.4151663"><ele>49.0</ele><time>2026-05-02T13:03:30.007Z</time></trkpt><trkpt lat="45.2932017" lon="10.4152131"><ele>50.0</ele><time>2026-05-02T13:03:31.007Z</time></trkpt><trkpt lat="45.2934422" lon="10.4152586"><ele>51.0</ele><time>2026-05-02T13:03:32.007Z</time></trkpt><trkpt lat="45.293683" lon="10.4153023"><ele>51.5</ele><time>2026-05-02T13:03:33.007Z</time></trkpt><trkpt lat="45.2939231" lon="10.4153504"><ele>52.0</ele><time>2026-05-02T13:03:34.008Z</time></trkpt><trkpt lat="45.2941634" lon="10.4153933"><ele>52.0</ele><time>2026-05-02T13:03:35.007Z</time></trkpt><trkpt lat="45.2944062" lon="10.4154302"><ele>52.0</ele><time>2026-05-02T13:03:36.008Z</time></trkpt><trkpt lat="45.294647" lon="10.4154603"><ele>51.5</ele><time>2026-05-02T13:03:37.008Z</time></trkpt><trkpt lat="45.2948875" lon="10.41549"><ele>51.0</ele><time>2026-05-02T13:03:38.007Z</time></trkpt><trkpt lat="45.2951271" lon="10.415521"><ele>51.0</ele><time>2026-05-02T13:03:39.007Z</time></trkpt><trkpt lat="45.2953681" lon="10.4155507"><ele>51.0</ele><time>2026-05-02T13:03:40.008Z</time></trkpt><trkpt lat="45.2956094" lon="10.4155809"><ele>50.0</ele><time>2026-05-02T13:03:41.007Z</time></trkpt><trkpt lat="45.295849" lon="10.4156068"><ele>49.0</ele><time>2026-05-02T13:03:42.008Z</time></trkpt><trkpt lat="45.2960877" lon="10.4156316"><ele>49.0</ele><time>2026-05-02T13:03:43.007Z</time></trkpt><trkpt lat="45.2963277" lon="10.41566"><ele>49.0</ele><time>2026-05-02T13:03:44.007Z</time></trkpt><trkpt lat="45.2965687" lon="10.415688"><ele>49.0</ele><time>2026-05-02T13:03:45.007Z</time></trkpt><trkpt lat="45.2968066" lon="10.4157137"><ele>49.0</ele><time>2026-05-02T13:03:46.007Z</time></trkpt><trkpt lat="45.2970467" lon="10.4157405"><ele>49.5</ele><time>2026-05-02T13:03:47.009Z</time></trkpt><trkpt lat="45.2972861" lon="10.4157689"><ele>50.0</ele><time>2026-05-02T13:03:48.008Z</time></trkpt><trkpt lat="45.2975247" lon="10.4158015"><ele>50.0</ele><time>2026-05-02T13:03:49.007Z</time></trkpt><trkpt lat="45.2977626" lon="10.4158313"><ele>50.0</ele><time>2026-05-02T13:03:50.007Z</time></trkpt><trkpt lat="45.2980027" lon="10.4158581"><ele>50.5</ele><time>2026-05-02T13:03:51.008Z</time></trkpt><trkpt lat="45.2982384" lon="10.4158866"><ele>51.0</ele><time>2026-05-02T13:03:52.007Z</time></trkpt><trkpt lat="45.2984753" lon="10.4159126"><ele>51.0</ele><time>2026-05-02T13:03:53.007Z</time></trkpt><trkpt lat="45.2987126" lon="10.4159369"><ele>51.0</ele><time>2026-05-02T13:03:54.007Z</time></trkpt><trkpt lat="45.2989496" lon="10.4159578"><ele>51.0</ele><time>2026-05-02T13:03:55.009Z</time></trkpt><trkpt lat="45.2991907" lon="10.4159888"><ele>51.0</ele><time>2026-05-02T13:03:56.008Z</time></trkpt><trkpt lat="45.2994325" lon="10.4160142"><ele>51.0</ele><time>2026-05-02T13:03:57.008Z</time></trkpt><trkpt lat="45.2996774" lon="10.4160412"><ele>51.0</ele><time>2026-05-02T13:03:58.008Z</time></trkpt><trkpt lat="45.2999236" lon="10.4160711"><ele>51.5</ele><time>2026-05-02T13:03:59.008Z</time></trkpt><trkpt lat="45.3001684" lon="10.4160985"><ele>52.0</ele><time>2026-05-02T13:04:00.007Z</time></trkpt><trkpt lat="45.3004108" lon="10.4161261"><ele>52.0</ele><time>2026-05-02T13:04:01.008Z</time></trkpt><trkpt lat="45.3006547" lon="10.416152"><ele>52.0</ele><time>2026-05-02T13:04:02.007Z</time></trkpt><trkpt lat="45.300897" lon="10.4161798"><ele>52.0</ele><time>2026-05-02T13:04:03.008Z</time></trkpt><trkpt lat="45.3011365" lon="10.4162076"><ele>52.0</ele><time>2026-05-02T13:04:04.007Z</time></trkpt><trkpt lat="45.3013768" lon="10.4162325"><ele>52.0</ele><time>2026-05-02T13:04:05.007Z</time></trkpt><trkpt lat="45.3016171" lon="10.4162635"><ele>52.0</ele><time>2026-05-02T13:04:06.007Z</time></trkpt><trkpt lat="45.301857" lon="10.4162926"><ele>52.0</ele><time>2026-05-02T13:04:07.007Z</time></trkpt><trkpt lat="45.3020971" lon="10.4163138"><ele>52.0</ele><time>2026-05-02T13:04:08.008Z</time></trkpt><trkpt lat="45.3023408" lon="10.416334"><ele>52.0</ele><time>2026-05-02T13:04:09.007Z</time></trkpt><trkpt lat="45.3025829" lon="10.4163601"><ele>52.0</ele><time>2026-05-02T13:04:10.007Z</time></trkpt><trkpt lat="45.3028267" lon="10.416381"><ele>52.0</ele><time>2026-05-02T13:04:11.007Z</time></trkpt><trkpt lat="45.3030721" lon="10.4164036"><ele>52.0</ele><time>2026-05-02T13:04:12.008Z</time></trkpt><trkpt lat="45.3033183" lon="10.4164249"><ele>52.0</ele><time>2026-05-02T13:04:13.008Z</time></trkpt><trkpt lat="45.3035641" lon="10.4164514"><ele>52.0</ele><time>2026-05-02T13:04:14.008Z</time></trkpt><trkpt lat="45.3038083" lon="10.4164848"><ele>52.0</ele><time>2026-05-02T13:04:15.008Z</time></trkpt><trkpt lat="45.3040517" lon="10.4165274"><ele>52.0</ele><time>2026-05-02T13:04:16.008Z</time></trkpt><trkpt lat="45.3042911" lon="10.4165756"><ele>52.0</ele><time>2026-05-02T13:04:17.009Z</time></trkpt><trkpt lat="45.3045275" lon="10.4166245"><ele>52.0</ele><time>2026-05-02T13:04:18.007Z</time></trkpt><trkpt lat="45.3047577" lon="10.4166725"><ele>52.0</ele><time>2026-05-02T13:04:19.007Z</time></trkpt><trkpt lat="45.3049766" lon="10.4167204"><ele>52.0</ele><time>2026-05-02T13:04:20.008Z</time></trkpt><trkpt lat="45.3051809" lon="10.4167646"><ele>52.0</ele><time>2026-05-02T13:04:21.008Z</time></trkpt><trkpt lat="45.3053594" lon="10.4168034"><ele>52.0</ele><time>2026-05-02T13:04:22.007Z</time></trkpt><trkpt lat="45.3055119" lon="10.4168333"><ele>52.0</ele><time>2026-05-02T13:04:23.008Z</time></trkpt><trkpt lat="45.3056434" lon="10.4168589"><ele>52.0</ele><time>2026-05-02T13:04:24.007Z</time></trkpt><trkpt lat="45.3057544" lon="10.4168822"><ele>52.0</ele><time>2026-05-02T13:04:25.008Z</time></trkpt><trkpt lat="45.3058514" lon="10.4169036"><ele>52.33333333333333</ele><time>2026-05-02T13:04:26.007Z</time></trkpt><trkpt lat="45.3059223" lon="10.4169179"><ele>52.666666666666664</ele><time>2026-05-02T13:04:27.007Z</time></trkpt><trkpt lat="45.3060124" lon="10.4169311"><ele>53.0</ele><time>2026-05-02T13:04:29.008Z</time></trkpt><trkpt lat="45.3060754" lon="10.4169481"><ele>53.33333333333333</ele><time>2026-05-02T13:04:32.007Z</time></trkpt><trkpt lat="45.3061794" lon="10.4169665"><ele>53.666666666666664</ele><time>2026-05-02T13:04:56.007Z</time></trkpt><trkpt lat="45.3062692" lon="10.4169844"><ele>54.0</ele><time>2026-05-02T13:04:58.007Z</time></trkpt><trkpt lat="45.3063336" lon="10.4170004"><ele>54.0</ele><time>2026-05-02T13:04:59.007Z</time></trkpt><trkpt lat="45.3064061" lon="10.4170147"><ele>54.0</ele><time>2026-05-02T13:05:00.007Z</time></trkpt><trkpt lat="45.3064818" lon="10.4170269"><ele>54.0</ele><time>2026-05-02T13:05:01.008Z</time></trkpt><trkpt lat="45.3065644" lon="10.4170385"><ele>54.0</ele><time>2026-05-02T13:05:02.007Z</time></trkpt><trkpt lat="45.3066543" lon="10.4170495"><ele>54.0</ele><time>2026-05-02T13:05:03.008Z</time></trkpt><trkpt lat="45.30675" lon="10.4170608"><ele>54.0</ele><time>2026-05-02T13:05:04.008Z</time></trkpt><trkpt lat="45.3068506" lon="10.4170745"><ele>54.25</ele><time>2026-05-02T13:05:05.008Z</time></trkpt><trkpt lat="45.3069581" lon="10.4170905"><ele>54.5</ele><time>2026-05-02T13:05:06.008Z</time></trkpt><trkpt lat="45.3070719" lon="10.4171141"><ele>54.75</ele><time>2026-05-02T13:05:07.007Z</time></trkpt><trkpt lat="45.3071874" lon="10.4171381"><ele>55.0</ele><time>2026-05-02T13:05:08.007Z</time></trkpt><trkpt lat="45.3073087" lon="10.4171591"><ele>54.5</ele><time>2026-05-02T13:05:09.007Z</time></trkpt><trkpt lat="45.3074371" lon="10.4171816"><ele>54.0</ele><time>2026-05-02T13:05:10.007Z</time></trkpt><trkpt lat="45.3075812" lon="10.4172058"><ele>53.5</ele><time>2026-05-02T13:05:11.008Z</time></trkpt><trkpt lat="45.3077429" lon="10.4172333"><ele>53.0</ele><time>2026-05-02T13:05:12.008Z</time></trkpt><trkpt lat="45.3079283" lon="10.417271"><ele>52.333333333333336</ele><time>2026-05-02T13:05:13.007Z</time></trkpt><trkpt lat="45.308115" lon="10.4173103"><ele>51.66666666666667</ele><time>2026-05-02T13:05:14.008Z</time></trkpt><trkpt lat="45.3082918" lon="10.4173506"><ele>51.0</ele><time>2026-05-02T13:05:15.007Z</time></trkpt><trkpt lat="45.3084601" lon="10.4173878"><ele>51.0</ele><time>2026-05-02T13:05:16.007Z</time></trkpt><trkpt lat="45.3086181" lon="10.4174216"><ele>51.0</ele><time>2026-05-02T13:05:17.007Z</time></trkpt><trkpt lat="45.3087749" lon="10.4174579"><ele>51.0</ele><time>2026-05-02T13:05:18.007Z</time></trkpt><trkpt lat="45.3089326" lon="10.4174894"><ele>51.66666666666667</ele><time>2026-05-02T13:05:19.007Z</time></trkpt><trkpt lat="45.3090897" lon="10.4175203"><ele>52.333333333333336</ele><time>2026-05-02T13:05:20.008Z</time></trkpt><trkpt lat="45.3092414" lon="10.4175464"><ele>53.0</ele><time>2026-05-02T13:05:21.007Z</time></trkpt><trkpt lat="45.3093899" lon="10.4175748"><ele>53.0</ele><time>2026-05-02T13:05:22.008Z</time></trkpt><trkpt lat="45.3095418" lon="10.4176063"><ele>53.0</ele><time>2026-05-02T13:05:23.007Z</time></trkpt><trkpt lat="45.3096936" lon="10.4176352"><ele>53.0</ele><time>2026-05-02T13:05:24.007Z</time></trkpt><trkpt lat="45.3098499" lon="10.4176688"><ele>53.0</ele><time>2026-05-02T13:05:25.007Z</time></trkpt><trkpt lat="45.3100078" lon="10.4177005"><ele>53.0</ele><time>2026-05-02T13:05:26.008Z</time></trkpt><trkpt lat="45.3101574" lon="10.4177309"><ele>53.0</ele><time>2026-05-02T13:05:27.008Z</time></trkpt><trkpt lat="45.3103007" lon="10.4177615"><ele>53.0</ele><time>2026-05-02T13:05:28.007Z</time></trkpt><trkpt lat="45.3104365" lon="10.4177863"><ele>53.0</ele><time>2026-05-02T13:05:29.007Z</time></trkpt><trkpt lat="45.3105642" lon="10.417815"><ele>53.0</ele><time>2026-05-02T13:05:30.009Z</time></trkpt><trkpt lat="45.3106832" lon="10.417845"><ele>53.0</ele><time>2026-05-02T13:05:31.008Z</time></trkpt><trkpt lat="45.3107977" lon="10.4178729"><ele>53.2</ele><time>2026-05-02T13:05:32.008Z</time></trkpt><trkpt lat="45.31091" lon="10.4179057"><ele>53.4</ele><time>2026-05-02T13:05:33.007Z</time></trkpt><trkpt lat="45.3110056" lon="10.4179418"><ele>53.60000000000001</ele><time>2026-05-02T13:05:34.007Z</time></trkpt><trkpt lat="45.3110899" lon="10.4179815"><ele>53.800000000000004</ele><time>2026-05-02T13:05:35.007Z</time></trkpt><trkpt lat="45.3111729" lon="10.4180394"><ele>54.0</ele><time>2026-05-02T13:05:36.008Z</time></trkpt><trkpt lat="45.3112499" lon="10.4181322"><ele>53.6</ele><time>2026-05-02T13:05:37.007Z</time></trkpt><trkpt lat="45.3113334" lon="10.4182144"><ele>53.2</ele><time>2026-05-02T13:05:38.008Z</time></trkpt><trkpt lat="45.3114297" lon="10.4182569"><ele>52.800000000000004</ele><time>2026-05-02T13:05:39.008Z</time></trkpt><trkpt lat="45.3115347" lon="10.4182523"><ele>52.400000000000006</ele><time>2026-05-02T13:05:40.007Z</time></trkpt><trkpt lat="45.3116349" lon="10.4182131"><ele>52.0</ele><time>2026-05-02T13:05:41.007Z</time></trkpt><trkpt lat="45.3117408" lon="10.4181739"><ele>52.0</ele><time>2026-05-02T13:05:42.008Z</time></trkpt><trkpt lat="45.3118539" lon="10.4181775"><ele>52.0</ele><time>2026-05-02T13:05:43.007Z</time></trkpt><trkpt lat="45.311967" lon="10.4182179"><ele>52.0</ele><time>2026-05-02T13:05:44.007Z</time></trkpt><trkpt lat="45.3120841" lon="10.4182774"><ele>52.0</ele><time>2026-05-02T13:05:45.008Z</time></trkpt><trkpt lat="45.3122134" lon="10.4183461"><ele>52.75</ele><time>2026-05-02T13:05:46.008Z</time></trkpt><trkpt lat="45.3123509" lon="10.4184179"><ele>53.5</ele><time>2026-05-02T13:05:47.007Z</time></trkpt><trkpt lat="45.3124899" lon="10.4184866"><ele>54.25</ele><time>2026-05-02T13:05:48.008Z</time></trkpt><trkpt lat="45.312632" lon="10.4185562"><ele>55.0</ele><time>2026-05-02T13:05:49.008Z</time></trkpt><trkpt lat="45.3127965" lon="10.4186307"><ele>55.0</ele><time>2026-05-02T13:05:50.007Z</time></trkpt><trkpt lat="45.3129838" lon="10.418722"><ele>55.0</ele><time>2026-05-02T13:05:51.007Z</time></trkpt><trkpt lat="45.3131911" lon="10.4188299"><ele>55.0</ele><time>2026-05-02T13:05:52.008Z</time></trkpt><trkpt lat="45.313422" lon="10.4189464"><ele>54.5</ele><time>2026-05-02T13:05:53.007Z</time></trkpt><trkpt lat="45.3136676" lon="10.4190814"><ele>54.0</ele><time>2026-05-02T13:05:54.008Z</time></trkpt><trkpt lat="45.3139192" lon="10.4192302"><ele>53.5</ele><time>2026-05-02T13:05:55.007Z</time></trkpt><trkpt lat="45.3141809" lon="10.4193753"><ele>53.0</ele><time>2026-05-02T13:05:56.008Z</time></trkpt><trkpt lat="45.3144391" lon="10.4195106"><ele>53.0</ele><time>2026-05-02T13:05:57.008Z</time></trkpt><trkpt lat="45.314697" lon="10.4196462"><ele>53.0</ele><time>2026-05-02T13:05:58.008Z</time></trkpt><trkpt lat="45.3149533" lon="10.4197835"><ele>54.0</ele><time>2026-05-02T13:05:59.008Z</time></trkpt><trkpt lat="45.3152084" lon="10.4199185"><ele>55.0</ele><time>2026-05-02T13:06:00.007Z</time></trkpt><trkpt lat="45.3154646" lon="10.4200543"><ele>54.5</ele><time>2026-05-02T13:06:01.007Z</time></trkpt><trkpt lat="45.3157214" lon="10.4201913"><ele>54.0</ele><time>2026-05-02T13:06:02.007Z</time></trkpt><trkpt lat="45.3159826" lon="10.4203281"><ele>54.0</ele><time>2026-05-02T13:06:03.008Z</time></trkpt><trkpt lat="45.3162433" lon="10.4204655"><ele>54.0</ele><time>2026-05-02T13:06:04.008Z</time></trkpt><trkpt lat="45.3165046" lon="10.4206025"><ele>53.5</ele><time>2026-05-02T13:06:05.008Z</time></trkpt><trkpt lat="45.3167647" lon="10.4207416"><ele>53.0</ele><time>2026-05-02T13:06:06.007Z</time></trkpt><trkpt lat="45.3170262" lon="10.4208844"><ele>54.0</ele><time>2026-05-02T13:06:07.007Z</time></trkpt><trkpt lat="45.3172937" lon="10.4210294"><ele>55.0</ele><time>2026-05-02T13:06:08.007Z</time></trkpt><trkpt lat="45.3175481" lon="10.4211635"><ele>55.0</ele><time>2026-05-02T13:06:09.008Z</time></trkpt><trkpt lat="45.3177942" lon="10.4213111"><ele>55.0</ele><time>2026-05-02T13:06:10.008Z</time></trkpt><trkpt lat="45.3180355" lon="10.4214635"><ele>55.0</ele><time>2026-05-02T13:06:11.007Z</time></trkpt><trkpt lat="45.3182818" lon="10.4215904"><ele>55.0</ele><time>2026-05-02T13:06:12.007Z</time></trkpt><trkpt lat="45.3185365" lon="10.4216987"><ele>55.0</ele><time>2026-05-02T13:06:13.007Z</time></trkpt><trkpt lat="45.3188027" lon="10.4217799"><ele>55.0</ele><time>2026-05-02T13:06:14.007Z</time></trkpt><trkpt lat="45.3190766" lon="10.4218325"><ele>56.5</ele><time>2026-05-02T13:06:15.009Z</time></trkpt><trkpt lat="45.3193555" lon="10.4218662"><ele>58.0</ele><time>2026-05-02T13:06:16.007Z</time></trkpt><trkpt lat="45.3196336" lon="10.4218868"><ele>58.0</ele><time>2026-05-02T13:06:17.008Z</time></trkpt><trkpt lat="45.319896" lon="10.4219038"><ele>58.0</ele><time>2026-05-02T13:06:18.007Z</time></trkpt><trkpt lat="45.3201476" lon="10.4219197"><ele>58.0</ele><time>2026-05-02T13:06:19.007Z</time></trkpt><trkpt lat="45.3203847" lon="10.4219355"><ele>58.0</ele><time>2026-05-02T13:06:20.007Z</time></trkpt><trkpt lat="45.3206113" lon="10.4219476"><ele>57.33333333333333</ele><time>2026-05-02T13:06:21.008Z</time></trkpt><trkpt lat="45.3208231" lon="10.4219568"><ele>56.66666666666667</ele><time>2026-05-02T13:06:22.007Z</time></trkpt><trkpt lat="45.3210271" lon="10.4219697"><ele>56.0</ele><time>2026-05-02T13:06:23.007Z</time></trkpt><trkpt lat="45.3212291" lon="10.4219832"><ele>55.66666666666667</ele><time>2026-05-02T13:06:24.008Z</time></trkpt><trkpt lat="45.3214288" lon="10.4220006"><ele>55.33333333333333</ele><time>2026-05-02T13:06:25.008Z</time></trkpt><trkpt lat="45.3216294" lon="10.4220222"><ele>55.0</ele><time>2026-05-02T13:06:26.007Z</time></trkpt><trkpt lat="45.3218363" lon="10.4220492"><ele>55.0</ele><time>2026-05-02T13:06:27.008Z</time></trkpt><trkpt lat="45.3220467" lon="10.4220805"><ele>55.0</ele><time>2026-05-02T13:06:28.007Z</time></trkpt><trkpt lat="45.3222594" lon="10.4221111"><ele>55.0</ele><time>2026-05-02T13:06:29.007Z</time></trkpt><trkpt lat="45.3224731" lon="10.4221428"><ele>55.33333333333333</ele><time>2026-05-02T13:06:30.007Z</time></trkpt><trkpt lat="45.3226854" lon="10.4221786"><ele>55.66666666666667</ele><time>2026-05-02T13:06:31.008Z</time></trkpt><trkpt lat="45.3228896" lon="10.4222132"><ele>56.0</ele><time>2026-05-02T13:06:32.007Z</time></trkpt><trkpt lat="45.3230862" lon="10.4222463"><ele>56.0</ele><time>2026-05-02T13:06:33.007Z</time></trkpt><trkpt lat="45.3232774" lon="10.4222757"><ele>56.0</ele><time>2026-05-02T13:06:34.007Z</time></trkpt><trkpt lat="45.3234705" lon="10.4223084"><ele>56.0</ele><time>2026-05-02T13:06:35.007Z</time></trkpt><trkpt lat="45.3236691" lon="10.4223406"><ele>56.0</ele><time>2026-05-02T13:06:36.008Z</time></trkpt><trkpt lat="45.323878" lon="10.42238"><ele>56.0</ele><time>2026-05-02T13:06:37.007Z</time></trkpt><trkpt lat="45.3240973" lon="10.4224209"><ele>56.0</ele><time>2026-05-02T13:06:38.007Z</time></trkpt><trkpt lat="45.3243263" lon="10.4224631"><ele>56.0</ele><time>2026-05-02T13:06:39.008Z</time></trkpt><trkpt lat="45.3245524" lon="10.4225039"><ele>56.0</ele><time>2026-05-02T13:06:40.007Z</time></trkpt><trkpt lat="45.3247837" lon="10.4225444"><ele>57.5</ele><time>2026-05-02T13:06:41.008Z</time></trkpt><trkpt lat="45.3250245" lon="10.4225902"><ele>59.0</ele><time>2026-05-02T13:06:42.008Z</time></trkpt><trkpt lat="45.3252768" lon="10.4226358"><ele>59.0</ele><time>2026-05-02T13:06:43.007Z</time></trkpt><trkpt lat="45.3255409" lon="10.4226867"><ele>59.0</ele><time>2026-05-02T13:06:44.009Z</time></trkpt><trkpt lat="45.3258044" lon="10.4227406"><ele>57.5</ele><time>2026-05-02T13:06:45.007Z</time></trkpt><trkpt lat="45.3260677" lon="10.422795"><ele>56.0</ele><time>2026-05-02T13:06:46.007Z</time></trkpt><trkpt lat="45.3263336" lon="10.4228519"><ele>56.0</ele><time>2026-05-02T13:06:47.007Z</time></trkpt><trkpt lat="45.3266014" lon="10.4229088"><ele>56.0</ele><time>2026-05-02T13:06:48.007Z</time></trkpt><trkpt lat="45.3268693" lon="10.4229683"><ele>56.0</ele><time>2026-05-02T13:06:49.008Z</time></trkpt><trkpt lat="45.327136" lon="10.4230371"><ele>56.0</ele><time>2026-05-02T13:06:50.008Z</time></trkpt><trkpt lat="45.3274092" lon="10.4231116"><ele>57.0</ele><time>2026-05-02T13:06:51.008Z</time></trkpt><trkpt lat="45.3276831" lon="10.4231876"><ele>58.0</ele><time>2026-05-02T13:06:52.008Z</time></trkpt><trkpt lat="45.3279578" lon="10.4232613"><ele>58.0</ele><time>2026-05-02T13:06:53.008Z</time></trkpt><trkpt lat="45.3282337" lon="10.4233362"><ele>58.0</ele><time>2026-05-02T13:06:54.007Z</time></trkpt><trkpt lat="45.3285128" lon="10.4234108"><ele>58.0</ele><time>2026-05-02T13:06:55.007Z</time></trkpt><trkpt lat="45.3287924" lon="10.4234775"><ele>58.0</ele><time>2026-05-02T13:06:56.007Z</time></trkpt><trkpt lat="45.3290742" lon="10.4235419"><ele>58.5</ele><time>2026-05-02T13:06:57.007Z</time></trkpt><trkpt lat="45.3293526" lon="10.4236112"><ele>59.0</ele><time>2026-05-02T13:06:58.007Z</time></trkpt><trkpt lat="45.3296248" lon="10.4236787"><ele>59.0</ele><time>2026-05-02T13:06:59.008Z</time></trkpt><trkpt lat="45.3298954" lon="10.4237414"><ele>59.0</ele><time>2026-05-02T13:07:00.008Z</time></trkpt><trkpt lat="45.3301617" lon="10.4238082"><ele>58.5</ele><time>2026-05-02T13:07:01.008Z</time></trkpt><trkpt lat="45.3304247" lon="10.4238706"><ele>58.0</ele><time>2026-05-02T13:07:02.007Z</time></trkpt><trkpt lat="45.3306867" lon="10.4239369"><ele>58.0</ele><time>2026-05-02T13:07:03.007Z</time></trkpt><trkpt lat="45.3309463" lon="10.4240034"><ele>58.0</ele><time>2026-05-02T13:07:04.007Z</time></trkpt><trkpt lat="45.3312075" lon="10.4240713"><ele>57.5</ele><time>2026-05-02T13:07:05.008Z</time></trkpt><trkpt lat="45.3314685" lon="10.4241401"><ele>57.0</ele><time>2026-05-02T13:07:06.007Z</time></trkpt><trkpt lat="45.3317305" lon="10.4242106"><ele>57.0</ele><time>2026-05-02T13:07:07.008Z</time></trkpt><trkpt lat="45.331998" lon="10.4242824"><ele>57.0</ele><time>2026-05-02T13:07:08.007Z</time></trkpt><trkpt lat="45.3322646" lon="10.4243525"><ele>58.0</ele><time>2026-05-02T13:07:09.008Z</time></trkpt><trkpt lat="45.3325334" lon="10.4244205"><ele>59.0</ele><time>2026-05-02T13:07:10.007Z</time></trkpt><trkpt lat="45.332797" lon="10.4244926"><ele>60.0</ele><time>2026-05-02T13:07:11.008Z</time></trkpt><trkpt lat="45.3330618" lon="10.4245639"><ele>61.0</ele><time>2026-05-02T13:07:12.008Z</time></trkpt><trkpt lat="45.3333217" lon="10.4246429"><ele>61.0</ele><time>2026-05-02T13:07:13.008Z</time></trkpt><trkpt lat="45.3335772" lon="10.4247183"><ele>61.0</ele><time>2026-05-02T13:07:14.007Z</time></trkpt><trkpt lat="45.3338318" lon="10.4247873"><ele>61.0</ele><time>2026-05-02T13:07:15.008Z</time></trkpt><trkpt lat="45.3340837" lon="10.4248563"><ele>61.0</ele><time>2026-05-02T13:07:16.007Z</time></trkpt><trkpt lat="45.3343311" lon="10.424922"><ele>61.0</ele><time>2026-05-02T13:07:17.007Z</time></trkpt><trkpt lat="45.3345727" lon="10.4249831"><ele>61.0</ele><time>2026-05-02T13:07:18.007Z</time></trkpt><trkpt lat="45.3348142" lon="10.4250571"><ele>61.0</ele><time>2026-05-02T13:07:19.007Z</time></trkpt><trkpt lat="45.3350558" lon="10.4251437"><ele>61.0</ele><time>2026-05-02T13:07:20.008Z</time></trkpt><trkpt lat="45.3352944" lon="10.4252457"><ele>61.0</ele><time>2026-05-02T13:07:21.007Z</time></trkpt><trkpt lat="45.3355187" lon="10.425364"><ele>61.0</ele><time>2026-05-02T13:07:22.008Z</time></trkpt><trkpt lat="45.3357268" lon="10.4254964"><ele>61.0</ele><time>2026-05-02T13:07:23.008Z</time></trkpt><trkpt lat="45.3359246" lon="10.4256342"><ele>61.0</ele><time>2026-05-02T13:07:24.008Z</time></trkpt><trkpt lat="45.3361125" lon="10.4257814"><ele>61.0</ele><time>2026-05-02T13:07:25.009Z</time></trkpt><trkpt lat="45.3362986" lon="10.4259376"><ele>61.0</ele><time>2026-05-02T13:07:26.008Z</time></trkpt><trkpt lat="45.3364791" lon="10.4261065"><ele>61.0</ele><time>2026-05-02T13:07:27.008Z</time></trkpt><trkpt lat="45.3366525" lon="10.4262753"><ele>61.0</ele><time>2026-05-02T13:07:28.008Z</time></trkpt><trkpt lat="45.3368128" lon="10.426441"><ele>61.0</ele><time>2026-05-02T13:07:29.008Z</time></trkpt><trkpt lat="45.336963" lon="10.4266028"><ele>61.0</ele><time>2026-05-02T13:07:30.008Z</time></trkpt><trkpt lat="45.3371057" lon="10.4267603"><ele>61.0</ele><time>2026-05-02T13:07:31.008Z</time></trkpt><trkpt lat="45.3372402" lon="10.426918"><ele>61.33333333333333</ele><time>2026-05-02T13:07:32.007Z</time></trkpt><trkpt lat="45.3373704" lon="10.4270837"><ele>61.66666666666667</ele><time>2026-05-02T13:07:33.007Z</time></trkpt><trkpt lat="45.3375018" lon="10.4272547"><ele>62.0</ele><time>2026-05-02T13:07:34.008Z</time></trkpt><trkpt lat="45.3376315" lon="10.4274237"><ele>61.333333333333336</ele><time>2026-05-02T13:07:35.008Z</time></trkpt><trkpt lat="45.3377543" lon="10.427586"><ele>60.66666666666667</ele><time>2026-05-02T13:07:36.007Z</time></trkpt><trkpt lat="45.3378708" lon="10.4277556"><ele>60.0</ele><time>2026-05-02T13:07:37.007Z</time></trkpt><trkpt lat="45.3379801" lon="10.4279386"><ele>60.66666666666667</ele><time>2026-05-02T13:07:38.007Z</time></trkpt><trkpt lat="45.3380835" lon="10.4281282"><ele>61.333333333333336</ele><time>2026-05-02T13:07:39.008Z</time></trkpt><trkpt lat="45.3381836" lon="10.4283176"><ele>62.0</ele><time>2026-05-02T13:07:40.008Z</time></trkpt><trkpt lat="45.3382781" lon="10.4285032"><ele>62.0</ele><time>2026-05-02T13:07:41.008Z</time></trkpt><trkpt lat="45.338362" lon="10.4286774"><ele>62.0</ele><time>2026-05-02T13:07:42.007Z</time></trkpt><trkpt lat="45.3384378" lon="10.4288471"><ele>62.0</ele><time>2026-05-02T13:07:43.007Z</time></trkpt><trkpt lat="45.3385076" lon="10.4290129"><ele>62.0</ele><time>2026-05-02T13:07:44.008Z</time></trkpt><trkpt lat="45.3385773" lon="10.4291673"><ele>61.8</ele><time>2026-05-02T13:07:45.007Z</time></trkpt><trkpt lat="45.3386403" lon="10.4293188"><ele>61.6</ele><time>2026-05-02T13:07:46.007Z</time></trkpt><trkpt lat="45.3386947" lon="10.4294659"><ele>61.39999999999999</ele><time>2026-05-02T13:07:47.007Z</time></trkpt><trkpt lat="45.3387439" lon="10.4296029"><ele>61.199999999999996</ele><time>2026-05-02T13:07:48.009Z</time></trkpt><trkpt lat="45.3387871" lon="10.4297217"><ele>61.0</ele><time>2026-05-02T13:07:49.008Z</time></trkpt><trkpt lat="45.3388209" lon="10.4298249"><ele>60.99999999999999</ele><time>2026-05-02T13:07:50.008Z</time></trkpt><trkpt lat="45.3388528" lon="10.4299265"><ele>61.0</ele><time>2026-05-02T13:07:51.007Z</time></trkpt><trkpt lat="45.338887" lon="10.4300269"><ele>61.0</ele><time>2026-05-02T13:07:52.007Z</time></trkpt><trkpt lat="45.3389271" lon="10.4301262"><ele>61.0</ele><time>2026-05-02T13:07:53.007Z</time></trkpt><trkpt lat="45.3389721" lon="10.4302407"><ele>60.99999999999999</ele><time>2026-05-02T13:07:54.007Z</time></trkpt><trkpt lat="45.3390214" lon="10.4303929"><ele>61.0</ele><time>2026-05-02T13:07:55.007Z</time></trkpt><trkpt lat="45.3390783" lon="10.4305837"><ele>61.0</ele><time>2026-05-02T13:07:56.007Z</time></trkpt><trkpt lat="45.3391491" lon="10.4308074"><ele>61.0</ele><time>2026-05-02T13:07:57.007Z</time></trkpt><trkpt lat="45.3392318" lon="10.4310607"><ele>61.0</ele><time>2026-05-02T13:07:58.008Z</time></trkpt><trkpt lat="45.3393118" lon="10.43131"><ele>60.666666666666664</ele><time>2026-05-02T13:07:59.007Z</time></trkpt><trkpt lat="45.339385" lon="10.431545"><ele>60.33333333333333</ele><time>2026-05-02T13:08:00.007Z</time></trkpt><trkpt lat="45.3394615" lon="10.4317759"><ele>60.0</ele><time>2026-05-02T13:08:01.008Z</time></trkpt><trkpt lat="45.339536" lon="10.4320054"><ele>60.0</ele><time>2026-05-02T13:08:02.007Z</time></trkpt><trkpt lat="45.3396098" lon="10.4322296"><ele>60.0</ele><time>2026-05-02T13:08:03.007Z</time></trkpt><trkpt lat="45.3396788" lon="10.432451"><ele>60.0</ele><time>2026-05-02T13:08:04.007Z</time></trkpt><trkpt lat="45.3397452" lon="10.4326672"><ele>60.0</ele><time>2026-05-02T13:08:05.008Z</time></trkpt><trkpt lat="45.3398086" lon="10.4328618"><ele>60.0</ele><time>2026-05-02T13:08:06.007Z</time></trkpt><trkpt lat="45.3398649" lon="10.4330341"><ele>60.0</ele><time>2026-05-02T13:08:07.008Z</time></trkpt><trkpt lat="45.3399183" lon="10.4331955"><ele>60.0</ele><time>2026-05-02T13:08:08.007Z</time></trkpt><trkpt lat="45.3399686" lon="10.4333463"><ele>60.25</ele><time>2026-05-02T13:08:09.008Z</time></trkpt><trkpt lat="45.3400139" lon="10.4334841"><ele>60.5</ele><time>2026-05-02T13:08:10.007Z</time></trkpt><trkpt lat="45.3400644" lon="10.4336319"><ele>60.75</ele><time>2026-05-02T13:08:11.007Z</time></trkpt><trkpt lat="45.3401225" lon="10.4338146"><ele>61.0</ele><time>2026-05-02T13:08:12.007Z</time></trkpt><trkpt lat="45.3401986" lon="10.4340202"><ele>61.0</ele><time>2026-05-02T13:08:13.007Z</time></trkpt><trkpt lat="45.3402856" lon="10.4342586"><ele>61.0</ele><time>2026-05-02T13:08:14.007Z</time></trkpt><trkpt lat="45.3403741" lon="10.434536"><ele>61.0</ele><time>2026-05-02T13:08:15.007Z</time></trkpt><trkpt lat="45.3404629" lon="10.4348523"><ele>61.5</ele><time>2026-05-02T13:08:16.008Z</time></trkpt><trkpt lat="45.3405585" lon="10.4351886"><ele>62.0</ele><time>2026-05-02T13:08:17.008Z</time></trkpt><trkpt lat="45.3406687" lon="10.4355256"><ele>62.5</ele><time>2026-05-02T13:08:18.008Z</time></trkpt><trkpt lat="45.3407932" lon="10.4358446"><ele>63.0</ele><time>2026-05-02T13:08:19.007Z</time></trkpt><trkpt lat="45.3409212" lon="10.4361454"><ele>63.5</ele><time>2026-05-02T13:08:20.008Z</time></trkpt><trkpt lat="45.3410511" lon="10.4364384"><ele>64.0</ele><time>2026-05-02T13:08:21.007Z</time></trkpt><trkpt lat="45.3411747" lon="10.4367223"><ele>64.0</ele><time>2026-05-02T13:08:22.008Z</time></trkpt><trkpt lat="45.341281" lon="10.4369858"><ele>64.0</ele><time>2026-05-02T13:08:23.007Z</time></trkpt><trkpt lat="45.3413692" lon="10.4372142"><ele>64.0</ele><time>2026-05-02T13:08:24.008Z</time></trkpt><trkpt lat="45.3414407" lon="10.4374042"><ele>63.800000000000004</ele><time>2026-05-02T13:08:25.007Z</time></trkpt><trkpt lat="45.3414977" lon="10.437557"><ele>63.60000000000001</ele><time>2026-05-02T13:08:26.007Z</time></trkpt><trkpt lat="45.3415487" lon="10.4376917"><ele>63.4</ele><time>2026-05-02T13:08:27.007Z</time></trkpt><trkpt lat="45.3415999" lon="10.437821"><ele>63.2</ele><time>2026-05-02T13:08:28.008Z</time></trkpt><trkpt lat="45.341646" lon="10.437934"><ele>63.0</ele><time>2026-05-02T13:08:29.008Z</time></trkpt><trkpt lat="45.3416865" lon="10.4380361"><ele>63.0</ele><time>2026-05-02T13:08:30.008Z</time></trkpt><trkpt lat="45.3417158" lon="10.4381202"><ele>63.0</ele><time>2026-05-02T13:08:31.008Z</time></trkpt><trkpt lat="45.3417689" lon="10.4382534"><ele>63.0</ele><time>2026-05-02T13:08:33.007Z</time></trkpt><trkpt lat="45.3418153" lon="10.4384115"><ele>63.0</ele><time>2026-05-02T13:08:35.008Z</time></trkpt><trkpt lat="45.3418425" lon="10.4385076"><ele>63.0</ele><time>2026-05-02T13:08:36.009Z</time></trkpt><trkpt lat="45.341871" lon="10.4386149"><ele>63.0</ele><time>2026-05-02T13:08:37.007Z</time></trkpt><trkpt lat="45.3419107" lon="10.4387227"><ele>63.0</ele><time>2026-05-02T13:08:38.007Z</time></trkpt><trkpt lat="45.3419675" lon="10.4388112"><ele>63.0</ele><time>2026-05-02T13:08:39.008Z</time></trkpt><trkpt lat="45.3420386" lon="10.4388784"><ele>63.0</ele><time>2026-05-02T13:08:40.007Z</time></trkpt><trkpt lat="45.3421138" lon="10.4389319"><ele>63.0</ele><time>2026-05-02T13:08:41.007Z</time></trkpt><trkpt lat="45.3421927" lon="10.438987"><ele>63.0</ele><time>2026-05-02T13:08:42.008Z</time></trkpt><trkpt lat="45.3422718" lon="10.439048"><ele>63.0</ele><time>2026-05-02T13:08:43.007Z</time></trkpt><trkpt lat="45.3423555" lon="10.4391253"><ele>63.0</ele><time>2026-05-02T13:08:44.008Z</time></trkpt><trkpt lat="45.3424459" lon="10.4392098"><ele>63.0</ele><time>2026-05-02T13:08:45.008Z</time></trkpt><trkpt lat="45.3425434" lon="10.4392949"><ele>63.0</ele><time>2026-05-02T13:08:46.007Z</time></trkpt><trkpt lat="45.3426355" lon="10.4393833"><ele>63.0</ele><time>2026-05-02T13:08:47.007Z</time></trkpt><trkpt lat="45.3427203" lon="10.4394696"><ele>63.0</ele><time>2026-05-02T13:08:48.007Z</time></trkpt><trkpt lat="45.3428072" lon="10.4395579"><ele>63.0</ele><time>2026-05-02T13:08:49.007Z</time></trkpt><trkpt lat="45.3428948" lon="10.4396484"><ele>63.0</ele><time>2026-05-02T13:08:50.008Z</time></trkpt><trkpt lat="45.3429842" lon="10.439742"><ele>63.0</ele><time>2026-05-02T13:08:51.008Z</time></trkpt><trkpt lat="45.3430881" lon="10.4398479"><ele>63.0</ele><time>2026-05-02T13:08:52.007Z</time></trkpt><trkpt lat="45.3432082" lon="10.439976"><ele>63.0</ele><time>2026-05-02T13:08:53.007Z</time></trkpt><trkpt lat="45.3433535" lon="10.440136"><ele>63.0</ele><time>2026-05-02T13:08:54.009Z</time></trkpt><trkpt lat="45.3435165" lon="10.4403346"><ele>63.0</ele><time>2026-05-02T13:08:55.007Z</time></trkpt><trkpt lat="45.3436886" lon="10.4405591"><ele>63.0</ele><time>2026-05-02T13:08:56.007Z</time></trkpt><trkpt lat="45.3438894" lon="10.4407964"><ele>63.0</ele><time>2026-05-02T13:08:57.007Z</time></trkpt><trkpt lat="45.3441084" lon="10.4410325"><ele>63.0</ele><time>2026-05-02T13:08:58.007Z</time></trkpt><trkpt lat="45.344338" lon="10.4412754"><ele>63.0</ele><time>2026-05-02T13:08:59.007Z</time></trkpt><trkpt lat="45.3445884" lon="10.4415262"><ele>64.0</ele><time>2026-05-02T13:09:00.007Z</time></trkpt><trkpt lat="45.3448551" lon="10.4417747"><ele>65.0</ele><time>2026-05-02T13:09:01.007Z</time></trkpt><trkpt lat="45.3451308" lon="10.4420114"><ele>65.0</ele><time>2026-05-02T13:09:02.007Z</time></trkpt><trkpt lat="45.3454228" lon="10.4422516"><ele>65.0</ele><time>2026-05-02T13:09:03.008Z</time></trkpt><trkpt lat="45.3457276" lon="10.4424893"><ele>65.0</ele><time>2026-05-02T13:09:04.007Z</time></trkpt><trkpt lat="45.3460433" lon="10.4427248"><ele>65.0</ele><time>2026-05-02T13:09:05.008Z</time></trkpt><trkpt lat="45.3463707" lon="10.4429496"><ele>64.5</ele><time>2026-05-02T13:09:06.008Z</time></trkpt><trkpt lat="45.3467057" lon="10.4431597"><ele>64.0</ele><time>2026-05-02T13:09:07.007Z</time></trkpt><trkpt lat="45.3470512" lon="10.4433652"><ele>64.0</ele><time>2026-05-02T13:09:08.007Z</time></trkpt><trkpt lat="45.3474052" lon="10.4435676"><ele>64.0</ele><time>2026-05-02T13:09:09.008Z</time></trkpt><trkpt lat="45.3477643" lon="10.443767"><ele>65.0</ele><time>2026-05-02T13:09:10.008Z</time></trkpt><trkpt lat="45.3481104" lon="10.4439652"><ele>66.0</ele><time>2026-05-02T13:09:11.007Z</time></trkpt><trkpt lat="45.348436" lon="10.4441493"><ele>66.0</ele><time>2026-05-02T13:09:12.008Z</time></trkpt><trkpt lat="45.3487509" lon="10.4443264"><ele>66.0</ele><time>2026-05-02T13:09:13.008Z</time></trkpt><trkpt lat="45.3490617" lon="10.444498"><ele>66.0</ele><time>2026-05-02T13:09:14.008Z</time></trkpt><trkpt lat="45.3493659" lon="10.44468"><ele>66.0</ele><time>2026-05-02T13:09:15.007Z</time></trkpt><trkpt lat="45.3496581" lon="10.4448571"><ele>66.0</ele><time>2026-05-02T13:09:16.007Z</time></trkpt><trkpt lat="45.3499373" lon="10.4450186"><ele>66.0</ele><time>2026-05-02T13:09:17.007Z</time></trkpt><trkpt lat="45.3502085" lon="10.4451756"><ele>66.0</ele><time>2026-05-02T13:09:18.007Z</time></trkpt><trkpt lat="45.3504779" lon="10.4453291"><ele>66.0</ele><time>2026-05-02T13:09:19.007Z</time></trkpt><trkpt lat="45.3507476" lon="10.4454822"><ele>66.5</ele><time>2026-05-02T13:09:20.008Z</time></trkpt><trkpt lat="45.3510205" lon="10.4456388"><ele>67.0</ele><time>2026-05-02T13:09:21.007Z</time></trkpt><trkpt lat="45.3512941" lon="10.445794"><ele>68.0</ele><time>2026-05-02T13:09:22.007Z</time></trkpt><trkpt lat="45.3515699" lon="10.4459514"><ele>69.0</ele><time>2026-05-02T13:09:23.008Z</time></trkpt><trkpt lat="45.3518361" lon="10.446098"><ele>69.0</ele><time>2026-05-02T13:09:24.007Z</time></trkpt><trkpt lat="45.3520907" lon="10.4462366"><ele>69.0</ele><time>2026-05-02T13:09:25.009Z</time></trkpt><trkpt lat="45.352337" lon="10.4463663"><ele>68.5</ele><time>2026-05-02T13:09:26.008Z</time></trkpt><trkpt lat="45.3525809" lon="10.446493"><ele>68.0</ele><time>2026-05-02T13:09:27.007Z</time></trkpt><trkpt lat="45.3528206" lon="10.4466276"><ele>68.5</ele><time>2026-05-02T13:09:28.008Z</time></trkpt><trkpt lat="45.35306" lon="10.4467718"><ele>69.0</ele><time>2026-05-02T13:09:29.008Z</time></trkpt><trkpt lat="45.3532952" lon="10.4469123"><ele>69.0</ele><time>2026-05-02T13:09:30.007Z</time></trkpt><trkpt lat="45.3535194" lon="10.4470463"><ele>69.0</ele><time>2026-05-02T13:09:31.007Z</time></trkpt><trkpt lat="45.3537353" lon="10.4471731"><ele>69.0</ele><time>2026-05-02T13:09:32.008Z</time></trkpt><trkpt lat="45.353938" lon="10.4472948"><ele>69.0</ele><time>2026-05-02T13:09:33.008Z</time></trkpt><trkpt lat="45.3541313" lon="10.4474062"><ele>69.0</ele><time>2026-05-02T13:09:34.007Z</time></trkpt><trkpt lat="45.3543154" lon="10.4475107"><ele>69.0</ele><time>2026-05-02T13:09:35.007Z</time></trkpt><trkpt lat="45.3544902" lon="10.4476171"><ele>69.0</ele><time>2026-05-02T13:09:36.007Z</time></trkpt><trkpt lat="45.3546652" lon="10.4477301"><ele>69.0</ele><time>2026-05-02T13:09:37.007Z</time></trkpt><trkpt lat="45.3548353" lon="10.4478609"><ele>69.33333333333333</ele><time>2026-05-02T13:09:38.007Z</time></trkpt><trkpt lat="45.3549983" lon="10.4480122"><ele>69.66666666666666</ele><time>2026-05-02T13:09:39.008Z</time></trkpt><trkpt lat="45.3551611" lon="10.4481701"><ele>70.0</ele><time>2026-05-02T13:09:40.008Z</time></trkpt><trkpt lat="45.3553207" lon="10.4483284"><ele>70.0</ele><time>2026-05-02T13:09:41.008Z</time></trkpt><trkpt lat="45.3554669" lon="10.4484689"><ele>70.0</ele><time>2026-05-02T13:09:42.008Z</time></trkpt><trkpt lat="45.3556" lon="10.4485952"><ele>70.0</ele><time>2026-05-02T13:09:43.008Z</time></trkpt><trkpt lat="45.3557104" lon="10.448698"><ele>70.0</ele><time>2026-05-02T13:09:44.007Z</time></trkpt><trkpt lat="45.3557988" lon="10.448786"><ele>70.0</ele><time>2026-05-02T13:09:45.008Z</time></trkpt><trkpt lat="45.3558778" lon="10.4488614"><ele>70.0</ele><time>2026-05-02T13:09:46.007Z</time></trkpt><trkpt lat="45.3559609" lon="10.4489259"><ele>70.0</ele><time>2026-05-02T13:09:47.007Z</time></trkpt><trkpt lat="45.3560527" lon="10.4489828"><ele>70.0</ele><time>2026-05-02T13:09:48.008Z</time></trkpt><trkpt lat="45.3561526" lon="10.4490181"><ele>70.0</ele><time>2026-05-02T13:09:49.007Z</time></trkpt><trkpt lat="45.3562583" lon="10.4490201"><ele>70.0</ele><time>2026-05-02T13:09:50.008Z</time></trkpt><trkpt lat="45.3563713" lon="10.4490092"><ele>70.0</ele><time>2026-05-02T13:09:51.008Z</time></trkpt><trkpt lat="45.3564911" lon="10.4490072"><ele>70.0</ele><time>2026-05-02T13:09:52.007Z</time></trkpt><trkpt lat="45.3566147" lon="10.4490424"><ele>70.25</ele><time>2026-05-02T13:09:53.007Z</time></trkpt><trkpt lat="45.3567421" lon="10.4490984"><ele>70.5</ele><time>2026-05-02T13:09:54.007Z</time></trkpt><trkpt lat="45.3568778" lon="10.4491558"><ele>70.75</ele><time>2026-05-02T13:09:55.007Z</time></trkpt><trkpt lat="45.3570301" lon="10.4492134"><ele>71.0</ele><time>2026-05-02T13:09:56.006Z</time></trkpt><trkpt lat="45.3571899" lon="10.4492745"><ele>71.66666666666667</ele><time>2026-05-02T13:09:57.007Z</time></trkpt><trkpt lat="45.3573575" lon="10.4493444"><ele>72.33333333333333</ele><time>2026-05-02T13:09:58.006Z</time></trkpt><trkpt lat="45.3575303" lon="10.4494169"><ele>73.0</ele><time>2026-05-02T13:09:59.008Z</time></trkpt><trkpt lat="45.3577052" lon="10.4495034"><ele>73.0</ele><time>2026-05-02T13:10:00.007Z</time></trkpt><trkpt lat="45.3578815" lon="10.4496025"><ele>73.0</ele><time>2026-05-02T13:10:01.006Z</time></trkpt><trkpt lat="45.3580607" lon="10.4497071"><ele>73.0</ele><time>2026-05-02T13:10:02.006Z</time></trkpt><trkpt lat="45.3582448" lon="10.4498155"><ele>72.0</ele><time>2026-05-02T13:10:03.007Z</time></trkpt><trkpt lat="45.3584294" lon="10.4499249"><ele>71.0</ele><time>2026-05-02T13:10:04.007Z</time></trkpt><trkpt lat="45.3586148" lon="10.4500348"><ele>70.0</ele><time>2026-05-02T13:10:05.007Z</time></trkpt><trkpt lat="45.3588041" lon="10.4501485"><ele>70.0</ele><time>2026-05-02T13:10:06.007Z</time></trkpt><trkpt lat="45.3589925" lon="10.4502597"><ele>70.0</ele><time>2026-05-02T13:10:07.008Z</time></trkpt><trkpt lat="45.3591816" lon="10.4503709"><ele>70.0</ele><time>2026-05-02T13:10:08.006Z</time></trkpt><trkpt lat="45.3593713" lon="10.4504791"><ele>70.0</ele><time>2026-05-02T13:10:09.007Z</time></trkpt><trkpt lat="45.35956" lon="10.4505876"><ele>70.0</ele><time>2026-05-02T13:10:10.006Z</time></trkpt><trkpt lat="45.3597476" lon="10.4506955"><ele>70.0</ele><time>2026-05-02T13:10:11.006Z</time></trkpt><trkpt lat="45.3599369" lon="10.4507995"><ele>70.66666666666666</ele><time>2026-05-02T13:10:12.007Z</time></trkpt><trkpt lat="45.3601288" lon="10.4508961"><ele>71.33333333333333</ele><time>2026-05-02T13:10:13.006Z</time></trkpt><trkpt lat="45.3603225" lon="10.4509906"><ele>72.0</ele><time>2026-05-02T13:10:14.006Z</time></trkpt><trkpt lat="45.360515" lon="10.4510824"><ele>71.66666666666667</ele><time>2026-05-02T13:10:15.006Z</time></trkpt><trkpt lat="45.3607116" lon="10.4511711"><ele>71.33333333333334</ele><time>2026-05-02T13:10:16.006Z</time></trkpt><trkpt lat="45.3609116" lon="10.4512519"><ele>71.0</ele><time>2026-05-02T13:10:17.007Z</time></trkpt><trkpt lat="45.3611139" lon="10.4513286"><ele>70.66666666666667</ele><time>2026-05-02T13:10:18.007Z</time></trkpt><trkpt lat="45.3613179" lon="10.4513983"><ele>70.33333333333333</ele><time>2026-05-02T13:10:19.007Z</time></trkpt><trkpt lat="45.3615259" lon="10.4514608"><ele>70.0</ele><time>2026-05-02T13:10:20.006Z</time></trkpt><trkpt lat="45.3617312" lon="10.45152"><ele>69.66666666666666</ele><time>2026-05-02T13:10:21.007Z</time></trkpt><trkpt lat="45.361938" lon="10.4515724"><ele>69.33333333333333</ele><time>2026-05-02T13:10:22.007Z</time></trkpt><trkpt lat="45.3621451" lon="10.4516181"><ele>69.0</ele><time>2026-05-02T13:10:23.006Z</time></trkpt><trkpt lat="45.3623512" lon="10.4516659"><ele>69.0</ele><time>2026-05-02T13:10:24.006Z</time></trkpt><trkpt lat="45.36256" lon="10.4517117"><ele>69.0</ele><time>2026-05-02T13:10:25.006Z</time></trkpt><trkpt lat="45.3627687" lon="10.4517518"><ele>69.0</ele><time>2026-05-02T13:10:26.007Z</time></trkpt><trkpt lat="45.3629771" lon="10.4517855"><ele>69.66666666666667</ele><time>2026-05-02T13:10:27.006Z</time></trkpt><trkpt lat="45.3631835" lon="10.4518225"><ele>70.33333333333334</ele><time>2026-05-02T13:10:28.006Z</time></trkpt><trkpt lat="45.3633871" lon="10.4518629"><ele>71.0</ele><time>2026-05-02T13:10:29.007Z</time></trkpt><trkpt lat="45.3635884" lon="10.4519016"><ele>71.0</ele><time>2026-05-02T13:10:30.006Z</time></trkpt><trkpt lat="45.3637885" lon="10.4519308"><ele>71.0</ele><time>2026-05-02T13:10:31.007Z</time></trkpt><trkpt lat="45.3639877" lon="10.4519671"><ele>71.0</ele><time>2026-05-02T13:10:32.006Z</time></trkpt><trkpt lat="45.3641885" lon="10.4520004"><ele>72.0</ele><time>2026-05-02T13:10:33.006Z</time></trkpt><trkpt lat="45.3643899" lon="10.4520336"><ele>73.0</ele><time>2026-05-02T13:10:34.007Z</time></trkpt><trkpt lat="45.3645905" lon="10.4520558"><ele>74.0</ele><time>2026-05-02T13:10:35.006Z</time></trkpt><trkpt lat="45.3647845" lon="10.4520754"><ele>74.0</ele><time>2026-05-02T13:10:36.007Z</time></trkpt><trkpt lat="45.3649724" lon="10.4520935"><ele>74.0</ele><time>2026-05-02T13:10:37.007Z</time></trkpt><trkpt lat="45.3651632" lon="10.4521089"><ele>74.0</ele><time>2026-05-02T13:10:38.007Z</time></trkpt><trkpt lat="45.3653561" lon="10.4521242"><ele>74.33333333333334</ele><time>2026-05-02T13:10:39.008Z</time></trkpt><trkpt lat="45.3655523" lon="10.4521382"><ele>74.66666666666667</ele><time>2026-05-02T13:10:40.006Z</time></trkpt><trkpt lat="45.3657463" lon="10.4521524"><ele>75.0</ele><time>2026-05-02T13:10:41.006Z</time></trkpt><trkpt lat="45.3659434" lon="10.4521639"><ele>75.0</ele><time>2026-05-02T13:10:42.006Z</time></trkpt><trkpt lat="45.3661374" lon="10.4521761"><ele>75.0</ele><time>2026-05-02T13:10:43.006Z</time></trkpt><trkpt lat="45.3663312" lon="10.4521919"><ele>75.0</ele><time>2026-05-02T13:10:44.007Z</time></trkpt><trkpt lat="45.3665266" lon="10.4522071"><ele>75.0</ele><time>2026-05-02T13:10:45.006Z</time></trkpt><trkpt lat="45.366719" lon="10.4522201"><ele>75.0</ele><time>2026-05-02T13:10:46.007Z</time></trkpt><trkpt lat="45.3669124" lon="10.4522319"><ele>75.0</ele><time>2026-05-02T13:10:47.008Z</time></trkpt><trkpt lat="45.3671046" lon="10.4522394"><ele>74.33333333333333</ele><time>2026-05-02T13:10:48.006Z</time></trkpt><trkpt lat="45.3672951" lon="10.4522447"><ele>73.66666666666666</ele><time>2026-05-02T13:10:49.006Z</time></trkpt><trkpt lat="45.3674779" lon="10.4522507"><ele>73.0</ele><time>2026-05-02T13:10:50.006Z</time></trkpt><trkpt lat="45.3676493" lon="10.4522614"><ele>73.0</ele><time>2026-05-02T13:10:51.006Z</time></trkpt><trkpt lat="45.3678123" lon="10.4522724"><ele>73.0</ele><time>2026-05-02T13:10:52.006Z</time></trkpt><trkpt lat="45.3679674" lon="10.4522847"><ele>73.0</ele><time>2026-05-02T13:10:53.007Z</time></trkpt><trkpt lat="45.3681233" lon="10.4523019"><ele>73.66666666666666</ele><time>2026-05-02T13:10:54.006Z</time></trkpt><trkpt lat="45.3682834" lon="10.4523326"><ele>74.33333333333333</ele><time>2026-05-02T13:10:55.007Z</time></trkpt><trkpt lat="45.3684458" lon="10.4523779"><ele>75.0</ele><time>2026-05-02T13:10:56.006Z</time></trkpt><trkpt lat="45.3686091" lon="10.4524357"><ele>75.0</ele><time>2026-05-02T13:10:57.006Z</time></trkpt><trkpt lat="45.3687667" lon="10.4524916"><ele>75.0</ele><time>2026-05-02T13:10:58.006Z</time></trkpt><trkpt lat="45.3689196" lon="10.4525492"><ele>75.0</ele><time>2026-05-02T13:10:59.006Z</time></trkpt><trkpt lat="45.36907" lon="10.4526033"><ele>74.8</ele><time>2026-05-02T13:11:00.007Z</time></trkpt><trkpt lat="45.369199" lon="10.4526542"><ele>74.6</ele><time>2026-05-02T13:11:01.008Z</time></trkpt><trkpt lat="45.369301" lon="10.4526993"><ele>74.4</ele><time>2026-05-02T13:11:02.007Z</time></trkpt><trkpt lat="45.3693914" lon="10.4527406"><ele>74.2</ele><time>2026-05-02T13:11:03.007Z</time></trkpt><trkpt lat="45.3694758" lon="10.4527937"><ele>74.0</ele><time>2026-05-02T13:11:04.007Z</time></trkpt><trkpt lat="45.3695558" lon="10.4528678"><ele>74.0</ele><time>2026-05-02T13:11:05.007Z</time></trkpt><trkpt lat="45.3696298" lon="10.452961"><ele>74.0</ele><time>2026-05-02T13:11:06.007Z</time></trkpt><trkpt lat="45.3697057" lon="10.4530716"><ele>74.0</ele><time>2026-05-02T13:11:07.006Z</time></trkpt><trkpt lat="45.3697817" lon="10.4532033"><ele>74.0</ele><time>2026-05-02T13:11:08.007Z</time></trkpt><trkpt lat="45.3698586" lon="10.4533471"><ele>74.5</ele><time>2026-05-02T13:11:09.007Z</time></trkpt><trkpt lat="45.3699393" lon="10.4534856"><ele>75.0</ele><time>2026-05-02T13:11:10.008Z</time></trkpt><trkpt lat="45.3700289" lon="10.4536002"><ele>75.5</ele><time>2026-05-02T13:11:11.006Z</time></trkpt><trkpt lat="45.3701345" lon="10.4536951"><ele>76.0</ele><time>2026-05-02T13:11:12.006Z</time></trkpt><trkpt lat="45.3702571" lon="10.453764"><ele>76.0</ele><time>2026-05-02T13:11:13.007Z</time></trkpt><trkpt lat="45.370383" lon="10.4538378"><ele>76.0</ele><time>2026-05-02T13:11:14.006Z</time></trkpt><trkpt lat="45.370511" lon="10.4539128"><ele>76.0</ele><time>2026-05-02T13:11:15.007Z</time></trkpt><trkpt lat="45.3706357" lon="10.4540083"><ele>76.0</ele><time>2026-05-02T13:11:16.006Z</time></trkpt><trkpt lat="45.3707562" lon="10.4541113"><ele>76.0</ele><time>2026-05-02T13:11:17.007Z</time></trkpt><trkpt lat="45.3708723" lon="10.4542183"><ele>76.0</ele><time>2026-05-02T13:11:18.007Z</time></trkpt><trkpt lat="45.3709857" lon="10.4543326"><ele>76.0</ele><time>2026-05-02T13:11:19.007Z</time></trkpt><trkpt lat="45.3710985" lon="10.4544467"><ele>76.0</ele><time>2026-05-02T13:11:20.006Z</time></trkpt><trkpt lat="45.3712139" lon="10.4545523"><ele>75.75</ele><time>2026-05-02T13:11:21.007Z</time></trkpt><trkpt lat="45.3713269" lon="10.4546579"><ele>75.5</ele><time>2026-05-02T13:11:22.007Z</time></trkpt><trkpt lat="45.3714347" lon="10.4547787"><ele>75.25</ele><time>2026-05-02T13:11:23.006Z</time></trkpt><trkpt lat="45.3715333" lon="10.4549159"><ele>75.0</ele><time>2026-05-02T13:11:24.008Z</time></trkpt><trkpt lat="45.3716247" lon="10.4550642"><ele>75.0</ele><time>2026-05-02T13:11:25.006Z</time></trkpt><trkpt lat="45.3717144" lon="10.4552147"><ele>75.0</ele><time>2026-05-02T13:11:26.007Z</time></trkpt><trkpt lat="45.3718042" lon="10.4553652"><ele>75.0</ele><time>2026-05-02T13:11:27.007Z</time></trkpt><trkpt lat="45.3718945" lon="10.4555155"><ele>75.0</ele><time>2026-05-02T13:11:28.008Z</time></trkpt><trkpt lat="45.3719867" lon="10.4556666"><ele>74.75</ele><time>2026-05-02T13:11:29.006Z</time></trkpt><trkpt lat="45.3720777" lon="10.4558248"><ele>74.5</ele><time>2026-05-02T13:11:30.007Z</time></trkpt><trkpt lat="45.3721744" lon="10.4559836"><ele>74.25</ele><time>2026-05-02T13:11:31.006Z</time></trkpt><trkpt lat="45.3722715" lon="10.4561502"><ele>74.0</ele><time>2026-05-02T13:11:32.006Z</time></trkpt><trkpt lat="45.3723697" lon="10.4563154"><ele>75.33333333333334</ele><time>2026-05-02T13:11:33.006Z</time></trkpt><trkpt lat="45.3724731" lon="10.4564835"><ele>76.66666666666667</ele><time>2026-05-02T13:11:34.006Z</time></trkpt><trkpt lat="45.3725803" lon="10.4566545"><ele>78.0</ele><time>2026-05-02T13:11:35.006Z</time></trkpt><trkpt lat="45.3726895" lon="10.4568297"><ele>78.0</ele><time>2026-05-02T13:11:36.006Z</time></trkpt><trkpt lat="45.3727998" lon="10.4570081"><ele>78.0</ele><time>2026-05-02T13:11:37.006Z</time></trkpt><trkpt lat="45.3729141" lon="10.4571848"><ele>78.0</ele><time>2026-05-02T13:11:38.006Z</time></trkpt><trkpt lat="45.3730303" lon="10.4573616"><ele>78.0</ele><time>2026-05-02T13:11:39.006Z</time></trkpt><trkpt lat="45.3731489" lon="10.4575389"><ele>78.0</ele><time>2026-05-02T13:11:40.007Z</time></trkpt><trkpt lat="45.373269" lon="10.4577133"><ele>78.0</ele><time>2026-05-02T13:11:41.007Z</time></trkpt><trkpt lat="45.3733836" lon="10.4578821"><ele>77.66666666666667</ele><time>2026-05-02T13:11:42.006Z</time></trkpt><trkpt lat="45.3734954" lon="10.4580424"><ele>77.33333333333334</ele><time>2026-05-02T13:11:43.006Z</time></trkpt><trkpt lat="45.3736068" lon="10.4582042"><ele>77.0</ele><time>2026-05-02T13:11:44.006Z</time></trkpt><trkpt lat="45.3737182" lon="10.4583623"><ele>77.0</ele><time>2026-05-02T13:11:45.006Z</time></trkpt><trkpt lat="45.3738231" lon="10.4585197"><ele>77.0</ele><time>2026-05-02T13:11:46.006Z</time></trkpt><trkpt lat="45.3739321" lon="10.458673"><ele>77.0</ele><time>2026-05-02T13:11:47.006Z</time></trkpt><trkpt lat="45.3740383" lon="10.4588303"><ele>76.75</ele><time>2026-05-02T13:11:48.006Z</time></trkpt><trkpt lat="45.3741399" lon="10.4589842"><ele>76.5</ele><time>2026-05-02T13:11:49.006Z</time></trkpt><trkpt lat="45.3742432" lon="10.4591385"><ele>76.25</ele><time>2026-05-02T13:11:50.007Z</time></trkpt><trkpt lat="45.3743427" lon="10.4592867"><ele>76.0</ele><time>2026-05-02T13:11:51.008Z</time></trkpt><trkpt lat="45.3744455" lon="10.4594297"><ele>76.0</ele><time>2026-05-02T13:11:52.006Z</time></trkpt><trkpt lat="45.3745524" lon="10.4595776"><ele>76.0</ele><time>2026-05-02T13:11:53.006Z</time></trkpt><trkpt lat="45.3746601" lon="10.4597269"><ele>76.0</ele><time>2026-05-02T13:11:54.007Z</time></trkpt><trkpt lat="45.3747739" lon="10.4598835"><ele>76.33333333333333</ele><time>2026-05-02T13:11:55.007Z</time></trkpt><trkpt lat="45.3748941" lon="10.4600524"><ele>76.66666666666667</ele><time>2026-05-02T13:11:56.006Z</time></trkpt><trkpt lat="45.3750271" lon="10.4602338"><ele>77.0</ele><time>2026-05-02T13:11:57.007Z</time></trkpt><trkpt lat="45.3751622" lon="10.4604391"><ele>77.33333333333334</ele><time>2026-05-02T13:11:58.007Z</time></trkpt><trkpt lat="45.3752939" lon="10.4606488"><ele>77.66666666666667</ele><time>2026-05-02T13:11:59.006Z</time></trkpt><trkpt lat="45.3754279" lon="10.4608566"><ele>78.0</ele><time>2026-05-02T13:12:00.006Z</time></trkpt><trkpt lat="45.3755559" lon="10.4610563"><ele>78.0</ele><time>2026-05-02T13:12:01.006Z</time></trkpt><trkpt lat="45.3756741" lon="10.4612558"><ele>78.0</ele><time>2026-05-02T13:12:02.006Z</time></trkpt><trkpt lat="45.3757829" lon="10.4614585"><ele>78.0</ele><time>2026-05-02T13:12:03.007Z</time></trkpt><trkpt lat="45.3758834" lon="10.4616676"><ele>78.33333333333333</ele><time>2026-05-02T13:12:04.007Z</time></trkpt><trkpt lat="45.3759795" lon="10.4618796"><ele>78.66666666666666</ele><time>2026-05-02T13:12:05.007Z</time></trkpt><trkpt lat="45.3760775" lon="10.4620856"><ele>79.0</ele><time>2026-05-02T13:12:06.007Z</time></trkpt><trkpt lat="45.3761811" lon="10.4622879"><ele>79.0</ele><time>2026-05-02T13:12:07.007Z</time></trkpt><trkpt lat="45.3762927" lon="10.4624836"><ele>79.0</ele><time>2026-05-02T13:12:08.007Z</time></trkpt><trkpt lat="45.3764058" lon="10.4626807"><ele>79.0</ele><time>2026-05-02T13:12:09.006Z</time></trkpt><trkpt lat="45.3765192" lon="10.4628772"><ele>79.0</ele><time>2026-05-02T13:12:10.007Z</time></trkpt><trkpt lat="45.376634" lon="10.4630671"><ele>79.0</ele><time>2026-05-02T13:12:11.006Z</time></trkpt><trkpt lat="45.3767453" lon="10.463259"><ele>79.0</ele><time>2026-05-02T13:12:12.006Z</time></trkpt><trkpt lat="45.3768567" lon="10.4634506"><ele>79.0</ele><time>2026-05-02T13:12:13.007Z</time></trkpt><trkpt lat="45.3769662" lon="10.4636348"><ele>79.0</ele><time>2026-05-02T13:12:14.006Z</time></trkpt><trkpt lat="45.3770752" lon="10.4638202"><ele>79.0</ele><time>2026-05-02T13:12:15.006Z</time></trkpt><trkpt lat="45.3771826" lon="10.4640084"><ele>79.0</ele><time>2026-05-02T13:12:16.007Z</time></trkpt><trkpt lat="45.3772886" lon="10.4641967"><ele>79.0</ele><time>2026-05-02T13:12:17.006Z</time></trkpt><trkpt lat="45.3773976" lon="10.4643791"><ele>79.0</ele><time>2026-05-02T13:12:18.006Z</time></trkpt><trkpt lat="45.3775062" lon="10.4645617"><ele>79.66666666666666</ele><time>2026-05-02T13:12:19.007Z</time></trkpt><trkpt lat="45.3776117" lon="10.4647487"><ele>80.33333333333333</ele><time>2026-05-02T13:12:20.007Z</time></trkpt><trkpt lat="45.3777131" lon="10.4649265"><ele>81.0</ele><time>2026-05-02T13:12:21.007Z</time></trkpt><trkpt lat="45.3778145" lon="10.4651056"><ele>81.0</ele><time>2026-05-02T13:12:22.007Z</time></trkpt><trkpt lat="45.3779192" lon="10.4652826"><ele>81.0</ele><time>2026-05-02T13:12:23.006Z</time></trkpt><trkpt lat="45.3780257" lon="10.4654627"><ele>81.0</ele><time>2026-05-02T13:12:24.007Z</time></trkpt><trkpt lat="45.3781318" lon="10.465653"><ele>81.0</ele><time>2026-05-02T13:12:25.007Z</time></trkpt><trkpt lat="45.378244" lon="10.465847"><ele>81.0</ele><time>2026-05-02T13:12:26.006Z</time></trkpt><trkpt lat="45.3783606" lon="10.4660476"><ele>81.0</ele><time>2026-05-02T13:12:27.006Z</time></trkpt><trkpt lat="45.3784789" lon="10.4662545"><ele>81.33333333333333</ele><time>2026-05-02T13:12:28.007Z</time></trkpt><trkpt lat="45.3786015" lon="10.4664606"><ele>81.66666666666666</ele><time>2026-05-02T13:12:29.007Z</time></trkpt><trkpt lat="45.3787263" lon="10.466672"><ele>82.0</ele><time>2026-05-02T13:12:30.007Z</time></trkpt><trkpt lat="45.3788481" lon="10.4668822"><ele>82.0</ele><time>2026-05-02T13:12:31.006Z</time></trkpt><trkpt lat="45.3789629" lon="10.4670852"><ele>82.0</ele><time>2026-05-02T13:12:32.006Z</time></trkpt><trkpt lat="45.3790759" lon="10.4672854"><ele>82.0</ele><time>2026-05-02T13:12:33.007Z</time></trkpt><trkpt lat="45.3791885" lon="10.4674887"><ele>82.0</ele><time>2026-05-02T13:12:34.007Z</time></trkpt><trkpt lat="45.3792969" lon="10.4676983"><ele>82.0</ele><time>2026-05-02T13:12:35.006Z</time></trkpt><trkpt lat="45.3794053" lon="10.4679141"><ele>82.0</ele><time>2026-05-02T13:12:36.006Z</time></trkpt><trkpt lat="45.3795119" lon="10.4681353"><ele>82.33333333333333</ele><time>2026-05-02T13:12:37.006Z</time></trkpt><trkpt lat="45.3796202" lon="10.4683586"><ele>82.66666666666667</ele><time>2026-05-02T13:12:38.007Z</time></trkpt><trkpt lat="45.379729" lon="10.4685811"><ele>83.0</ele><time>2026-05-02T13:12:39.006Z</time></trkpt><trkpt lat="45.3798379" lon="10.4688058"><ele>83.66666666666667</ele><time>2026-05-02T13:12:40.007Z</time></trkpt><trkpt lat="45.3799464" lon="10.4690345"><ele>84.33333333333333</ele><time>2026-05-02T13:12:41.006Z</time></trkpt><trkpt lat="45.3800552" lon="10.4692618"><ele>85.0</ele><time>2026-05-02T13:12:42.006Z</time></trkpt><trkpt lat="45.380165" lon="10.4694893"><ele>84.66666666666666</ele><time>2026-05-02T13:12:43.006Z</time></trkpt><trkpt lat="45.3802795" lon="10.469712"><ele>84.33333333333333</ele><time>2026-05-02T13:12:44.006Z</time></trkpt><trkpt lat="45.380399" lon="10.4699301"><ele>84.0</ele><time>2026-05-02T13:12:45.007Z</time></trkpt><trkpt lat="45.3805267" lon="10.4701401"><ele>84.0</ele><time>2026-05-02T13:12:46.006Z</time></trkpt><trkpt lat="45.3806657" lon="10.470338"><ele>84.0</ele><time>2026-05-02T13:12:47.006Z</time></trkpt><trkpt lat="45.380808" lon="10.4705299"><ele>84.0</ele><time>2026-05-02T13:12:48.007Z</time></trkpt><trkpt lat="45.3809525" lon="10.4707203"><ele>84.0</ele><time>2026-05-02T13:12:49.006Z</time></trkpt><trkpt lat="45.3810968" lon="10.4709096"><ele>84.0</ele><time>2026-05-02T13:12:50.006Z</time></trkpt><trkpt lat="45.3812405" lon="10.4710947"><ele>84.0</ele><time>2026-05-02T13:12:51.007Z</time></trkpt><trkpt lat="45.3813823" lon="10.471279"><ele>84.0</ele><time>2026-05-02T13:12:52.008Z</time></trkpt><trkpt lat="45.3815191" lon="10.4714613"><ele>84.0</ele><time>2026-05-02T13:12:53.007Z</time></trkpt><trkpt lat="45.3816514" lon="10.4716466"><ele>84.0</ele><time>2026-05-02T13:12:54.006Z</time></trkpt><trkpt lat="45.3817805" lon="10.4718371"><ele>84.0</ele><time>2026-05-02T13:12:55.006Z</time></trkpt><trkpt lat="45.3819081" lon="10.4720348"><ele>84.0</ele><time>2026-05-02T13:12:56.007Z</time></trkpt><trkpt lat="45.3820323" lon="10.4722326"><ele>84.0</ele><time>2026-05-02T13:12:57.006Z</time></trkpt><trkpt lat="45.3821568" lon="10.4724303"><ele>84.33333333333333</ele><time>2026-05-02T13:12:58.006Z</time></trkpt><trkpt lat="45.3822785" lon="10.4726269"><ele>84.66666666666666</ele><time>2026-05-02T13:12:59.006Z</time></trkpt><trkpt lat="45.3824005" lon="10.4728193"><ele>85.0</ele><time>2026-05-02T13:13:00.006Z</time></trkpt><trkpt lat="45.3825185" lon="10.4730106"><ele>85.33333333333333</ele><time>2026-05-02T13:13:01.006Z</time></trkpt><trkpt lat="45.3826371" lon="10.4731953"><ele>85.66666666666667</ele><time>2026-05-02T13:13:02.007Z</time></trkpt><trkpt lat="45.3827598" lon="10.4733756"><ele>86.0</ele><time>2026-05-02T13:13:03.006Z</time></trkpt><trkpt lat="45.3828863" lon="10.4735487"><ele>86.33333333333334</ele><time>2026-05-02T13:13:04.007Z</time></trkpt><trkpt lat="45.3830191" lon="10.4737088"><ele>86.66666666666667</ele><time>2026-05-02T13:13:05.007Z</time></trkpt><trkpt lat="45.383157" lon="10.4738611"><ele>87.0</ele><time>2026-05-02T13:13:06.006Z</time></trkpt><trkpt lat="45.3832987" lon="10.474005"><ele>87.33333333333333</ele><time>2026-05-02T13:13:07.006Z</time></trkpt><trkpt lat="45.3834396" lon="10.4741522"><ele>87.66666666666666</ele><time>2026-05-02T13:13:08.006Z</time></trkpt><trkpt lat="45.3835776" lon="10.4743005"><ele>88.0</ele><time>2026-05-02T13:13:09.007Z</time></trkpt><trkpt lat="45.3837142" lon="10.4744484"><ele>88.0</ele><time>2026-05-02T13:13:10.007Z</time></trkpt><trkpt lat="45.3838513" lon="10.4745894"><ele>88.0</ele><time>2026-05-02T13:13:11.007Z</time></trkpt><trkpt lat="45.3839816" lon="10.4747198"><ele>88.0</ele><time>2026-05-02T13:13:12.006Z</time></trkpt><trkpt lat="45.3841067" lon="10.4748431"><ele>88.25</ele><time>2026-05-02T13:13:13.007Z</time></trkpt><trkpt lat="45.3842265" lon="10.4749669"><ele>88.5</ele><time>2026-05-02T13:13:14.006Z</time></trkpt><trkpt lat="45.3843448" lon="10.4750904"><ele>88.75</ele><time>2026-05-02T13:13:15.006Z</time></trkpt><trkpt lat="45.3844636" lon="10.4752081"><ele>89.0</ele><time>2026-05-02T13:13:16.006Z</time></trkpt><trkpt lat="45.3845859" lon="10.4753239"><ele>89.25</ele><time>2026-05-02T13:13:17.007Z</time></trkpt><trkpt lat="45.3847018" lon="10.475436"><ele>89.5</ele><time>2026-05-02T13:13:18.006Z</time></trkpt><trkpt lat="45.3848097" lon="10.4755391"><ele>89.75</ele><time>2026-05-02T13:13:19.006Z</time></trkpt><trkpt lat="45.3849105" lon="10.4756297"><ele>90.0</ele><time>2026-05-02T13:13:20.007Z</time></trkpt><trkpt lat="45.385009" lon="10.4757143"><ele>90.2</ele><time>2026-05-02T13:13:21.007Z</time></trkpt><trkpt lat="45.3851001" lon="10.4757942"><ele>90.4</ele><time>2026-05-02T13:13:22.006Z</time></trkpt><trkpt lat="45.3851886" lon="10.475867"><ele>90.6</ele><time>2026-05-02T13:13:23.007Z</time></trkpt><trkpt lat="45.3852666" lon="10.4759356"><ele>90.8</ele><time>2026-05-02T13:13:24.007Z</time></trkpt><trkpt lat="45.385328" lon="10.4759865"><ele>91.0</ele><time>2026-05-02T13:13:25.006Z</time></trkpt><trkpt lat="45.3854209" lon="10.4760629"><ele>91.16666666666666</ele><time>2026-05-02T13:13:27.007Z</time></trkpt><trkpt lat="45.3855135" lon="10.4761414"><ele>91.33333333333333</ele><time>2026-05-02T13:13:29.007Z</time></trkpt><trkpt lat="45.3856189" lon="10.4762287"><ele>91.5</ele><time>2026-05-02T13:13:31.006Z</time></trkpt><trkpt lat="45.385679" lon="10.4762769"><ele>91.66666666666667</ele><time>2026-05-02T13:13:32.007Z</time></trkpt><trkpt lat="45.3857429" lon="10.4763286"><ele>91.83333333333334</ele><time>2026-05-02T13:13:33.007Z</time></trkpt><trkpt lat="45.3858081" lon="10.4763847"><ele>92.0</ele><time>2026-05-02T13:13:34.007Z</time></trkpt><trkpt lat="45.3858785" lon="10.4764411"><ele>92.0</ele><time>2026-05-02T13:13:35.006Z</time></trkpt><trkpt lat="45.3859523" lon="10.4764995"><ele>92.0</ele><time>2026-05-02T13:13:36.006Z</time></trkpt><trkpt lat="45.386029" lon="10.4765591"><ele>92.0</ele><time>2026-05-02T13:13:37.007Z</time></trkpt><trkpt lat="45.3861133" lon="10.476629"><ele>92.0</ele><time>2026-05-02T13:13:38.006Z</time></trkpt><trkpt lat="45.3861952" lon="10.4767096"><ele>92.0</ele><time>2026-05-02T13:13:39.006Z</time></trkpt><trkpt lat="45.3862724" lon="10.4767971"><ele>92.19999999999999</ele><time>2026-05-02T13:13:40.006Z</time></trkpt><trkpt lat="45.3863523" lon="10.4768999"><ele>92.4</ele><time>2026-05-02T13:13:41.006Z</time></trkpt><trkpt lat="45.3864298" lon="10.4770094"><ele>92.6</ele><time>2026-05-02T13:13:42.006Z</time></trkpt><trkpt lat="45.3865068" lon="10.4771208"><ele>92.80000000000001</ele><time>2026-05-02T13:13:43.007Z</time></trkpt><trkpt lat="45.3865777" lon="10.4772378"><ele>93.0</ele><time>2026-05-02T13:13:44.007Z</time></trkpt><trkpt lat="45.3866448" lon="10.4773531"><ele>93.2</ele><time>2026-05-02T13:13:45.007Z</time></trkpt><trkpt lat="45.3867042" lon="10.4774737"><ele>93.4</ele><time>2026-05-02T13:13:46.006Z</time></trkpt><trkpt lat="45.386758" lon="10.4775932"><ele>93.60000000000001</ele><time>2026-05-02T13:13:47.007Z</time></trkpt><trkpt lat="45.3868086" lon="10.4777062"><ele>93.80000000000001</ele><time>2026-05-02T13:13:48.007Z</time></trkpt><trkpt lat="45.3868602" lon="10.4778152"><ele>94.0</ele><time>2026-05-02T13:13:49.006Z</time></trkpt><trkpt lat="45.3869092" lon="10.4779168"><ele>94.16666666666666</ele><time>2026-05-02T13:13:50.006Z</time></trkpt><trkpt lat="45.3869551" lon="10.4780095"><ele>94.33333333333333</ele><time>2026-05-02T13:13:51.007Z</time></trkpt><trkpt lat="45.3869989" lon="10.4780975"><ele>94.5</ele><time>2026-05-02T13:13:52.006Z</time></trkpt><trkpt lat="45.387039" lon="10.478185"><ele>94.66666666666667</ele><time>2026-05-02T13:13:53.007Z</time></trkpt><trkpt lat="45.387079" lon="10.478275"><ele>94.83333333333334</ele><time>2026-05-02T13:13:54.006Z</time></trkpt><trkpt lat="45.3871202" lon="10.4783725"><ele>95.0</ele><time>2026-05-02T13:13:55.006Z</time></trkpt><trkpt lat="45.3871657" lon="10.4784646"><ele>95.0</ele><time>2026-05-02T13:13:56.007Z</time></trkpt><trkpt lat="45.3872141" lon="10.4785655"><ele>95.0</ele><time>2026-05-02T13:13:57.006Z</time></trkpt><trkpt lat="45.3872662" lon="10.4786718"><ele>95.0</ele><time>2026-05-02T13:13:58.006Z</time></trkpt><trkpt lat="45.3873247" lon="10.4787806"><ele>95.0</ele><time>2026-05-02T13:13:59.006Z</time></trkpt><trkpt lat="45.3873795" lon="10.4788962"><ele>95.0</ele><time>2026-05-02T13:14:00.006Z</time></trkpt><trkpt lat="45.3874286" lon="10.4790197"><ele>95.0</ele><time>2026-05-02T13:14:01.007Z</time></trkpt><trkpt lat="45.3874728" lon="10.4791522"><ele>95.0</ele><time>2026-05-02T13:14:02.006Z</time></trkpt><trkpt lat="45.3875113" lon="10.4792897"><ele>95.0</ele><time>2026-05-02T13:14:03.007Z</time></trkpt><trkpt lat="45.3875387" lon="10.4794356"><ele>95.0</ele><time>2026-05-02T13:14:04.007Z</time></trkpt><trkpt lat="45.3875559" lon="10.4795888"><ele>95.0</ele><time>2026-05-02T13:14:05.007Z</time></trkpt><trkpt lat="45.3875638" lon="10.4797367"><ele>95.5</ele><time>2026-05-02T13:14:06.007Z</time></trkpt><trkpt lat="45.3875674" lon="10.4798898"><ele>96.0</ele><time>2026-05-02T13:14:07.006Z</time></trkpt><trkpt lat="45.3875693" lon="10.4800524"><ele>96.5</ele><time>2026-05-02T13:14:08.006Z</time></trkpt><trkpt lat="45.3875647" lon="10.4802207"><ele>97.0</ele><time>2026-05-02T13:14:09.007Z</time></trkpt><trkpt lat="45.3875608" lon="10.480393"><ele>96.75</ele><time>2026-05-02T13:14:10.007Z</time></trkpt><trkpt lat="45.3875556" lon="10.480567"><ele>96.5</ele><time>2026-05-02T13:14:11.007Z</time></trkpt><trkpt lat="45.3875484" lon="10.4807426"><ele>96.25</ele><time>2026-05-02T13:14:12.006Z</time></trkpt><trkpt lat="45.3875441" lon="10.480921"><ele>96.0</ele><time>2026-05-02T13:14:13.006Z</time></trkpt><trkpt lat="45.3875354" lon="10.4810913"><ele>96.0</ele><time>2026-05-02T13:14:14.006Z</time></trkpt><trkpt lat="45.387531" lon="10.4811996"><ele>96.0</ele><time>2026-05-02T13:14:15.007Z</time></trkpt><trkpt lat="45.3875191" lon="10.4813792"><ele>96.0</ele><time>2026-05-02T13:14:17.007Z</time></trkpt><trkpt lat="45.3875186" lon="10.4814878"><ele>96.0</ele><time>2026-05-02T13:14:18.007Z</time></trkpt><trkpt lat="45.3875131" lon="10.4816068"><ele>96.0</ele><time>2026-05-02T13:14:19.006Z</time></trkpt><trkpt lat="45.3875096" lon="10.4817305"><ele>95.6</ele><time>2026-05-02T13:14:20.006Z</time></trkpt><trkpt lat="45.3875091" lon="10.4818593"><ele>95.19999999999999</ele><time>2026-05-02T13:14:21.006Z</time></trkpt><trkpt lat="45.3875113" lon="10.4819952"><ele>94.80000000000001</ele><time>2026-05-02T13:14:22.008Z</time></trkpt><trkpt lat="45.3875064" lon="10.4821334"><ele>94.4</ele><time>2026-05-02T13:14:23.006Z</time></trkpt><trkpt lat="45.3874975" lon="10.4822693"><ele>94.0</ele><time>2026-05-02T13:14:24.006Z</time></trkpt><trkpt lat="45.3874861" lon="10.4823988"><ele>93.83333333333333</ele><time>2026-05-02T13:14:25.007Z</time></trkpt><trkpt lat="45.3874729" lon="10.4825337"><ele>93.66666666666666</ele><time>2026-05-02T13:14:26.006Z</time></trkpt><trkpt lat="45.3874569" lon="10.4826615"><ele>93.5</ele><time>2026-05-02T13:14:27.007Z</time></trkpt><trkpt lat="45.3874366" lon="10.4827862"><ele>93.33333333333333</ele><time>2026-05-02T13:14:28.006Z</time></trkpt><trkpt lat="45.3874133" lon="10.4828976"><ele>93.16666666666667</ele><time>2026-05-02T13:14:29.006Z</time></trkpt><trkpt lat="45.387394" lon="10.4829882"><ele>93.0</ele><time>2026-05-02T13:14:30.007Z</time></trkpt><trkpt lat="45.3873641" lon="10.4831061"><ele>92.80000000000001</ele><time>2026-05-02T13:14:32.007Z</time></trkpt><trkpt lat="45.3873224" lon="10.4832202"><ele>92.6</ele><time>2026-05-02T13:14:35.007Z</time></trkpt><trkpt lat="45.3872372" lon="10.4833531"><ele>92.4</ele><time>2026-05-02T13:14:37.006Z</time></trkpt><trkpt lat="45.3871828" lon="10.4834356"><ele>92.19999999999999</ele><time>2026-05-02T13:14:38.006Z</time></trkpt><trkpt lat="45.3871241" lon="10.4835227"><ele>92.0</ele><time>2026-05-02T13:14:39.006Z</time></trkpt><trkpt lat="45.3870658" lon="10.4836094"><ele>92.0</ele><time>2026-05-02T13:14:40.006Z</time></trkpt><trkpt lat="45.3870008" lon="10.4837049"><ele>92.0</ele><time>2026-05-02T13:14:41.007Z</time></trkpt><trkpt lat="45.3869368" lon="10.4837942"><ele>92.0</ele><time>2026-05-02T13:14:42.007Z</time></trkpt><trkpt lat="45.3868713" lon="10.4838943"><ele>92.0</ele><time>2026-05-02T13:14:43.006Z</time></trkpt><trkpt lat="45.3868004" lon="10.484"><ele>92.0</ele><time>2026-05-02T13:14:44.007Z</time></trkpt><trkpt lat="45.3867304" lon="10.4841142"><ele>92.0</ele><time>2026-05-02T13:14:45.007Z</time></trkpt><trkpt lat="45.3866619" lon="10.4842358"><ele>92.0</ele><time>2026-05-02T13:14:46.006Z</time></trkpt><trkpt lat="45.3866007" lon="10.484348"><ele>92.0</ele><time>2026-05-02T13:14:47.008Z</time></trkpt><trkpt lat="45.3865435" lon="10.4844523"><ele>92.0</ele><time>2026-05-02T13:14:48.006Z</time></trkpt><trkpt lat="45.3864869" lon="10.4845515"><ele>92.0</ele><time>2026-05-02T13:14:49.007Z</time></trkpt><trkpt lat="45.3864222" lon="10.484647"><ele>92.0</ele><time>2026-05-02T13:14:50.006Z</time></trkpt><trkpt lat="45.3863611" lon="10.4847481"><ele>92.0</ele><time>2026-05-02T13:14:51.006Z</time></trkpt><trkpt lat="45.3862962" lon="10.4848484"><ele>92.0</ele><time>2026-05-02T13:14:52.007Z</time></trkpt><trkpt lat="45.386229" lon="10.4849511"><ele>92.0</ele><time>2026-05-02T13:14:53.007Z</time></trkpt><trkpt lat="45.3861576" lon="10.4850533"><ele>92.0</ele><time>2026-05-02T13:14:54.007Z</time></trkpt><trkpt lat="45.3860857" lon="10.4851578"><ele>92.0</ele><time>2026-05-02T13:14:55.006Z</time></trkpt><trkpt lat="45.3860175" lon="10.4852552"><ele>92.0</ele><time>2026-05-02T13:14:56.007Z</time></trkpt><trkpt lat="45.3859611" lon="10.4853341"><ele>92.0</ele><time>2026-05-02T13:14:57.007Z</time></trkpt><trkpt lat="45.3859113" lon="10.4853984"><ele>92.0</ele><time>2026-05-02T13:14:58.006Z</time></trkpt><trkpt lat="45.3858164" lon="10.485501"><ele>92.0</ele><time>2026-05-02T13:15:00.007Z</time></trkpt><trkpt lat="45.3857549" lon="10.4855412"><ele>92.0</ele><time>2026-05-02T13:15:01.007Z</time></trkpt><trkpt lat="45.3856925" lon="10.485582"><ele>92.16666666666667</ele><time>2026-05-02T13:15:02.007Z</time></trkpt><trkpt lat="45.3856419" lon="10.4856506"><ele>92.33333333333334</ele><time>2026-05-02T13:15:03.007Z</time></trkpt><trkpt lat="45.3856163" lon="10.4857388"><ele>92.5</ele><time>2026-05-02T13:15:04.006Z</time></trkpt><trkpt lat="45.3856193" lon="10.4858333"><ele>92.66666666666667</ele><time>2026-05-02T13:15:05.006Z</time></trkpt><trkpt lat="45.3856507" lon="10.4859113"><ele>92.83333333333333</ele><time>2026-05-02T13:15:06.006Z</time></trkpt><trkpt lat="45.385767" lon="10.4859607"><ele>93.0</ele><time>2026-05-02T13:15:08.006Z</time></trkpt><trkpt lat="45.3858637" lon="10.4858598"><ele>93.0</ele><time>2026-05-02T13:15:10.006Z</time></trkpt><trkpt lat="45.3858891" lon="10.4857764"><ele>93.0</ele><time>2026-05-02T13:15:11.006Z</time></trkpt><trkpt lat="45.3858975" lon="10.4856759"><ele>93.0</ele><time>2026-05-02T13:15:12.006Z</time></trkpt><trkpt lat="45.385917" lon="10.4855648"><ele>93.0</ele><time>2026-05-02T13:15:13.007Z</time></trkpt><trkpt lat="45.3859639" lon="10.4854548"><ele>93.0</ele><time>2026-05-02T13:15:14.006Z</time></trkpt><trkpt lat="45.3860193" lon="10.4853592"><ele>93.0</ele><time>2026-05-02T13:15:15.006Z</time></trkpt><trkpt lat="45.3860814" lon="10.4852589"><ele>92.80000000000001</ele><time>2026-05-02T13:15:16.006Z</time></trkpt><trkpt lat="45.3861512" lon="10.4851557"><ele>92.6</ele><time>2026-05-02T13:15:17.006Z</time></trkpt><trkpt lat="45.3862232" lon="10.4850422"><ele>92.4</ele><time>2026-05-02T13:15:18.006Z</time></trkpt><trkpt lat="45.3862993" lon="10.4849244"><ele>92.19999999999999</ele><time>2026-05-02T13:15:19.006Z</time></trkpt><trkpt lat="45.3863779" lon="10.4848023"><ele>92.0</ele><time>2026-05-02T13:15:20.006Z</time></trkpt><trkpt lat="45.3864607" lon="10.484673"><ele>92.0</ele><time>2026-05-02T13:15:21.006Z</time></trkpt><trkpt lat="45.3865443" lon="10.4845373"><ele>92.0</ele><time>2026-05-02T13:15:22.006Z</time></trkpt><trkpt lat="45.38663" lon="10.4843984"><ele>92.0</ele><time>2026-05-02T13:15:23.006Z</time></trkpt><trkpt lat="45.3867148" lon="10.4842607"><ele>92.0</ele><time>2026-05-02T13:15:24.006Z</time></trkpt><trkpt lat="45.3867931" lon="10.4841309"><ele>92.0</ele><time>2026-05-02T13:15:25.006Z</time></trkpt><trkpt lat="45.3868652" lon="10.4840102"><ele>92.0</ele><time>2026-05-02T13:15:26.006Z</time></trkpt><trkpt lat="45.3869326" lon="10.4838983"><ele>92.0</ele><time>2026-05-02T13:15:27.007Z</time></trkpt><trkpt lat="45.386998" lon="10.4837986"><ele>92.0</ele><time>2026-05-02T13:15:28.006Z</time></trkpt><trkpt lat="45.3870559" lon="10.4837185"><ele>92.0</ele><time>2026-05-02T13:15:29.006Z</time></trkpt><trkpt lat="45.3871428" lon="10.4836484"><ele>92.0</ele><time>2026-05-02T13:15:31.007Z</time></trkpt><trkpt lat="45.3872109" lon="10.4837169"><ele>92.0</ele><time>2026-05-02T13:15:33.006Z</time></trkpt><trkpt lat="45.3872438" lon="10.4838587"><ele>92.0</ele><time>2026-05-02T13:15:35.006Z</time></trkpt><trkpt lat="45.3872301" lon="10.4840329"><ele>92.0</ele><time>2026-05-02T13:15:37.006Z</time></trkpt><trkpt lat="45.387218" lon="10.4841225"><ele>92.0</ele><time>2026-05-02T13:15:38.006Z</time></trkpt><trkpt lat="45.3872043" lon="10.4842179"><ele>92.0</ele><time>2026-05-02T13:15:39.006Z</time></trkpt><trkpt lat="45.3872046" lon="10.4843228"><ele>92.0</ele><time>2026-05-02T13:15:40.006Z</time></trkpt><trkpt lat="45.3872161" lon="10.4844319"><ele>92.0</ele><time>2026-05-02T13:15:41.007Z</time></trkpt><trkpt lat="45.3872374" lon="10.4845395"><ele>92.0</ele><time>2026-05-02T13:15:42.008Z</time></trkpt><trkpt lat="45.3872674" lon="10.484644"><ele>92.0</ele><time>2026-05-02T13:15:43.006Z</time></trkpt><trkpt lat="45.3873076" lon="10.4847332"><ele>92.0</ele><time>2026-05-02T13:15:44.006Z</time></trkpt><trkpt lat="45.3873563" lon="10.4848149"><ele>92.0</ele><time>2026-05-02T13:15:45.006Z</time></trkpt><trkpt lat="45.387408" lon="10.4848934"><ele>92.71428571428572</ele><time>2026-05-02T13:15:46.006Z</time></trkpt><trkpt lat="45.3874574" lon="10.4849717"><ele>93.42857142857142</ele><time>2026-05-02T13:15:47.006Z</time></trkpt><trkpt lat="45.3875087" lon="10.4850565"><ele>94.14285714285714</ele><time>2026-05-02T13:15:48.006Z</time></trkpt><trkpt lat="45.3875631" lon="10.4851333"><ele>94.85714285714286</ele><time>2026-05-02T13:15:49.007Z</time></trkpt><trkpt lat="45.3876239" lon="10.4851973"><ele>95.57142857142858</ele><time>2026-05-02T13:15:50.006Z</time></trkpt><trkpt lat="45.3876786" lon="10.4852695"><ele>96.28571428571428</ele><time>2026-05-02T13:15:51.006Z</time></trkpt><trkpt lat="45.3877246" lon="10.4853389"><ele>97.0</ele><time>2026-05-02T13:15:52.007Z</time></trkpt><trkpt lat="45.3877959" lon="10.4854328"><ele>97.39999999999999</ele><time>2026-05-02T13:15:54.006Z</time></trkpt><trkpt lat="45.3878423" lon="10.4855197"><ele>97.8</ele><time>2026-05-02T13:15:57.007Z</time></trkpt><trkpt lat="45.3879083" lon="10.4855593"><ele>98.2</ele><time>2026-05-02T13:15:59.007Z</time></trkpt><trkpt lat="45.38803" lon="10.4856091"><ele>98.6</ele><time>2026-05-02T13:16:01.006Z</time></trkpt><trkpt lat="45.388094" lon="10.4856419"><ele>99.0</ele><time>2026-05-02T13:16:02.007Z</time></trkpt><trkpt lat="45.3882097" lon="10.4857049"><ele>99.57142857142857</ele><time>2026-05-02T13:16:04.006Z</time></trkpt><trkpt lat="45.3882718" lon="10.4857378"><ele>100.14285714285714</ele><time>2026-05-02T13:16:05.006Z</time></trkpt><trkpt lat="45.388341" lon="10.4857687"><ele>100.71428571428571</ele><time>2026-05-02T13:16:06.006Z</time></trkpt><trkpt lat="45.3884132" lon="10.4857966"><ele>101.28571428571428</ele><time>2026-05-02T13:16:07.006Z</time></trkpt><trkpt lat="45.3884883" lon="10.4858205"><ele>101.85714285714286</ele><time>2026-05-02T13:16:08.006Z</time></trkpt><trkpt lat="45.3885641" lon="10.4858577"><ele>102.42857142857142</ele><time>2026-05-02T13:16:09.007Z</time></trkpt><trkpt lat="45.3886349" lon="10.4858935"><ele>103.0</ele><time>2026-05-02T13:16:10.007Z</time></trkpt><trkpt lat="45.3887117" lon="10.4859427"><ele>103.00000000000001</ele><time>2026-05-02T13:16:11.006Z</time></trkpt><trkpt lat="45.3887898" lon="10.4859964"><ele>103.0</ele><time>2026-05-02T13:16:12.007Z</time></trkpt><trkpt lat="45.3888663" lon="10.486059"><ele>103.0</ele><time>2026-05-02T13:16:13.006Z</time></trkpt><trkpt lat="45.3889452" lon="10.4861172"><ele>103.0</ele><time>2026-05-02T13:16:14.007Z</time></trkpt><trkpt lat="45.3890189" lon="10.4861677"><ele>103.00000000000001</ele><time>2026-05-02T13:16:15.007Z</time></trkpt><trkpt lat="45.389092" lon="10.4862026"><ele>103.0</ele><time>2026-05-02T13:16:16.008Z</time></trkpt><trkpt lat="45.3891652" lon="10.4862415"><ele>103.50000000000001</ele><time>2026-05-02T13:16:17.006Z</time></trkpt><trkpt lat="45.3892443" lon="10.4862751"><ele>104.0</ele><time>2026-05-02T13:16:18.006Z</time></trkpt><trkpt lat="45.3893255" lon="10.4863103"><ele>104.5</ele><time>2026-05-02T13:16:19.006Z</time></trkpt><trkpt lat="45.3894048" lon="10.4863611"><ele>105.0</ele><time>2026-05-02T13:16:20.007Z</time></trkpt><trkpt lat="45.3894822" lon="10.4864013"><ele>105.50000000000001</ele><time>2026-05-02T13:16:21.007Z</time></trkpt><trkpt lat="45.3895553" lon="10.4864419"><ele>106.0</ele><time>2026-05-02T13:16:22.007Z</time></trkpt><trkpt lat="45.3896228" lon="10.4864719"><ele>106.33333333333334</ele><time>2026-05-02T13:16:23.006Z</time></trkpt><trkpt lat="45.3896922" lon="10.486505"><ele>106.66666666666667</ele><time>2026-05-02T13:16:24.007Z</time></trkpt><trkpt lat="45.3897617" lon="10.4865429"><ele>107.0</ele><time>2026-05-02T13:16:25.007Z</time></trkpt><trkpt lat="45.3898338" lon="10.4866043"><ele>107.33333333333334</ele><time>2026-05-02T13:16:26.007Z</time></trkpt><trkpt lat="45.3899004" lon="10.4866713"><ele>107.66666666666667</ele><time>2026-05-02T13:16:27.006Z</time></trkpt><trkpt lat="45.3899615" lon="10.4867319"><ele>108.0</ele><time>2026-05-02T13:16:28.006Z</time></trkpt><trkpt lat="45.3900304" lon="10.4867917"><ele>108.0</ele><time>2026-05-02T13:16:29.006Z</time></trkpt><trkpt lat="45.3900969" lon="10.4868566"><ele>108.0</ele><time>2026-05-02T13:16:30.006Z</time></trkpt><trkpt lat="45.3901721" lon="10.4869165"><ele>108.0</ele><time>2026-05-02T13:16:31.006Z</time></trkpt><trkpt lat="45.3902322" lon="10.4869963"><ele>108.0</ele><time>2026-05-02T13:16:32.006Z</time></trkpt><trkpt lat="45.3903063" lon="10.4870553"><ele>108.0</ele><time>2026-05-02T13:16:33.008Z</time></trkpt><trkpt lat="45.3903746" lon="10.4871102"><ele>108.0</ele><time>2026-05-02T13:16:34.006Z</time></trkpt><trkpt lat="45.3904802" lon="10.4871712"><ele>109.0</ele><time>2026-05-02T13:16:36.006Z</time></trkpt><trkpt lat="45.3905512" lon="10.4872127"><ele>110.0</ele><time>2026-05-02T13:16:38.008Z</time></trkpt><trkpt lat="45.390631" lon="10.4872682"><ele>111.0</ele><time>2026-05-02T13:16:41.007Z</time></trkpt><trkpt lat="45.3907113" lon="10.4872887"><ele>112.0</ele><time>2026-05-02T13:16:43.007Z</time></trkpt><trkpt lat="45.3907882" lon="10.4873344"><ele>113.0</ele><time>2026-05-02T13:16:45.006Z</time></trkpt><trkpt lat="45.3908722" lon="10.4873818"><ele>114.0</ele><time>2026-05-02T13:16:47.006Z</time></trkpt><trkpt lat="45.3909294" lon="10.487441"><ele>114.0</ele><time>2026-05-02T13:16:48.006Z</time></trkpt><trkpt lat="45.3910378" lon="10.4875114"><ele>114.0</ele><time>2026-05-02T13:16:50.007Z</time></trkpt><trkpt lat="45.3911297" lon="10.4875247"><ele>114.0</ele><time>2026-05-02T13:16:52.006Z</time></trkpt><trkpt lat="45.3912015" lon="10.4874844"><ele>114.0</ele><time>2026-05-02T13:16:55.006Z</time></trkpt><trkpt lat="45.3912441" lon="10.4873618"><ele>114.0</ele><time>2026-05-02T13:16:57.007Z</time></trkpt><trkpt lat="45.3913073" lon="10.4872101"><ele>114.0</ele><time>2026-05-02T13:16:59.007Z</time></trkpt><trkpt lat="45.3913416" lon="10.4871315"><ele>114.0</ele><time>2026-05-02T13:17:00.007Z</time></trkpt><trkpt lat="45.3913736" lon="10.4870538"><ele>114.0</ele><time>2026-05-02T13:17:01.006Z</time></trkpt><trkpt lat="45.3914022" lon="10.4869716"><ele>114.0</ele><time>2026-05-02T13:17:02.007Z</time></trkpt><trkpt lat="45.3914652" lon="10.4868338"><ele>114.0</ele><time>2026-05-02T13:17:04.006Z</time></trkpt><trkpt lat="45.3915212" lon="10.4867195"><ele>114.0</ele><time>2026-05-02T13:17:06.006Z</time></trkpt><trkpt lat="45.3915774" lon="10.4866022"><ele>114.0</ele><time>2026-05-02T13:17:08.006Z</time></trkpt><trkpt lat="45.3916495" lon="10.4864644"><ele>114.0</ele><time>2026-05-02T13:17:10.006Z</time></trkpt><trkpt lat="45.3917258" lon="10.4863254"><ele>114.0</ele><time>2026-05-02T13:17:12.007Z</time></trkpt><trkpt lat="45.3918084" lon="10.4861766"><ele>114.0</ele><time>2026-05-02T13:17:14.007Z</time></trkpt><trkpt lat="45.3918546" lon="10.4860891"><ele>111.6</ele><time>2026-05-02T13:17:15.008Z</time></trkpt><trkpt lat="45.3919071" lon="10.4859879"><ele>109.2</ele><time>2026-05-02T13:17:16.006Z</time></trkpt><trkpt lat="45.39196" lon="10.4858773"><ele>106.8</ele><time>2026-05-02T13:17:17.007Z</time></trkpt><trkpt lat="45.3920175" lon="10.4857595"><ele>104.39999999999999</ele><time>2026-05-02T13:17:18.007Z</time></trkpt><trkpt lat="45.3920814" lon="10.4856337"><ele>102.0</ele><time>2026-05-02T13:17:19.006Z</time></trkpt><trkpt lat="45.3921461" lon="10.4855118"><ele>101.8</ele><time>2026-05-02T13:17:20.007Z</time></trkpt><trkpt lat="45.3922106" lon="10.4853887"><ele>101.6</ele><time>2026-05-02T13:17:21.006Z</time></trkpt><trkpt lat="45.392274" lon="10.4852696"><ele>101.39999999999999</ele><time>2026-05-02T13:17:22.007Z</time></trkpt><trkpt lat="45.3923262" lon="10.4851621"><ele>101.19999999999999</ele><time>2026-05-02T13:17:23.006Z</time></trkpt><trkpt lat="45.3923705" lon="10.4850712"><ele>101.0</ele><time>2026-05-02T13:17:24.006Z</time></trkpt><trkpt lat="45.3924135" lon="10.4849871"><ele>100.99999999999999</ele><time>2026-05-02T13:17:25.007Z</time></trkpt><trkpt lat="45.3924592" lon="10.4849038"><ele>101.0</ele><time>2026-05-02T13:17:26.007Z</time></trkpt><trkpt lat="45.3925015" lon="10.4848224"><ele>101.0</ele><time>2026-05-02T13:17:27.006Z</time></trkpt><trkpt lat="45.3925425" lon="10.4847462"><ele>101.0</ele><time>2026-05-02T13:17:28.006Z</time></trkpt><trkpt lat="45.3926051" lon="10.4846189"><ele>100.99999999999999</ele><time>2026-05-02T13:17:30.006Z</time></trkpt><trkpt lat="45.3926448" lon="10.4845437"><ele>101.0</ele><time>2026-05-02T13:17:32.007Z</time></trkpt><trkpt lat="45.3926852" lon="10.4844725"><ele>100.99999999999999</ele><time>2026-05-02T13:17:48.006Z</time></trkpt><trkpt lat="45.392743" lon="10.484357"><ele>101.0</ele><time>2026-05-02T13:17:50.007Z</time></trkpt><trkpt lat="45.3927842" lon="10.4842837"><ele>101.0</ele><time>2026-05-02T13:17:51.006Z</time></trkpt><trkpt lat="45.3928267" lon="10.4841998"><ele>101.0</ele><time>2026-05-02T13:17:52.007Z</time></trkpt><trkpt lat="45.3928716" lon="10.4841141"><ele>100.99999999999999</ele><time>2026-05-02T13:17:53.007Z</time></trkpt><trkpt lat="45.3929165" lon="10.4840296"><ele>101.0</ele><time>2026-05-02T13:17:54.006Z</time></trkpt><trkpt lat="45.3929678" lon="10.4839382"><ele>101.4</ele><time>2026-05-02T13:17:55.006Z</time></trkpt><trkpt lat="45.3930222" lon="10.4838417"><ele>101.8</ele><time>2026-05-02T13:17:56.006Z</time></trkpt><trkpt lat="45.3930789" lon="10.4837328"><ele>102.2</ele><time>2026-05-02T13:17:57.008Z</time></trkpt><trkpt lat="45.3931416" lon="10.4836209"><ele>102.60000000000001</ele><time>2026-05-02T13:17:58.006Z</time></trkpt><trkpt lat="45.3932056" lon="10.4835104"><ele>103.0</ele><time>2026-05-02T13:17:59.007Z</time></trkpt><trkpt lat="45.3932596" lon="10.4834113"><ele>103.00000000000001</ele><time>2026-05-02T13:18:00.007Z</time></trkpt><trkpt lat="45.3933081" lon="10.4833302"><ele>103.0</ele><time>2026-05-02T13:18:01.006Z</time></trkpt><trkpt lat="45.393353" lon="10.4832476"><ele>103.0</ele><time>2026-05-02T13:18:02.006Z</time></trkpt><trkpt lat="45.3933958" lon="10.4831718"><ele>103.0</ele><time>2026-05-02T13:18:03.007Z</time></trkpt><trkpt lat="45.3934706" lon="10.4830445"><ele>103.00000000000001</ele><time>2026-05-02T13:18:05.006Z</time></trkpt><trkpt lat="45.393514" lon="10.4829612"><ele>103.0</ele><time>2026-05-02T13:18:06.006Z</time></trkpt><trkpt lat="45.3935628" lon="10.4828756"><ele>103.00000000000001</ele><time>2026-05-02T13:18:07.006Z</time></trkpt><trkpt lat="45.3936025" lon="10.4827974"><ele>103.0</ele><time>2026-05-02T13:18:08.006Z</time></trkpt><trkpt lat="45.3936757" lon="10.4826917"><ele>103.0</ele><time>2026-05-02T13:18:10.006Z</time></trkpt><trkpt lat="45.3937249" lon="10.4826225"><ele>103.0</ele><time>2026-05-02T13:18:13.006Z</time></trkpt><trkpt lat="45.3937818" lon="10.4825511"><ele>103.00000000000001</ele><time>2026-05-02T13:18:27.006Z</time></trkpt><trkpt lat="45.3938869" lon="10.4824579"><ele>103.0</ele><time>2026-05-02T13:18:29.006Z</time></trkpt><trkpt lat="45.39396" lon="10.4824634"><ele>103.2</ele><time>2026-05-02T13:18:30.007Z</time></trkpt><trkpt lat="45.3940272" lon="10.4825191"><ele>103.4</ele><time>2026-05-02T13:18:31.006Z</time></trkpt><trkpt lat="45.3940777" lon="10.482618"><ele>103.60000000000001</ele><time>2026-05-02T13:18:32.006Z</time></trkpt><trkpt lat="45.39411" lon="10.4827418"><ele>103.80000000000001</ele><time>2026-05-02T13:18:33.006Z</time></trkpt><trkpt lat="45.3941376" lon="10.4828811"><ele>104.0</ele><time>2026-05-02T13:18:34.006Z</time></trkpt><trkpt lat="45.3941628" lon="10.4830349"><ele>104.0</ele><time>2026-05-02T13:18:35.006Z</time></trkpt><trkpt lat="45.3941858" lon="10.4831981"><ele>104.0</ele><time>2026-05-02T13:18:36.006Z</time></trkpt><trkpt lat="45.3942009" lon="10.4833533"><ele>104.0</ele><time>2026-05-02T13:18:37.007Z</time></trkpt><trkpt lat="45.3942176" lon="10.4835069"><ele>104.0</ele><time>2026-05-02T13:18:38.007Z</time></trkpt><trkpt lat="45.3942369" lon="10.4836518"><ele>104.0</ele><time>2026-05-02T13:18:39.007Z</time></trkpt><trkpt lat="45.3942516" lon="10.4837961"><ele>103.99999999999999</ele><time>2026-05-02T13:18:40.007Z</time></trkpt><trkpt lat="45.3942679" lon="10.4839374"><ele>104.0</ele><time>2026-05-02T13:18:41.006Z</time></trkpt><trkpt lat="45.3942835" lon="10.4840732"><ele>104.0</ele><time>2026-05-02T13:18:42.006Z</time></trkpt><trkpt lat="45.3942973" lon="10.4841974"><ele>104.0</ele><time>2026-05-02T13:18:43.007Z</time></trkpt><trkpt lat="45.3943078" lon="10.4843113"><ele>103.99999999999999</ele><time>2026-05-02T13:18:44.007Z</time></trkpt><trkpt lat="45.3943179" lon="10.4844113"><ele>104.0</ele><time>2026-05-02T13:18:45.007Z</time></trkpt><trkpt lat="45.3943272" lon="10.4845036"><ele>104.0</ele><time>2026-05-02T13:18:46.006Z</time></trkpt><trkpt lat="45.3943163" lon="10.4846508"><ele>105.0</ele><time>2026-05-02T13:18:48.006Z</time></trkpt><trkpt lat="45.3942836" lon="10.4847533"><ele>105.0</ele><time>2026-05-02T13:18:50.006Z</time></trkpt><trkpt lat="45.3943167" lon="10.4848525"><ele>105.0</ele><time>2026-05-02T13:18:53.007Z</time></trkpt></trkseg></trk></gpx>